<?xml version="1.0" encoding="UTF-8" standalone="no" ?>
<gpx xmlns="http://www.topografix.com/GPX/1/1" xmlns:xsi="http://www.w3.org/2001/XMLSchema-instance" xsi:schemaLocation="http://www.topografix.com/GPX/1/1 http://www.topografix.com/GPX/1/1/gpx.xsd" version="1.1" creator="VisuGPX - https://www.visugpx.com">
  <metadata>
    <name>Pic de Bataillance - Marty Caberrou</name>
    <desc><![CDATA[Ski de randonnée, traversée du Pic de Bataillence et Marty Caberrou.]]></desc>
  </metadata>
  <trk>
    <name><![CDATA[Pic de Bataillance - Marty Caberrou_1]]></name>
    <trkseg>
      <trkpt lat="42.74786" lon="0.19198">
        <ele>1818</ele>
        <time>2019-02-26T08:27:18Z</time>
      </trkpt>
      <trkpt lat="42.74777" lon="0.19199">
        <ele>1818</ele>
        <time>2019-02-26T08:28:09Z</time>
      </trkpt>
      <trkpt lat="42.74769" lon="0.19204">
        <ele>1825</ele>
        <time>2019-02-26T08:28:29Z</time>
      </trkpt>
      <trkpt lat="42.7476" lon="0.19207">
        <ele>1826</ele>
        <time>2019-02-26T08:28:41Z</time>
      </trkpt>
      <trkpt lat="42.74751" lon="0.19212">
        <ele>1828</ele>
        <time>2019-02-26T08:28:53Z</time>
      </trkpt>
      <trkpt lat="42.74742" lon="0.19219">
        <ele>1828</ele>
        <time>2019-02-26T08:29:06Z</time>
      </trkpt>
      <trkpt lat="42.74736" lon="0.19228">
        <ele>1830</ele>
        <time>2019-02-26T08:29:15Z</time>
      </trkpt>
      <trkpt lat="42.74729" lon="0.19236">
        <ele>1831</ele>
        <time>2019-02-26T08:29:24Z</time>
      </trkpt>
      <trkpt lat="42.74721" lon="0.19243">
        <ele>1833</ele>
        <time>2019-02-26T08:29:40Z</time>
      </trkpt>
      <trkpt lat="42.74708" lon="0.19261">
        <ele>1837</ele>
        <time>2019-02-26T08:30:14Z</time>
      </trkpt>
      <trkpt lat="42.74704" lon="0.19272">
        <ele>1839</ele>
        <time>2019-02-26T08:30:27Z</time>
      </trkpt>
      <trkpt lat="42.74704" lon="0.19278">
        <ele>1839</ele>
        <time>2019-02-26T08:30:33Z</time>
      </trkpt>
      <trkpt lat="42.74707" lon="0.1929">
        <ele>1839</ele>
        <time>2019-02-26T08:30:45Z</time>
      </trkpt>
      <trkpt lat="42.74709" lon="0.19297">
        <ele>1842</ele>
        <time>2019-02-26T08:30:56Z</time>
      </trkpt>
      <trkpt lat="42.74707" lon="0.1931">
        <ele>1844</ele>
        <time>2019-02-26T08:31:27Z</time>
      </trkpt>
      <trkpt lat="42.74703" lon="0.19315">
        <ele>1851</ele>
        <time>2019-02-26T08:32:07Z</time>
      </trkpt>
      <trkpt lat="42.74696" lon="0.19324">
        <ele>1854</ele>
        <time>2019-02-26T08:32:29Z</time>
      </trkpt>
      <trkpt lat="42.74692" lon="0.19335">
        <ele>1858</ele>
        <time>2019-02-26T08:32:57Z</time>
      </trkpt>
      <trkpt lat="42.74684" lon="0.19342">
        <ele>1862</ele>
        <time>2019-02-26T08:33:21Z</time>
      </trkpt>
      <trkpt lat="42.74676" lon="0.19348">
        <ele>1866</ele>
        <time>2019-02-26T08:33:48Z</time>
      </trkpt>
      <trkpt lat="42.74673" lon="0.19354">
        <ele>1869</ele>
        <time>2019-02-26T08:34:10Z</time>
      </trkpt>
      <trkpt lat="42.74672" lon="0.19356">
        <ele>1870</ele>
        <time>2019-02-26T08:34:16Z</time>
      </trkpt>
      <trkpt lat="42.74669" lon="0.19356">
        <ele>1872</ele>
        <time>2019-02-26T08:34:22Z</time>
      </trkpt>
      <trkpt lat="42.74661" lon="0.19364">
        <ele>1878</ele>
        <time>2019-02-26T08:34:56Z</time>
      </trkpt>
      <trkpt lat="42.74655" lon="0.19373">
        <ele>1880</ele>
        <time>2019-02-26T08:35:14Z</time>
      </trkpt>
      <trkpt lat="42.74646" lon="0.19379">
        <ele>1884</ele>
        <time>2019-02-26T08:35:35Z</time>
      </trkpt>
      <trkpt lat="42.74641" lon="0.19389">
        <ele>1884</ele>
        <time>2019-02-26T08:35:45Z</time>
      </trkpt>
      <trkpt lat="42.74632" lon="0.19393">
        <ele>1885</ele>
        <time>2019-02-26T08:35:58Z</time>
      </trkpt>
      <trkpt lat="42.74623" lon="0.194">
        <ele>1887</ele>
        <time>2019-02-26T08:36:09Z</time>
      </trkpt>
      <trkpt lat="42.74614" lon="0.19404">
        <ele>1890</ele>
        <time>2019-02-26T08:36:24Z</time>
      </trkpt>
      <trkpt lat="42.74597" lon="0.19413">
        <ele>1897</ele>
        <time>2019-02-26T08:37:07Z</time>
      </trkpt>
      <trkpt lat="42.74588" lon="0.19407">
        <ele>1899</ele>
        <time>2019-02-26T08:37:23Z</time>
      </trkpt>
      <trkpt lat="42.7458" lon="0.19402">
        <ele>1902</ele>
        <time>2019-02-26T08:37:41Z</time>
      </trkpt>
      <trkpt lat="42.74573" lon="0.1941">
        <ele>1904</ele>
        <time>2019-02-26T08:37:50Z</time>
      </trkpt>
      <trkpt lat="42.74564" lon="0.19409">
        <ele>1906</ele>
        <time>2019-02-26T08:38:13Z</time>
      </trkpt>
      <trkpt lat="42.74556" lon="0.19403">
        <ele>1912</ele>
        <time>2019-02-26T08:38:41Z</time>
      </trkpt>
      <trkpt lat="42.74547" lon="0.19402">
        <ele>1914</ele>
        <time>2019-02-26T08:39:02Z</time>
      </trkpt>
      <trkpt lat="42.74538" lon="0.19403">
        <ele>1916</ele>
        <time>2019-02-26T08:39:17Z</time>
      </trkpt>
      <trkpt lat="42.74529" lon="0.19407">
        <ele>1918</ele>
        <time>2019-02-26T08:39:29Z</time>
      </trkpt>
      <trkpt lat="42.7452" lon="0.19405">
        <ele>1920</ele>
        <time>2019-02-26T08:39:46Z</time>
      </trkpt>
      <trkpt lat="42.74515" lon="0.19394">
        <ele>1923</ele>
        <time>2019-02-26T08:40:05Z</time>
      </trkpt>
      <trkpt lat="42.74497" lon="0.19386">
        <ele>1927</ele>
        <time>2019-02-26T08:40:32Z</time>
      </trkpt>
      <trkpt lat="42.74489" lon="0.1938">
        <ele>1927</ele>
        <time>2019-02-26T08:40:45Z</time>
      </trkpt>
      <trkpt lat="42.7449" lon="0.19367">
        <ele>1929</ele>
        <time>2019-02-26T08:40:58Z</time>
      </trkpt>
      <trkpt lat="42.74482" lon="0.19362">
        <ele>1932</ele>
        <time>2019-02-26T08:41:18Z</time>
      </trkpt>
      <trkpt lat="42.74482" lon="0.19362">
        <ele>1932</ele>
        <time>2019-02-26T08:41:19Z</time>
      </trkpt>
      <trkpt lat="42.74482" lon="0.19363">
        <ele>1933</ele>
        <time>2019-02-26T08:41:20Z</time>
      </trkpt>
      <trkpt lat="42.74481" lon="0.19363">
        <ele>1934</ele>
        <time>2019-02-26T08:41:23Z</time>
      </trkpt>
      <trkpt lat="42.74481" lon="0.19363">
        <ele>1934</ele>
        <time>2019-02-26T08:41:25Z</time>
      </trkpt>
      <trkpt lat="42.74481" lon="0.19364">
        <ele>1934</ele>
        <time>2019-02-26T08:41:28Z</time>
      </trkpt>
      <trkpt lat="42.74481" lon="0.19364">
        <ele>1934</ele>
        <time>2019-02-26T08:41:30Z</time>
      </trkpt>
      <trkpt lat="42.7448" lon="0.19365">
        <ele>1934</ele>
        <time>2019-02-26T08:41:32Z</time>
      </trkpt>
      <trkpt lat="42.7448" lon="0.19365">
        <ele>1934</ele>
        <time>2019-02-26T08:41:33Z</time>
      </trkpt>
      <trkpt lat="42.7448" lon="0.19365">
        <ele>1933</ele>
        <time>2019-02-26T08:41:35Z</time>
      </trkpt>
      <trkpt lat="42.7448" lon="0.19366">
        <ele>1933</ele>
        <time>2019-02-26T08:41:37Z</time>
      </trkpt>
      <trkpt lat="42.74479" lon="0.19366">
        <ele>1933</ele>
        <time>2019-02-26T08:41:40Z</time>
      </trkpt>
      <trkpt lat="42.74479" lon="0.19367">
        <ele>1933</ele>
        <time>2019-02-26T08:41:42Z</time>
      </trkpt>
      <trkpt lat="42.74479" lon="0.19367">
        <ele>1933</ele>
        <time>2019-02-26T08:41:45Z</time>
      </trkpt>
      <trkpt lat="42.74479" lon="0.19367">
        <ele>1932</ele>
        <time>2019-02-26T08:41:46Z</time>
      </trkpt>
      <trkpt lat="42.74478" lon="0.19368">
        <ele>1932</ele>
        <time>2019-02-26T08:41:48Z</time>
      </trkpt>
      <trkpt lat="42.74475" lon="0.19373">
        <ele>1932</ele>
        <time>2019-02-26T08:41:49Z</time>
      </trkpt>
      <trkpt lat="42.74478" lon="0.19362">
        <ele>1933</ele>
        <time>2019-02-26T08:42:29Z</time>
      </trkpt>
      <trkpt lat="42.74487" lon="0.19364">
        <ele>1933</ele>
        <time>2019-02-26T08:43:46Z</time>
      </trkpt>
      <trkpt lat="42.74478" lon="0.19367">
        <ele>1932</ele>
        <time>2019-02-26T08:44:25Z</time>
      </trkpt>
      <trkpt lat="42.74486" lon="0.19361">
        <ele>1933</ele>
        <time>2019-02-26T08:45:37Z</time>
      </trkpt>
      <trkpt lat="42.74477" lon="0.19358">
        <ele>1935</ele>
        <time>2019-02-26T08:46:52Z</time>
      </trkpt>
      <trkpt lat="42.74467" lon="0.19359">
        <ele>1938</ele>
        <time>2019-02-26T08:47:10Z</time>
      </trkpt>
      <trkpt lat="42.74458" lon="0.19357">
        <ele>1940</ele>
        <time>2019-02-26T08:47:22Z</time>
      </trkpt>
      <trkpt lat="42.74449" lon="0.19355">
        <ele>1941</ele>
        <time>2019-02-26T08:47:34Z</time>
      </trkpt>
      <trkpt lat="42.7444" lon="0.19353">
        <ele>1943</ele>
        <time>2019-02-26T08:47:47Z</time>
      </trkpt>
      <trkpt lat="42.74431" lon="0.19354">
        <ele>1946</ele>
        <time>2019-02-26T08:47:59Z</time>
      </trkpt>
      <trkpt lat="42.74422" lon="0.19353">
        <ele>1946</ele>
        <time>2019-02-26T08:48:13Z</time>
      </trkpt>
      <trkpt lat="42.74413" lon="0.1935">
        <ele>1949</ele>
        <time>2019-02-26T08:48:26Z</time>
      </trkpt>
      <trkpt lat="42.74404" lon="0.19348">
        <ele>1952</ele>
        <time>2019-02-26T08:48:39Z</time>
      </trkpt>
      <trkpt lat="42.74394" lon="0.19343">
        <ele>1954</ele>
        <time>2019-02-26T08:49:06Z</time>
      </trkpt>
      <trkpt lat="42.74385" lon="0.19342">
        <ele>1957</ele>
        <time>2019-02-26T08:49:25Z</time>
      </trkpt>
      <trkpt lat="42.74376" lon="0.19337">
        <ele>1959</ele>
        <time>2019-02-26T08:49:37Z</time>
      </trkpt>
      <trkpt lat="42.74368" lon="0.19332">
        <ele>1962</ele>
        <time>2019-02-26T08:49:59Z</time>
      </trkpt>
      <trkpt lat="42.74359" lon="0.19332">
        <ele>1963</ele>
        <time>2019-02-26T08:50:10Z</time>
      </trkpt>
      <trkpt lat="42.7435" lon="0.19329">
        <ele>1965</ele>
        <time>2019-02-26T08:50:22Z</time>
      </trkpt>
      <trkpt lat="42.7434" lon="0.19328">
        <ele>1967</ele>
        <time>2019-02-26T08:50:33Z</time>
      </trkpt>
      <trkpt lat="42.74331" lon="0.19329">
        <ele>1969</ele>
        <time>2019-02-26T08:50:43Z</time>
      </trkpt>
      <trkpt lat="42.74322" lon="0.19328">
        <ele>1971</ele>
        <time>2019-02-26T08:50:56Z</time>
      </trkpt>
      <trkpt lat="42.74314" lon="0.19322">
        <ele>1973</ele>
        <time>2019-02-26T08:51:11Z</time>
      </trkpt>
      <trkpt lat="42.74304" lon="0.19321">
        <ele>1976</ele>
        <time>2019-02-26T08:51:25Z</time>
      </trkpt>
      <trkpt lat="42.74295" lon="0.19322">
        <ele>1978</ele>
        <time>2019-02-26T08:51:37Z</time>
      </trkpt>
      <trkpt lat="42.74287" lon="0.19315">
        <ele>1980</ele>
        <time>2019-02-26T08:51:50Z</time>
      </trkpt>
      <trkpt lat="42.74278" lon="0.19313">
        <ele>1982</ele>
        <time>2019-02-26T08:52:05Z</time>
      </trkpt>
      <trkpt lat="42.7427" lon="0.19307">
        <ele>1984</ele>
        <time>2019-02-26T08:52:21Z</time>
      </trkpt>
      <trkpt lat="42.7426" lon="0.19308">
        <ele>1986</ele>
        <time>2019-02-26T08:52:29Z</time>
      </trkpt>
      <trkpt lat="42.74251" lon="0.19304">
        <ele>1987</ele>
        <time>2019-02-26T08:52:39Z</time>
      </trkpt>
      <trkpt lat="42.74242" lon="0.19304">
        <ele>1988</ele>
        <time>2019-02-26T08:52:51Z</time>
      </trkpt>
      <trkpt lat="42.74232" lon="0.19304">
        <ele>1991</ele>
        <time>2019-02-26T08:53:09Z</time>
      </trkpt>
      <trkpt lat="42.74225" lon="0.19297">
        <ele>1995</ele>
        <time>2019-02-26T08:53:26Z</time>
      </trkpt>
      <trkpt lat="42.74207" lon="0.19299">
        <ele>2003</ele>
        <time>2019-02-26T08:54:20Z</time>
      </trkpt>
      <trkpt lat="42.74198" lon="0.19303">
        <ele>2006</ele>
        <time>2019-02-26T08:54:35Z</time>
      </trkpt>
      <trkpt lat="42.74189" lon="0.19305">
        <ele>2008</ele>
        <time>2019-02-26T08:54:52Z</time>
      </trkpt>
      <trkpt lat="42.7418" lon="0.19308">
        <ele>2010</ele>
        <time>2019-02-26T08:55:10Z</time>
      </trkpt>
      <trkpt lat="42.74179" lon="0.19295">
        <ele>2013</ele>
        <time>2019-02-26T08:55:40Z</time>
      </trkpt>
      <trkpt lat="42.74179" lon="0.19294">
        <ele>2013</ele>
        <time>2019-02-26T08:55:41Z</time>
      </trkpt>
      <trkpt lat="42.7418" lon="0.19281">
        <ele>2016</ele>
        <time>2019-02-26T08:55:59Z</time>
      </trkpt>
      <trkpt lat="42.74168" lon="0.19261">
        <ele>2020</ele>
        <time>2019-02-26T08:56:27Z</time>
      </trkpt>
      <trkpt lat="42.74175" lon="0.19252">
        <ele>2022</ele>
        <time>2019-02-26T08:56:42Z</time>
      </trkpt>
      <trkpt lat="42.74176" lon="0.19239">
        <ele>2024</ele>
        <time>2019-02-26T08:56:55Z</time>
      </trkpt>
      <trkpt lat="42.74185" lon="0.19231">
        <ele>2027</ele>
        <time>2019-02-26T08:57:07Z</time>
      </trkpt>
      <trkpt lat="42.74194" lon="0.1923">
        <ele>2027</ele>
        <time>2019-02-26T08:57:12Z</time>
      </trkpt>
      <trkpt lat="42.74192" lon="0.19231">
        <ele>2030</ele>
        <time>2019-02-26T09:04:27Z</time>
      </trkpt>
      <trkpt lat="42.74183" lon="0.19231">
        <ele>2032</ele>
        <time>2019-02-26T09:08:41Z</time>
      </trkpt>
      <trkpt lat="42.74178" lon="0.19242">
        <ele>2035</ele>
        <time>2019-02-26T09:09:05Z</time>
      </trkpt>
      <trkpt lat="42.74174" lon="0.19267">
        <ele>2038</ele>
        <time>2019-02-26T09:09:43Z</time>
      </trkpt>
      <trkpt lat="42.74167" lon="0.19274">
        <ele>2041</ele>
        <time>2019-02-26T09:10:25Z</time>
      </trkpt>
      <trkpt lat="42.74164" lon="0.19277">
        <ele>2041</ele>
        <time>2019-02-26T09:10:32Z</time>
      </trkpt>
      <trkpt lat="42.74163" lon="0.19279">
        <ele>2041</ele>
        <time>2019-02-26T09:10:37Z</time>
      </trkpt>
      <trkpt lat="42.74161" lon="0.19276">
        <ele>2043</ele>
        <time>2019-02-26T09:10:48Z</time>
      </trkpt>
      <trkpt lat="42.74162" lon="0.19263">
        <ele>2045</ele>
        <time>2019-02-26T09:11:10Z</time>
      </trkpt>
      <trkpt lat="42.74161" lon="0.19256">
        <ele>2046</ele>
        <time>2019-02-26T09:11:52Z</time>
      </trkpt>
      <trkpt lat="42.7416" lon="0.19253">
        <ele>2046</ele>
        <time>2019-02-26T09:12:08Z</time>
      </trkpt>
      <trkpt lat="42.74159" lon="0.19256">
        <ele>2046</ele>
        <time>2019-02-26T09:12:55Z</time>
      </trkpt>
      <trkpt lat="42.74159" lon="0.1926">
        <ele>2046</ele>
        <time>2019-02-26T09:13:03Z</time>
      </trkpt>
      <trkpt lat="42.74156" lon="0.19267">
        <ele>2048</ele>
        <time>2019-02-26T09:15:34Z</time>
      </trkpt>
      <trkpt lat="42.74152" lon="0.19256">
        <ele>2052</ele>
        <time>2019-02-26T09:16:26Z</time>
      </trkpt>
      <trkpt lat="42.74151" lon="0.1925">
        <ele>2052</ele>
        <time>2019-02-26T09:16:39Z</time>
      </trkpt>
      <trkpt lat="42.74147" lon="0.19259">
        <ele>2055</ele>
        <time>2019-02-26T09:17:06Z</time>
      </trkpt>
      <trkpt lat="42.74142" lon="0.19248">
        <ele>2059</ele>
        <time>2019-02-26T09:17:39Z</time>
      </trkpt>
      <trkpt lat="42.74141" lon="0.19236">
        <ele>2062</ele>
        <time>2019-02-26T09:17:59Z</time>
      </trkpt>
      <trkpt lat="42.74143" lon="0.19223">
        <ele>2066</ele>
        <time>2019-02-26T09:18:19Z</time>
      </trkpt>
      <trkpt lat="42.74135" lon="0.19232">
        <ele>2067</ele>
        <time>2019-02-26T09:18:41Z</time>
      </trkpt>
      <trkpt lat="42.74128" lon="0.19241">
        <ele>2070</ele>
        <time>2019-02-26T09:18:58Z</time>
      </trkpt>
      <trkpt lat="42.74123" lon="0.19251">
        <ele>2073</ele>
        <time>2019-02-26T09:19:14Z</time>
      </trkpt>
      <trkpt lat="42.74121" lon="0.19256">
        <ele>2074</ele>
        <time>2019-02-26T09:19:20Z</time>
      </trkpt>
      <trkpt lat="42.7412" lon="0.19258">
        <ele>2074</ele>
        <time>2019-02-26T09:19:23Z</time>
      </trkpt>
      <trkpt lat="42.74119" lon="0.1926">
        <ele>2074</ele>
        <time>2019-02-26T09:19:26Z</time>
      </trkpt>
      <trkpt lat="42.74116" lon="0.19268">
        <ele>2076</ele>
        <time>2019-02-26T09:19:38Z</time>
      </trkpt>
      <trkpt lat="42.74115" lon="0.19271">
        <ele>2077</ele>
        <time>2019-02-26T09:19:46Z</time>
      </trkpt>
      <trkpt lat="42.74114" lon="0.19273">
        <ele>2078</ele>
        <time>2019-02-26T09:19:49Z</time>
      </trkpt>
      <trkpt lat="42.74114" lon="0.19276">
        <ele>2078</ele>
        <time>2019-02-26T09:19:52Z</time>
      </trkpt>
      <trkpt lat="42.74113" lon="0.19278">
        <ele>2080</ele>
        <time>2019-02-26T09:19:55Z</time>
      </trkpt>
      <trkpt lat="42.74111" lon="0.19281">
        <ele>2081</ele>
        <time>2019-02-26T09:19:58Z</time>
      </trkpt>
      <trkpt lat="42.74109" lon="0.19285">
        <ele>2082</ele>
        <time>2019-02-26T09:20:06Z</time>
      </trkpt>
      <trkpt lat="42.74108" lon="0.19287">
        <ele>2085</ele>
        <time>2019-02-26T09:20:10Z</time>
      </trkpt>
      <trkpt lat="42.74107" lon="0.19289">
        <ele>2085</ele>
        <time>2019-02-26T09:20:14Z</time>
      </trkpt>
      <trkpt lat="42.74105" lon="0.19291">
        <ele>2085</ele>
        <time>2019-02-26T09:20:17Z</time>
      </trkpt>
      <trkpt lat="42.74103" lon="0.19292">
        <ele>2085</ele>
        <time>2019-02-26T09:20:20Z</time>
      </trkpt>
      <trkpt lat="42.741" lon="0.19296">
        <ele>2086</ele>
        <time>2019-02-26T09:20:26Z</time>
      </trkpt>
      <trkpt lat="42.74098" lon="0.19297">
        <ele>2086</ele>
        <time>2019-02-26T09:20:29Z</time>
      </trkpt>
      <trkpt lat="42.74095" lon="0.193">
        <ele>2087</ele>
        <time>2019-02-26T09:20:35Z</time>
      </trkpt>
      <trkpt lat="42.74093" lon="0.19302">
        <ele>2087</ele>
        <time>2019-02-26T09:20:49Z</time>
      </trkpt>
      <trkpt lat="42.74089" lon="0.19304">
        <ele>2088</ele>
        <time>2019-02-26T09:20:55Z</time>
      </trkpt>
      <trkpt lat="42.74087" lon="0.19305">
        <ele>2089</ele>
        <time>2019-02-26T09:20:57Z</time>
      </trkpt>
      <trkpt lat="42.74085" lon="0.19306">
        <ele>2089</ele>
        <time>2019-02-26T09:20:59Z</time>
      </trkpt>
      <trkpt lat="42.74081" lon="0.19308">
        <ele>2089</ele>
        <time>2019-02-26T09:21:05Z</time>
      </trkpt>
      <trkpt lat="42.74079" lon="0.19309">
        <ele>2089</ele>
        <time>2019-02-26T09:21:08Z</time>
      </trkpt>
      <trkpt lat="42.74077" lon="0.1931">
        <ele>2089</ele>
        <time>2019-02-26T09:21:11Z</time>
      </trkpt>
      <trkpt lat="42.74075" lon="0.19311">
        <ele>2089</ele>
        <time>2019-02-26T09:21:14Z</time>
      </trkpt>
      <trkpt lat="42.74065" lon="0.19315">
        <ele>2091</ele>
        <time>2019-02-26T09:21:29Z</time>
      </trkpt>
      <trkpt lat="42.74063" lon="0.19316">
        <ele>2091</ele>
        <time>2019-02-26T09:21:32Z</time>
      </trkpt>
      <trkpt lat="42.74059" lon="0.19318">
        <ele>2092</ele>
        <time>2019-02-26T09:21:49Z</time>
      </trkpt>
      <trkpt lat="42.74058" lon="0.19319">
        <ele>2092</ele>
        <time>2019-02-26T09:21:53Z</time>
      </trkpt>
      <trkpt lat="42.74057" lon="0.19317">
        <ele>2093</ele>
        <time>2019-02-26T09:22:00Z</time>
      </trkpt>
      <trkpt lat="42.74057" lon="0.19309">
        <ele>2095</ele>
        <time>2019-02-26T09:22:09Z</time>
      </trkpt>
      <trkpt lat="42.74057" lon="0.19307">
        <ele>2097</ele>
        <time>2019-02-26T09:22:12Z</time>
      </trkpt>
      <trkpt lat="42.74057" lon="0.19303">
        <ele>2097</ele>
        <time>2019-02-26T09:22:16Z</time>
      </trkpt>
      <trkpt lat="42.74058" lon="0.19301">
        <ele>2098</ele>
        <time>2019-02-26T09:22:19Z</time>
      </trkpt>
      <trkpt lat="42.74058" lon="0.19298">
        <ele>2097</ele>
        <time>2019-02-26T09:22:22Z</time>
      </trkpt>
      <trkpt lat="42.74059" lon="0.1929">
        <ele>2100</ele>
        <time>2019-02-26T09:22:31Z</time>
      </trkpt>
      <trkpt lat="42.74059" lon="0.19288">
        <ele>2099</ele>
        <time>2019-02-26T09:22:34Z</time>
      </trkpt>
      <trkpt lat="42.74059" lon="0.19285">
        <ele>2100</ele>
        <time>2019-02-26T09:22:37Z</time>
      </trkpt>
      <trkpt lat="42.74058" lon="0.19282">
        <ele>2100</ele>
        <time>2019-02-26T09:22:40Z</time>
      </trkpt>
      <trkpt lat="42.74056" lon="0.19266">
        <ele>2102</ele>
        <time>2019-02-26T09:23:01Z</time>
      </trkpt>
      <trkpt lat="42.74056" lon="0.19264">
        <ele>2102</ele>
        <time>2019-02-26T09:23:05Z</time>
      </trkpt>
      <trkpt lat="42.74056" lon="0.19256">
        <ele>2104</ele>
        <time>2019-02-26T09:23:17Z</time>
      </trkpt>
      <trkpt lat="42.74055" lon="0.19253">
        <ele>2104</ele>
        <time>2019-02-26T09:23:21Z</time>
      </trkpt>
      <trkpt lat="42.74055" lon="0.1925">
        <ele>2104</ele>
        <time>2019-02-26T09:23:25Z</time>
      </trkpt>
      <trkpt lat="42.74055" lon="0.19248">
        <ele>2105</ele>
        <time>2019-02-26T09:23:29Z</time>
      </trkpt>
      <trkpt lat="42.74055" lon="0.19245">
        <ele>2106</ele>
        <time>2019-02-26T09:23:33Z</time>
      </trkpt>
      <trkpt lat="42.74054" lon="0.19236">
        <ele>2107</ele>
        <time>2019-02-26T09:23:45Z</time>
      </trkpt>
      <trkpt lat="42.74054" lon="0.19234">
        <ele>2108</ele>
        <time>2019-02-26T09:23:55Z</time>
      </trkpt>
      <trkpt lat="42.74053" lon="0.19231">
        <ele>2110</ele>
        <time>2019-02-26T09:24:08Z</time>
      </trkpt>
      <trkpt lat="42.74052" lon="0.19229">
        <ele>2111</ele>
        <time>2019-02-26T09:24:11Z</time>
      </trkpt>
      <trkpt lat="42.74052" lon="0.19221">
        <ele>2111</ele>
        <time>2019-02-26T09:24:21Z</time>
      </trkpt>
      <trkpt lat="42.74052" lon="0.19218">
        <ele>2112</ele>
        <time>2019-02-26T09:24:25Z</time>
      </trkpt>
      <trkpt lat="42.74051" lon="0.19215">
        <ele>2113</ele>
        <time>2019-02-26T09:24:30Z</time>
      </trkpt>
      <trkpt lat="42.7405" lon="0.19212">
        <ele>2113</ele>
        <time>2019-02-26T09:24:34Z</time>
      </trkpt>
      <trkpt lat="42.74049" lon="0.1921">
        <ele>2113</ele>
        <time>2019-02-26T09:24:38Z</time>
      </trkpt>
      <trkpt lat="42.74049" lon="0.19207">
        <ele>2114</ele>
        <time>2019-02-26T09:24:42Z</time>
      </trkpt>
      <trkpt lat="42.74049" lon="0.19205">
        <ele>2114</ele>
        <time>2019-02-26T09:24:46Z</time>
      </trkpt>
      <trkpt lat="42.74047" lon="0.19206">
        <ele>2115</ele>
        <time>2019-02-26T09:24:56Z</time>
      </trkpt>
      <trkpt lat="42.74045" lon="0.19208">
        <ele>2115</ele>
        <time>2019-02-26T09:25:00Z</time>
      </trkpt>
      <trkpt lat="42.74044" lon="0.1921">
        <ele>2116</ele>
        <time>2019-02-26T09:25:03Z</time>
      </trkpt>
      <trkpt lat="42.74043" lon="0.19212">
        <ele>2117</ele>
        <time>2019-02-26T09:25:07Z</time>
      </trkpt>
      <trkpt lat="42.74042" lon="0.19215">
        <ele>2118</ele>
        <time>2019-02-26T09:25:12Z</time>
      </trkpt>
      <trkpt lat="42.74038" lon="0.19221">
        <ele>2119</ele>
        <time>2019-02-26T09:25:24Z</time>
      </trkpt>
      <trkpt lat="42.74037" lon="0.19223">
        <ele>2120</ele>
        <time>2019-02-26T09:25:27Z</time>
      </trkpt>
      <trkpt lat="42.74034" lon="0.19227">
        <ele>2121</ele>
        <time>2019-02-26T09:25:33Z</time>
      </trkpt>
      <trkpt lat="42.74031" lon="0.19234">
        <ele>2124</ele>
        <time>2019-02-26T09:25:43Z</time>
      </trkpt>
      <trkpt lat="42.7403" lon="0.19237">
        <ele>2124</ele>
        <time>2019-02-26T09:25:47Z</time>
      </trkpt>
      <trkpt lat="42.74028" lon="0.19242">
        <ele>2126</ele>
        <time>2019-02-26T09:25:55Z</time>
      </trkpt>
      <trkpt lat="42.74026" lon="0.19248">
        <ele>2126</ele>
        <time>2019-02-26T09:26:04Z</time>
      </trkpt>
      <trkpt lat="42.74025" lon="0.1925">
        <ele>2127</ele>
        <time>2019-02-26T09:26:07Z</time>
      </trkpt>
      <trkpt lat="42.74024" lon="0.19253">
        <ele>2127</ele>
        <time>2019-02-26T09:26:11Z</time>
      </trkpt>
      <trkpt lat="42.74023" lon="0.19255">
        <ele>2127</ele>
        <time>2019-02-26T09:26:15Z</time>
      </trkpt>
      <trkpt lat="42.74022" lon="0.19253">
        <ele>2129</ele>
        <time>2019-02-26T09:26:20Z</time>
      </trkpt>
      <trkpt lat="42.74016" lon="0.19242">
        <ele>2131</ele>
        <time>2019-02-26T09:26:42Z</time>
      </trkpt>
      <trkpt lat="42.74015" lon="0.19239">
        <ele>2131</ele>
        <time>2019-02-26T09:26:46Z</time>
      </trkpt>
      <trkpt lat="42.74014" lon="0.19237">
        <ele>2132</ele>
        <time>2019-02-26T09:26:50Z</time>
      </trkpt>
      <trkpt lat="42.74011" lon="0.19229">
        <ele>2134</ele>
        <time>2019-02-26T09:27:02Z</time>
      </trkpt>
      <trkpt lat="42.74006" lon="0.19211">
        <ele>2138</ele>
        <time>2019-02-26T09:27:31Z</time>
      </trkpt>
      <trkpt lat="42.74003" lon="0.19215">
        <ele>2139</ele>
        <time>2019-02-26T09:27:43Z</time>
      </trkpt>
      <trkpt lat="42.74" lon="0.19218">
        <ele>2140</ele>
        <time>2019-02-26T09:27:49Z</time>
      </trkpt>
      <trkpt lat="42.73998" lon="0.1922">
        <ele>2140</ele>
        <time>2019-02-26T09:27:52Z</time>
      </trkpt>
      <trkpt lat="42.73997" lon="0.19222">
        <ele>2140</ele>
        <time>2019-02-26T09:27:55Z</time>
      </trkpt>
      <trkpt lat="42.73995" lon="0.19224">
        <ele>2141</ele>
        <time>2019-02-26T09:27:59Z</time>
      </trkpt>
      <trkpt lat="42.73994" lon="0.19226">
        <ele>2141</ele>
        <time>2019-02-26T09:28:02Z</time>
      </trkpt>
      <trkpt lat="42.73993" lon="0.19228">
        <ele>2142</ele>
        <time>2019-02-26T09:28:05Z</time>
      </trkpt>
      <trkpt lat="42.73989" lon="0.19232">
        <ele>2143</ele>
        <time>2019-02-26T09:28:11Z</time>
      </trkpt>
      <trkpt lat="42.73976" lon="0.19245">
        <ele>2145</ele>
        <time>2019-02-26T09:28:33Z</time>
      </trkpt>
      <trkpt lat="42.73974" lon="0.19246">
        <ele>2145</ele>
        <time>2019-02-26T09:28:36Z</time>
      </trkpt>
      <trkpt lat="42.73968" lon="0.1925">
        <ele>2145</ele>
        <time>2019-02-26T09:28:45Z</time>
      </trkpt>
      <trkpt lat="42.73967" lon="0.19253">
        <ele>2146</ele>
        <time>2019-02-26T09:29:30Z</time>
      </trkpt>
      <trkpt lat="42.73966" lon="0.19254">
        <ele>2146</ele>
        <time>2019-02-26T09:30:07Z</time>
      </trkpt>
      <trkpt lat="42.73964" lon="0.19256">
        <ele>2145</ele>
        <time>2019-02-26T09:35:16Z</time>
      </trkpt>
      <trkpt lat="42.73963" lon="0.19258">
        <ele>2145</ele>
        <time>2019-02-26T09:35:19Z</time>
      </trkpt>
      <trkpt lat="42.7396" lon="0.19263">
        <ele>2146</ele>
        <time>2019-02-26T09:35:25Z</time>
      </trkpt>
      <trkpt lat="42.73958" lon="0.19265">
        <ele>2146</ele>
        <time>2019-02-26T09:35:28Z</time>
      </trkpt>
      <trkpt lat="42.73956" lon="0.19267">
        <ele>2146</ele>
        <time>2019-02-26T09:35:31Z</time>
      </trkpt>
      <trkpt lat="42.7395" lon="0.19278">
        <ele>2147</ele>
        <time>2019-02-26T09:35:44Z</time>
      </trkpt>
      <trkpt lat="42.73949" lon="0.1928">
        <ele>2147</ele>
        <time>2019-02-26T09:35:46Z</time>
      </trkpt>
      <trkpt lat="42.73948" lon="0.19282">
        <ele>2147</ele>
        <time>2019-02-26T09:35:48Z</time>
      </trkpt>
      <trkpt lat="42.73942" lon="0.19294">
        <ele>2148</ele>
        <time>2019-02-26T09:36:00Z</time>
      </trkpt>
      <trkpt lat="42.73939" lon="0.193">
        <ele>2149</ele>
        <time>2019-02-26T09:36:06Z</time>
      </trkpt>
      <trkpt lat="42.73935" lon="0.19312">
        <ele>2150</ele>
        <time>2019-02-26T09:36:18Z</time>
      </trkpt>
      <trkpt lat="42.73933" lon="0.19318">
        <ele>2152</ele>
        <time>2019-02-26T09:36:24Z</time>
      </trkpt>
      <trkpt lat="42.73932" lon="0.1932">
        <ele>2152</ele>
        <time>2019-02-26T09:36:27Z</time>
      </trkpt>
      <trkpt lat="42.73927" lon="0.19335">
        <ele>2153</ele>
        <time>2019-02-26T09:36:42Z</time>
      </trkpt>
      <trkpt lat="42.73927" lon="0.19338">
        <ele>2153</ele>
        <time>2019-02-26T09:36:45Z</time>
      </trkpt>
      <trkpt lat="42.73925" lon="0.19362">
        <ele>2155</ele>
        <time>2019-02-26T09:37:07Z</time>
      </trkpt>
      <trkpt lat="42.73924" lon="0.19365">
        <ele>2154</ele>
        <time>2019-02-26T09:37:10Z</time>
      </trkpt>
      <trkpt lat="42.73924" lon="0.19371">
        <ele>2153</ele>
        <time>2019-02-26T09:37:16Z</time>
      </trkpt>
      <trkpt lat="42.73924" lon="0.19374">
        <ele>2154</ele>
        <time>2019-02-26T09:37:20Z</time>
      </trkpt>
      <trkpt lat="42.73926" lon="0.19388">
        <ele>2155</ele>
        <time>2019-02-26T09:37:36Z</time>
      </trkpt>
      <trkpt lat="42.73926" lon="0.19396">
        <ele>2156</ele>
        <time>2019-02-26T09:37:45Z</time>
      </trkpt>
      <trkpt lat="42.73928" lon="0.19405">
        <ele>2156</ele>
        <time>2019-02-26T09:37:54Z</time>
      </trkpt>
      <trkpt lat="42.73929" lon="0.19408">
        <ele>2157</ele>
        <time>2019-02-26T09:37:57Z</time>
      </trkpt>
      <trkpt lat="42.7393" lon="0.1941">
        <ele>2157</ele>
        <time>2019-02-26T09:37:59Z</time>
      </trkpt>
      <trkpt lat="42.73931" lon="0.19413">
        <ele>2157</ele>
        <time>2019-02-26T09:38:01Z</time>
      </trkpt>
      <trkpt lat="42.73933" lon="0.19415">
        <ele>2158</ele>
        <time>2019-02-26T09:38:03Z</time>
      </trkpt>
      <trkpt lat="42.73935" lon="0.1942">
        <ele>2158</ele>
        <time>2019-02-26T09:38:07Z</time>
      </trkpt>
      <trkpt lat="42.73935" lon="0.19424">
        <ele>2158</ele>
        <time>2019-02-26T09:38:10Z</time>
      </trkpt>
      <trkpt lat="42.73935" lon="0.19436">
        <ele>2160</ele>
        <time>2019-02-26T09:38:21Z</time>
      </trkpt>
      <trkpt lat="42.73934" lon="0.19444">
        <ele>2165</ele>
        <time>2019-02-26T09:38:30Z</time>
      </trkpt>
      <trkpt lat="42.73935" lon="0.19447">
        <ele>2164</ele>
        <time>2019-02-26T09:38:33Z</time>
      </trkpt>
      <trkpt lat="42.73934" lon="0.1945">
        <ele>2164</ele>
        <time>2019-02-26T09:38:36Z</time>
      </trkpt>
      <trkpt lat="42.73935" lon="0.19456">
        <ele>2161</ele>
        <time>2019-02-26T09:38:42Z</time>
      </trkpt>
      <trkpt lat="42.73934" lon="0.19461">
        <ele>2161</ele>
        <time>2019-02-26T09:38:48Z</time>
      </trkpt>
      <trkpt lat="42.73934" lon="0.19464">
        <ele>2161</ele>
        <time>2019-02-26T09:38:51Z</time>
      </trkpt>
      <trkpt lat="42.73933" lon="0.19473">
        <ele>2161</ele>
        <time>2019-02-26T09:38:59Z</time>
      </trkpt>
      <trkpt lat="42.73933" lon="0.1948">
        <ele>2162</ele>
        <time>2019-02-26T09:39:05Z</time>
      </trkpt>
      <trkpt lat="42.73937" lon="0.19505">
        <ele>2164</ele>
        <time>2019-02-26T09:39:26Z</time>
      </trkpt>
      <trkpt lat="42.73938" lon="0.19512">
        <ele>2164</ele>
        <time>2019-02-26T09:39:32Z</time>
      </trkpt>
      <trkpt lat="42.7394" lon="0.19527">
        <ele>2164</ele>
        <time>2019-02-26T09:39:46Z</time>
      </trkpt>
      <trkpt lat="42.73941" lon="0.19534">
        <ele>2164</ele>
        <time>2019-02-26T09:39:52Z</time>
      </trkpt>
      <trkpt lat="42.73941" lon="0.19537">
        <ele>2163</ele>
        <time>2019-02-26T09:39:55Z</time>
      </trkpt>
      <trkpt lat="42.73942" lon="0.19541">
        <ele>2163</ele>
        <time>2019-02-26T09:39:58Z</time>
      </trkpt>
      <trkpt lat="42.73946" lon="0.19557">
        <ele>2165</ele>
        <time>2019-02-26T09:40:13Z</time>
      </trkpt>
      <trkpt lat="42.73951" lon="0.1957">
        <ele>2166</ele>
        <time>2019-02-26T09:40:35Z</time>
      </trkpt>
      <trkpt lat="42.73953" lon="0.19572">
        <ele>2167</ele>
        <time>2019-02-26T09:40:38Z</time>
      </trkpt>
      <trkpt lat="42.73954" lon="0.19575">
        <ele>2167</ele>
        <time>2019-02-26T09:40:41Z</time>
      </trkpt>
      <trkpt lat="42.73955" lon="0.19577">
        <ele>2168</ele>
        <time>2019-02-26T09:40:45Z</time>
      </trkpt>
      <trkpt lat="42.73958" lon="0.19584">
        <ele>2169</ele>
        <time>2019-02-26T09:40:54Z</time>
      </trkpt>
      <trkpt lat="42.7396" lon="0.19588">
        <ele>2169</ele>
        <time>2019-02-26T09:41:00Z</time>
      </trkpt>
      <trkpt lat="42.73964" lon="0.19595">
        <ele>2169</ele>
        <time>2019-02-26T09:41:09Z</time>
      </trkpt>
      <trkpt lat="42.73965" lon="0.19598">
        <ele>2169</ele>
        <time>2019-02-26T09:41:12Z</time>
      </trkpt>
      <trkpt lat="42.73967" lon="0.19602">
        <ele>2169</ele>
        <time>2019-02-26T09:41:18Z</time>
      </trkpt>
      <trkpt lat="42.73968" lon="0.19605">
        <ele>2169</ele>
        <time>2019-02-26T09:41:22Z</time>
      </trkpt>
      <trkpt lat="42.73969" lon="0.19608">
        <ele>2169</ele>
        <time>2019-02-26T09:41:27Z</time>
      </trkpt>
      <trkpt lat="42.7397" lon="0.1961">
        <ele>2169</ele>
        <time>2019-02-26T09:41:31Z</time>
      </trkpt>
      <trkpt lat="42.7397" lon="0.19615">
        <ele>2169</ele>
        <time>2019-02-26T09:41:40Z</time>
      </trkpt>
      <trkpt lat="42.73971" lon="0.19619">
        <ele>2170</ele>
        <time>2019-02-26T09:41:43Z</time>
      </trkpt>
      <trkpt lat="42.73973" lon="0.19629">
        <ele>2170</ele>
        <time>2019-02-26T09:41:51Z</time>
      </trkpt>
      <trkpt lat="42.73977" lon="0.19638">
        <ele>2170</ele>
        <time>2019-02-26T09:42:00Z</time>
      </trkpt>
      <trkpt lat="42.73978" lon="0.1964">
        <ele>2170</ele>
        <time>2019-02-26T09:42:03Z</time>
      </trkpt>
      <trkpt lat="42.73979" lon="0.19643">
        <ele>2170</ele>
        <time>2019-02-26T09:42:06Z</time>
      </trkpt>
      <trkpt lat="42.73982" lon="0.19648">
        <ele>2170</ele>
        <time>2019-02-26T09:42:12Z</time>
      </trkpt>
      <trkpt lat="42.73985" lon="0.19653">
        <ele>2170</ele>
        <time>2019-02-26T09:42:18Z</time>
      </trkpt>
      <trkpt lat="42.73988" lon="0.19661">
        <ele>2171</ele>
        <time>2019-02-26T09:42:28Z</time>
      </trkpt>
      <trkpt lat="42.73989" lon="0.19663">
        <ele>2172</ele>
        <time>2019-02-26T09:42:31Z</time>
      </trkpt>
      <trkpt lat="42.7399" lon="0.19668">
        <ele>2174</ele>
        <time>2019-02-26T09:42:38Z</time>
      </trkpt>
      <trkpt lat="42.73996" lon="0.19682">
        <ele>2174</ele>
        <time>2019-02-26T09:42:51Z</time>
      </trkpt>
      <trkpt lat="42.74003" lon="0.19693">
        <ele>2175</ele>
        <time>2019-02-26T09:43:03Z</time>
      </trkpt>
      <trkpt lat="42.74008" lon="0.19706">
        <ele>2175</ele>
        <time>2019-02-26T09:43:15Z</time>
      </trkpt>
      <trkpt lat="42.74018" lon="0.19726">
        <ele>2177</ele>
        <time>2019-02-26T09:43:35Z</time>
      </trkpt>
      <trkpt lat="42.74021" lon="0.19731">
        <ele>2177</ele>
        <time>2019-02-26T09:43:40Z</time>
      </trkpt>
      <trkpt lat="42.74023" lon="0.19733">
        <ele>2177</ele>
        <time>2019-02-26T09:43:43Z</time>
      </trkpt>
      <trkpt lat="42.74025" lon="0.19735">
        <ele>2177</ele>
        <time>2019-02-26T09:43:46Z</time>
      </trkpt>
      <trkpt lat="42.74028" lon="0.1974">
        <ele>2178</ele>
        <time>2019-02-26T09:43:52Z</time>
      </trkpt>
      <trkpt lat="42.74033" lon="0.19743">
        <ele>2178</ele>
        <time>2019-02-26T09:43:58Z</time>
      </trkpt>
      <trkpt lat="42.74034" lon="0.19745">
        <ele>2178</ele>
        <time>2019-02-26T09:44:01Z</time>
      </trkpt>
      <trkpt lat="42.74039" lon="0.1975">
        <ele>2179</ele>
        <time>2019-02-26T09:44:11Z</time>
      </trkpt>
      <trkpt lat="42.74041" lon="0.19752">
        <ele>2179</ele>
        <time>2019-02-26T09:44:14Z</time>
      </trkpt>
      <trkpt lat="42.74051" lon="0.1976">
        <ele>2182</ele>
        <time>2019-02-26T09:44:32Z</time>
      </trkpt>
      <trkpt lat="42.74058" lon="0.19765">
        <ele>2183</ele>
        <time>2019-02-26T09:44:45Z</time>
      </trkpt>
      <trkpt lat="42.7406" lon="0.19767">
        <ele>2183</ele>
        <time>2019-02-26T09:44:49Z</time>
      </trkpt>
      <trkpt lat="42.74062" lon="0.19768">
        <ele>2184</ele>
        <time>2019-02-26T09:44:52Z</time>
      </trkpt>
      <trkpt lat="42.74064" lon="0.19769">
        <ele>2184</ele>
        <time>2019-02-26T09:44:56Z</time>
      </trkpt>
      <trkpt lat="42.74066" lon="0.19771">
        <ele>2185</ele>
        <time>2019-02-26T09:45:00Z</time>
      </trkpt>
      <trkpt lat="42.74068" lon="0.19772">
        <ele>2185</ele>
        <time>2019-02-26T09:45:04Z</time>
      </trkpt>
      <trkpt lat="42.7407" lon="0.19774">
        <ele>2186</ele>
        <time>2019-02-26T09:45:08Z</time>
      </trkpt>
      <trkpt lat="42.74072" lon="0.19775">
        <ele>2186</ele>
        <time>2019-02-26T09:45:11Z</time>
      </trkpt>
      <trkpt lat="42.74076" lon="0.19777">
        <ele>2186</ele>
        <time>2019-02-26T09:45:17Z</time>
      </trkpt>
      <trkpt lat="42.74078" lon="0.19778">
        <ele>2186</ele>
        <time>2019-02-26T09:45:20Z</time>
      </trkpt>
      <trkpt lat="42.7408" lon="0.1978">
        <ele>2186</ele>
        <time>2019-02-26T09:45:23Z</time>
      </trkpt>
      <trkpt lat="42.74082" lon="0.19781">
        <ele>2187</ele>
        <time>2019-02-26T09:45:26Z</time>
      </trkpt>
      <trkpt lat="42.74084" lon="0.19783">
        <ele>2187</ele>
        <time>2019-02-26T09:45:29Z</time>
      </trkpt>
      <trkpt lat="42.74085" lon="0.19785">
        <ele>2187</ele>
        <time>2019-02-26T09:45:32Z</time>
      </trkpt>
      <trkpt lat="42.74087" lon="0.19786">
        <ele>2187</ele>
        <time>2019-02-26T09:45:35Z</time>
      </trkpt>
      <trkpt lat="42.74089" lon="0.19788">
        <ele>2187</ele>
        <time>2019-02-26T09:45:38Z</time>
      </trkpt>
      <trkpt lat="42.74095" lon="0.19799">
        <ele>2190</ele>
        <time>2019-02-26T09:45:58Z</time>
      </trkpt>
      <trkpt lat="42.74097" lon="0.19803">
        <ele>2191</ele>
        <time>2019-02-26T09:46:05Z</time>
      </trkpt>
      <trkpt lat="42.74098" lon="0.19805">
        <ele>2192</ele>
        <time>2019-02-26T09:46:11Z</time>
      </trkpt>
      <trkpt lat="42.74098" lon="0.19808">
        <ele>2194</ele>
        <time>2019-02-26T09:46:15Z</time>
      </trkpt>
      <trkpt lat="42.74096" lon="0.1981">
        <ele>2194</ele>
        <time>2019-02-26T09:46:18Z</time>
      </trkpt>
      <trkpt lat="42.74094" lon="0.1981">
        <ele>2194</ele>
        <time>2019-02-26T09:46:21Z</time>
      </trkpt>
      <trkpt lat="42.74092" lon="0.1981">
        <ele>2193</ele>
        <time>2019-02-26T09:46:24Z</time>
      </trkpt>
      <trkpt lat="42.74088" lon="0.19811">
        <ele>2195</ele>
        <time>2019-02-26T09:46:33Z</time>
      </trkpt>
      <trkpt lat="42.74086" lon="0.19812">
        <ele>2196</ele>
        <time>2019-02-26T09:46:37Z</time>
      </trkpt>
      <trkpt lat="42.74084" lon="0.19813">
        <ele>2196</ele>
        <time>2019-02-26T09:46:43Z</time>
      </trkpt>
      <trkpt lat="42.74085" lon="0.19816">
        <ele>2196</ele>
        <time>2019-02-26T09:46:47Z</time>
      </trkpt>
      <trkpt lat="42.74086" lon="0.19819">
        <ele>2196</ele>
        <time>2019-02-26T09:46:50Z</time>
      </trkpt>
      <trkpt lat="42.74087" lon="0.19821">
        <ele>2197</ele>
        <time>2019-02-26T09:46:53Z</time>
      </trkpt>
      <trkpt lat="42.74088" lon="0.19824">
        <ele>2197</ele>
        <time>2019-02-26T09:46:56Z</time>
      </trkpt>
      <trkpt lat="42.74092" lon="0.19833">
        <ele>2199</ele>
        <time>2019-02-26T09:47:08Z</time>
      </trkpt>
      <trkpt lat="42.74094" lon="0.19835">
        <ele>2199</ele>
        <time>2019-02-26T09:47:11Z</time>
      </trkpt>
      <trkpt lat="42.74095" lon="0.19838">
        <ele>2200</ele>
        <time>2019-02-26T09:47:14Z</time>
      </trkpt>
      <trkpt lat="42.74099" lon="0.19844">
        <ele>2201</ele>
        <time>2019-02-26T09:47:32Z</time>
      </trkpt>
      <trkpt lat="42.74099" lon="0.19847">
        <ele>2203</ele>
        <time>2019-02-26T09:47:36Z</time>
      </trkpt>
      <trkpt lat="42.74097" lon="0.19849">
        <ele>2204</ele>
        <time>2019-02-26T09:47:39Z</time>
      </trkpt>
      <trkpt lat="42.74095" lon="0.19849">
        <ele>2204</ele>
        <time>2019-02-26T09:47:43Z</time>
      </trkpt>
      <trkpt lat="42.74093" lon="0.19849">
        <ele>2206</ele>
        <time>2019-02-26T09:47:47Z</time>
      </trkpt>
      <trkpt lat="42.74091" lon="0.19849">
        <ele>2206</ele>
        <time>2019-02-26T09:47:50Z</time>
      </trkpt>
      <trkpt lat="42.74081" lon="0.19849">
        <ele>2206</ele>
        <time>2019-02-26T09:48:05Z</time>
      </trkpt>
      <trkpt lat="42.74075" lon="0.19849">
        <ele>2207</ele>
        <time>2019-02-26T09:48:14Z</time>
      </trkpt>
      <trkpt lat="42.74071" lon="0.19849">
        <ele>2209</ele>
        <time>2019-02-26T09:48:20Z</time>
      </trkpt>
      <trkpt lat="42.74068" lon="0.19849">
        <ele>2209</ele>
        <time>2019-02-26T09:48:24Z</time>
      </trkpt>
      <trkpt lat="42.74066" lon="0.19849">
        <ele>2209</ele>
        <time>2019-02-26T09:48:27Z</time>
      </trkpt>
      <trkpt lat="42.74064" lon="0.19849">
        <ele>2210</ele>
        <time>2019-02-26T09:48:30Z</time>
      </trkpt>
      <trkpt lat="42.74058" lon="0.19849">
        <ele>2211</ele>
        <time>2019-02-26T09:48:39Z</time>
      </trkpt>
      <trkpt lat="42.74056" lon="0.19849">
        <ele>2212</ele>
        <time>2019-02-26T09:48:42Z</time>
      </trkpt>
      <trkpt lat="42.74042" lon="0.19844">
        <ele>2215</ele>
        <time>2019-02-26T09:49:03Z</time>
      </trkpt>
      <trkpt lat="42.7404" lon="0.19843">
        <ele>2215</ele>
        <time>2019-02-26T09:49:06Z</time>
      </trkpt>
      <trkpt lat="42.74036" lon="0.19841">
        <ele>2216</ele>
        <time>2019-02-26T09:49:12Z</time>
      </trkpt>
      <trkpt lat="42.74034" lon="0.1984">
        <ele>2216</ele>
        <time>2019-02-26T09:49:15Z</time>
      </trkpt>
      <trkpt lat="42.74032" lon="0.19839">
        <ele>2216</ele>
        <time>2019-02-26T09:49:18Z</time>
      </trkpt>
      <trkpt lat="42.7403" lon="0.19837">
        <ele>2217</ele>
        <time>2019-02-26T09:49:21Z</time>
      </trkpt>
      <trkpt lat="42.74028" lon="0.19837">
        <ele>2218</ele>
        <time>2019-02-26T09:49:26Z</time>
      </trkpt>
      <trkpt lat="42.74028" lon="0.19843">
        <ele>2219</ele>
        <time>2019-02-26T09:49:33Z</time>
      </trkpt>
      <trkpt lat="42.74028" lon="0.19857">
        <ele>2222</ele>
        <time>2019-02-26T09:49:49Z</time>
      </trkpt>
      <trkpt lat="42.7403" lon="0.19869">
        <ele>2224</ele>
        <time>2019-02-26T09:50:04Z</time>
      </trkpt>
      <trkpt lat="42.74032" lon="0.19874">
        <ele>2225</ele>
        <time>2019-02-26T09:50:11Z</time>
      </trkpt>
      <trkpt lat="42.74033" lon="0.19876">
        <ele>2226</ele>
        <time>2019-02-26T09:50:15Z</time>
      </trkpt>
      <trkpt lat="42.74031" lon="0.19877">
        <ele>2226</ele>
        <time>2019-02-26T09:50:21Z</time>
      </trkpt>
      <trkpt lat="42.74027" lon="0.19877">
        <ele>2227</ele>
        <time>2019-02-26T09:50:28Z</time>
      </trkpt>
      <trkpt lat="42.74025" lon="0.19877">
        <ele>2229</ele>
        <time>2019-02-26T09:50:31Z</time>
      </trkpt>
      <trkpt lat="42.74023" lon="0.19876">
        <ele>2229</ele>
        <time>2019-02-26T09:50:35Z</time>
      </trkpt>
      <trkpt lat="42.74018" lon="0.19876">
        <ele>2230</ele>
        <time>2019-02-26T09:50:43Z</time>
      </trkpt>
      <trkpt lat="42.74013" lon="0.19875">
        <ele>2231</ele>
        <time>2019-02-26T09:50:50Z</time>
      </trkpt>
      <trkpt lat="42.7401" lon="0.19875">
        <ele>2232</ele>
        <time>2019-02-26T09:50:56Z</time>
      </trkpt>
      <trkpt lat="42.74007" lon="0.19875">
        <ele>2231</ele>
        <time>2019-02-26T09:51:00Z</time>
      </trkpt>
      <trkpt lat="42.74005" lon="0.19874">
        <ele>2231</ele>
        <time>2019-02-26T09:51:03Z</time>
      </trkpt>
      <trkpt lat="42.74002" lon="0.19873">
        <ele>2233</ele>
        <time>2019-02-26T09:51:09Z</time>
      </trkpt>
      <trkpt lat="42.74" lon="0.19872">
        <ele>2233</ele>
        <time>2019-02-26T09:51:12Z</time>
      </trkpt>
      <trkpt lat="42.73998" lon="0.19871">
        <ele>2234</ele>
        <time>2019-02-26T09:51:15Z</time>
      </trkpt>
      <trkpt lat="42.73996" lon="0.19871">
        <ele>2234</ele>
        <time>2019-02-26T09:51:18Z</time>
      </trkpt>
      <trkpt lat="42.73992" lon="0.1987">
        <ele>2235</ele>
        <time>2019-02-26T09:51:26Z</time>
      </trkpt>
      <trkpt lat="42.73987" lon="0.1987">
        <ele>2236</ele>
        <time>2019-02-26T09:51:34Z</time>
      </trkpt>
      <trkpt lat="42.73985" lon="0.1987">
        <ele>2236</ele>
        <time>2019-02-26T09:51:37Z</time>
      </trkpt>
      <trkpt lat="42.73983" lon="0.19869">
        <ele>2237</ele>
        <time>2019-02-26T09:51:41Z</time>
      </trkpt>
      <trkpt lat="42.73981" lon="0.19869">
        <ele>2237</ele>
        <time>2019-02-26T09:51:44Z</time>
      </trkpt>
      <trkpt lat="42.73979" lon="0.19868">
        <ele>2239</ele>
        <time>2019-02-26T09:51:47Z</time>
      </trkpt>
      <trkpt lat="42.73977" lon="0.19868">
        <ele>2238</ele>
        <time>2019-02-26T09:51:51Z</time>
      </trkpt>
      <trkpt lat="42.73975" lon="0.19868">
        <ele>2238</ele>
        <time>2019-02-26T09:51:54Z</time>
      </trkpt>
      <trkpt lat="42.73972" lon="0.19867">
        <ele>2239</ele>
        <time>2019-02-26T09:51:58Z</time>
      </trkpt>
      <trkpt lat="42.73959" lon="0.19866">
        <ele>2242</ele>
        <time>2019-02-26T09:52:21Z</time>
      </trkpt>
      <trkpt lat="42.73956" lon="0.19866">
        <ele>2244</ele>
        <time>2019-02-26T09:52:25Z</time>
      </trkpt>
      <trkpt lat="42.73954" lon="0.19866">
        <ele>2245</ele>
        <time>2019-02-26T09:52:32Z</time>
      </trkpt>
      <trkpt lat="42.73952" lon="0.19865">
        <ele>2244</ele>
        <time>2019-02-26T09:52:35Z</time>
      </trkpt>
      <trkpt lat="42.73945" lon="0.19865">
        <ele>2246</ele>
        <time>2019-02-26T09:52:46Z</time>
      </trkpt>
      <trkpt lat="42.73943" lon="0.19865">
        <ele>2246</ele>
        <time>2019-02-26T09:52:49Z</time>
      </trkpt>
      <trkpt lat="42.73941" lon="0.19865">
        <ele>2247</ele>
        <time>2019-02-26T09:52:52Z</time>
      </trkpt>
      <trkpt lat="42.73937" lon="0.19865">
        <ele>2247</ele>
        <time>2019-02-26T09:52:58Z</time>
      </trkpt>
      <trkpt lat="42.73935" lon="0.19864">
        <ele>2247</ele>
        <time>2019-02-26T09:53:01Z</time>
      </trkpt>
      <trkpt lat="42.73933" lon="0.19864">
        <ele>2248</ele>
        <time>2019-02-26T09:53:04Z</time>
      </trkpt>
      <trkpt lat="42.73931" lon="0.19864">
        <ele>2248</ele>
        <time>2019-02-26T09:53:07Z</time>
      </trkpt>
      <trkpt lat="42.73929" lon="0.19863">
        <ele>2248</ele>
        <time>2019-02-26T09:53:10Z</time>
      </trkpt>
      <trkpt lat="42.73925" lon="0.19862">
        <ele>2249</ele>
        <time>2019-02-26T09:53:16Z</time>
      </trkpt>
      <trkpt lat="42.73919" lon="0.19862">
        <ele>2251</ele>
        <time>2019-02-26T09:53:27Z</time>
      </trkpt>
      <trkpt lat="42.73917" lon="0.19862">
        <ele>2252</ele>
        <time>2019-02-26T09:53:30Z</time>
      </trkpt>
      <trkpt lat="42.73913" lon="0.19862">
        <ele>2252</ele>
        <time>2019-02-26T09:53:36Z</time>
      </trkpt>
      <trkpt lat="42.73911" lon="0.19862">
        <ele>2253</ele>
        <time>2019-02-26T09:53:40Z</time>
      </trkpt>
      <trkpt lat="42.73909" lon="0.19864">
        <ele>2253</ele>
        <time>2019-02-26T09:53:42Z</time>
      </trkpt>
      <trkpt lat="42.73907" lon="0.19865">
        <ele>2255</ele>
        <time>2019-02-26T09:53:45Z</time>
      </trkpt>
      <trkpt lat="42.73905" lon="0.19865">
        <ele>2256</ele>
        <time>2019-02-26T09:53:48Z</time>
      </trkpt>
      <trkpt lat="42.73903" lon="0.19865">
        <ele>2256</ele>
        <time>2019-02-26T09:53:52Z</time>
      </trkpt>
      <trkpt lat="42.73901" lon="0.19865">
        <ele>2256</ele>
        <time>2019-02-26T09:53:55Z</time>
      </trkpt>
      <trkpt lat="42.73899" lon="0.19866">
        <ele>2257</ele>
        <time>2019-02-26T09:53:59Z</time>
      </trkpt>
      <trkpt lat="42.73897" lon="0.19866">
        <ele>2258</ele>
        <time>2019-02-26T09:54:03Z</time>
      </trkpt>
      <trkpt lat="42.73894" lon="0.19867">
        <ele>2259</ele>
        <time>2019-02-26T09:54:07Z</time>
      </trkpt>
      <trkpt lat="42.73892" lon="0.19867">
        <ele>2259</ele>
        <time>2019-02-26T09:54:10Z</time>
      </trkpt>
      <trkpt lat="42.73891" lon="0.19868">
        <ele>2259</ele>
        <time>2019-02-26T09:54:13Z</time>
      </trkpt>
      <trkpt lat="42.7388" lon="0.19869">
        <ele>2261</ele>
        <time>2019-02-26T09:54:30Z</time>
      </trkpt>
      <trkpt lat="42.73877" lon="0.19869">
        <ele>2262</ele>
        <time>2019-02-26T09:54:34Z</time>
      </trkpt>
      <trkpt lat="42.73876" lon="0.19869">
        <ele>2262</ele>
        <time>2019-02-26T09:54:37Z</time>
      </trkpt>
      <trkpt lat="42.73873" lon="0.19869">
        <ele>2262</ele>
        <time>2019-02-26T09:54:41Z</time>
      </trkpt>
      <trkpt lat="42.73871" lon="0.19868">
        <ele>2261</ele>
        <time>2019-02-26T09:54:44Z</time>
      </trkpt>
      <trkpt lat="42.73869" lon="0.19868">
        <ele>2263</ele>
        <time>2019-02-26T09:54:47Z</time>
      </trkpt>
      <trkpt lat="42.73867" lon="0.19868">
        <ele>2264</ele>
        <time>2019-02-26T09:54:50Z</time>
      </trkpt>
      <trkpt lat="42.73866" lon="0.1987">
        <ele>2265</ele>
        <time>2019-02-26T09:54:54Z</time>
      </trkpt>
      <trkpt lat="42.73867" lon="0.19899">
        <ele>2268</ele>
        <time>2019-02-26T09:55:24Z</time>
      </trkpt>
      <trkpt lat="42.73867" lon="0.19902">
        <ele>2269</ele>
        <time>2019-02-26T09:55:27Z</time>
      </trkpt>
      <trkpt lat="42.73867" lon="0.19904">
        <ele>2269</ele>
        <time>2019-02-26T09:55:30Z</time>
      </trkpt>
      <trkpt lat="42.73867" lon="0.19907">
        <ele>2269</ele>
        <time>2019-02-26T09:55:33Z</time>
      </trkpt>
      <trkpt lat="42.73865" lon="0.19913">
        <ele>2270</ele>
        <time>2019-02-26T09:55:41Z</time>
      </trkpt>
      <trkpt lat="42.73864" lon="0.19916">
        <ele>2271</ele>
        <time>2019-02-26T09:55:45Z</time>
      </trkpt>
      <trkpt lat="42.73864" lon="0.19917">
        <ele>2270</ele>
        <time>2019-02-26T10:00:18Z</time>
      </trkpt>
      <trkpt lat="42.73865" lon="0.19918">
        <ele>2272</ele>
        <time>2019-02-26T10:01:01Z</time>
      </trkpt>
      <trkpt lat="42.73865" lon="0.1992">
        <ele>2273</ele>
        <time>2019-02-26T10:02:12Z</time>
      </trkpt>
      <trkpt lat="42.73864" lon="0.19926">
        <ele>2273</ele>
        <time>2019-02-26T10:02:16Z</time>
      </trkpt>
      <trkpt lat="42.73863" lon="0.19928">
        <ele>2273</ele>
        <time>2019-02-26T10:02:18Z</time>
      </trkpt>
      <trkpt lat="42.73863" lon="0.19931">
        <ele>2272</ele>
        <time>2019-02-26T10:02:20Z</time>
      </trkpt>
      <trkpt lat="42.73862" lon="0.19934">
        <ele>2273</ele>
        <time>2019-02-26T10:02:22Z</time>
      </trkpt>
      <trkpt lat="42.73862" lon="0.19936">
        <ele>2273</ele>
        <time>2019-02-26T10:02:24Z</time>
      </trkpt>
      <trkpt lat="42.73861" lon="0.19942">
        <ele>2272</ele>
        <time>2019-02-26T10:02:28Z</time>
      </trkpt>
      <trkpt lat="42.7386" lon="0.19945">
        <ele>2272</ele>
        <time>2019-02-26T10:02:30Z</time>
      </trkpt>
      <trkpt lat="42.73859" lon="0.19953">
        <ele>2272</ele>
        <time>2019-02-26T10:02:36Z</time>
      </trkpt>
      <trkpt lat="42.73859" lon="0.1996">
        <ele>2273</ele>
        <time>2019-02-26T10:02:40Z</time>
      </trkpt>
      <trkpt lat="42.73859" lon="0.19963">
        <ele>2272</ele>
        <time>2019-02-26T10:02:42Z</time>
      </trkpt>
      <trkpt lat="42.73857" lon="0.19993">
        <ele>2271</ele>
        <time>2019-02-26T10:03:01Z</time>
      </trkpt>
      <trkpt lat="42.73857" lon="0.19996">
        <ele>2271</ele>
        <time>2019-02-26T10:03:04Z</time>
      </trkpt>
      <trkpt lat="42.73858" lon="0.19999">
        <ele>2271</ele>
        <time>2019-02-26T10:03:07Z</time>
      </trkpt>
      <trkpt lat="42.73859" lon="0.20005">
        <ele>2272</ele>
        <time>2019-02-26T10:03:13Z</time>
      </trkpt>
      <trkpt lat="42.7386" lon="0.20008">
        <ele>2273</ele>
        <time>2019-02-26T10:03:16Z</time>
      </trkpt>
      <trkpt lat="42.73863" lon="0.20023">
        <ele>2274</ele>
        <time>2019-02-26T10:03:37Z</time>
      </trkpt>
      <trkpt lat="42.73865" lon="0.20028">
        <ele>2274</ele>
        <time>2019-02-26T10:03:43Z</time>
      </trkpt>
      <trkpt lat="42.73866" lon="0.20031">
        <ele>2275</ele>
        <time>2019-02-26T10:03:46Z</time>
      </trkpt>
      <trkpt lat="42.73866" lon="0.20034">
        <ele>2275</ele>
        <time>2019-02-26T10:03:49Z</time>
      </trkpt>
      <trkpt lat="42.73867" lon="0.20037">
        <ele>2275</ele>
        <time>2019-02-26T10:03:52Z</time>
      </trkpt>
      <trkpt lat="42.73868" lon="0.2004">
        <ele>2276</ele>
        <time>2019-02-26T10:03:55Z</time>
      </trkpt>
      <trkpt lat="42.73868" lon="0.20043">
        <ele>2276</ele>
        <time>2019-02-26T10:03:58Z</time>
      </trkpt>
      <trkpt lat="42.7387" lon="0.20048">
        <ele>2277</ele>
        <time>2019-02-26T10:04:05Z</time>
      </trkpt>
      <trkpt lat="42.73872" lon="0.20055">
        <ele>2278</ele>
        <time>2019-02-26T10:04:14Z</time>
      </trkpt>
      <trkpt lat="42.73873" lon="0.20058">
        <ele>2278</ele>
        <time>2019-02-26T10:04:17Z</time>
      </trkpt>
      <trkpt lat="42.73874" lon="0.2006">
        <ele>2279</ele>
        <time>2019-02-26T10:04:20Z</time>
      </trkpt>
      <trkpt lat="42.73877" lon="0.20068">
        <ele>2281</ele>
        <time>2019-02-26T10:04:29Z</time>
      </trkpt>
      <trkpt lat="42.73878" lon="0.2007">
        <ele>2282</ele>
        <time>2019-02-26T10:04:32Z</time>
      </trkpt>
      <trkpt lat="42.7388" lon="0.20075">
        <ele>2282</ele>
        <time>2019-02-26T10:04:38Z</time>
      </trkpt>
      <trkpt lat="42.73881" lon="0.20078">
        <ele>2283</ele>
        <time>2019-02-26T10:04:41Z</time>
      </trkpt>
      <trkpt lat="42.73882" lon="0.20082">
        <ele>2283</ele>
        <time>2019-02-26T10:04:44Z</time>
      </trkpt>
      <trkpt lat="42.73882" lon="0.20093">
        <ele>2285</ele>
        <time>2019-02-26T10:04:56Z</time>
      </trkpt>
      <trkpt lat="42.73882" lon="0.20096">
        <ele>2285</ele>
        <time>2019-02-26T10:04:59Z</time>
      </trkpt>
      <trkpt lat="42.73883" lon="0.20131">
        <ele>2290</ele>
        <time>2019-02-26T10:05:40Z</time>
      </trkpt>
      <trkpt lat="42.73883" lon="0.20134">
        <ele>2290</ele>
        <time>2019-02-26T10:05:43Z</time>
      </trkpt>
      <trkpt lat="42.73877" lon="0.20157">
        <ele>2296</ele>
        <time>2019-02-26T10:06:16Z</time>
      </trkpt>
      <trkpt lat="42.73876" lon="0.20159">
        <ele>2297</ele>
        <time>2019-02-26T10:06:20Z</time>
      </trkpt>
      <trkpt lat="42.73874" lon="0.2016">
        <ele>2297</ele>
        <time>2019-02-26T10:06:24Z</time>
      </trkpt>
      <trkpt lat="42.7387" lon="0.20159">
        <ele>2295</ele>
        <time>2019-02-26T10:06:30Z</time>
      </trkpt>
      <trkpt lat="42.73868" lon="0.20159">
        <ele>2295</ele>
        <time>2019-02-26T10:06:33Z</time>
      </trkpt>
      <trkpt lat="42.73866" lon="0.20158">
        <ele>2295</ele>
        <time>2019-02-26T10:06:36Z</time>
      </trkpt>
      <trkpt lat="42.73864" lon="0.20157">
        <ele>2295</ele>
        <time>2019-02-26T10:06:39Z</time>
      </trkpt>
      <trkpt lat="42.7386" lon="0.20156">
        <ele>2297</ele>
        <time>2019-02-26T10:06:45Z</time>
      </trkpt>
      <trkpt lat="42.73859" lon="0.20155">
        <ele>2298</ele>
        <time>2019-02-26T10:06:48Z</time>
      </trkpt>
      <trkpt lat="42.73857" lon="0.20153">
        <ele>2298</ele>
        <time>2019-02-26T10:06:51Z</time>
      </trkpt>
      <trkpt lat="42.73855" lon="0.20153">
        <ele>2299</ele>
        <time>2019-02-26T10:06:55Z</time>
      </trkpt>
      <trkpt lat="42.73851" lon="0.20151">
        <ele>2299</ele>
        <time>2019-02-26T10:07:01Z</time>
      </trkpt>
      <trkpt lat="42.73848" lon="0.20151">
        <ele>2300</ele>
        <time>2019-02-26T10:07:04Z</time>
      </trkpt>
      <trkpt lat="42.73846" lon="0.20151">
        <ele>2301</ele>
        <time>2019-02-26T10:07:07Z</time>
      </trkpt>
      <trkpt lat="42.73842" lon="0.20151">
        <ele>2301</ele>
        <time>2019-02-26T10:07:15Z</time>
      </trkpt>
      <trkpt lat="42.73839" lon="0.20152">
        <ele>2301</ele>
        <time>2019-02-26T10:07:18Z</time>
      </trkpt>
      <trkpt lat="42.73838" lon="0.20153">
        <ele>2303</ele>
        <time>2019-02-26T10:07:21Z</time>
      </trkpt>
      <trkpt lat="42.73836" lon="0.20154">
        <ele>2304</ele>
        <time>2019-02-26T10:07:25Z</time>
      </trkpt>
      <trkpt lat="42.73834" lon="0.20155">
        <ele>2304</ele>
        <time>2019-02-26T10:07:28Z</time>
      </trkpt>
      <trkpt lat="42.73827" lon="0.20158">
        <ele>2303</ele>
        <time>2019-02-26T10:08:31Z</time>
      </trkpt>
      <trkpt lat="42.73825" lon="0.20158">
        <ele>2303</ele>
        <time>2019-02-26T10:08:34Z</time>
      </trkpt>
      <trkpt lat="42.73823" lon="0.20159">
        <ele>2303</ele>
        <time>2019-02-26T10:08:37Z</time>
      </trkpt>
      <trkpt lat="42.7382" lon="0.2016">
        <ele>2304</ele>
        <time>2019-02-26T10:08:40Z</time>
      </trkpt>
      <trkpt lat="42.73818" lon="0.20162">
        <ele>2304</ele>
        <time>2019-02-26T10:08:43Z</time>
      </trkpt>
      <trkpt lat="42.73816" lon="0.20163">
        <ele>2304</ele>
        <time>2019-02-26T10:08:45Z</time>
      </trkpt>
      <trkpt lat="42.73814" lon="0.20164">
        <ele>2304</ele>
        <time>2019-02-26T10:08:48Z</time>
      </trkpt>
      <trkpt lat="42.7381" lon="0.20167">
        <ele>2302</ele>
        <time>2019-02-26T10:08:54Z</time>
      </trkpt>
      <trkpt lat="42.73807" lon="0.20167">
        <ele>2302</ele>
        <time>2019-02-26T10:08:57Z</time>
      </trkpt>
      <trkpt lat="42.73803" lon="0.20169">
        <ele>2301</ele>
        <time>2019-02-26T10:09:02Z</time>
      </trkpt>
      <trkpt lat="42.73795" lon="0.20172">
        <ele>2301</ele>
        <time>2019-02-26T10:09:11Z</time>
      </trkpt>
      <trkpt lat="42.73785" lon="0.20176">
        <ele>2302</ele>
        <time>2019-02-26T10:09:26Z</time>
      </trkpt>
      <trkpt lat="42.73782" lon="0.20177">
        <ele>2301</ele>
        <time>2019-02-26T10:09:30Z</time>
      </trkpt>
      <trkpt lat="42.73781" lon="0.20178">
        <ele>2302</ele>
        <time>2019-02-26T10:09:33Z</time>
      </trkpt>
      <trkpt lat="42.73779" lon="0.20178">
        <ele>2303</ele>
        <time>2019-02-26T10:09:36Z</time>
      </trkpt>
      <trkpt lat="42.73777" lon="0.20179">
        <ele>2302</ele>
        <time>2019-02-26T10:09:39Z</time>
      </trkpt>
      <trkpt lat="42.73773" lon="0.2018">
        <ele>2303</ele>
        <time>2019-02-26T10:09:46Z</time>
      </trkpt>
      <trkpt lat="42.73771" lon="0.20181">
        <ele>2305</ele>
        <time>2019-02-26T10:09:50Z</time>
      </trkpt>
      <trkpt lat="42.73755" lon="0.20192">
        <ele>2308</ele>
        <time>2019-02-26T10:10:14Z</time>
      </trkpt>
      <trkpt lat="42.73753" lon="0.20194">
        <ele>2309</ele>
        <time>2019-02-26T10:10:17Z</time>
      </trkpt>
      <trkpt lat="42.73751" lon="0.20196">
        <ele>2309</ele>
        <time>2019-02-26T10:10:20Z</time>
      </trkpt>
      <trkpt lat="42.7375" lon="0.20197">
        <ele>2309</ele>
        <time>2019-02-26T10:10:23Z</time>
      </trkpt>
      <trkpt lat="42.73741" lon="0.20207">
        <ele>2308</ele>
        <time>2019-02-26T10:10:38Z</time>
      </trkpt>
      <trkpt lat="42.73735" lon="0.20211">
        <ele>2310</ele>
        <time>2019-02-26T10:10:47Z</time>
      </trkpt>
      <trkpt lat="42.7373" lon="0.20216">
        <ele>2310</ele>
        <time>2019-02-26T10:10:56Z</time>
      </trkpt>
      <trkpt lat="42.73728" lon="0.20217">
        <ele>2310</ele>
        <time>2019-02-26T10:10:59Z</time>
      </trkpt>
      <trkpt lat="42.73726" lon="0.20218">
        <ele>2310</ele>
        <time>2019-02-26T10:11:02Z</time>
      </trkpt>
      <trkpt lat="42.73724" lon="0.20219">
        <ele>2311</ele>
        <time>2019-02-26T10:11:05Z</time>
      </trkpt>
      <trkpt lat="42.7372" lon="0.20223">
        <ele>2311</ele>
        <time>2019-02-26T10:11:11Z</time>
      </trkpt>
      <trkpt lat="42.73718" lon="0.20224">
        <ele>2311</ele>
        <time>2019-02-26T10:11:14Z</time>
      </trkpt>
      <trkpt lat="42.7371" lon="0.20229">
        <ele>2313</ele>
        <time>2019-02-26T10:11:26Z</time>
      </trkpt>
      <trkpt lat="42.73704" lon="0.20232">
        <ele>2315</ele>
        <time>2019-02-26T10:11:35Z</time>
      </trkpt>
      <trkpt lat="42.737" lon="0.20234">
        <ele>2314</ele>
        <time>2019-02-26T10:11:41Z</time>
      </trkpt>
      <trkpt lat="42.73697" lon="0.20235">
        <ele>2314</ele>
        <time>2019-02-26T10:11:44Z</time>
      </trkpt>
      <trkpt lat="42.73695" lon="0.20236">
        <ele>2315</ele>
        <time>2019-02-26T10:11:47Z</time>
      </trkpt>
      <trkpt lat="42.73693" lon="0.20236">
        <ele>2315</ele>
        <time>2019-02-26T10:11:50Z</time>
      </trkpt>
      <trkpt lat="42.73691" lon="0.20237">
        <ele>2315</ele>
        <time>2019-02-26T10:11:53Z</time>
      </trkpt>
      <trkpt lat="42.73689" lon="0.20238">
        <ele>2316</ele>
        <time>2019-02-26T10:11:56Z</time>
      </trkpt>
      <trkpt lat="42.73685" lon="0.20239">
        <ele>2315</ele>
        <time>2019-02-26T10:12:02Z</time>
      </trkpt>
      <trkpt lat="42.73683" lon="0.2024">
        <ele>2316</ele>
        <time>2019-02-26T10:12:06Z</time>
      </trkpt>
      <trkpt lat="42.73681" lon="0.20241">
        <ele>2317</ele>
        <time>2019-02-26T10:12:09Z</time>
      </trkpt>
      <trkpt lat="42.73672" lon="0.20245">
        <ele>2317</ele>
        <time>2019-02-26T10:12:21Z</time>
      </trkpt>
      <trkpt lat="42.7367" lon="0.20245">
        <ele>2317</ele>
        <time>2019-02-26T10:12:24Z</time>
      </trkpt>
      <trkpt lat="42.73667" lon="0.20246">
        <ele>2316</ele>
        <time>2019-02-26T10:12:27Z</time>
      </trkpt>
      <trkpt lat="42.73665" lon="0.20248">
        <ele>2318</ele>
        <time>2019-02-26T10:12:30Z</time>
      </trkpt>
      <trkpt lat="42.73663" lon="0.20249">
        <ele>2318</ele>
        <time>2019-02-26T10:12:33Z</time>
      </trkpt>
      <trkpt lat="42.73661" lon="0.2025">
        <ele>2318</ele>
        <time>2019-02-26T10:12:35Z</time>
      </trkpt>
      <trkpt lat="42.73659" lon="0.2025">
        <ele>2318</ele>
        <time>2019-02-26T10:12:38Z</time>
      </trkpt>
      <trkpt lat="42.73657" lon="0.20251">
        <ele>2319</ele>
        <time>2019-02-26T10:12:41Z</time>
      </trkpt>
      <trkpt lat="42.73654" lon="0.20252">
        <ele>2321</ele>
        <time>2019-02-26T10:12:44Z</time>
      </trkpt>
      <trkpt lat="42.73653" lon="0.20252">
        <ele>2318</ele>
        <time>2019-02-26T10:12:47Z</time>
      </trkpt>
      <trkpt lat="42.73651" lon="0.20253">
        <ele>2319</ele>
        <time>2019-02-26T10:12:50Z</time>
      </trkpt>
      <trkpt lat="42.73648" lon="0.20254">
        <ele>2320</ele>
        <time>2019-02-26T10:12:54Z</time>
      </trkpt>
      <trkpt lat="42.73643" lon="0.20257">
        <ele>2321</ele>
        <time>2019-02-26T10:13:05Z</time>
      </trkpt>
      <trkpt lat="42.73641" lon="0.20258">
        <ele>2321</ele>
        <time>2019-02-26T10:13:09Z</time>
      </trkpt>
      <trkpt lat="42.73639" lon="0.20259">
        <ele>2323</ele>
        <time>2019-02-26T10:13:13Z</time>
      </trkpt>
      <trkpt lat="42.73638" lon="0.20261">
        <ele>2323</ele>
        <time>2019-02-26T10:13:17Z</time>
      </trkpt>
      <trkpt lat="42.73635" lon="0.20266">
        <ele>2322</ele>
        <time>2019-02-26T10:13:24Z</time>
      </trkpt>
      <trkpt lat="42.73634" lon="0.20268">
        <ele>2322</ele>
        <time>2019-02-26T10:13:27Z</time>
      </trkpt>
      <trkpt lat="42.73633" lon="0.20271">
        <ele>2322</ele>
        <time>2019-02-26T10:13:30Z</time>
      </trkpt>
      <trkpt lat="42.73626" lon="0.20282">
        <ele>2324</ele>
        <time>2019-02-26T10:13:45Z</time>
      </trkpt>
      <trkpt lat="42.73624" lon="0.20283">
        <ele>2324</ele>
        <time>2019-02-26T10:13:49Z</time>
      </trkpt>
      <trkpt lat="42.73622" lon="0.20285">
        <ele>2323</ele>
        <time>2019-02-26T10:13:53Z</time>
      </trkpt>
      <trkpt lat="42.7362" lon="0.20286">
        <ele>2324</ele>
        <time>2019-02-26T10:13:56Z</time>
      </trkpt>
      <trkpt lat="42.73617" lon="0.20287">
        <ele>2325</ele>
        <time>2019-02-26T10:14:00Z</time>
      </trkpt>
      <trkpt lat="42.73616" lon="0.20288">
        <ele>2325</ele>
        <time>2019-02-26T10:14:03Z</time>
      </trkpt>
      <trkpt lat="42.73614" lon="0.20289">
        <ele>2325</ele>
        <time>2019-02-26T10:14:06Z</time>
      </trkpt>
      <trkpt lat="42.73612" lon="0.20291">
        <ele>2326</ele>
        <time>2019-02-26T10:14:10Z</time>
      </trkpt>
      <trkpt lat="42.73606" lon="0.20295">
        <ele>2326</ele>
        <time>2019-02-26T10:14:21Z</time>
      </trkpt>
      <trkpt lat="42.73604" lon="0.20296">
        <ele>2327</ele>
        <time>2019-02-26T10:14:25Z</time>
      </trkpt>
      <trkpt lat="42.73602" lon="0.20298">
        <ele>2327</ele>
        <time>2019-02-26T10:14:29Z</time>
      </trkpt>
      <trkpt lat="42.736" lon="0.20299">
        <ele>2327</ele>
        <time>2019-02-26T10:14:33Z</time>
      </trkpt>
      <trkpt lat="42.73598" lon="0.20299">
        <ele>2328</ele>
        <time>2019-02-26T10:14:37Z</time>
      </trkpt>
      <trkpt lat="42.73594" lon="0.20301">
        <ele>2328</ele>
        <time>2019-02-26T10:14:48Z</time>
      </trkpt>
      <trkpt lat="42.73592" lon="0.20302">
        <ele>2329</ele>
        <time>2019-02-26T10:14:52Z</time>
      </trkpt>
      <trkpt lat="42.7359" lon="0.20303">
        <ele>2329</ele>
        <time>2019-02-26T10:14:56Z</time>
      </trkpt>
      <trkpt lat="42.73589" lon="0.20303">
        <ele>2330</ele>
        <time>2019-02-26T10:15:00Z</time>
      </trkpt>
      <trkpt lat="42.73587" lon="0.20301">
        <ele>2330</ele>
        <time>2019-02-26T10:15:04Z</time>
      </trkpt>
      <trkpt lat="42.73585" lon="0.20299">
        <ele>2331</ele>
        <time>2019-02-26T10:15:09Z</time>
      </trkpt>
      <trkpt lat="42.73584" lon="0.20298">
        <ele>2333</ele>
        <time>2019-02-26T10:15:14Z</time>
      </trkpt>
      <trkpt lat="42.73582" lon="0.20299">
        <ele>2334</ele>
        <time>2019-02-26T10:15:18Z</time>
      </trkpt>
      <trkpt lat="42.7358" lon="0.20301">
        <ele>2334</ele>
        <time>2019-02-26T10:15:22Z</time>
      </trkpt>
      <trkpt lat="42.73578" lon="0.20303">
        <ele>2335</ele>
        <time>2019-02-26T10:15:26Z</time>
      </trkpt>
      <trkpt lat="42.73576" lon="0.20304">
        <ele>2335</ele>
        <time>2019-02-26T10:15:29Z</time>
      </trkpt>
      <trkpt lat="42.73573" lon="0.20308">
        <ele>2336</ele>
        <time>2019-02-26T10:15:36Z</time>
      </trkpt>
      <trkpt lat="42.73571" lon="0.20309">
        <ele>2336</ele>
        <time>2019-02-26T10:15:39Z</time>
      </trkpt>
      <trkpt lat="42.7357" lon="0.20311">
        <ele>2337</ele>
        <time>2019-02-26T10:15:42Z</time>
      </trkpt>
      <trkpt lat="42.73567" lon="0.20315">
        <ele>2338</ele>
        <time>2019-02-26T10:15:48Z</time>
      </trkpt>
      <trkpt lat="42.73565" lon="0.20317">
        <ele>2339</ele>
        <time>2019-02-26T10:15:52Z</time>
      </trkpt>
      <trkpt lat="42.73561" lon="0.20319">
        <ele>2339</ele>
        <time>2019-02-26T10:16:00Z</time>
      </trkpt>
      <trkpt lat="42.73559" lon="0.20319">
        <ele>2339</ele>
        <time>2019-02-26T10:16:05Z</time>
      </trkpt>
      <trkpt lat="42.73557" lon="0.20319">
        <ele>2339</ele>
        <time>2019-02-26T10:16:08Z</time>
      </trkpt>
      <trkpt lat="42.73555" lon="0.20319">
        <ele>2340</ele>
        <time>2019-02-26T10:16:12Z</time>
      </trkpt>
      <trkpt lat="42.73553" lon="0.20317">
        <ele>2339</ele>
        <time>2019-02-26T10:16:16Z</time>
      </trkpt>
      <trkpt lat="42.73551" lon="0.20316">
        <ele>2340</ele>
        <time>2019-02-26T10:16:19Z</time>
      </trkpt>
      <trkpt lat="42.73549" lon="0.20316">
        <ele>2341</ele>
        <time>2019-02-26T10:16:23Z</time>
      </trkpt>
      <trkpt lat="42.73545" lon="0.20316">
        <ele>2343</ele>
        <time>2019-02-26T10:16:30Z</time>
      </trkpt>
      <trkpt lat="42.73543" lon="0.20318">
        <ele>2343</ele>
        <time>2019-02-26T10:16:33Z</time>
      </trkpt>
      <trkpt lat="42.73542" lon="0.20319">
        <ele>2343</ele>
        <time>2019-02-26T10:16:36Z</time>
      </trkpt>
      <trkpt lat="42.73534" lon="0.20326">
        <ele>2344</ele>
        <time>2019-02-26T10:16:50Z</time>
      </trkpt>
      <trkpt lat="42.73533" lon="0.20328">
        <ele>2344</ele>
        <time>2019-02-26T10:16:53Z</time>
      </trkpt>
      <trkpt lat="42.7353" lon="0.20331">
        <ele>2344</ele>
        <time>2019-02-26T10:16:59Z</time>
      </trkpt>
      <trkpt lat="42.73528" lon="0.20332">
        <ele>2344</ele>
        <time>2019-02-26T10:17:02Z</time>
      </trkpt>
      <trkpt lat="42.73526" lon="0.20333">
        <ele>2345</ele>
        <time>2019-02-26T10:17:05Z</time>
      </trkpt>
      <trkpt lat="42.73521" lon="0.20338">
        <ele>2347</ele>
        <time>2019-02-26T10:17:14Z</time>
      </trkpt>
      <trkpt lat="42.73519" lon="0.20339">
        <ele>2347</ele>
        <time>2019-02-26T10:17:17Z</time>
      </trkpt>
      <trkpt lat="42.73517" lon="0.20341">
        <ele>2347</ele>
        <time>2019-02-26T10:17:20Z</time>
      </trkpt>
      <trkpt lat="42.73515" lon="0.20343">
        <ele>2347</ele>
        <time>2019-02-26T10:17:23Z</time>
      </trkpt>
      <trkpt lat="42.73512" lon="0.20346">
        <ele>2348</ele>
        <time>2019-02-26T10:17:29Z</time>
      </trkpt>
      <trkpt lat="42.7351" lon="0.20347">
        <ele>2349</ele>
        <time>2019-02-26T10:17:32Z</time>
      </trkpt>
      <trkpt lat="42.73508" lon="0.20348">
        <ele>2350</ele>
        <time>2019-02-26T10:17:35Z</time>
      </trkpt>
      <trkpt lat="42.73507" lon="0.2035">
        <ele>2349</ele>
        <time>2019-02-26T10:17:38Z</time>
      </trkpt>
      <trkpt lat="42.73505" lon="0.20352">
        <ele>2349</ele>
        <time>2019-02-26T10:17:41Z</time>
      </trkpt>
      <trkpt lat="42.73498" lon="0.20358">
        <ele>2351</ele>
        <time>2019-02-26T10:17:54Z</time>
      </trkpt>
      <trkpt lat="42.73494" lon="0.20362">
        <ele>2352</ele>
        <time>2019-02-26T10:18:01Z</time>
      </trkpt>
      <trkpt lat="42.73493" lon="0.20364">
        <ele>2352</ele>
        <time>2019-02-26T10:18:04Z</time>
      </trkpt>
      <trkpt lat="42.73488" lon="0.20371">
        <ele>2352</ele>
        <time>2019-02-26T10:18:13Z</time>
      </trkpt>
      <trkpt lat="42.73481" lon="0.20379">
        <ele>2353</ele>
        <time>2019-02-26T10:18:25Z</time>
      </trkpt>
      <trkpt lat="42.73478" lon="0.20382">
        <ele>2354</ele>
        <time>2019-02-26T10:18:31Z</time>
      </trkpt>
      <trkpt lat="42.73468" lon="0.20387">
        <ele>2357</ele>
        <time>2019-02-26T10:18:48Z</time>
      </trkpt>
      <trkpt lat="42.73466" lon="0.20388">
        <ele>2357</ele>
        <time>2019-02-26T10:18:51Z</time>
      </trkpt>
      <trkpt lat="42.73464" lon="0.20389">
        <ele>2357</ele>
        <time>2019-02-26T10:18:55Z</time>
      </trkpt>
      <trkpt lat="42.73462" lon="0.20389">
        <ele>2360</ele>
        <time>2019-02-26T10:18:58Z</time>
      </trkpt>
      <trkpt lat="42.7346" lon="0.2039">
        <ele>2359</ele>
        <time>2019-02-26T10:19:01Z</time>
      </trkpt>
      <trkpt lat="42.73458" lon="0.2039">
        <ele>2360</ele>
        <time>2019-02-26T10:19:04Z</time>
      </trkpt>
      <trkpt lat="42.73456" lon="0.20391">
        <ele>2360</ele>
        <time>2019-02-26T10:19:08Z</time>
      </trkpt>
      <trkpt lat="42.73455" lon="0.20392">
        <ele>2360</ele>
        <time>2019-02-26T10:19:11Z</time>
      </trkpt>
      <trkpt lat="42.73451" lon="0.20393">
        <ele>2361</ele>
        <time>2019-02-26T10:19:19Z</time>
      </trkpt>
      <trkpt lat="42.73446" lon="0.20394">
        <ele>2363</ele>
        <time>2019-02-26T10:19:27Z</time>
      </trkpt>
      <trkpt lat="42.73444" lon="0.20394">
        <ele>2363</ele>
        <time>2019-02-26T10:19:30Z</time>
      </trkpt>
      <trkpt lat="42.7344" lon="0.20394">
        <ele>2363</ele>
        <time>2019-02-26T10:19:35Z</time>
      </trkpt>
      <trkpt lat="42.73438" lon="0.20394">
        <ele>2364</ele>
        <time>2019-02-26T10:19:38Z</time>
      </trkpt>
      <trkpt lat="42.73436" lon="0.20394">
        <ele>2364</ele>
        <time>2019-02-26T10:19:41Z</time>
      </trkpt>
      <trkpt lat="42.73433" lon="0.20394">
        <ele>2365</ele>
        <time>2019-02-26T10:19:44Z</time>
      </trkpt>
      <trkpt lat="42.73427" lon="0.20394">
        <ele>2365</ele>
        <time>2019-02-26T10:19:54Z</time>
      </trkpt>
      <trkpt lat="42.73425" lon="0.20394">
        <ele>2365</ele>
        <time>2019-02-26T10:19:57Z</time>
      </trkpt>
      <trkpt lat="42.73423" lon="0.20394">
        <ele>2366</ele>
        <time>2019-02-26T10:20:00Z</time>
      </trkpt>
      <trkpt lat="42.73413" lon="0.20392">
        <ele>2367</ele>
        <time>2019-02-26T10:20:20Z</time>
      </trkpt>
      <trkpt lat="42.73402" lon="0.2039">
        <ele>2369</ele>
        <time>2019-02-26T10:20:36Z</time>
      </trkpt>
      <trkpt lat="42.734" lon="0.2039">
        <ele>2370</ele>
        <time>2019-02-26T10:20:41Z</time>
      </trkpt>
      <trkpt lat="42.73398" lon="0.20391">
        <ele>2370</ele>
        <time>2019-02-26T10:20:44Z</time>
      </trkpt>
      <trkpt lat="42.73392" lon="0.2039">
        <ele>2371</ele>
        <time>2019-02-26T10:20:54Z</time>
      </trkpt>
      <trkpt lat="42.7339" lon="0.20391">
        <ele>2372</ele>
        <time>2019-02-26T10:20:58Z</time>
      </trkpt>
      <trkpt lat="42.73388" lon="0.20392">
        <ele>2372</ele>
        <time>2019-02-26T10:21:02Z</time>
      </trkpt>
      <trkpt lat="42.73383" lon="0.20391">
        <ele>2373</ele>
        <time>2019-02-26T10:21:10Z</time>
      </trkpt>
      <trkpt lat="42.73381" lon="0.20391">
        <ele>2374</ele>
        <time>2019-02-26T10:21:14Z</time>
      </trkpt>
      <trkpt lat="42.73372" lon="0.20391">
        <ele>2375</ele>
        <time>2019-02-26T10:21:29Z</time>
      </trkpt>
      <trkpt lat="42.73362" lon="0.20389">
        <ele>2375</ele>
        <time>2019-02-26T10:21:44Z</time>
      </trkpt>
      <trkpt lat="42.73353" lon="0.20388">
        <ele>2378</ele>
        <time>2019-02-26T10:22:05Z</time>
      </trkpt>
      <trkpt lat="42.73343" lon="0.20389">
        <ele>2381</ele>
        <time>2019-02-26T10:22:29Z</time>
      </trkpt>
      <trkpt lat="42.73335" lon="0.20395">
        <ele>2383</ele>
        <time>2019-02-26T10:23:08Z</time>
      </trkpt>
      <trkpt lat="42.73328" lon="0.20402">
        <ele>2383</ele>
        <time>2019-02-26T10:29:48Z</time>
      </trkpt>
      <trkpt lat="42.73332" lon="0.20398">
        <ele>2383</ele>
        <time>2019-02-26T10:30:23Z</time>
      </trkpt>
      <trkpt lat="42.73328" lon="0.204">
        <ele>2385</ele>
        <time>2019-02-26T10:33:53Z</time>
      </trkpt>
      <trkpt lat="42.73326" lon="0.20397">
        <ele>2386</ele>
        <time>2019-02-26T10:33:57Z</time>
      </trkpt>
      <trkpt lat="42.73325" lon="0.20385">
        <ele>2388</ele>
        <time>2019-02-26T10:34:12Z</time>
      </trkpt>
      <trkpt lat="42.73323" lon="0.20372">
        <ele>2389</ele>
        <time>2019-02-26T10:35:16Z</time>
      </trkpt>
      <trkpt lat="42.73321" lon="0.20381">
        <ele>2390</ele>
        <time>2019-02-26T10:35:49Z</time>
      </trkpt>
      <trkpt lat="42.73319" lon="0.2038">
        <ele>2390</ele>
        <time>2019-02-26T10:35:54Z</time>
      </trkpt>
      <trkpt lat="42.73318" lon="0.20378">
        <ele>2390</ele>
        <time>2019-02-26T10:35:57Z</time>
      </trkpt>
      <trkpt lat="42.73318" lon="0.20376">
        <ele>2392</ele>
        <time>2019-02-26T10:36:00Z</time>
      </trkpt>
      <trkpt lat="42.73316" lon="0.20377">
        <ele>2392</ele>
        <time>2019-02-26T10:36:02Z</time>
      </trkpt>
      <trkpt lat="42.73315" lon="0.20375">
        <ele>2392</ele>
        <time>2019-02-26T10:36:06Z</time>
      </trkpt>
      <trkpt lat="42.73313" lon="0.20375">
        <ele>2392</ele>
        <time>2019-02-26T10:36:08Z</time>
      </trkpt>
      <trkpt lat="42.73311" lon="0.20377">
        <ele>2392</ele>
        <time>2019-02-26T10:36:10Z</time>
      </trkpt>
      <trkpt lat="42.7331" lon="0.20379">
        <ele>2393</ele>
        <time>2019-02-26T10:36:13Z</time>
      </trkpt>
      <trkpt lat="42.73308" lon="0.20381">
        <ele>2393</ele>
        <time>2019-02-26T10:36:15Z</time>
      </trkpt>
      <trkpt lat="42.73305" lon="0.20386">
        <ele>2394</ele>
        <time>2019-02-26T10:36:20Z</time>
      </trkpt>
      <trkpt lat="42.73303" lon="0.20385">
        <ele>2395</ele>
        <time>2019-02-26T10:36:30Z</time>
      </trkpt>
      <trkpt lat="42.73302" lon="0.20388">
        <ele>2395</ele>
        <time>2019-02-26T10:36:32Z</time>
      </trkpt>
      <trkpt lat="42.733" lon="0.20389">
        <ele>2395</ele>
        <time>2019-02-26T10:36:34Z</time>
      </trkpt>
      <trkpt lat="42.73299" lon="0.20391">
        <ele>2396</ele>
        <time>2019-02-26T10:36:37Z</time>
      </trkpt>
      <trkpt lat="42.73295" lon="0.20398">
        <ele>2396</ele>
        <time>2019-02-26T10:36:43Z</time>
      </trkpt>
      <trkpt lat="42.73291" lon="0.20409">
        <ele>2398</ele>
        <time>2019-02-26T10:37:08Z</time>
      </trkpt>
      <trkpt lat="42.73282" lon="0.20406">
        <ele>2399</ele>
        <time>2019-02-26T10:37:30Z</time>
      </trkpt>
      <trkpt lat="42.73277" lon="0.20408">
        <ele>2402</ele>
        <time>2019-02-26T10:37:44Z</time>
      </trkpt>
      <trkpt lat="42.73276" lon="0.20411">
        <ele>2402</ele>
        <time>2019-02-26T10:37:48Z</time>
      </trkpt>
      <trkpt lat="42.73273" lon="0.20418">
        <ele>2404</ele>
        <time>2019-02-26T10:37:58Z</time>
      </trkpt>
      <trkpt lat="42.73274" lon="0.2042">
        <ele>2404</ele>
        <time>2019-02-26T10:38:02Z</time>
      </trkpt>
      <trkpt lat="42.73272" lon="0.20422">
        <ele>2404</ele>
        <time>2019-02-26T10:38:06Z</time>
      </trkpt>
      <trkpt lat="42.73264" lon="0.20426">
        <ele>2409</ele>
        <time>2019-02-26T10:38:33Z</time>
      </trkpt>
      <trkpt lat="42.73261" lon="0.20422">
        <ele>2410</ele>
        <time>2019-02-26T10:38:40Z</time>
      </trkpt>
      <trkpt lat="42.7326" lon="0.20419">
        <ele>2410</ele>
        <time>2019-02-26T10:38:46Z</time>
      </trkpt>
      <trkpt lat="42.7326" lon="0.20418">
        <ele>2411</ele>
        <time>2019-02-26T10:38:47Z</time>
      </trkpt>
      <trkpt lat="42.7326" lon="0.20418">
        <ele>2411</ele>
        <time>2019-02-26T10:38:48Z</time>
      </trkpt>
      <trkpt lat="42.7326" lon="0.20418">
        <ele>2412</ele>
        <time>2019-02-26T10:38:49Z</time>
      </trkpt>
      <trkpt lat="42.7326" lon="0.20417">
        <ele>2412</ele>
        <time>2019-02-26T10:38:50Z</time>
      </trkpt>
      <trkpt lat="42.7326" lon="0.20417">
        <ele>2412</ele>
        <time>2019-02-26T10:38:51Z</time>
      </trkpt>
      <trkpt lat="42.73259" lon="0.20417">
        <ele>2412</ele>
        <time>2019-02-26T10:38:52Z</time>
      </trkpt>
      <trkpt lat="42.73259" lon="0.20416">
        <ele>2412</ele>
        <time>2019-02-26T10:38:53Z</time>
      </trkpt>
      <trkpt lat="42.73259" lon="0.20416">
        <ele>2412</ele>
        <time>2019-02-26T10:38:54Z</time>
      </trkpt>
      <trkpt lat="42.73259" lon="0.20415">
        <ele>2412</ele>
        <time>2019-02-26T10:38:55Z</time>
      </trkpt>
      <trkpt lat="42.73259" lon="0.20415">
        <ele>2412</ele>
        <time>2019-02-26T10:38:56Z</time>
      </trkpt>
      <trkpt lat="42.73259" lon="0.20415">
        <ele>2412</ele>
        <time>2019-02-26T10:38:57Z</time>
      </trkpt>
      <trkpt lat="42.73259" lon="0.20414">
        <ele>2412</ele>
        <time>2019-02-26T10:38:58Z</time>
      </trkpt>
      <trkpt lat="42.73259" lon="0.20414">
        <ele>2412</ele>
        <time>2019-02-26T10:38:59Z</time>
      </trkpt>
      <trkpt lat="42.73258" lon="0.20414">
        <ele>2412</ele>
        <time>2019-02-26T10:39:00Z</time>
      </trkpt>
      <trkpt lat="42.73258" lon="0.20413">
        <ele>2412</ele>
        <time>2019-02-26T10:39:01Z</time>
      </trkpt>
      <trkpt lat="42.73256" lon="0.20407">
        <ele>2412</ele>
        <time>2019-02-26T10:39:03Z</time>
      </trkpt>
      <trkpt lat="42.7325" lon="0.20398">
        <ele>2413</ele>
        <time>2019-02-26T10:39:16Z</time>
      </trkpt>
      <trkpt lat="42.73248" lon="0.20385">
        <ele>2415</ele>
        <time>2019-02-26T10:39:33Z</time>
      </trkpt>
      <trkpt lat="42.73241" lon="0.20379">
        <ele>2419</ele>
        <time>2019-02-26T10:40:11Z</time>
      </trkpt>
      <trkpt lat="42.73236" lon="0.2039">
        <ele>2421</ele>
        <time>2019-02-26T10:40:33Z</time>
      </trkpt>
      <trkpt lat="42.7323" lon="0.20399">
        <ele>2422</ele>
        <time>2019-02-26T10:40:47Z</time>
      </trkpt>
      <trkpt lat="42.73221" lon="0.20395">
        <ele>2427</ele>
        <time>2019-02-26T10:41:19Z</time>
      </trkpt>
      <trkpt lat="42.73213" lon="0.20373">
        <ele>2431</ele>
        <time>2019-02-26T10:41:52Z</time>
      </trkpt>
      <trkpt lat="42.7321" lon="0.20361">
        <ele>2432</ele>
        <time>2019-02-26T10:42:10Z</time>
      </trkpt>
      <trkpt lat="42.73209" lon="0.20345">
        <ele>2435</ele>
        <time>2019-02-26T10:42:31Z</time>
      </trkpt>
      <trkpt lat="42.732" lon="0.20347">
        <ele>2439</ele>
        <time>2019-02-26T10:43:03Z</time>
      </trkpt>
      <trkpt lat="42.73188" lon="0.20357">
        <ele>2440</ele>
        <time>2019-02-26T10:43:27Z</time>
      </trkpt>
      <trkpt lat="42.73181" lon="0.20364">
        <ele>2443</ele>
        <time>2019-02-26T10:43:42Z</time>
      </trkpt>
      <trkpt lat="42.73175" lon="0.20368">
        <ele>2446</ele>
        <time>2019-02-26T10:43:59Z</time>
      </trkpt>
      <trkpt lat="42.7317" lon="0.20343">
        <ele>2451</ele>
        <time>2019-02-26T10:44:30Z</time>
      </trkpt>
      <trkpt lat="42.7317" lon="0.20339">
        <ele>2453</ele>
        <time>2019-02-26T10:44:38Z</time>
      </trkpt>
      <trkpt lat="42.73168" lon="0.20327">
        <ele>2454</ele>
        <time>2019-02-26T10:44:53Z</time>
      </trkpt>
      <trkpt lat="42.7317" lon="0.20314">
        <ele>2455</ele>
        <time>2019-02-26T10:45:07Z</time>
      </trkpt>
      <trkpt lat="42.73162" lon="0.20321">
        <ele>2456</ele>
        <time>2019-02-26T10:45:27Z</time>
      </trkpt>
      <trkpt lat="42.73147" lon="0.20336">
        <ele>2462</ele>
        <time>2019-02-26T10:46:00Z</time>
      </trkpt>
      <trkpt lat="42.73141" lon="0.20328">
        <ele>2467</ele>
        <time>2019-02-26T10:46:29Z</time>
      </trkpt>
      <trkpt lat="42.7314" lon="0.20325">
        <ele>2467</ele>
        <time>2019-02-26T10:46:32Z</time>
      </trkpt>
      <trkpt lat="42.73139" lon="0.203">
        <ele>2473</ele>
        <time>2019-02-26T10:47:08Z</time>
      </trkpt>
      <trkpt lat="42.73132" lon="0.20308">
        <ele>2475</ele>
        <time>2019-02-26T10:47:30Z</time>
      </trkpt>
      <trkpt lat="42.73124" lon="0.20316">
        <ele>2477</ele>
        <time>2019-02-26T10:47:43Z</time>
      </trkpt>
      <trkpt lat="42.73114" lon="0.20333">
        <ele>2480</ele>
        <time>2019-02-26T10:48:13Z</time>
      </trkpt>
      <trkpt lat="42.73112" lon="0.20335">
        <ele>2481</ele>
        <time>2019-02-26T10:48:16Z</time>
      </trkpt>
      <trkpt lat="42.73111" lon="0.20337">
        <ele>2481</ele>
        <time>2019-02-26T10:48:19Z</time>
      </trkpt>
      <trkpt lat="42.73109" lon="0.20339">
        <ele>2482</ele>
        <time>2019-02-26T10:48:23Z</time>
      </trkpt>
      <trkpt lat="42.73108" lon="0.20336">
        <ele>2484</ele>
        <time>2019-02-26T10:48:30Z</time>
      </trkpt>
      <trkpt lat="42.73108" lon="0.20333">
        <ele>2485</ele>
        <time>2019-02-26T10:48:35Z</time>
      </trkpt>
      <trkpt lat="42.73107" lon="0.20327">
        <ele>2486</ele>
        <time>2019-02-26T10:48:43Z</time>
      </trkpt>
      <trkpt lat="42.73107" lon="0.20318">
        <ele>2488</ele>
        <time>2019-02-26T10:48:54Z</time>
      </trkpt>
      <trkpt lat="42.73107" lon="0.2031">
        <ele>2490</ele>
        <time>2019-02-26T10:49:04Z</time>
      </trkpt>
      <trkpt lat="42.73107" lon="0.20305">
        <ele>2491</ele>
        <time>2019-02-26T10:49:10Z</time>
      </trkpt>
      <trkpt lat="42.7311" lon="0.20295">
        <ele>2492</ele>
        <time>2019-02-26T10:49:19Z</time>
      </trkpt>
      <trkpt lat="42.73111" lon="0.20293">
        <ele>2492</ele>
        <time>2019-02-26T10:49:24Z</time>
      </trkpt>
      <trkpt lat="42.73111" lon="0.2029">
        <ele>2493</ele>
        <time>2019-02-26T10:49:28Z</time>
      </trkpt>
      <trkpt lat="42.7311" lon="0.20288">
        <ele>2493</ele>
        <time>2019-02-26T10:49:36Z</time>
      </trkpt>
      <trkpt lat="42.73109" lon="0.2029">
        <ele>2493</ele>
        <time>2019-02-26T10:49:40Z</time>
      </trkpt>
      <trkpt lat="42.73107" lon="0.20292">
        <ele>2493</ele>
        <time>2019-02-26T10:49:44Z</time>
      </trkpt>
      <trkpt lat="42.73104" lon="0.20295">
        <ele>2494</ele>
        <time>2019-02-26T10:49:50Z</time>
      </trkpt>
      <trkpt lat="42.73102" lon="0.20296">
        <ele>2496</ele>
        <time>2019-02-26T10:49:54Z</time>
      </trkpt>
      <trkpt lat="42.73093" lon="0.20306">
        <ele>2498</ele>
        <time>2019-02-26T10:50:14Z</time>
      </trkpt>
      <trkpt lat="42.7309" lon="0.20309">
        <ele>2498</ele>
        <time>2019-02-26T10:50:20Z</time>
      </trkpt>
      <trkpt lat="42.73077" lon="0.20328">
        <ele>2505</ele>
        <time>2019-02-26T10:50:59Z</time>
      </trkpt>
      <trkpt lat="42.73076" lon="0.20326">
        <ele>2507</ele>
        <time>2019-02-26T10:51:10Z</time>
      </trkpt>
      <trkpt lat="42.73075" lon="0.20315">
        <ele>2509</ele>
        <time>2019-02-26T10:51:28Z</time>
      </trkpt>
      <trkpt lat="42.73075" lon="0.20312">
        <ele>2509</ele>
        <time>2019-02-26T10:51:33Z</time>
      </trkpt>
      <trkpt lat="42.73075" lon="0.20309">
        <ele>2509</ele>
        <time>2019-02-26T10:51:36Z</time>
      </trkpt>
      <trkpt lat="42.73075" lon="0.20306">
        <ele>2509</ele>
        <time>2019-02-26T10:51:38Z</time>
      </trkpt>
      <trkpt lat="42.73075" lon="0.20303">
        <ele>2509</ele>
        <time>2019-02-26T10:51:43Z</time>
      </trkpt>
      <trkpt lat="42.7308" lon="0.20266">
        <ele>2515</ele>
        <time>2019-02-26T10:52:23Z</time>
      </trkpt>
      <trkpt lat="42.73081" lon="0.20263">
        <ele>2517</ele>
        <time>2019-02-26T10:52:26Z</time>
      </trkpt>
      <trkpt lat="42.73082" lon="0.2026">
        <ele>2517</ele>
        <time>2019-02-26T10:52:29Z</time>
      </trkpt>
      <trkpt lat="42.73083" lon="0.20257">
        <ele>2517</ele>
        <time>2019-02-26T10:52:32Z</time>
      </trkpt>
      <trkpt lat="42.73084" lon="0.20251">
        <ele>2518</ele>
        <time>2019-02-26T10:52:38Z</time>
      </trkpt>
      <trkpt lat="42.73087" lon="0.2024">
        <ele>2520</ele>
        <time>2019-02-26T10:52:52Z</time>
      </trkpt>
      <trkpt lat="42.73089" lon="0.20235">
        <ele>2521</ele>
        <time>2019-02-26T10:52:59Z</time>
      </trkpt>
      <trkpt lat="42.73092" lon="0.20227">
        <ele>2523</ele>
        <time>2019-02-26T10:53:11Z</time>
      </trkpt>
      <trkpt lat="42.73094" lon="0.20222">
        <ele>2524</ele>
        <time>2019-02-26T10:53:17Z</time>
      </trkpt>
      <trkpt lat="42.73095" lon="0.20219">
        <ele>2524</ele>
        <time>2019-02-26T10:53:21Z</time>
      </trkpt>
      <trkpt lat="42.73097" lon="0.20214">
        <ele>2525</ele>
        <time>2019-02-26T10:53:29Z</time>
      </trkpt>
      <trkpt lat="42.73098" lon="0.20211">
        <ele>2525</ele>
        <time>2019-02-26T10:53:32Z</time>
      </trkpt>
      <trkpt lat="42.73099" lon="0.20208">
        <ele>2526</ele>
        <time>2019-02-26T10:53:35Z</time>
      </trkpt>
      <trkpt lat="42.73099" lon="0.20206">
        <ele>2526</ele>
        <time>2019-02-26T10:53:38Z</time>
      </trkpt>
      <trkpt lat="42.73099" lon="0.20203">
        <ele>2527</ele>
        <time>2019-02-26T10:53:40Z</time>
      </trkpt>
      <trkpt lat="42.73101" lon="0.20198">
        <ele>2529</ele>
        <time>2019-02-26T10:53:47Z</time>
      </trkpt>
      <trkpt lat="42.73102" lon="0.20195">
        <ele>2529</ele>
        <time>2019-02-26T10:53:51Z</time>
      </trkpt>
      <trkpt lat="42.73103" lon="0.20193">
        <ele>2529</ele>
        <time>2019-02-26T10:53:54Z</time>
      </trkpt>
      <trkpt lat="42.73103" lon="0.2019">
        <ele>2529</ele>
        <time>2019-02-26T10:53:57Z</time>
      </trkpt>
      <trkpt lat="42.73104" lon="0.20188">
        <ele>2530</ele>
        <time>2019-02-26T10:54:00Z</time>
      </trkpt>
      <trkpt lat="42.73105" lon="0.20185">
        <ele>2531</ele>
        <time>2019-02-26T10:54:03Z</time>
      </trkpt>
      <trkpt lat="42.73106" lon="0.20182">
        <ele>2531</ele>
        <time>2019-02-26T10:54:07Z</time>
      </trkpt>
      <trkpt lat="42.73107" lon="0.20179">
        <ele>2531</ele>
        <time>2019-02-26T10:54:11Z</time>
      </trkpt>
      <trkpt lat="42.73107" lon="0.20177">
        <ele>2532</ele>
        <time>2019-02-26T10:54:15Z</time>
      </trkpt>
      <trkpt lat="42.73108" lon="0.20171">
        <ele>2533</ele>
        <time>2019-02-26T10:54:23Z</time>
      </trkpt>
      <trkpt lat="42.73109" lon="0.20168">
        <ele>2534</ele>
        <time>2019-02-26T10:54:27Z</time>
      </trkpt>
      <trkpt lat="42.7311" lon="0.20166">
        <ele>2535</ele>
        <time>2019-02-26T10:54:31Z</time>
      </trkpt>
      <trkpt lat="42.73112" lon="0.20158">
        <ele>2537</ele>
        <time>2019-02-26T10:54:43Z</time>
      </trkpt>
      <trkpt lat="42.73112" lon="0.20155">
        <ele>2538</ele>
        <time>2019-02-26T10:54:47Z</time>
      </trkpt>
      <trkpt lat="42.73111" lon="0.20157">
        <ele>2539</ele>
        <time>2019-02-26T10:54:57Z</time>
      </trkpt>
      <trkpt lat="42.73109" lon="0.20158">
        <ele>2539</ele>
        <time>2019-02-26T10:54:59Z</time>
      </trkpt>
      <trkpt lat="42.73105" lon="0.2016">
        <ele>2539</ele>
        <time>2019-02-26T10:55:05Z</time>
      </trkpt>
      <trkpt lat="42.73103" lon="0.20161">
        <ele>2540</ele>
        <time>2019-02-26T10:55:08Z</time>
      </trkpt>
      <trkpt lat="42.73099" lon="0.20164">
        <ele>2540</ele>
        <time>2019-02-26T10:55:15Z</time>
      </trkpt>
      <trkpt lat="42.73098" lon="0.20165">
        <ele>2541</ele>
        <time>2019-02-26T10:55:17Z</time>
      </trkpt>
      <trkpt lat="42.73096" lon="0.20166">
        <ele>2541</ele>
        <time>2019-02-26T10:55:20Z</time>
      </trkpt>
      <trkpt lat="42.73094" lon="0.20167">
        <ele>2541</ele>
        <time>2019-02-26T10:55:23Z</time>
      </trkpt>
      <trkpt lat="42.73093" lon="0.20164">
        <ele>2543</ele>
        <time>2019-02-26T10:55:31Z</time>
      </trkpt>
      <trkpt lat="42.73095" lon="0.2016">
        <ele>2543</ele>
        <time>2019-02-26T10:55:37Z</time>
      </trkpt>
      <trkpt lat="42.73096" lon="0.20157">
        <ele>2545</ele>
        <time>2019-02-26T10:55:40Z</time>
      </trkpt>
      <trkpt lat="42.73097" lon="0.20155">
        <ele>2546</ele>
        <time>2019-02-26T10:55:43Z</time>
      </trkpt>
      <trkpt lat="42.73097" lon="0.20152">
        <ele>2545</ele>
        <time>2019-02-26T10:55:46Z</time>
      </trkpt>
      <trkpt lat="42.73101" lon="0.20134">
        <ele>2549</ele>
        <time>2019-02-26T10:56:07Z</time>
      </trkpt>
      <trkpt lat="42.73099" lon="0.20136">
        <ele>2549</ele>
        <time>2019-02-26T10:56:15Z</time>
      </trkpt>
      <trkpt lat="42.73097" lon="0.20137">
        <ele>2550</ele>
        <time>2019-02-26T10:56:18Z</time>
      </trkpt>
      <trkpt lat="42.73092" lon="0.20142">
        <ele>2552</ele>
        <time>2019-02-26T10:56:27Z</time>
      </trkpt>
      <trkpt lat="42.73091" lon="0.20143">
        <ele>2553</ele>
        <time>2019-02-26T10:56:30Z</time>
      </trkpt>
      <trkpt lat="42.7308" lon="0.20151">
        <ele>2555</ele>
        <time>2019-02-26T10:56:50Z</time>
      </trkpt>
      <trkpt lat="42.73076" lon="0.20155">
        <ele>2557</ele>
        <time>2019-02-26T10:56:59Z</time>
      </trkpt>
      <trkpt lat="42.73074" lon="0.20157">
        <ele>2558</ele>
        <time>2019-02-26T10:57:03Z</time>
      </trkpt>
      <trkpt lat="42.73072" lon="0.20158">
        <ele>2558</ele>
        <time>2019-02-26T10:57:07Z</time>
      </trkpt>
      <trkpt lat="42.73067" lon="0.20163">
        <ele>2560</ele>
        <time>2019-02-26T10:57:16Z</time>
      </trkpt>
      <trkpt lat="42.73065" lon="0.20164">
        <ele>2560</ele>
        <time>2019-02-26T10:57:19Z</time>
      </trkpt>
      <trkpt lat="42.73063" lon="0.20166">
        <ele>2560</ele>
        <time>2019-02-26T10:57:23Z</time>
      </trkpt>
      <trkpt lat="42.73062" lon="0.20168">
        <ele>2561</ele>
        <time>2019-02-26T10:57:27Z</time>
      </trkpt>
      <trkpt lat="42.7306" lon="0.2017">
        <ele>2561</ele>
        <time>2019-02-26T10:57:31Z</time>
      </trkpt>
      <trkpt lat="42.7306" lon="0.20167">
        <ele>2563</ele>
        <time>2019-02-26T10:57:37Z</time>
      </trkpt>
      <trkpt lat="42.7306" lon="0.20164">
        <ele>2563</ele>
        <time>2019-02-26T10:57:41Z</time>
      </trkpt>
      <trkpt lat="42.73062" lon="0.20158">
        <ele>2564</ele>
        <time>2019-02-26T10:57:49Z</time>
      </trkpt>
      <trkpt lat="42.7306" lon="0.20159">
        <ele>2565</ele>
        <time>2019-02-26T10:58:03Z</time>
      </trkpt>
      <trkpt lat="42.73058" lon="0.2016">
        <ele>2566</ele>
        <time>2019-02-26T10:58:07Z</time>
      </trkpt>
      <trkpt lat="42.73056" lon="0.20162">
        <ele>2566</ele>
        <time>2019-02-26T10:58:11Z</time>
      </trkpt>
      <trkpt lat="42.73055" lon="0.20164">
        <ele>2567</ele>
        <time>2019-02-26T10:58:14Z</time>
      </trkpt>
      <trkpt lat="42.7305" lon="0.20169">
        <ele>2567</ele>
        <time>2019-02-26T10:58:24Z</time>
      </trkpt>
      <trkpt lat="42.73048" lon="0.2017">
        <ele>2569</ele>
        <time>2019-02-26T10:58:28Z</time>
      </trkpt>
      <trkpt lat="42.73048" lon="0.20167">
        <ele>2571</ele>
        <time>2019-02-26T10:58:37Z</time>
      </trkpt>
      <trkpt lat="42.73048" lon="0.20164">
        <ele>2571</ele>
        <time>2019-02-26T10:58:40Z</time>
      </trkpt>
      <trkpt lat="42.73049" lon="0.20161">
        <ele>2571</ele>
        <time>2019-02-26T10:58:47Z</time>
      </trkpt>
      <trkpt lat="42.73049" lon="0.20159">
        <ele>2572</ele>
        <time>2019-02-26T10:58:50Z</time>
      </trkpt>
      <trkpt lat="42.7305" lon="0.20156">
        <ele>2572</ele>
        <time>2019-02-26T10:58:53Z</time>
      </trkpt>
      <trkpt lat="42.73051" lon="0.20154">
        <ele>2573</ele>
        <time>2019-02-26T10:58:57Z</time>
      </trkpt>
      <trkpt lat="42.73053" lon="0.20149">
        <ele>2573</ele>
        <time>2019-02-26T10:59:05Z</time>
      </trkpt>
      <trkpt lat="42.73053" lon="0.20147">
        <ele>2573</ele>
        <time>2019-02-26T10:59:08Z</time>
      </trkpt>
      <trkpt lat="42.73054" lon="0.20144">
        <ele>2573</ele>
        <time>2019-02-26T10:59:12Z</time>
      </trkpt>
      <trkpt lat="42.73052" lon="0.20144">
        <ele>2575</ele>
        <time>2019-02-26T10:59:31Z</time>
      </trkpt>
      <trkpt lat="42.7305" lon="0.20146">
        <ele>2576</ele>
        <time>2019-02-26T11:00:15Z</time>
      </trkpt>
      <trkpt lat="42.73049" lon="0.20149">
        <ele>2577</ele>
        <time>2019-02-26T11:00:18Z</time>
      </trkpt>
      <trkpt lat="42.73048" lon="0.20152">
        <ele>2577</ele>
        <time>2019-02-26T11:00:21Z</time>
      </trkpt>
      <trkpt lat="42.73046" lon="0.20155">
        <ele>2577</ele>
        <time>2019-02-26T11:00:24Z</time>
      </trkpt>
      <trkpt lat="42.73045" lon="0.20157">
        <ele>2577</ele>
        <time>2019-02-26T11:00:26Z</time>
      </trkpt>
      <trkpt lat="42.73032" lon="0.20177">
        <ele>2577</ele>
        <time>2019-02-26T11:00:49Z</time>
      </trkpt>
      <trkpt lat="42.7303" lon="0.20179">
        <ele>2577</ele>
        <time>2019-02-26T11:00:52Z</time>
      </trkpt>
      <trkpt lat="42.73029" lon="0.20181">
        <ele>2577</ele>
        <time>2019-02-26T11:00:55Z</time>
      </trkpt>
      <trkpt lat="42.73026" lon="0.20185">
        <ele>2578</ele>
        <time>2019-02-26T11:01:18Z</time>
      </trkpt>
      <trkpt lat="42.73024" lon="0.20187">
        <ele>2578</ele>
        <time>2019-02-26T11:01:20Z</time>
      </trkpt>
      <trkpt lat="42.7302" lon="0.20193">
        <ele>2580</ele>
        <time>2019-02-26T11:01:27Z</time>
      </trkpt>
      <trkpt lat="42.73015" lon="0.202">
        <ele>2580</ele>
        <time>2019-02-26T11:01:36Z</time>
      </trkpt>
      <trkpt lat="42.73014" lon="0.20203">
        <ele>2581</ele>
        <time>2019-02-26T11:01:39Z</time>
      </trkpt>
      <trkpt lat="42.73013" lon="0.20206">
        <ele>2581</ele>
        <time>2019-02-26T11:01:51Z</time>
      </trkpt>
      <trkpt lat="42.73012" lon="0.20208">
        <ele>2581</ele>
        <time>2019-02-26T11:01:54Z</time>
      </trkpt>
      <trkpt lat="42.73011" lon="0.2021">
        <ele>2581</ele>
        <time>2019-02-26T11:01:56Z</time>
      </trkpt>
      <trkpt lat="42.73001" lon="0.20232">
        <ele>2581</ele>
        <time>2019-02-26T11:02:19Z</time>
      </trkpt>
      <trkpt lat="42.73" lon="0.20234">
        <ele>2580</ele>
        <time>2019-02-26T11:02:22Z</time>
      </trkpt>
      <trkpt lat="42.72996" lon="0.20242">
        <ele>2581</ele>
        <time>2019-02-26T11:02:33Z</time>
      </trkpt>
      <trkpt lat="42.72995" lon="0.20245">
        <ele>2580</ele>
        <time>2019-02-26T11:02:42Z</time>
      </trkpt>
      <trkpt lat="42.72994" lon="0.20247">
        <ele>2579</ele>
        <time>2019-02-26T11:02:46Z</time>
      </trkpt>
      <trkpt lat="42.72994" lon="0.2025">
        <ele>2579</ele>
        <time>2019-02-26T11:02:49Z</time>
      </trkpt>
      <trkpt lat="42.72993" lon="0.20252">
        <ele>2578</ele>
        <time>2019-02-26T11:02:52Z</time>
      </trkpt>
      <trkpt lat="42.72992" lon="0.20258">
        <ele>2578</ele>
        <time>2019-02-26T11:02:59Z</time>
      </trkpt>
      <trkpt lat="42.72991" lon="0.20262">
        <ele>2578</ele>
        <time>2019-02-26T11:03:02Z</time>
      </trkpt>
      <trkpt lat="42.7299" lon="0.20264">
        <ele>2580</ele>
        <time>2019-02-26T11:03:07Z</time>
      </trkpt>
      <trkpt lat="42.72988" lon="0.20266">
        <ele>2581</ele>
        <time>2019-02-26T11:03:15Z</time>
      </trkpt>
      <trkpt lat="42.72987" lon="0.20271">
        <ele>2582</ele>
        <time>2019-02-26T11:03:23Z</time>
      </trkpt>
      <trkpt lat="42.72987" lon="0.20274">
        <ele>2582</ele>
        <time>2019-02-26T11:03:30Z</time>
      </trkpt>
      <trkpt lat="42.72986" lon="0.20276">
        <ele>2582</ele>
        <time>2019-02-26T11:03:33Z</time>
      </trkpt>
      <trkpt lat="42.72985" lon="0.20279">
        <ele>2582</ele>
        <time>2019-02-26T11:03:36Z</time>
      </trkpt>
      <trkpt lat="42.72984" lon="0.20281">
        <ele>2583</ele>
        <time>2019-02-26T11:03:39Z</time>
      </trkpt>
      <trkpt lat="42.72983" lon="0.20284">
        <ele>2583</ele>
        <time>2019-02-26T11:03:42Z</time>
      </trkpt>
      <trkpt lat="42.72982" lon="0.20286">
        <ele>2581</ele>
        <time>2019-02-26T11:03:45Z</time>
      </trkpt>
      <trkpt lat="42.7298" lon="0.20289">
        <ele>2580</ele>
        <time>2019-02-26T11:03:49Z</time>
      </trkpt>
      <trkpt lat="42.72979" lon="0.20291">
        <ele>2582</ele>
        <time>2019-02-26T11:03:52Z</time>
      </trkpt>
      <trkpt lat="42.72975" lon="0.20298">
        <ele>2581</ele>
        <time>2019-02-26T11:04:01Z</time>
      </trkpt>
      <trkpt lat="42.72974" lon="0.203">
        <ele>2579</ele>
        <time>2019-02-26T11:04:05Z</time>
      </trkpt>
      <trkpt lat="42.72972" lon="0.20302">
        <ele>2581</ele>
        <time>2019-02-26T11:04:07Z</time>
      </trkpt>
      <trkpt lat="42.72972" lon="0.20305">
        <ele>2580</ele>
        <time>2019-02-26T11:04:10Z</time>
      </trkpt>
      <trkpt lat="42.72971" lon="0.20309">
        <ele>2580</ele>
        <time>2019-02-26T11:04:13Z</time>
      </trkpt>
      <trkpt lat="42.72969" lon="0.20314">
        <ele>2579</ele>
        <time>2019-02-26T11:04:17Z</time>
      </trkpt>
      <trkpt lat="42.72969" lon="0.20317">
        <ele>2579</ele>
        <time>2019-02-26T11:04:20Z</time>
      </trkpt>
      <trkpt lat="42.72969" lon="0.2032">
        <ele>2579</ele>
        <time>2019-02-26T11:05:19Z</time>
      </trkpt>
      <trkpt lat="42.7297" lon="0.20323">
        <ele>2578</ele>
        <time>2019-02-26T11:05:22Z</time>
      </trkpt>
      <trkpt lat="42.7297" lon="0.20326">
        <ele>2578</ele>
        <time>2019-02-26T11:05:24Z</time>
      </trkpt>
      <trkpt lat="42.7297" lon="0.20329">
        <ele>2578</ele>
        <time>2019-02-26T11:05:27Z</time>
      </trkpt>
      <trkpt lat="42.72971" lon="0.20332">
        <ele>2578</ele>
        <time>2019-02-26T11:05:30Z</time>
      </trkpt>
      <trkpt lat="42.72971" lon="0.20335">
        <ele>2579</ele>
        <time>2019-02-26T11:05:33Z</time>
      </trkpt>
      <trkpt lat="42.72971" lon="0.20338">
        <ele>2580</ele>
        <time>2019-02-26T11:05:35Z</time>
      </trkpt>
      <trkpt lat="42.7297" lon="0.20344">
        <ele>2582</ele>
        <time>2019-02-26T11:05:41Z</time>
      </trkpt>
      <trkpt lat="42.72969" lon="0.20347">
        <ele>2582</ele>
        <time>2019-02-26T11:05:44Z</time>
      </trkpt>
      <trkpt lat="42.72969" lon="0.2035">
        <ele>2585</ele>
        <time>2019-02-26T11:05:47Z</time>
      </trkpt>
      <trkpt lat="42.72969" lon="0.20353">
        <ele>2585</ele>
        <time>2019-02-26T11:05:50Z</time>
      </trkpt>
      <trkpt lat="42.72969" lon="0.20356">
        <ele>2585</ele>
        <time>2019-02-26T11:05:53Z</time>
      </trkpt>
      <trkpt lat="42.72969" lon="0.20362">
        <ele>2585</ele>
        <time>2019-02-26T11:05:58Z</time>
      </trkpt>
      <trkpt lat="42.7297" lon="0.20366">
        <ele>2585</ele>
        <time>2019-02-26T11:06:01Z</time>
      </trkpt>
      <trkpt lat="42.7297" lon="0.20369">
        <ele>2587</ele>
        <time>2019-02-26T11:06:03Z</time>
      </trkpt>
      <trkpt lat="42.7297" lon="0.20371">
        <ele>2587</ele>
        <time>2019-02-26T11:06:06Z</time>
      </trkpt>
      <trkpt lat="42.7297" lon="0.20374">
        <ele>2587</ele>
        <time>2019-02-26T11:06:08Z</time>
      </trkpt>
      <trkpt lat="42.7297" lon="0.20377">
        <ele>2587</ele>
        <time>2019-02-26T11:06:11Z</time>
      </trkpt>
      <trkpt lat="42.72969" lon="0.2038">
        <ele>2588</ele>
        <time>2019-02-26T11:06:14Z</time>
      </trkpt>
      <trkpt lat="42.72969" lon="0.20383">
        <ele>2588</ele>
        <time>2019-02-26T11:06:16Z</time>
      </trkpt>
      <trkpt lat="42.72969" lon="0.20389">
        <ele>2588</ele>
        <time>2019-02-26T11:06:21Z</time>
      </trkpt>
      <trkpt lat="42.72968" lon="0.20391">
        <ele>2588</ele>
        <time>2019-02-26T11:06:23Z</time>
      </trkpt>
      <trkpt lat="42.72968" lon="0.20394">
        <ele>2589</ele>
        <time>2019-02-26T11:06:26Z</time>
      </trkpt>
      <trkpt lat="42.72965" lon="0.20416">
        <ele>2593</ele>
        <time>2019-02-26T11:06:45Z</time>
      </trkpt>
      <trkpt lat="42.72964" lon="0.20419">
        <ele>2593</ele>
        <time>2019-02-26T11:06:48Z</time>
      </trkpt>
      <trkpt lat="42.72963" lon="0.20421">
        <ele>2593</ele>
        <time>2019-02-26T11:06:50Z</time>
      </trkpt>
      <trkpt lat="42.72963" lon="0.20424">
        <ele>2593</ele>
        <time>2019-02-26T11:06:52Z</time>
      </trkpt>
      <trkpt lat="42.72962" lon="0.20426">
        <ele>2593</ele>
        <time>2019-02-26T11:06:55Z</time>
      </trkpt>
      <trkpt lat="42.72962" lon="0.20429">
        <ele>2594</ele>
        <time>2019-02-26T11:06:57Z</time>
      </trkpt>
      <trkpt lat="42.72961" lon="0.20434">
        <ele>2596</ele>
        <time>2019-02-26T11:07:04Z</time>
      </trkpt>
      <trkpt lat="42.72961" lon="0.20438">
        <ele>2597</ele>
        <time>2019-02-26T11:07:07Z</time>
      </trkpt>
      <trkpt lat="42.72961" lon="0.2044">
        <ele>2597</ele>
        <time>2019-02-26T11:07:10Z</time>
      </trkpt>
      <trkpt lat="42.72962" lon="0.20443">
        <ele>2599</ele>
        <time>2019-02-26T11:07:14Z</time>
      </trkpt>
      <trkpt lat="42.7296" lon="0.20448">
        <ele>2601</ele>
        <time>2019-02-26T11:07:23Z</time>
      </trkpt>
      <trkpt lat="42.72958" lon="0.2045">
        <ele>2601</ele>
        <time>2019-02-26T11:07:27Z</time>
      </trkpt>
      <trkpt lat="42.72958" lon="0.20452">
        <ele>2602</ele>
        <time>2019-02-26T11:07:30Z</time>
      </trkpt>
      <trkpt lat="42.72957" lon="0.20455">
        <ele>2602</ele>
        <time>2019-02-26T11:07:34Z</time>
      </trkpt>
      <trkpt lat="42.72956" lon="0.20461">
        <ele>2601</ele>
        <time>2019-02-26T11:07:40Z</time>
      </trkpt>
      <trkpt lat="42.72956" lon="0.20464">
        <ele>2601</ele>
        <time>2019-02-26T11:07:43Z</time>
      </trkpt>
      <trkpt lat="42.72956" lon="0.20466">
        <ele>2601</ele>
        <time>2019-02-26T11:07:46Z</time>
      </trkpt>
      <trkpt lat="42.72955" lon="0.20475">
        <ele>2604</ele>
        <time>2019-02-26T11:07:55Z</time>
      </trkpt>
      <trkpt lat="42.72954" lon="0.20478">
        <ele>2603</ele>
        <time>2019-02-26T11:07:58Z</time>
      </trkpt>
      <trkpt lat="42.72953" lon="0.20481">
        <ele>2603</ele>
        <time>2019-02-26T11:08:01Z</time>
      </trkpt>
      <trkpt lat="42.72953" lon="0.20484">
        <ele>2604</ele>
        <time>2019-02-26T11:08:04Z</time>
      </trkpt>
      <trkpt lat="42.72952" lon="0.20486">
        <ele>2604</ele>
        <time>2019-02-26T11:08:07Z</time>
      </trkpt>
      <trkpt lat="42.72949" lon="0.20497">
        <ele>2603</ele>
        <time>2019-02-26T11:08:19Z</time>
      </trkpt>
      <trkpt lat="42.72948" lon="0.20503">
        <ele>2603</ele>
        <time>2019-02-26T11:08:32Z</time>
      </trkpt>
      <trkpt lat="42.72941" lon="0.20537">
        <ele>2601</ele>
        <time>2019-02-26T11:09:00Z</time>
      </trkpt>
      <trkpt lat="42.7294" lon="0.20556">
        <ele>2601</ele>
        <time>2019-02-26T11:09:14Z</time>
      </trkpt>
      <trkpt lat="42.72939" lon="0.20558">
        <ele>2601</ele>
        <time>2019-02-26T11:09:16Z</time>
      </trkpt>
      <trkpt lat="42.72938" lon="0.2057">
        <ele>2603</ele>
        <time>2019-02-26T11:09:26Z</time>
      </trkpt>
      <trkpt lat="42.72938" lon="0.20583">
        <ele>2602</ele>
        <time>2019-02-26T11:09:38Z</time>
      </trkpt>
      <trkpt lat="42.72936" lon="0.20623">
        <ele>2608</ele>
        <time>2019-02-26T11:10:21Z</time>
      </trkpt>
      <trkpt lat="42.72935" lon="0.20626">
        <ele>2609</ele>
        <time>2019-02-26T11:10:25Z</time>
      </trkpt>
      <trkpt lat="42.72933" lon="0.20625">
        <ele>2608</ele>
        <time>2019-02-26T11:18:39Z</time>
      </trkpt>
      <trkpt lat="42.72935" lon="0.20624">
        <ele>2608</ele>
        <time>2019-02-26T11:20:23Z</time>
      </trkpt>
      <trkpt lat="42.72936" lon="0.20627">
        <ele>2610</ele>
        <time>2019-02-26T11:22:03Z</time>
      </trkpt>
      <trkpt lat="42.72938" lon="0.20629">
        <ele>2606</ele>
        <time>2019-02-26T11:32:12Z</time>
      </trkpt>
      <trkpt lat="42.72939" lon="0.2063">
        <ele>2606</ele>
        <time>2019-02-26T11:32:15Z</time>
      </trkpt>
      <trkpt lat="42.72938" lon="0.20629">
        <ele>2606</ele>
        <time>2019-02-26T11:32:41Z</time>
      </trkpt>
      <trkpt lat="42.72935" lon="0.20625">
        <ele>2606</ele>
        <time>2019-02-26T11:33:02Z</time>
      </trkpt>
      <trkpt lat="42.72933" lon="0.20626">
        <ele>2606</ele>
        <time>2019-02-26T11:35:26Z</time>
      </trkpt>
      <trkpt lat="42.72931" lon="0.20626">
        <ele>2606</ele>
        <time>2019-02-26T11:35:28Z</time>
      </trkpt>
      <trkpt lat="42.72928" lon="0.20623">
        <ele>2606</ele>
        <time>2019-02-26T11:35:30Z</time>
      </trkpt>
      <trkpt lat="42.72926" lon="0.20619">
        <ele>2606</ele>
        <time>2019-02-26T11:35:32Z</time>
      </trkpt>
      <trkpt lat="42.72925" lon="0.20616">
        <ele>2606</ele>
        <time>2019-02-26T11:35:33Z</time>
      </trkpt>
      <trkpt lat="42.72925" lon="0.2061">
        <ele>2606</ele>
        <time>2019-02-26T11:35:34Z</time>
      </trkpt>
      <trkpt lat="42.72924" lon="0.20603">
        <ele>2606</ele>
        <time>2019-02-26T11:35:36Z</time>
      </trkpt>
      <trkpt lat="42.72921" lon="0.20601">
        <ele>2606</ele>
        <time>2019-02-26T11:35:37Z</time>
      </trkpt>
      <trkpt lat="42.72919" lon="0.20602">
        <ele>2606</ele>
        <time>2019-02-26T11:35:38Z</time>
      </trkpt>
      <trkpt lat="42.72918" lon="0.20603">
        <ele>2606</ele>
        <time>2019-02-26T11:35:39Z</time>
      </trkpt>
      <trkpt lat="42.72917" lon="0.20606">
        <ele>2600</ele>
        <time>2019-02-26T11:35:40Z</time>
      </trkpt>
      <trkpt lat="42.72915" lon="0.2061">
        <ele>2599</ele>
        <time>2019-02-26T11:35:41Z</time>
      </trkpt>
      <trkpt lat="42.72912" lon="0.20614">
        <ele>2599</ele>
        <time>2019-02-26T11:35:42Z</time>
      </trkpt>
      <trkpt lat="42.72909" lon="0.20615">
        <ele>2598</ele>
        <time>2019-02-26T11:35:43Z</time>
      </trkpt>
      <trkpt lat="42.72907" lon="0.20614">
        <ele>2598</ele>
        <time>2019-02-26T11:35:44Z</time>
      </trkpt>
      <trkpt lat="42.72906" lon="0.20611">
        <ele>2596</ele>
        <time>2019-02-26T11:35:45Z</time>
      </trkpt>
      <trkpt lat="42.72904" lon="0.20609">
        <ele>2594</ele>
        <time>2019-02-26T11:35:46Z</time>
      </trkpt>
      <trkpt lat="42.72901" lon="0.20609">
        <ele>2592</ele>
        <time>2019-02-26T11:35:47Z</time>
      </trkpt>
      <trkpt lat="42.72897" lon="0.20609">
        <ele>2591</ele>
        <time>2019-02-26T11:35:48Z</time>
      </trkpt>
      <trkpt lat="42.72891" lon="0.20613">
        <ele>2589</ele>
        <time>2019-02-26T11:35:49Z</time>
      </trkpt>
      <trkpt lat="42.7289" lon="0.20615">
        <ele>2588</ele>
        <time>2019-02-26T11:35:50Z</time>
      </trkpt>
      <trkpt lat="42.72887" lon="0.20619">
        <ele>2587</ele>
        <time>2019-02-26T11:35:51Z</time>
      </trkpt>
      <trkpt lat="42.72884" lon="0.20621">
        <ele>2586</ele>
        <time>2019-02-26T11:35:52Z</time>
      </trkpt>
      <trkpt lat="42.72882" lon="0.20623">
        <ele>2586</ele>
        <time>2019-02-26T11:35:53Z</time>
      </trkpt>
      <trkpt lat="42.7288" lon="0.20626">
        <ele>2586</ele>
        <time>2019-02-26T11:35:54Z</time>
      </trkpt>
      <trkpt lat="42.72879" lon="0.20629">
        <ele>2586</ele>
        <time>2019-02-26T11:35:56Z</time>
      </trkpt>
      <trkpt lat="42.7288" lon="0.20631">
        <ele>2586</ele>
        <time>2019-02-26T11:36:00Z</time>
      </trkpt>
      <trkpt lat="42.72882" lon="0.20633">
        <ele>2586</ele>
        <time>2019-02-26T11:36:13Z</time>
      </trkpt>
      <trkpt lat="42.72883" lon="0.20635">
        <ele>2587</ele>
        <time>2019-02-26T11:36:24Z</time>
      </trkpt>
      <trkpt lat="42.72882" lon="0.2064">
        <ele>2587</ele>
        <time>2019-02-26T11:36:26Z</time>
      </trkpt>
      <trkpt lat="42.7288" lon="0.20643">
        <ele>2586</ele>
        <time>2019-02-26T11:36:27Z</time>
      </trkpt>
      <trkpt lat="42.72877" lon="0.20645">
        <ele>2586</ele>
        <time>2019-02-26T11:36:28Z</time>
      </trkpt>
      <trkpt lat="42.72874" lon="0.2065">
        <ele>2586</ele>
        <time>2019-02-26T11:36:29Z</time>
      </trkpt>
      <trkpt lat="42.72868" lon="0.20658">
        <ele>2585</ele>
        <time>2019-02-26T11:36:31Z</time>
      </trkpt>
      <trkpt lat="42.72865" lon="0.20662">
        <ele>2584</ele>
        <time>2019-02-26T11:36:32Z</time>
      </trkpt>
      <trkpt lat="42.72861" lon="0.20663">
        <ele>2583</ele>
        <time>2019-02-26T11:36:33Z</time>
      </trkpt>
      <trkpt lat="42.72856" lon="0.20665">
        <ele>2581</ele>
        <time>2019-02-26T11:36:34Z</time>
      </trkpt>
      <trkpt lat="42.72851" lon="0.20668">
        <ele>2580</ele>
        <time>2019-02-26T11:36:35Z</time>
      </trkpt>
      <trkpt lat="42.72847" lon="0.20672">
        <ele>2577</ele>
        <time>2019-02-26T11:36:36Z</time>
      </trkpt>
      <trkpt lat="42.72844" lon="0.20676">
        <ele>2576</ele>
        <time>2019-02-26T11:36:37Z</time>
      </trkpt>
      <trkpt lat="42.72839" lon="0.20678">
        <ele>2576</ele>
        <time>2019-02-26T11:36:38Z</time>
      </trkpt>
      <trkpt lat="42.72835" lon="0.20681">
        <ele>2576</ele>
        <time>2019-02-26T11:36:39Z</time>
      </trkpt>
      <trkpt lat="42.72832" lon="0.20684">
        <ele>2575</ele>
        <time>2019-02-26T11:36:40Z</time>
      </trkpt>
      <trkpt lat="42.72824" lon="0.20698">
        <ele>2574</ele>
        <time>2019-02-26T11:36:43Z</time>
      </trkpt>
      <trkpt lat="42.72821" lon="0.20701">
        <ele>2574</ele>
        <time>2019-02-26T11:36:44Z</time>
      </trkpt>
      <trkpt lat="42.72817" lon="0.20707">
        <ele>2573</ele>
        <time>2019-02-26T11:36:46Z</time>
      </trkpt>
      <trkpt lat="42.72814" lon="0.20712">
        <ele>2574</ele>
        <time>2019-02-26T11:36:49Z</time>
      </trkpt>
      <trkpt lat="42.72812" lon="0.20708">
        <ele>2571</ele>
        <time>2019-02-26T11:38:17Z</time>
      </trkpt>
      <trkpt lat="42.72811" lon="0.20704">
        <ele>2569</ele>
        <time>2019-02-26T11:38:18Z</time>
      </trkpt>
      <trkpt lat="42.72808" lon="0.207">
        <ele>2567</ele>
        <time>2019-02-26T11:38:19Z</time>
      </trkpt>
      <trkpt lat="42.72804" lon="0.20701">
        <ele>2564</ele>
        <time>2019-02-26T11:38:20Z</time>
      </trkpt>
      <trkpt lat="42.72782" lon="0.20707">
        <ele>2558</ele>
        <time>2019-02-26T11:38:24Z</time>
      </trkpt>
      <trkpt lat="42.72779" lon="0.20707">
        <ele>2553</ele>
        <time>2019-02-26T11:38:25Z</time>
      </trkpt>
      <trkpt lat="42.72774" lon="0.20707">
        <ele>2551</ele>
        <time>2019-02-26T11:38:26Z</time>
      </trkpt>
      <trkpt lat="42.72768" lon="0.20707">
        <ele>2548</ele>
        <time>2019-02-26T11:38:27Z</time>
      </trkpt>
      <trkpt lat="42.72762" lon="0.20708">
        <ele>2544</ele>
        <time>2019-02-26T11:38:28Z</time>
      </trkpt>
      <trkpt lat="42.72756" lon="0.20709">
        <ele>2541</ele>
        <time>2019-02-26T11:38:29Z</time>
      </trkpt>
      <trkpt lat="42.72751" lon="0.20715">
        <ele>2539</ele>
        <time>2019-02-26T11:38:30Z</time>
      </trkpt>
      <trkpt lat="42.72747" lon="0.20725">
        <ele>2537</ele>
        <time>2019-02-26T11:38:31Z</time>
      </trkpt>
      <trkpt lat="42.72741" lon="0.20746">
        <ele>2533</ele>
        <time>2019-02-26T11:38:33Z</time>
      </trkpt>
      <trkpt lat="42.72737" lon="0.20765">
        <ele>2530</ele>
        <time>2019-02-26T11:38:35Z</time>
      </trkpt>
      <trkpt lat="42.72736" lon="0.2077">
        <ele>2530</ele>
        <time>2019-02-26T11:38:36Z</time>
      </trkpt>
      <trkpt lat="42.72734" lon="0.20775">
        <ele>2532</ele>
        <time>2019-02-26T11:38:37Z</time>
      </trkpt>
      <trkpt lat="42.72731" lon="0.20779">
        <ele>2529</ele>
        <time>2019-02-26T11:38:38Z</time>
      </trkpt>
      <trkpt lat="42.72727" lon="0.20778">
        <ele>2529</ele>
        <time>2019-02-26T11:38:39Z</time>
      </trkpt>
      <trkpt lat="42.72723" lon="0.20779">
        <ele>2528</ele>
        <time>2019-02-26T11:38:40Z</time>
      </trkpt>
      <trkpt lat="42.72716" lon="0.20787">
        <ele>2526</ele>
        <time>2019-02-26T11:38:41Z</time>
      </trkpt>
      <trkpt lat="42.72714" lon="0.2079">
        <ele>2524</ele>
        <time>2019-02-26T11:38:42Z</time>
      </trkpt>
      <trkpt lat="42.72683" lon="0.20855">
        <ele>2516</ele>
        <time>2019-02-26T11:38:53Z</time>
      </trkpt>
      <trkpt lat="42.72678" lon="0.20862">
        <ele>2516</ele>
        <time>2019-02-26T11:38:55Z</time>
      </trkpt>
      <trkpt lat="42.72669" lon="0.20874">
        <ele>2513</ele>
        <time>2019-02-26T11:38:59Z</time>
      </trkpt>
      <trkpt lat="42.72665" lon="0.20881">
        <ele>2513</ele>
        <time>2019-02-26T11:39:01Z</time>
      </trkpt>
      <trkpt lat="42.72656" lon="0.20901">
        <ele>2511</ele>
        <time>2019-02-26T11:39:06Z</time>
      </trkpt>
      <trkpt lat="42.72654" lon="0.20907">
        <ele>2510</ele>
        <time>2019-02-26T11:39:08Z</time>
      </trkpt>
      <trkpt lat="42.72653" lon="0.2091">
        <ele>2510</ele>
        <time>2019-02-26T11:39:09Z</time>
      </trkpt>
      <trkpt lat="42.72652" lon="0.20913">
        <ele>2509</ele>
        <time>2019-02-26T11:39:11Z</time>
      </trkpt>
      <trkpt lat="42.72653" lon="0.20916">
        <ele>2508</ele>
        <time>2019-02-26T11:39:53Z</time>
      </trkpt>
      <trkpt lat="42.72653" lon="0.20918">
        <ele>2508</ele>
        <time>2019-02-26T11:40:01Z</time>
      </trkpt>
      <trkpt lat="42.72654" lon="0.20921">
        <ele>2508</ele>
        <time>2019-02-26T11:40:37Z</time>
      </trkpt>
      <trkpt lat="42.72652" lon="0.20921">
        <ele>2506</ele>
        <time>2019-02-26T11:41:50Z</time>
      </trkpt>
      <trkpt lat="42.72652" lon="0.20924">
        <ele>2508</ele>
        <time>2019-02-26T11:42:00Z</time>
      </trkpt>
      <trkpt lat="42.72653" lon="0.20926">
        <ele>2506</ele>
        <time>2019-02-26T11:42:37Z</time>
      </trkpt>
      <trkpt lat="42.72652" lon="0.20928">
        <ele>2505</ele>
        <time>2019-02-26T11:43:01Z</time>
      </trkpt>
      <trkpt lat="42.72652" lon="0.20931">
        <ele>2503</ele>
        <time>2019-02-26T11:43:26Z</time>
      </trkpt>
      <trkpt lat="42.7265" lon="0.20931">
        <ele>2501</ele>
        <time>2019-02-26T11:43:39Z</time>
      </trkpt>
      <trkpt lat="42.72649" lon="0.20938">
        <ele>2504</ele>
        <time>2019-02-26T11:45:28Z</time>
      </trkpt>
      <trkpt lat="42.72648" lon="0.20942">
        <ele>2504</ele>
        <time>2019-02-26T11:45:29Z</time>
      </trkpt>
      <trkpt lat="42.72647" lon="0.20971">
        <ele>2501</ele>
        <time>2019-02-26T11:45:34Z</time>
      </trkpt>
      <trkpt lat="42.72646" lon="0.20974">
        <ele>2499</ele>
        <time>2019-02-26T11:46:10Z</time>
      </trkpt>
      <trkpt lat="42.72643" lon="0.20978">
        <ele>2498</ele>
        <time>2019-02-26T11:46:12Z</time>
      </trkpt>
      <trkpt lat="42.72641" lon="0.20981">
        <ele>2497</ele>
        <time>2019-02-26T11:46:13Z</time>
      </trkpt>
      <trkpt lat="42.72634" lon="0.20996">
        <ele>2492</ele>
        <time>2019-02-26T11:46:17Z</time>
      </trkpt>
      <trkpt lat="42.72632" lon="0.21002">
        <ele>2490</ele>
        <time>2019-02-26T11:46:18Z</time>
      </trkpt>
      <trkpt lat="42.72617" lon="0.21069">
        <ele>2483</ele>
        <time>2019-02-26T11:46:29Z</time>
      </trkpt>
      <trkpt lat="42.72614" lon="0.21078">
        <ele>2483</ele>
        <time>2019-02-26T11:46:31Z</time>
      </trkpt>
      <trkpt lat="42.72613" lon="0.21082">
        <ele>2482</ele>
        <time>2019-02-26T11:46:32Z</time>
      </trkpt>
      <trkpt lat="42.72609" lon="0.2109">
        <ele>2482</ele>
        <time>2019-02-26T11:46:34Z</time>
      </trkpt>
      <trkpt lat="42.72607" lon="0.21094">
        <ele>2482</ele>
        <time>2019-02-26T11:46:35Z</time>
      </trkpt>
      <trkpt lat="42.72602" lon="0.21101">
        <ele>2481</ele>
        <time>2019-02-26T11:46:37Z</time>
      </trkpt>
      <trkpt lat="42.72597" lon="0.21109">
        <ele>2481</ele>
        <time>2019-02-26T11:46:39Z</time>
      </trkpt>
      <trkpt lat="42.7259" lon="0.21118">
        <ele>2480</ele>
        <time>2019-02-26T11:46:42Z</time>
      </trkpt>
      <trkpt lat="42.72587" lon="0.21122">
        <ele>2481</ele>
        <time>2019-02-26T11:46:45Z</time>
      </trkpt>
      <trkpt lat="42.72585" lon="0.21124">
        <ele>2481</ele>
        <time>2019-02-26T11:46:49Z</time>
      </trkpt>
      <trkpt lat="42.72583" lon="0.21128">
        <ele>2481</ele>
        <time>2019-02-26T11:46:54Z</time>
      </trkpt>
      <trkpt lat="42.72582" lon="0.21131">
        <ele>2481</ele>
        <time>2019-02-26T11:46:59Z</time>
      </trkpt>
      <trkpt lat="42.7258" lon="0.21134">
        <ele>2481</ele>
        <time>2019-02-26T11:47:03Z</time>
      </trkpt>
      <trkpt lat="42.72579" lon="0.21136">
        <ele>2481</ele>
        <time>2019-02-26T11:47:06Z</time>
      </trkpt>
      <trkpt lat="42.72577" lon="0.21138">
        <ele>2481</ele>
        <time>2019-02-26T11:47:07Z</time>
      </trkpt>
      <trkpt lat="42.72575" lon="0.2114">
        <ele>2481</ele>
        <time>2019-02-26T11:47:08Z</time>
      </trkpt>
      <trkpt lat="42.72573" lon="0.21142">
        <ele>2481</ele>
        <time>2019-02-26T11:47:09Z</time>
      </trkpt>
      <trkpt lat="42.72568" lon="0.21147">
        <ele>2480</ele>
        <time>2019-02-26T11:47:12Z</time>
      </trkpt>
      <trkpt lat="42.72566" lon="0.21149">
        <ele>2480</ele>
        <time>2019-02-26T11:47:15Z</time>
      </trkpt>
      <trkpt lat="42.72566" lon="0.21151">
        <ele>2482</ele>
        <time>2019-02-26T11:47:23Z</time>
      </trkpt>
      <trkpt lat="42.72565" lon="0.21153">
        <ele>2482</ele>
        <time>2019-02-26T11:47:28Z</time>
      </trkpt>
      <trkpt lat="42.72563" lon="0.21155">
        <ele>2482</ele>
        <time>2019-02-26T11:47:31Z</time>
      </trkpt>
      <trkpt lat="42.72549" lon="0.21165">
        <ele>2481</ele>
        <time>2019-02-26T11:47:44Z</time>
      </trkpt>
      <trkpt lat="42.72541" lon="0.21171">
        <ele>2479</ele>
        <time>2019-02-26T11:47:47Z</time>
      </trkpt>
      <trkpt lat="42.72528" lon="0.21184">
        <ele>2478</ele>
        <time>2019-02-26T11:47:51Z</time>
      </trkpt>
      <trkpt lat="42.72521" lon="0.21189">
        <ele>2480</ele>
        <time>2019-02-26T11:47:54Z</time>
      </trkpt>
      <trkpt lat="42.72516" lon="0.21193">
        <ele>2481</ele>
        <time>2019-02-26T11:47:57Z</time>
      </trkpt>
      <trkpt lat="42.72507" lon="0.212">
        <ele>2481</ele>
        <time>2019-02-26T11:48:03Z</time>
      </trkpt>
      <trkpt lat="42.72505" lon="0.21202">
        <ele>2481</ele>
        <time>2019-02-26T11:48:04Z</time>
      </trkpt>
      <trkpt lat="42.725" lon="0.21207">
        <ele>2481</ele>
        <time>2019-02-26T11:48:08Z</time>
      </trkpt>
      <trkpt lat="42.72498" lon="0.21209">
        <ele>2482</ele>
        <time>2019-02-26T11:48:10Z</time>
      </trkpt>
      <trkpt lat="42.72496" lon="0.21211">
        <ele>2482</ele>
        <time>2019-02-26T11:48:16Z</time>
      </trkpt>
      <trkpt lat="42.72495" lon="0.21212">
        <ele>2483</ele>
        <time>2019-02-26T11:48:22Z</time>
      </trkpt>
      <trkpt lat="42.72491" lon="0.21214">
        <ele>2482</ele>
        <time>2019-02-26T11:48:38Z</time>
      </trkpt>
      <trkpt lat="42.72489" lon="0.21215">
        <ele>2483</ele>
        <time>2019-02-26T11:48:43Z</time>
      </trkpt>
      <trkpt lat="42.72487" lon="0.21216">
        <ele>2484</ele>
        <time>2019-02-26T11:48:49Z</time>
      </trkpt>
      <trkpt lat="42.72485" lon="0.21217">
        <ele>2485</ele>
        <time>2019-02-26T11:49:04Z</time>
      </trkpt>
      <trkpt lat="42.72484" lon="0.21217">
        <ele>2486</ele>
        <time>2019-02-26T11:49:10Z</time>
      </trkpt>
      <trkpt lat="42.72484" lon="0.2122">
        <ele>2484</ele>
        <time>2019-02-26T11:49:17Z</time>
      </trkpt>
      <trkpt lat="42.72485" lon="0.21222">
        <ele>2485</ele>
        <time>2019-02-26T11:49:40Z</time>
      </trkpt>
      <trkpt lat="42.72487" lon="0.21224">
        <ele>2485</ele>
        <time>2019-02-26T11:49:52Z</time>
      </trkpt>
      <trkpt lat="42.72486" lon="0.21226">
        <ele>2484</ele>
        <time>2019-02-26T11:50:33Z</time>
      </trkpt>
      <trkpt lat="42.72485" lon="0.21229">
        <ele>2484</ele>
        <time>2019-02-26T11:50:37Z</time>
      </trkpt>
      <trkpt lat="42.72486" lon="0.21232">
        <ele>2486</ele>
        <time>2019-02-26T11:50:44Z</time>
      </trkpt>
      <trkpt lat="42.72485" lon="0.21235">
        <ele>2486</ele>
        <time>2019-02-26T11:50:47Z</time>
      </trkpt>
      <trkpt lat="42.72485" lon="0.21237">
        <ele>2486</ele>
        <time>2019-02-26T11:50:50Z</time>
      </trkpt>
      <trkpt lat="42.72485" lon="0.2124">
        <ele>2487</ele>
        <time>2019-02-26T11:50:53Z</time>
      </trkpt>
      <trkpt lat="42.72485" lon="0.21242">
        <ele>2487</ele>
        <time>2019-02-26T11:50:56Z</time>
      </trkpt>
      <trkpt lat="42.72485" lon="0.21245">
        <ele>2489</ele>
        <time>2019-02-26T11:50:59Z</time>
      </trkpt>
      <trkpt lat="42.72486" lon="0.21254">
        <ele>2490</ele>
        <time>2019-02-26T11:51:10Z</time>
      </trkpt>
      <trkpt lat="42.72485" lon="0.21257">
        <ele>2490</ele>
        <time>2019-02-26T11:51:13Z</time>
      </trkpt>
      <trkpt lat="42.72484" lon="0.21259">
        <ele>2490</ele>
        <time>2019-02-26T11:51:17Z</time>
      </trkpt>
      <trkpt lat="42.72483" lon="0.21262">
        <ele>2489</ele>
        <time>2019-02-26T11:51:21Z</time>
      </trkpt>
      <trkpt lat="42.72482" lon="0.21264">
        <ele>2489</ele>
        <time>2019-02-26T11:51:31Z</time>
      </trkpt>
      <trkpt lat="42.7248" lon="0.21267">
        <ele>2489</ele>
        <time>2019-02-26T11:51:37Z</time>
      </trkpt>
      <trkpt lat="42.72479" lon="0.21269">
        <ele>2489</ele>
        <time>2019-02-26T11:51:40Z</time>
      </trkpt>
      <trkpt lat="42.72477" lon="0.21271">
        <ele>2488</ele>
        <time>2019-02-26T11:51:42Z</time>
      </trkpt>
      <trkpt lat="42.72476" lon="0.21272">
        <ele>2488</ele>
        <time>2019-02-26T11:51:48Z</time>
      </trkpt>
      <trkpt lat="42.72475" lon="0.21275">
        <ele>2487</ele>
        <time>2019-02-26T11:51:59Z</time>
      </trkpt>
      <trkpt lat="42.72474" lon="0.21277">
        <ele>2487</ele>
        <time>2019-02-26T11:52:03Z</time>
      </trkpt>
      <trkpt lat="42.72473" lon="0.2128">
        <ele>2486</ele>
        <time>2019-02-26T11:52:07Z</time>
      </trkpt>
      <trkpt lat="42.72471" lon="0.21282">
        <ele>2486</ele>
        <time>2019-02-26T11:52:10Z</time>
      </trkpt>
      <trkpt lat="42.7247" lon="0.21284">
        <ele>2486</ele>
        <time>2019-02-26T11:52:13Z</time>
      </trkpt>
      <trkpt lat="42.72469" lon="0.21286">
        <ele>2485</ele>
        <time>2019-02-26T11:52:17Z</time>
      </trkpt>
      <trkpt lat="42.72468" lon="0.21289">
        <ele>2485</ele>
        <time>2019-02-26T11:52:21Z</time>
      </trkpt>
      <trkpt lat="42.72466" lon="0.21291">
        <ele>2485</ele>
        <time>2019-02-26T11:52:24Z</time>
      </trkpt>
      <trkpt lat="42.72466" lon="0.21293">
        <ele>2484</ele>
        <time>2019-02-26T11:52:27Z</time>
      </trkpt>
      <trkpt lat="42.72464" lon="0.21295">
        <ele>2484</ele>
        <time>2019-02-26T11:52:30Z</time>
      </trkpt>
      <trkpt lat="42.72462" lon="0.21297">
        <ele>2484</ele>
        <time>2019-02-26T11:52:33Z</time>
      </trkpt>
      <trkpt lat="42.72461" lon="0.21299">
        <ele>2484</ele>
        <time>2019-02-26T11:52:39Z</time>
      </trkpt>
      <trkpt lat="42.7246" lon="0.21302">
        <ele>2485</ele>
        <time>2019-02-26T11:52:52Z</time>
      </trkpt>
      <trkpt lat="42.7246" lon="0.21304">
        <ele>2484</ele>
        <time>2019-02-26T11:53:03Z</time>
      </trkpt>
      <trkpt lat="42.72458" lon="0.21309">
        <ele>2481</ele>
        <time>2019-02-26T11:53:27Z</time>
      </trkpt>
      <trkpt lat="42.72456" lon="0.21311">
        <ele>2483</ele>
        <time>2019-02-26T11:53:42Z</time>
      </trkpt>
      <trkpt lat="42.72453" lon="0.21318">
        <ele>2481</ele>
        <time>2019-02-26T11:53:57Z</time>
      </trkpt>
      <trkpt lat="42.72453" lon="0.21321">
        <ele>2481</ele>
        <time>2019-02-26T11:54:01Z</time>
      </trkpt>
      <trkpt lat="42.72451" lon="0.21323">
        <ele>2481</ele>
        <time>2019-02-26T11:54:03Z</time>
      </trkpt>
      <trkpt lat="42.72449" lon="0.21325">
        <ele>2481</ele>
        <time>2019-02-26T11:54:06Z</time>
      </trkpt>
      <trkpt lat="42.72444" lon="0.2133">
        <ele>2483</ele>
        <time>2019-02-26T11:55:18Z</time>
      </trkpt>
      <trkpt lat="42.72442" lon="0.21332">
        <ele>2482</ele>
        <time>2019-02-26T11:55:20Z</time>
      </trkpt>
      <trkpt lat="42.7244" lon="0.21333">
        <ele>2482</ele>
        <time>2019-02-26T11:55:23Z</time>
      </trkpt>
      <trkpt lat="42.72438" lon="0.21335">
        <ele>2482</ele>
        <time>2019-02-26T11:55:24Z</time>
      </trkpt>
      <trkpt lat="42.72436" lon="0.21336">
        <ele>2481</ele>
        <time>2019-02-26T11:55:25Z</time>
      </trkpt>
      <trkpt lat="42.72408" lon="0.21362">
        <ele>2473</ele>
        <time>2019-02-26T11:55:30Z</time>
      </trkpt>
      <trkpt lat="42.72403" lon="0.21366">
        <ele>2472</ele>
        <time>2019-02-26T11:55:31Z</time>
      </trkpt>
      <trkpt lat="42.72399" lon="0.21368">
        <ele>2472</ele>
        <time>2019-02-26T11:55:32Z</time>
      </trkpt>
      <trkpt lat="42.72392" lon="0.21372">
        <ele>2472</ele>
        <time>2019-02-26T11:55:34Z</time>
      </trkpt>
      <trkpt lat="42.72389" lon="0.21373">
        <ele>2472</ele>
        <time>2019-02-26T11:55:35Z</time>
      </trkpt>
      <trkpt lat="42.72387" lon="0.21374">
        <ele>2472</ele>
        <time>2019-02-26T11:55:36Z</time>
      </trkpt>
      <trkpt lat="42.72384" lon="0.21375">
        <ele>2472</ele>
        <time>2019-02-26T11:55:37Z</time>
      </trkpt>
      <trkpt lat="42.72382" lon="0.21376">
        <ele>2472</ele>
        <time>2019-02-26T11:55:38Z</time>
      </trkpt>
      <trkpt lat="42.72379" lon="0.21377">
        <ele>2472</ele>
        <time>2019-02-26T11:55:39Z</time>
      </trkpt>
      <trkpt lat="42.72377" lon="0.21378">
        <ele>2472</ele>
        <time>2019-02-26T11:55:40Z</time>
      </trkpt>
      <trkpt lat="42.72373" lon="0.21379">
        <ele>2472</ele>
        <time>2019-02-26T11:55:42Z</time>
      </trkpt>
      <trkpt lat="42.72362" lon="0.21381">
        <ele>2471</ele>
        <time>2019-02-26T11:55:47Z</time>
      </trkpt>
      <trkpt lat="42.72359" lon="0.21382">
        <ele>2470</ele>
        <time>2019-02-26T11:55:48Z</time>
      </trkpt>
      <trkpt lat="42.72351" lon="0.21382">
        <ele>2470</ele>
        <time>2019-02-26T11:55:51Z</time>
      </trkpt>
      <trkpt lat="42.72346" lon="0.21382">
        <ele>2470</ele>
        <time>2019-02-26T11:55:53Z</time>
      </trkpt>
      <trkpt lat="42.72342" lon="0.2138">
        <ele>2471</ele>
        <time>2019-02-26T11:55:57Z</time>
      </trkpt>
      <trkpt lat="42.7234" lon="0.21378">
        <ele>2473</ele>
        <time>2019-02-26T11:56:05Z</time>
      </trkpt>
      <trkpt lat="42.72339" lon="0.21381">
        <ele>2475</ele>
        <time>2019-02-26T11:56:19Z</time>
      </trkpt>
      <trkpt lat="42.72339" lon="0.21386">
        <ele>2476</ele>
        <time>2019-02-26T11:56:34Z</time>
      </trkpt>
      <trkpt lat="42.72339" lon="0.21389">
        <ele>2476</ele>
        <time>2019-02-26T11:56:45Z</time>
      </trkpt>
      <trkpt lat="42.72337" lon="0.21391">
        <ele>2476</ele>
        <time>2019-02-26T11:56:49Z</time>
      </trkpt>
      <trkpt lat="42.72335" lon="0.21392">
        <ele>2474</ele>
        <time>2019-02-26T11:56:53Z</time>
      </trkpt>
      <trkpt lat="42.72334" lon="0.21394">
        <ele>2476</ele>
        <time>2019-02-26T11:57:03Z</time>
      </trkpt>
      <trkpt lat="42.72332" lon="0.21395">
        <ele>2476</ele>
        <time>2019-02-26T11:57:07Z</time>
      </trkpt>
      <trkpt lat="42.72331" lon="0.21398">
        <ele>2476</ele>
        <time>2019-02-26T11:57:16Z</time>
      </trkpt>
      <trkpt lat="42.72331" lon="0.21406">
        <ele>2480</ele>
        <time>2019-02-26T11:57:59Z</time>
      </trkpt>
      <trkpt lat="42.72331" lon="0.21408">
        <ele>2482</ele>
        <time>2019-02-26T11:58:15Z</time>
      </trkpt>
      <trkpt lat="42.7233" lon="0.21411">
        <ele>2482</ele>
        <time>2019-02-26T11:58:24Z</time>
      </trkpt>
      <trkpt lat="42.7233" lon="0.21413">
        <ele>2483</ele>
        <time>2019-02-26T11:58:31Z</time>
      </trkpt>
      <trkpt lat="42.72328" lon="0.21418">
        <ele>2485</ele>
        <time>2019-02-26T11:58:42Z</time>
      </trkpt>
      <trkpt lat="42.72327" lon="0.2142">
        <ele>2485</ele>
        <time>2019-02-26T11:58:48Z</time>
      </trkpt>
      <trkpt lat="42.72327" lon="0.21423">
        <ele>2486</ele>
        <time>2019-02-26T11:58:55Z</time>
      </trkpt>
      <trkpt lat="42.72326" lon="0.21431">
        <ele>2484</ele>
        <time>2019-02-26T11:59:13Z</time>
      </trkpt>
      <trkpt lat="42.72325" lon="0.21434">
        <ele>2484</ele>
        <time>2019-02-26T12:00:01Z</time>
      </trkpt>
      <trkpt lat="42.72326" lon="0.21441">
        <ele>2482</ele>
        <time>2019-02-26T12:01:52Z</time>
      </trkpt>
      <trkpt lat="42.72326" lon="0.21445">
        <ele>2482</ele>
        <time>2019-02-26T12:01:53Z</time>
      </trkpt>
      <trkpt lat="42.72325" lon="0.21447">
        <ele>2481</ele>
        <time>2019-02-26T12:01:54Z</time>
      </trkpt>
      <trkpt lat="42.72324" lon="0.2145">
        <ele>2479</ele>
        <time>2019-02-26T12:01:57Z</time>
      </trkpt>
      <trkpt lat="42.72324" lon="0.21453">
        <ele>2478</ele>
        <time>2019-02-26T12:01:59Z</time>
      </trkpt>
      <trkpt lat="42.72324" lon="0.21455">
        <ele>2478</ele>
        <time>2019-02-26T12:02:00Z</time>
      </trkpt>
      <trkpt lat="42.72324" lon="0.21458">
        <ele>2478</ele>
        <time>2019-02-26T12:02:01Z</time>
      </trkpt>
      <trkpt lat="42.7232" lon="0.21463">
        <ele>2476</ele>
        <time>2019-02-26T12:02:03Z</time>
      </trkpt>
      <trkpt lat="42.72318" lon="0.21465">
        <ele>2475</ele>
        <time>2019-02-26T12:02:04Z</time>
      </trkpt>
      <trkpt lat="42.72317" lon="0.21468">
        <ele>2474</ele>
        <time>2019-02-26T12:02:06Z</time>
      </trkpt>
      <trkpt lat="42.72317" lon="0.21473">
        <ele>2473</ele>
        <time>2019-02-26T12:02:08Z</time>
      </trkpt>
      <trkpt lat="42.72316" lon="0.21478">
        <ele>2472</ele>
        <time>2019-02-26T12:02:09Z</time>
      </trkpt>
      <trkpt lat="42.72312" lon="0.2149">
        <ele>2469</ele>
        <time>2019-02-26T12:02:11Z</time>
      </trkpt>
      <trkpt lat="42.72309" lon="0.21497">
        <ele>2468</ele>
        <time>2019-02-26T12:02:12Z</time>
      </trkpt>
      <trkpt lat="42.72302" lon="0.21513">
        <ele>2467</ele>
        <time>2019-02-26T12:02:15Z</time>
      </trkpt>
      <trkpt lat="42.72301" lon="0.21515">
        <ele>2467</ele>
        <time>2019-02-26T12:02:16Z</time>
      </trkpt>
      <trkpt lat="42.72299" lon="0.21517">
        <ele>2468</ele>
        <time>2019-02-26T12:02:23Z</time>
      </trkpt>
      <trkpt lat="42.72298" lon="0.21519">
        <ele>2468</ele>
        <time>2019-02-26T12:02:27Z</time>
      </trkpt>
      <trkpt lat="42.72298" lon="0.21522">
        <ele>2467</ele>
        <time>2019-02-26T12:02:29Z</time>
      </trkpt>
      <trkpt lat="42.72298" lon="0.21524">
        <ele>2470</ele>
        <time>2019-02-26T12:07:11Z</time>
      </trkpt>
      <trkpt lat="42.72298" lon="0.21527">
        <ele>2469</ele>
        <time>2019-02-26T12:07:51Z</time>
      </trkpt>
      <trkpt lat="42.72297" lon="0.2153">
        <ele>2470</ele>
        <time>2019-02-26T12:07:54Z</time>
      </trkpt>
      <trkpt lat="42.72297" lon="0.21533">
        <ele>2471</ele>
        <time>2019-02-26T12:07:58Z</time>
      </trkpt>
      <trkpt lat="42.72296" lon="0.21535">
        <ele>2471</ele>
        <time>2019-02-26T12:08:01Z</time>
      </trkpt>
      <trkpt lat="42.72293" lon="0.21537">
        <ele>2470</ele>
        <time>2019-02-26T12:08:03Z</time>
      </trkpt>
      <trkpt lat="42.72292" lon="0.21537">
        <ele>2469</ele>
        <time>2019-02-26T12:08:06Z</time>
      </trkpt>
      <trkpt lat="42.72289" lon="0.21539">
        <ele>2468</ele>
        <time>2019-02-26T12:08:11Z</time>
      </trkpt>
      <trkpt lat="42.72287" lon="0.21541">
        <ele>2468</ele>
        <time>2019-02-26T12:08:12Z</time>
      </trkpt>
      <trkpt lat="42.72283" lon="0.21546">
        <ele>2468</ele>
        <time>2019-02-26T12:08:14Z</time>
      </trkpt>
      <trkpt lat="42.72251" lon="0.21575">
        <ele>2464</ele>
        <time>2019-02-26T12:08:22Z</time>
      </trkpt>
      <trkpt lat="42.72225" lon="0.21596">
        <ele>2459</ele>
        <time>2019-02-26T12:08:27Z</time>
      </trkpt>
      <trkpt lat="42.72221" lon="0.216">
        <ele>2459</ele>
        <time>2019-02-26T12:08:28Z</time>
      </trkpt>
      <trkpt lat="42.72209" lon="0.21614">
        <ele>2457</ele>
        <time>2019-02-26T12:08:31Z</time>
      </trkpt>
      <trkpt lat="42.72191" lon="0.21637">
        <ele>2454</ele>
        <time>2019-02-26T12:08:36Z</time>
      </trkpt>
      <trkpt lat="42.72185" lon="0.21648">
        <ele>2453</ele>
        <time>2019-02-26T12:08:38Z</time>
      </trkpt>
      <trkpt lat="42.72178" lon="0.2166">
        <ele>2452</ele>
        <time>2019-02-26T12:08:40Z</time>
      </trkpt>
      <trkpt lat="42.72174" lon="0.2167">
        <ele>2451</ele>
        <time>2019-02-26T12:08:42Z</time>
      </trkpt>
      <trkpt lat="42.72168" lon="0.21684">
        <ele>2450</ele>
        <time>2019-02-26T12:08:45Z</time>
      </trkpt>
      <trkpt lat="42.72168" lon="0.21687">
        <ele>2450</ele>
        <time>2019-02-26T12:08:46Z</time>
      </trkpt>
      <trkpt lat="42.72167" lon="0.2169">
        <ele>2449</ele>
        <time>2019-02-26T12:08:48Z</time>
      </trkpt>
      <trkpt lat="42.72166" lon="0.21694">
        <ele>2449</ele>
        <time>2019-02-26T12:08:50Z</time>
      </trkpt>
      <trkpt lat="42.72164" lon="0.21698">
        <ele>2449</ele>
        <time>2019-02-26T12:08:52Z</time>
      </trkpt>
      <trkpt lat="42.7216" lon="0.21705">
        <ele>2449</ele>
        <time>2019-02-26T12:08:55Z</time>
      </trkpt>
      <trkpt lat="42.72159" lon="0.21708">
        <ele>2449</ele>
        <time>2019-02-26T12:08:56Z</time>
      </trkpt>
      <trkpt lat="42.72157" lon="0.21711">
        <ele>2449</ele>
        <time>2019-02-26T12:08:57Z</time>
      </trkpt>
      <trkpt lat="42.72151" lon="0.21717">
        <ele>2448</ele>
        <time>2019-02-26T12:08:59Z</time>
      </trkpt>
      <trkpt lat="42.72078" lon="0.21803">
        <ele>2437</ele>
        <time>2019-02-26T12:09:17Z</time>
      </trkpt>
      <trkpt lat="42.7207" lon="0.21813">
        <ele>2435</ele>
        <time>2019-02-26T12:09:19Z</time>
      </trkpt>
      <trkpt lat="42.72058" lon="0.21832">
        <ele>2434</ele>
        <time>2019-02-26T12:09:23Z</time>
      </trkpt>
      <trkpt lat="42.72049" lon="0.21846">
        <ele>2433</ele>
        <time>2019-02-26T12:09:26Z</time>
      </trkpt>
      <trkpt lat="42.7203" lon="0.21884">
        <ele>2428</ele>
        <time>2019-02-26T12:09:32Z</time>
      </trkpt>
      <trkpt lat="42.72026" lon="0.21888">
        <ele>2427</ele>
        <time>2019-02-26T12:09:33Z</time>
      </trkpt>
      <trkpt lat="42.72023" lon="0.21889">
        <ele>2426</ele>
        <time>2019-02-26T12:09:34Z</time>
      </trkpt>
      <trkpt lat="42.72018" lon="0.21887">
        <ele>2424</ele>
        <time>2019-02-26T12:09:35Z</time>
      </trkpt>
      <trkpt lat="42.72013" lon="0.21889">
        <ele>2422</ele>
        <time>2019-02-26T12:09:36Z</time>
      </trkpt>
      <trkpt lat="42.71965" lon="0.2192">
        <ele>2415</ele>
        <time>2019-02-26T12:09:44Z</time>
      </trkpt>
      <trkpt lat="42.71947" lon="0.21931">
        <ele>2413</ele>
        <time>2019-02-26T12:09:47Z</time>
      </trkpt>
      <trkpt lat="42.71936" lon="0.21939">
        <ele>2410</ele>
        <time>2019-02-26T12:09:49Z</time>
      </trkpt>
      <trkpt lat="42.71921" lon="0.21952">
        <ele>2407</ele>
        <time>2019-02-26T12:09:52Z</time>
      </trkpt>
      <trkpt lat="42.71914" lon="0.2196">
        <ele>2407</ele>
        <time>2019-02-26T12:09:54Z</time>
      </trkpt>
      <trkpt lat="42.71911" lon="0.21964">
        <ele>2406</ele>
        <time>2019-02-26T12:09:55Z</time>
      </trkpt>
      <trkpt lat="42.71907" lon="0.21964">
        <ele>2406</ele>
        <time>2019-02-26T12:09:56Z</time>
      </trkpt>
      <trkpt lat="42.71904" lon="0.21963">
        <ele>2405</ele>
        <time>2019-02-26T12:09:57Z</time>
      </trkpt>
      <trkpt lat="42.71901" lon="0.21964">
        <ele>2402</ele>
        <time>2019-02-26T12:09:58Z</time>
      </trkpt>
      <trkpt lat="42.71895" lon="0.21976">
        <ele>2397</ele>
        <time>2019-02-26T12:10:00Z</time>
      </trkpt>
      <trkpt lat="42.71887" lon="0.21989">
        <ele>2394</ele>
        <time>2019-02-26T12:10:02Z</time>
      </trkpt>
      <trkpt lat="42.71883" lon="0.21995">
        <ele>2393</ele>
        <time>2019-02-26T12:10:03Z</time>
      </trkpt>
      <trkpt lat="42.71879" lon="0.22">
        <ele>2393</ele>
        <time>2019-02-26T12:10:04Z</time>
      </trkpt>
      <trkpt lat="42.71875" lon="0.22004">
        <ele>2393</ele>
        <time>2019-02-26T12:10:05Z</time>
      </trkpt>
      <trkpt lat="42.71851" lon="0.22025">
        <ele>2389</ele>
        <time>2019-02-26T12:10:11Z</time>
      </trkpt>
      <trkpt lat="42.71842" lon="0.22031">
        <ele>2389</ele>
        <time>2019-02-26T12:10:13Z</time>
      </trkpt>
      <trkpt lat="42.71833" lon="0.22036">
        <ele>2388</ele>
        <time>2019-02-26T12:10:15Z</time>
      </trkpt>
      <trkpt lat="42.71824" lon="0.2204">
        <ele>2388</ele>
        <time>2019-02-26T12:10:17Z</time>
      </trkpt>
      <trkpt lat="42.7182" lon="0.22043">
        <ele>2387</ele>
        <time>2019-02-26T12:10:18Z</time>
      </trkpt>
      <trkpt lat="42.71815" lon="0.22045">
        <ele>2387</ele>
        <time>2019-02-26T12:10:19Z</time>
      </trkpt>
      <trkpt lat="42.71799" lon="0.22054">
        <ele>2385</ele>
        <time>2019-02-26T12:10:22Z</time>
      </trkpt>
      <trkpt lat="42.71787" lon="0.22059">
        <ele>2382</ele>
        <time>2019-02-26T12:10:24Z</time>
      </trkpt>
      <trkpt lat="42.71768" lon="0.22065">
        <ele>2378</ele>
        <time>2019-02-26T12:10:27Z</time>
      </trkpt>
      <trkpt lat="42.71749" lon="0.22072">
        <ele>2374</ele>
        <time>2019-02-26T12:10:30Z</time>
      </trkpt>
      <trkpt lat="42.7174" lon="0.22076">
        <ele>2373</ele>
        <time>2019-02-26T12:10:32Z</time>
      </trkpt>
      <trkpt lat="42.71726" lon="0.22079">
        <ele>2373</ele>
        <time>2019-02-26T12:10:35Z</time>
      </trkpt>
      <trkpt lat="42.71716" lon="0.22083">
        <ele>2372</ele>
        <time>2019-02-26T12:10:37Z</time>
      </trkpt>
      <trkpt lat="42.71708" lon="0.22087">
        <ele>2371</ele>
        <time>2019-02-26T12:10:38Z</time>
      </trkpt>
      <trkpt lat="42.71703" lon="0.2209">
        <ele>2369</ele>
        <time>2019-02-26T12:10:40Z</time>
      </trkpt>
      <trkpt lat="42.71696" lon="0.22087">
        <ele>2368</ele>
        <time>2019-02-26T12:10:42Z</time>
      </trkpt>
      <trkpt lat="42.71692" lon="0.22086">
        <ele>2367</ele>
        <time>2019-02-26T12:10:43Z</time>
      </trkpt>
      <trkpt lat="42.71686" lon="0.22088">
        <ele>2365</ele>
        <time>2019-02-26T12:10:45Z</time>
      </trkpt>
      <trkpt lat="42.71684" lon="0.2209">
        <ele>2364</ele>
        <time>2019-02-26T12:10:47Z</time>
      </trkpt>
      <trkpt lat="42.71681" lon="0.2209">
        <ele>2364</ele>
        <time>2019-02-26T12:10:49Z</time>
      </trkpt>
      <trkpt lat="42.71682" lon="0.22093">
        <ele>2364</ele>
        <time>2019-02-26T12:11:26Z</time>
      </trkpt>
      <trkpt lat="42.7168" lon="0.22092">
        <ele>2363</ele>
        <time>2019-02-26T12:11:54Z</time>
      </trkpt>
      <trkpt lat="42.7168" lon="0.22094">
        <ele>2364</ele>
        <time>2019-02-26T12:13:06Z</time>
      </trkpt>
      <trkpt lat="42.71681" lon="0.22096">
        <ele>2363</ele>
        <time>2019-02-26T12:13:17Z</time>
      </trkpt>
      <trkpt lat="42.71679" lon="0.22095">
        <ele>2363</ele>
        <time>2019-02-26T12:13:57Z</time>
      </trkpt>
      <trkpt lat="42.71681" lon="0.22095">
        <ele>2364</ele>
        <time>2019-02-26T12:14:22Z</time>
      </trkpt>
      <trkpt lat="42.71681" lon="0.22092">
        <ele>2364</ele>
        <time>2019-02-26T12:14:37Z</time>
      </trkpt>
      <trkpt lat="42.71684" lon="0.22095">
        <ele>2364</ele>
        <time>2019-02-26T12:15:23Z</time>
      </trkpt>
      <trkpt lat="42.71682" lon="0.22094">
        <ele>2364</ele>
        <time>2019-02-26T12:16:50Z</time>
      </trkpt>
      <trkpt lat="42.71682" lon="0.22091">
        <ele>2365</ele>
        <time>2019-02-26T12:21:29Z</time>
      </trkpt>
      <trkpt lat="42.71682" lon="0.22088">
        <ele>2363</ele>
        <time>2019-02-26T12:21:35Z</time>
      </trkpt>
      <trkpt lat="42.71683" lon="0.22085">
        <ele>2362</ele>
        <time>2019-02-26T12:21:39Z</time>
      </trkpt>
      <trkpt lat="42.71684" lon="0.22083">
        <ele>2362</ele>
        <time>2019-02-26T12:21:44Z</time>
      </trkpt>
      <trkpt lat="42.71685" lon="0.2208">
        <ele>2361</ele>
        <time>2019-02-26T12:21:50Z</time>
      </trkpt>
      <trkpt lat="42.71686" lon="0.22078">
        <ele>2359</ele>
        <time>2019-02-26T12:21:54Z</time>
      </trkpt>
      <trkpt lat="42.71688" lon="0.22077">
        <ele>2359</ele>
        <time>2019-02-26T12:21:58Z</time>
      </trkpt>
      <trkpt lat="42.71687" lon="0.22082">
        <ele>2358</ele>
        <time>2019-02-26T12:22:41Z</time>
      </trkpt>
      <trkpt lat="42.71689" lon="0.22084">
        <ele>2358</ele>
        <time>2019-02-26T12:22:56Z</time>
      </trkpt>
      <trkpt lat="42.71689" lon="0.22082">
        <ele>2358</ele>
        <time>2019-02-26T12:23:11Z</time>
      </trkpt>
      <trkpt lat="42.71687" lon="0.2208">
        <ele>2358</ele>
        <time>2019-02-26T12:23:16Z</time>
      </trkpt>
      <trkpt lat="42.71689" lon="0.22078">
        <ele>2358</ele>
        <time>2019-02-26T12:25:29Z</time>
      </trkpt>
      <trkpt lat="42.71687" lon="0.22076">
        <ele>2357</ele>
        <time>2019-02-26T12:39:06Z</time>
      </trkpt>
      <trkpt lat="42.71685" lon="0.22074">
        <ele>2357</ele>
        <time>2019-02-26T12:39:10Z</time>
      </trkpt>
      <trkpt lat="42.71687" lon="0.22076">
        <ele>2358</ele>
        <time>2019-02-26T12:40:22Z</time>
      </trkpt>
      <trkpt lat="42.71689" lon="0.22078">
        <ele>2358</ele>
        <time>2019-02-26T12:40:48Z</time>
      </trkpt>
      <trkpt lat="42.71685" lon="0.22077">
        <ele>2358</ele>
        <time>2019-02-26T12:43:03Z</time>
      </trkpt>
      <trkpt lat="42.71687" lon="0.22079">
        <ele>2358</ele>
        <time>2019-02-26T12:43:11Z</time>
      </trkpt>
      <trkpt lat="42.71689" lon="0.2208">
        <ele>2358</ele>
        <time>2019-02-26T12:43:14Z</time>
      </trkpt>
      <trkpt lat="42.71693" lon="0.22083">
        <ele>2358</ele>
        <time>2019-02-26T12:43:21Z</time>
      </trkpt>
      <trkpt lat="42.7169" lon="0.2208">
        <ele>2358</ele>
        <time>2019-02-26T12:43:42Z</time>
      </trkpt>
      <trkpt lat="42.71688" lon="0.22079">
        <ele>2358</ele>
        <time>2019-02-26T12:43:46Z</time>
      </trkpt>
      <trkpt lat="42.71686" lon="0.22078">
        <ele>2358</ele>
        <time>2019-02-26T12:43:54Z</time>
      </trkpt>
      <trkpt lat="42.71684" lon="0.22078">
        <ele>2358</ele>
        <time>2019-02-26T12:44:03Z</time>
      </trkpt>
      <trkpt lat="42.71686" lon="0.22077">
        <ele>2358</ele>
        <time>2019-02-26T12:44:12Z</time>
      </trkpt>
      <trkpt lat="42.71687" lon="0.22079">
        <ele>2358</ele>
        <time>2019-02-26T12:44:20Z</time>
      </trkpt>
      <trkpt lat="42.71685" lon="0.22081">
        <ele>2358</ele>
        <time>2019-02-26T12:44:29Z</time>
      </trkpt>
      <trkpt lat="42.71685" lon="0.22083">
        <ele>2358</ele>
        <time>2019-02-26T12:44:33Z</time>
      </trkpt>
      <trkpt lat="42.71683" lon="0.22086">
        <ele>2358</ele>
        <time>2019-02-26T12:44:37Z</time>
      </trkpt>
      <trkpt lat="42.71683" lon="0.22088">
        <ele>2358</ele>
        <time>2019-02-26T12:44:42Z</time>
      </trkpt>
      <trkpt lat="42.7168" lon="0.22094">
        <ele>2364</ele>
        <time>2019-02-26T12:44:52Z</time>
      </trkpt>
      <trkpt lat="42.71682" lon="0.22093">
        <ele>2365</ele>
        <time>2019-02-26T12:45:00Z</time>
      </trkpt>
      <trkpt lat="42.71684" lon="0.22093">
        <ele>2363</ele>
        <time>2019-02-26T12:45:25Z</time>
      </trkpt>
      <trkpt lat="42.71682" lon="0.22092">
        <ele>2362</ele>
        <time>2019-02-26T12:45:34Z</time>
      </trkpt>
      <trkpt lat="42.7168" lon="0.22093">
        <ele>2364</ele>
        <time>2019-02-26T12:45:42Z</time>
      </trkpt>
      <trkpt lat="42.71686" lon="0.22094">
        <ele>2365</ele>
        <time>2019-02-26T12:46:59Z</time>
      </trkpt>
      <trkpt lat="42.71688" lon="0.22095">
        <ele>2365</ele>
        <time>2019-02-26T12:47:03Z</time>
      </trkpt>
      <trkpt lat="42.7169" lon="0.22095">
        <ele>2365</ele>
        <time>2019-02-26T12:47:06Z</time>
      </trkpt>
      <trkpt lat="42.71692" lon="0.22094">
        <ele>2365</ele>
        <time>2019-02-26T12:47:09Z</time>
      </trkpt>
      <trkpt lat="42.71695" lon="0.22093">
        <ele>2366</ele>
        <time>2019-02-26T12:47:13Z</time>
      </trkpt>
      <trkpt lat="42.71697" lon="0.22094">
        <ele>2366</ele>
        <time>2019-02-26T12:47:16Z</time>
      </trkpt>
      <trkpt lat="42.71699" lon="0.22094">
        <ele>2365</ele>
        <time>2019-02-26T12:47:20Z</time>
      </trkpt>
      <trkpt lat="42.71701" lon="0.22094">
        <ele>2366</ele>
        <time>2019-02-26T12:47:23Z</time>
      </trkpt>
      <trkpt lat="42.71703" lon="0.22095">
        <ele>2366</ele>
        <time>2019-02-26T12:47:26Z</time>
      </trkpt>
      <trkpt lat="42.71705" lon="0.22095">
        <ele>2368</ele>
        <time>2019-02-26T12:47:30Z</time>
      </trkpt>
      <trkpt lat="42.71708" lon="0.22095">
        <ele>2368</ele>
        <time>2019-02-26T12:47:34Z</time>
      </trkpt>
      <trkpt lat="42.71709" lon="0.22094">
        <ele>2368</ele>
        <time>2019-02-26T12:47:38Z</time>
      </trkpt>
      <trkpt lat="42.71711" lon="0.22094">
        <ele>2369</ele>
        <time>2019-02-26T12:47:41Z</time>
      </trkpt>
      <trkpt lat="42.71714" lon="0.22094">
        <ele>2369</ele>
        <time>2019-02-26T12:47:44Z</time>
      </trkpt>
      <trkpt lat="42.71716" lon="0.22095">
        <ele>2370</ele>
        <time>2019-02-26T12:47:48Z</time>
      </trkpt>
      <trkpt lat="42.71718" lon="0.22095">
        <ele>2370</ele>
        <time>2019-02-26T12:47:52Z</time>
      </trkpt>
      <trkpt lat="42.7172" lon="0.22095">
        <ele>2370</ele>
        <time>2019-02-26T12:47:57Z</time>
      </trkpt>
      <trkpt lat="42.71722" lon="0.22095">
        <ele>2371</ele>
        <time>2019-02-26T12:47:59Z</time>
      </trkpt>
      <trkpt lat="42.71723" lon="0.22093">
        <ele>2372</ele>
        <time>2019-02-26T12:48:03Z</time>
      </trkpt>
      <trkpt lat="42.71725" lon="0.22092">
        <ele>2372</ele>
        <time>2019-02-26T12:48:07Z</time>
      </trkpt>
      <trkpt lat="42.71727" lon="0.22091">
        <ele>2373</ele>
        <time>2019-02-26T12:48:22Z</time>
      </trkpt>
      <trkpt lat="42.71729" lon="0.2209">
        <ele>2374</ele>
        <time>2019-02-26T12:48:26Z</time>
      </trkpt>
      <trkpt lat="42.71731" lon="0.2209">
        <ele>2373</ele>
        <time>2019-02-26T12:48:30Z</time>
      </trkpt>
      <trkpt lat="42.71737" lon="0.2209">
        <ele>2375</ele>
        <time>2019-02-26T12:48:42Z</time>
      </trkpt>
      <trkpt lat="42.71739" lon="0.22089">
        <ele>2376</ele>
        <time>2019-02-26T12:48:45Z</time>
      </trkpt>
      <trkpt lat="42.71741" lon="0.22091">
        <ele>2377</ele>
        <time>2019-02-26T12:48:49Z</time>
      </trkpt>
      <trkpt lat="42.71743" lon="0.2209">
        <ele>2377</ele>
        <time>2019-02-26T12:48:53Z</time>
      </trkpt>
      <trkpt lat="42.71745" lon="0.22091">
        <ele>2377</ele>
        <time>2019-02-26T12:48:57Z</time>
      </trkpt>
      <trkpt lat="42.71747" lon="0.22091">
        <ele>2378</ele>
        <time>2019-02-26T12:49:00Z</time>
      </trkpt>
      <trkpt lat="42.71745" lon="0.22095">
        <ele>2379</ele>
        <time>2019-02-26T12:49:12Z</time>
      </trkpt>
      <trkpt lat="42.71744" lon="0.22097">
        <ele>2379</ele>
        <time>2019-02-26T12:49:15Z</time>
      </trkpt>
      <trkpt lat="42.71742" lon="0.22099">
        <ele>2380</ele>
        <time>2019-02-26T12:49:19Z</time>
      </trkpt>
      <trkpt lat="42.71741" lon="0.22101">
        <ele>2380</ele>
        <time>2019-02-26T12:49:24Z</time>
      </trkpt>
      <trkpt lat="42.71739" lon="0.22102">
        <ele>2381</ele>
        <time>2019-02-26T12:49:27Z</time>
      </trkpt>
      <trkpt lat="42.71733" lon="0.22106">
        <ele>2382</ele>
        <time>2019-02-26T12:49:38Z</time>
      </trkpt>
      <trkpt lat="42.71732" lon="0.22108">
        <ele>2382</ele>
        <time>2019-02-26T12:49:41Z</time>
      </trkpt>
      <trkpt lat="42.7173" lon="0.22109">
        <ele>2384</ele>
        <time>2019-02-26T12:49:45Z</time>
      </trkpt>
      <trkpt lat="42.71726" lon="0.22112">
        <ele>2384</ele>
        <time>2019-02-26T12:49:53Z</time>
      </trkpt>
      <trkpt lat="42.71727" lon="0.22114">
        <ele>2384</ele>
        <time>2019-02-26T12:50:06Z</time>
      </trkpt>
      <trkpt lat="42.71729" lon="0.22115">
        <ele>2384</ele>
        <time>2019-02-26T12:50:10Z</time>
      </trkpt>
      <trkpt lat="42.71731" lon="0.22115">
        <ele>2385</ele>
        <time>2019-02-26T12:50:14Z</time>
      </trkpt>
      <trkpt lat="42.71733" lon="0.22116">
        <ele>2386</ele>
        <time>2019-02-26T12:50:18Z</time>
      </trkpt>
      <trkpt lat="42.71735" lon="0.22117">
        <ele>2386</ele>
        <time>2019-02-26T12:50:24Z</time>
      </trkpt>
      <trkpt lat="42.71736" lon="0.22118">
        <ele>2387</ele>
        <time>2019-02-26T12:50:29Z</time>
      </trkpt>
      <trkpt lat="42.71739" lon="0.22118">
        <ele>2387</ele>
        <time>2019-02-26T12:50:40Z</time>
      </trkpt>
      <trkpt lat="42.71741" lon="0.22117">
        <ele>2388</ele>
        <time>2019-02-26T12:50:44Z</time>
      </trkpt>
      <trkpt lat="42.71739" lon="0.22119">
        <ele>2390</ele>
        <time>2019-02-26T12:50:54Z</time>
      </trkpt>
      <trkpt lat="42.71738" lon="0.2212">
        <ele>2390</ele>
        <time>2019-02-26T12:50:57Z</time>
      </trkpt>
      <trkpt lat="42.71735" lon="0.22121">
        <ele>2390</ele>
        <time>2019-02-26T12:51:00Z</time>
      </trkpt>
      <trkpt lat="42.71734" lon="0.22123">
        <ele>2391</ele>
        <time>2019-02-26T12:51:04Z</time>
      </trkpt>
      <trkpt lat="42.71732" lon="0.22125">
        <ele>2391</ele>
        <time>2019-02-26T12:51:08Z</time>
      </trkpt>
      <trkpt lat="42.7173" lon="0.22126">
        <ele>2392</ele>
        <time>2019-02-26T12:51:12Z</time>
      </trkpt>
      <trkpt lat="42.71729" lon="0.22128">
        <ele>2392</ele>
        <time>2019-02-26T12:51:16Z</time>
      </trkpt>
      <trkpt lat="42.71726" lon="0.22131">
        <ele>2392</ele>
        <time>2019-02-26T12:51:23Z</time>
      </trkpt>
      <trkpt lat="42.71723" lon="0.22133">
        <ele>2393</ele>
        <time>2019-02-26T12:51:26Z</time>
      </trkpt>
      <trkpt lat="42.71722" lon="0.22135">
        <ele>2394</ele>
        <time>2019-02-26T12:51:32Z</time>
      </trkpt>
      <trkpt lat="42.7172" lon="0.22137">
        <ele>2395</ele>
        <time>2019-02-26T12:51:36Z</time>
      </trkpt>
      <trkpt lat="42.71719" lon="0.22139">
        <ele>2395</ele>
        <time>2019-02-26T12:51:40Z</time>
      </trkpt>
      <trkpt lat="42.71718" lon="0.22142">
        <ele>2395</ele>
        <time>2019-02-26T12:51:44Z</time>
      </trkpt>
      <trkpt lat="42.71717" lon="0.22144">
        <ele>2395</ele>
        <time>2019-02-26T12:51:47Z</time>
      </trkpt>
      <trkpt lat="42.71716" lon="0.22146">
        <ele>2395</ele>
        <time>2019-02-26T12:51:50Z</time>
      </trkpt>
      <trkpt lat="42.71713" lon="0.22149">
        <ele>2397</ele>
        <time>2019-02-26T12:51:58Z</time>
      </trkpt>
      <trkpt lat="42.71711" lon="0.22151">
        <ele>2397</ele>
        <time>2019-02-26T12:52:02Z</time>
      </trkpt>
      <trkpt lat="42.71709" lon="0.22153">
        <ele>2397</ele>
        <time>2019-02-26T12:52:07Z</time>
      </trkpt>
      <trkpt lat="42.71708" lon="0.22155">
        <ele>2399</ele>
        <time>2019-02-26T12:52:11Z</time>
      </trkpt>
      <trkpt lat="42.71706" lon="0.22157">
        <ele>2401</ele>
        <time>2019-02-26T12:52:16Z</time>
      </trkpt>
      <trkpt lat="42.71705" lon="0.22158">
        <ele>2401</ele>
        <time>2019-02-26T12:52:20Z</time>
      </trkpt>
      <trkpt lat="42.71704" lon="0.2216">
        <ele>2401</ele>
        <time>2019-02-26T12:52:24Z</time>
      </trkpt>
      <trkpt lat="42.71701" lon="0.22164">
        <ele>2402</ele>
        <time>2019-02-26T12:52:32Z</time>
      </trkpt>
      <trkpt lat="42.71699" lon="0.22166">
        <ele>2402</ele>
        <time>2019-02-26T12:52:35Z</time>
      </trkpt>
      <trkpt lat="42.71698" lon="0.22168">
        <ele>2402</ele>
        <time>2019-02-26T12:52:38Z</time>
      </trkpt>
      <trkpt lat="42.71696" lon="0.22172">
        <ele>2403</ele>
        <time>2019-02-26T12:52:44Z</time>
      </trkpt>
      <trkpt lat="42.71694" lon="0.22174">
        <ele>2403</ele>
        <time>2019-02-26T12:52:48Z</time>
      </trkpt>
      <trkpt lat="42.71693" lon="0.22178">
        <ele>2404</ele>
        <time>2019-02-26T12:52:52Z</time>
      </trkpt>
      <trkpt lat="42.71691" lon="0.22179">
        <ele>2404</ele>
        <time>2019-02-26T12:52:56Z</time>
      </trkpt>
      <trkpt lat="42.7169" lon="0.22182">
        <ele>2404</ele>
        <time>2019-02-26T12:52:59Z</time>
      </trkpt>
      <trkpt lat="42.71689" lon="0.22184">
        <ele>2405</ele>
        <time>2019-02-26T12:53:04Z</time>
      </trkpt>
      <trkpt lat="42.71687" lon="0.2219">
        <ele>2406</ele>
        <time>2019-02-26T12:53:12Z</time>
      </trkpt>
      <trkpt lat="42.71687" lon="0.22193">
        <ele>2407</ele>
        <time>2019-02-26T12:53:15Z</time>
      </trkpt>
      <trkpt lat="42.71685" lon="0.22195">
        <ele>2407</ele>
        <time>2019-02-26T12:53:18Z</time>
      </trkpt>
      <trkpt lat="42.71683" lon="0.22196">
        <ele>2408</ele>
        <time>2019-02-26T12:53:22Z</time>
      </trkpt>
      <trkpt lat="42.71682" lon="0.22197">
        <ele>2408</ele>
        <time>2019-02-26T12:53:25Z</time>
      </trkpt>
      <trkpt lat="42.7168" lon="0.22198">
        <ele>2408</ele>
        <time>2019-02-26T12:53:29Z</time>
      </trkpt>
      <trkpt lat="42.71678" lon="0.222">
        <ele>2408</ele>
        <time>2019-02-26T12:53:34Z</time>
      </trkpt>
      <trkpt lat="42.71675" lon="0.22202">
        <ele>2409</ele>
        <time>2019-02-26T12:53:41Z</time>
      </trkpt>
      <trkpt lat="42.71672" lon="0.22207">
        <ele>2410</ele>
        <time>2019-02-26T12:53:50Z</time>
      </trkpt>
      <trkpt lat="42.71674" lon="0.22205">
        <ele>2410</ele>
        <time>2019-02-26T12:53:58Z</time>
      </trkpt>
      <trkpt lat="42.71676" lon="0.22205">
        <ele>2410</ele>
        <time>2019-02-26T12:54:02Z</time>
      </trkpt>
      <trkpt lat="42.7168" lon="0.22205">
        <ele>2412</ele>
        <time>2019-02-26T12:54:10Z</time>
      </trkpt>
      <trkpt lat="42.71689" lon="0.22205">
        <ele>2413</ele>
        <time>2019-02-26T12:54:26Z</time>
      </trkpt>
      <trkpt lat="42.71691" lon="0.22205">
        <ele>2414</ele>
        <time>2019-02-26T12:54:30Z</time>
      </trkpt>
      <trkpt lat="42.71696" lon="0.22205">
        <ele>2415</ele>
        <time>2019-02-26T12:54:38Z</time>
      </trkpt>
      <trkpt lat="42.71698" lon="0.22206">
        <ele>2416</ele>
        <time>2019-02-26T12:54:42Z</time>
      </trkpt>
      <trkpt lat="42.717" lon="0.22206">
        <ele>2416</ele>
        <time>2019-02-26T12:54:46Z</time>
      </trkpt>
      <trkpt lat="42.71702" lon="0.22207">
        <ele>2416</ele>
        <time>2019-02-26T12:54:50Z</time>
      </trkpt>
      <trkpt lat="42.71704" lon="0.22206">
        <ele>2417</ele>
        <time>2019-02-26T12:54:56Z</time>
      </trkpt>
      <trkpt lat="42.71706" lon="0.22206">
        <ele>2417</ele>
        <time>2019-02-26T12:55:02Z</time>
      </trkpt>
      <trkpt lat="42.71708" lon="0.22207">
        <ele>2418</ele>
        <time>2019-02-26T12:55:06Z</time>
      </trkpt>
      <trkpt lat="42.71712" lon="0.22207">
        <ele>2419</ele>
        <time>2019-02-26T12:55:14Z</time>
      </trkpt>
      <trkpt lat="42.71716" lon="0.22207">
        <ele>2420</ele>
        <time>2019-02-26T12:55:26Z</time>
      </trkpt>
      <trkpt lat="42.71724" lon="0.22208">
        <ele>2422</ele>
        <time>2019-02-26T12:55:42Z</time>
      </trkpt>
      <trkpt lat="42.71729" lon="0.22209">
        <ele>2423</ele>
        <time>2019-02-26T12:55:50Z</time>
      </trkpt>
      <trkpt lat="42.71731" lon="0.2221">
        <ele>2423</ele>
        <time>2019-02-26T12:55:54Z</time>
      </trkpt>
      <trkpt lat="42.71734" lon="0.22211">
        <ele>2424</ele>
        <time>2019-02-26T12:56:02Z</time>
      </trkpt>
      <trkpt lat="42.71736" lon="0.22211">
        <ele>2425</ele>
        <time>2019-02-26T12:56:06Z</time>
      </trkpt>
      <trkpt lat="42.71739" lon="0.22212">
        <ele>2425</ele>
        <time>2019-02-26T12:56:11Z</time>
      </trkpt>
      <trkpt lat="42.71741" lon="0.22212">
        <ele>2426</ele>
        <time>2019-02-26T12:56:16Z</time>
      </trkpt>
      <trkpt lat="42.71743" lon="0.22212">
        <ele>2428</ele>
        <time>2019-02-26T12:56:20Z</time>
      </trkpt>
      <trkpt lat="42.71745" lon="0.22212">
        <ele>2428</ele>
        <time>2019-02-26T12:56:25Z</time>
      </trkpt>
      <trkpt lat="42.71755" lon="0.2221">
        <ele>2430</ele>
        <time>2019-02-26T12:56:54Z</time>
      </trkpt>
      <trkpt lat="42.71752" lon="0.22217">
        <ele>2433</ele>
        <time>2019-02-26T12:57:11Z</time>
      </trkpt>
      <trkpt lat="42.71751" lon="0.22219">
        <ele>2433</ele>
        <time>2019-02-26T12:57:15Z</time>
      </trkpt>
      <trkpt lat="42.71749" lon="0.2222">
        <ele>2434</ele>
        <time>2019-02-26T12:57:25Z</time>
      </trkpt>
      <trkpt lat="42.71747" lon="0.22222">
        <ele>2434</ele>
        <time>2019-02-26T12:57:30Z</time>
      </trkpt>
      <trkpt lat="42.71746" lon="0.22225">
        <ele>2435</ele>
        <time>2019-02-26T12:57:34Z</time>
      </trkpt>
      <trkpt lat="42.71745" lon="0.22227">
        <ele>2436</ele>
        <time>2019-02-26T12:57:39Z</time>
      </trkpt>
      <trkpt lat="42.71744" lon="0.22229">
        <ele>2436</ele>
        <time>2019-02-26T12:57:43Z</time>
      </trkpt>
      <trkpt lat="42.71742" lon="0.22232">
        <ele>2436</ele>
        <time>2019-02-26T12:57:47Z</time>
      </trkpt>
      <trkpt lat="42.71741" lon="0.22233">
        <ele>2437</ele>
        <time>2019-02-26T12:57:51Z</time>
      </trkpt>
      <trkpt lat="42.71739" lon="0.22234">
        <ele>2437</ele>
        <time>2019-02-26T12:58:07Z</time>
      </trkpt>
      <trkpt lat="42.71737" lon="0.22235">
        <ele>2438</ele>
        <time>2019-02-26T12:58:12Z</time>
      </trkpt>
      <trkpt lat="42.71738" lon="0.22237">
        <ele>2439</ele>
        <time>2019-02-26T12:58:25Z</time>
      </trkpt>
      <trkpt lat="42.71742" lon="0.2224">
        <ele>2440</ele>
        <time>2019-02-26T12:58:33Z</time>
      </trkpt>
      <trkpt lat="42.71743" lon="0.22241">
        <ele>2439</ele>
        <time>2019-02-26T12:58:37Z</time>
      </trkpt>
      <trkpt lat="42.71745" lon="0.22242">
        <ele>2440</ele>
        <time>2019-02-26T12:58:41Z</time>
      </trkpt>
      <trkpt lat="42.71747" lon="0.22242">
        <ele>2441</ele>
        <time>2019-02-26T12:58:46Z</time>
      </trkpt>
      <trkpt lat="42.71749" lon="0.22242">
        <ele>2441</ele>
        <time>2019-02-26T12:58:51Z</time>
      </trkpt>
      <trkpt lat="42.71751" lon="0.22241">
        <ele>2442</ele>
        <time>2019-02-26T12:58:55Z</time>
      </trkpt>
      <trkpt lat="42.71753" lon="0.22241">
        <ele>2442</ele>
        <time>2019-02-26T12:58:59Z</time>
      </trkpt>
      <trkpt lat="42.71755" lon="0.22241">
        <ele>2442</ele>
        <time>2019-02-26T12:59:03Z</time>
      </trkpt>
      <trkpt lat="42.71758" lon="0.2224">
        <ele>2442</ele>
        <time>2019-02-26T12:59:07Z</time>
      </trkpt>
      <trkpt lat="42.71759" lon="0.22238">
        <ele>2442</ele>
        <time>2019-02-26T12:59:11Z</time>
      </trkpt>
      <trkpt lat="42.71761" lon="0.22236">
        <ele>2443</ele>
        <time>2019-02-26T12:59:15Z</time>
      </trkpt>
      <trkpt lat="42.71762" lon="0.22234">
        <ele>2443</ele>
        <time>2019-02-26T12:59:18Z</time>
      </trkpt>
      <trkpt lat="42.71763" lon="0.22232">
        <ele>2443</ele>
        <time>2019-02-26T12:59:21Z</time>
      </trkpt>
      <trkpt lat="42.71765" lon="0.2223">
        <ele>2444</ele>
        <time>2019-02-26T12:59:25Z</time>
      </trkpt>
      <trkpt lat="42.71766" lon="0.22229">
        <ele>2444</ele>
        <time>2019-02-26T12:59:29Z</time>
      </trkpt>
      <trkpt lat="42.71768" lon="0.22229">
        <ele>2445</ele>
        <time>2019-02-26T12:59:38Z</time>
      </trkpt>
      <trkpt lat="42.71771" lon="0.22228">
        <ele>2445</ele>
        <time>2019-02-26T12:59:45Z</time>
      </trkpt>
      <trkpt lat="42.71772" lon="0.22228">
        <ele>2446</ele>
        <time>2019-02-26T12:59:49Z</time>
      </trkpt>
      <trkpt lat="42.71771" lon="0.2223">
        <ele>2447</ele>
        <time>2019-02-26T12:59:56Z</time>
      </trkpt>
      <trkpt lat="42.7177" lon="0.22232">
        <ele>2447</ele>
        <time>2019-02-26T13:00:01Z</time>
      </trkpt>
      <trkpt lat="42.71768" lon="0.22234">
        <ele>2448</ele>
        <time>2019-02-26T13:00:05Z</time>
      </trkpt>
      <trkpt lat="42.71767" lon="0.22235">
        <ele>2449</ele>
        <time>2019-02-26T13:00:10Z</time>
      </trkpt>
      <trkpt lat="42.71769" lon="0.22236">
        <ele>2449</ele>
        <time>2019-02-26T13:00:30Z</time>
      </trkpt>
      <trkpt lat="42.71771" lon="0.22236">
        <ele>2450</ele>
        <time>2019-02-26T13:00:42Z</time>
      </trkpt>
      <trkpt lat="42.71773" lon="0.22235">
        <ele>2450</ele>
        <time>2019-02-26T13:00:46Z</time>
      </trkpt>
      <trkpt lat="42.71772" lon="0.2224">
        <ele>2452</ele>
        <time>2019-02-26T13:01:20Z</time>
      </trkpt>
      <trkpt lat="42.71772" lon="0.22242">
        <ele>2455</ele>
        <time>2019-02-26T13:01:24Z</time>
      </trkpt>
      <trkpt lat="42.71774" lon="0.22243">
        <ele>2455</ele>
        <time>2019-02-26T13:01:35Z</time>
      </trkpt>
      <trkpt lat="42.71776" lon="0.22242">
        <ele>2455</ele>
        <time>2019-02-26T13:01:39Z</time>
      </trkpt>
      <trkpt lat="42.71778" lon="0.22242">
        <ele>2455</ele>
        <time>2019-02-26T13:01:43Z</time>
      </trkpt>
      <trkpt lat="42.7178" lon="0.22241">
        <ele>2455</ele>
        <time>2019-02-26T13:01:47Z</time>
      </trkpt>
      <trkpt lat="42.71781" lon="0.22239">
        <ele>2457</ele>
        <time>2019-02-26T13:01:51Z</time>
      </trkpt>
      <trkpt lat="42.71783" lon="0.22237">
        <ele>2456</ele>
        <time>2019-02-26T13:01:55Z</time>
      </trkpt>
      <trkpt lat="42.71784" lon="0.22235">
        <ele>2457</ele>
        <time>2019-02-26T13:02:01Z</time>
      </trkpt>
      <trkpt lat="42.71786" lon="0.22235">
        <ele>2458</ele>
        <time>2019-02-26T13:02:05Z</time>
      </trkpt>
      <trkpt lat="42.71788" lon="0.22235">
        <ele>2459</ele>
        <time>2019-02-26T13:02:10Z</time>
      </trkpt>
      <trkpt lat="42.7179" lon="0.22235">
        <ele>2460</ele>
        <time>2019-02-26T13:02:15Z</time>
      </trkpt>
      <trkpt lat="42.71792" lon="0.22234">
        <ele>2460</ele>
        <time>2019-02-26T13:02:19Z</time>
      </trkpt>
      <trkpt lat="42.71794" lon="0.22234">
        <ele>2461</ele>
        <time>2019-02-26T13:02:23Z</time>
      </trkpt>
      <trkpt lat="42.71798" lon="0.22234">
        <ele>2462</ele>
        <time>2019-02-26T13:02:34Z</time>
      </trkpt>
      <trkpt lat="42.71808" lon="0.22234">
        <ele>2464</ele>
        <time>2019-02-26T13:03:19Z</time>
      </trkpt>
      <trkpt lat="42.7181" lon="0.22235">
        <ele>2465</ele>
        <time>2019-02-26T13:03:23Z</time>
      </trkpt>
      <trkpt lat="42.71812" lon="0.22235">
        <ele>2465</ele>
        <time>2019-02-26T13:03:27Z</time>
      </trkpt>
      <trkpt lat="42.71817" lon="0.22235">
        <ele>2466</ele>
        <time>2019-02-26T13:03:35Z</time>
      </trkpt>
      <trkpt lat="42.71819" lon="0.22234">
        <ele>2467</ele>
        <time>2019-02-26T13:03:40Z</time>
      </trkpt>
      <trkpt lat="42.71821" lon="0.22234">
        <ele>2467</ele>
        <time>2019-02-26T13:03:44Z</time>
      </trkpt>
      <trkpt lat="42.71823" lon="0.22234">
        <ele>2468</ele>
        <time>2019-02-26T13:03:48Z</time>
      </trkpt>
      <trkpt lat="42.71825" lon="0.22234">
        <ele>2468</ele>
        <time>2019-02-26T13:03:52Z</time>
      </trkpt>
      <trkpt lat="42.71827" lon="0.22233">
        <ele>2468</ele>
        <time>2019-02-26T13:03:57Z</time>
      </trkpt>
      <trkpt lat="42.71829" lon="0.22233">
        <ele>2469</ele>
        <time>2019-02-26T13:04:02Z</time>
      </trkpt>
      <trkpt lat="42.71837" lon="0.22232">
        <ele>2470</ele>
        <time>2019-02-26T13:04:21Z</time>
      </trkpt>
      <trkpt lat="42.71839" lon="0.22232">
        <ele>2471</ele>
        <time>2019-02-26T13:04:26Z</time>
      </trkpt>
      <trkpt lat="42.71841" lon="0.22232">
        <ele>2473</ele>
        <time>2019-02-26T13:04:31Z</time>
      </trkpt>
      <trkpt lat="42.71845" lon="0.22232">
        <ele>2474</ele>
        <time>2019-02-26T13:04:40Z</time>
      </trkpt>
      <trkpt lat="42.71847" lon="0.22232">
        <ele>2475</ele>
        <time>2019-02-26T13:04:45Z</time>
      </trkpt>
      <trkpt lat="42.71849" lon="0.22232">
        <ele>2475</ele>
        <time>2019-02-26T13:04:49Z</time>
      </trkpt>
      <trkpt lat="42.71851" lon="0.22232">
        <ele>2476</ele>
        <time>2019-02-26T13:04:53Z</time>
      </trkpt>
      <trkpt lat="42.71853" lon="0.22232">
        <ele>2476</ele>
        <time>2019-02-26T13:04:58Z</time>
      </trkpt>
      <trkpt lat="42.71855" lon="0.22232">
        <ele>2477</ele>
        <time>2019-02-26T13:05:02Z</time>
      </trkpt>
      <trkpt lat="42.71855" lon="0.22236">
        <ele>2479</ele>
        <time>2019-02-26T13:05:13Z</time>
      </trkpt>
      <trkpt lat="42.71851" lon="0.22241">
        <ele>2480</ele>
        <time>2019-02-26T13:05:23Z</time>
      </trkpt>
      <trkpt lat="42.71849" lon="0.22243">
        <ele>2480</ele>
        <time>2019-02-26T13:05:27Z</time>
      </trkpt>
      <trkpt lat="42.71846" lon="0.22247">
        <ele>2481</ele>
        <time>2019-02-26T13:05:35Z</time>
      </trkpt>
      <trkpt lat="42.71844" lon="0.22248">
        <ele>2482</ele>
        <time>2019-02-26T13:05:39Z</time>
      </trkpt>
      <trkpt lat="42.71843" lon="0.2225">
        <ele>2482</ele>
        <time>2019-02-26T13:05:43Z</time>
      </trkpt>
      <trkpt lat="42.71831" lon="0.22263">
        <ele>2487</ele>
        <time>2019-02-26T13:06:12Z</time>
      </trkpt>
      <trkpt lat="42.71828" lon="0.22267">
        <ele>2487</ele>
        <time>2019-02-26T13:06:21Z</time>
      </trkpt>
      <trkpt lat="42.71827" lon="0.22269">
        <ele>2488</ele>
        <time>2019-02-26T13:06:26Z</time>
      </trkpt>
      <trkpt lat="42.71819" lon="0.22279">
        <ele>2491</ele>
        <time>2019-02-26T13:06:47Z</time>
      </trkpt>
      <trkpt lat="42.71818" lon="0.22281">
        <ele>2491</ele>
        <time>2019-02-26T13:06:50Z</time>
      </trkpt>
      <trkpt lat="42.71816" lon="0.22282">
        <ele>2492</ele>
        <time>2019-02-26T13:06:54Z</time>
      </trkpt>
      <trkpt lat="42.71815" lon="0.22284">
        <ele>2492</ele>
        <time>2019-02-26T13:06:58Z</time>
      </trkpt>
      <trkpt lat="42.71813" lon="0.22286">
        <ele>2492</ele>
        <time>2019-02-26T13:07:02Z</time>
      </trkpt>
      <trkpt lat="42.71808" lon="0.22292">
        <ele>2493</ele>
        <time>2019-02-26T13:07:14Z</time>
      </trkpt>
      <trkpt lat="42.71804" lon="0.22299">
        <ele>2494</ele>
        <time>2019-02-26T13:07:26Z</time>
      </trkpt>
      <trkpt lat="42.71803" lon="0.22301">
        <ele>2494</ele>
        <time>2019-02-26T13:07:30Z</time>
      </trkpt>
      <trkpt lat="42.71799" lon="0.22308">
        <ele>2496</ele>
        <time>2019-02-26T13:07:41Z</time>
      </trkpt>
      <trkpt lat="42.71796" lon="0.22312">
        <ele>2498</ele>
        <time>2019-02-26T13:07:49Z</time>
      </trkpt>
      <trkpt lat="42.71795" lon="0.22314">
        <ele>2499</ele>
        <time>2019-02-26T13:07:53Z</time>
      </trkpt>
      <trkpt lat="42.71792" lon="0.2232">
        <ele>2500</ele>
        <time>2019-02-26T13:08:05Z</time>
      </trkpt>
      <trkpt lat="42.71786" lon="0.22327">
        <ele>2502</ele>
        <time>2019-02-26T13:08:21Z</time>
      </trkpt>
      <trkpt lat="42.71784" lon="0.22329">
        <ele>2503</ele>
        <time>2019-02-26T13:08:25Z</time>
      </trkpt>
      <trkpt lat="42.71781" lon="0.22334">
        <ele>2503</ele>
        <time>2019-02-26T13:08:32Z</time>
      </trkpt>
      <trkpt lat="42.71778" lon="0.22338">
        <ele>2505</ele>
        <time>2019-02-26T13:08:40Z</time>
      </trkpt>
      <trkpt lat="42.71777" lon="0.22341">
        <ele>2506</ele>
        <time>2019-02-26T13:08:44Z</time>
      </trkpt>
      <trkpt lat="42.71779" lon="0.22341">
        <ele>2504</ele>
        <time>2019-02-26T13:08:55Z</time>
      </trkpt>
      <trkpt lat="42.71781" lon="0.22341">
        <ele>2504</ele>
        <time>2019-02-26T13:08:59Z</time>
      </trkpt>
      <trkpt lat="42.71785" lon="0.2234">
        <ele>2506</ele>
        <time>2019-02-26T13:09:06Z</time>
      </trkpt>
      <trkpt lat="42.71787" lon="0.2234">
        <ele>2506</ele>
        <time>2019-02-26T13:09:10Z</time>
      </trkpt>
      <trkpt lat="42.71789" lon="0.2234">
        <ele>2507</ele>
        <time>2019-02-26T13:09:14Z</time>
      </trkpt>
      <trkpt lat="42.71791" lon="0.2234">
        <ele>2507</ele>
        <time>2019-02-26T13:09:17Z</time>
      </trkpt>
      <trkpt lat="42.71793" lon="0.22341">
        <ele>2508</ele>
        <time>2019-02-26T13:09:21Z</time>
      </trkpt>
      <trkpt lat="42.71801" lon="0.22342">
        <ele>2510</ele>
        <time>2019-02-26T13:09:37Z</time>
      </trkpt>
      <trkpt lat="42.71804" lon="0.22343">
        <ele>2511</ele>
        <time>2019-02-26T13:09:41Z</time>
      </trkpt>
      <trkpt lat="42.71806" lon="0.22343">
        <ele>2512</ele>
        <time>2019-02-26T13:09:45Z</time>
      </trkpt>
      <trkpt lat="42.71814" lon="0.22345">
        <ele>2513</ele>
        <time>2019-02-26T13:10:01Z</time>
      </trkpt>
      <trkpt lat="42.71827" lon="0.22346">
        <ele>2516</ele>
        <time>2019-02-26T13:10:25Z</time>
      </trkpt>
      <trkpt lat="42.71829" lon="0.22346">
        <ele>2517</ele>
        <time>2019-02-26T13:10:28Z</time>
      </trkpt>
      <trkpt lat="42.71831" lon="0.22346">
        <ele>2517</ele>
        <time>2019-02-26T13:10:32Z</time>
      </trkpt>
      <trkpt lat="42.71833" lon="0.22347">
        <ele>2517</ele>
        <time>2019-02-26T13:10:36Z</time>
      </trkpt>
      <trkpt lat="42.71835" lon="0.22347">
        <ele>2518</ele>
        <time>2019-02-26T13:10:40Z</time>
      </trkpt>
      <trkpt lat="42.71837" lon="0.22347">
        <ele>2518</ele>
        <time>2019-02-26T13:10:44Z</time>
      </trkpt>
      <trkpt lat="42.71839" lon="0.22347">
        <ele>2519</ele>
        <time>2019-02-26T13:10:48Z</time>
      </trkpt>
      <trkpt lat="42.71845" lon="0.22347">
        <ele>2520</ele>
        <time>2019-02-26T13:11:00Z</time>
      </trkpt>
      <trkpt lat="42.71849" lon="0.22346">
        <ele>2523</ele>
        <time>2019-02-26T13:11:08Z</time>
      </trkpt>
      <trkpt lat="42.71851" lon="0.22346">
        <ele>2523</ele>
        <time>2019-02-26T13:11:12Z</time>
      </trkpt>
      <trkpt lat="42.71853" lon="0.22345">
        <ele>2523</ele>
        <time>2019-02-26T13:11:16Z</time>
      </trkpt>
      <trkpt lat="42.71855" lon="0.22346">
        <ele>2525</ele>
        <time>2019-02-26T13:11:20Z</time>
      </trkpt>
      <trkpt lat="42.71856" lon="0.22348">
        <ele>2527</ele>
        <time>2019-02-26T13:11:25Z</time>
      </trkpt>
      <trkpt lat="42.71855" lon="0.2235">
        <ele>2527</ele>
        <time>2019-02-26T13:11:36Z</time>
      </trkpt>
      <trkpt lat="42.71851" lon="0.22352">
        <ele>2527</ele>
        <time>2019-02-26T13:13:50Z</time>
      </trkpt>
      <trkpt lat="42.71848" lon="0.22353">
        <ele>2527</ele>
        <time>2019-02-26T13:13:53Z</time>
      </trkpt>
      <trkpt lat="42.71845" lon="0.22355">
        <ele>2525</ele>
        <time>2019-02-26T13:13:55Z</time>
      </trkpt>
      <trkpt lat="42.7184" lon="0.22357">
        <ele>2525</ele>
        <time>2019-02-26T13:13:59Z</time>
      </trkpt>
      <trkpt lat="42.71837" lon="0.22358">
        <ele>2525</ele>
        <time>2019-02-26T13:14:01Z</time>
      </trkpt>
      <trkpt lat="42.71831" lon="0.22362">
        <ele>2525</ele>
        <time>2019-02-26T13:14:08Z</time>
      </trkpt>
      <trkpt lat="42.7183" lon="0.22364">
        <ele>2525</ele>
        <time>2019-02-26T13:14:11Z</time>
      </trkpt>
      <trkpt lat="42.71828" lon="0.22365">
        <ele>2525</ele>
        <time>2019-02-26T13:14:14Z</time>
      </trkpt>
      <trkpt lat="42.71826" lon="0.22366">
        <ele>2525</ele>
        <time>2019-02-26T13:14:17Z</time>
      </trkpt>
      <trkpt lat="42.71822" lon="0.22369">
        <ele>2527</ele>
        <time>2019-02-26T13:14:24Z</time>
      </trkpt>
      <trkpt lat="42.71814" lon="0.22374">
        <ele>2527</ele>
        <time>2019-02-26T13:14:36Z</time>
      </trkpt>
      <trkpt lat="42.71809" lon="0.22376">
        <ele>2528</ele>
        <time>2019-02-26T13:14:42Z</time>
      </trkpt>
      <trkpt lat="42.71801" lon="0.22381">
        <ele>2528</ele>
        <time>2019-02-26T13:14:56Z</time>
      </trkpt>
      <trkpt lat="42.71797" lon="0.22383">
        <ele>2528</ele>
        <time>2019-02-26T13:15:02Z</time>
      </trkpt>
      <trkpt lat="42.71795" lon="0.22384">
        <ele>2529</ele>
        <time>2019-02-26T13:15:06Z</time>
      </trkpt>
      <trkpt lat="42.71793" lon="0.22385">
        <ele>2529</ele>
        <time>2019-02-26T13:15:09Z</time>
      </trkpt>
      <trkpt lat="42.71779" lon="0.2239">
        <ele>2529</ele>
        <time>2019-02-26T13:15:26Z</time>
      </trkpt>
      <trkpt lat="42.71776" lon="0.22391">
        <ele>2529</ele>
        <time>2019-02-26T13:15:29Z</time>
      </trkpt>
      <trkpt lat="42.71773" lon="0.22392">
        <ele>2530</ele>
        <time>2019-02-26T13:15:34Z</time>
      </trkpt>
      <trkpt lat="42.71771" lon="0.22393">
        <ele>2530</ele>
        <time>2019-02-26T13:15:38Z</time>
      </trkpt>
      <trkpt lat="42.71769" lon="0.22393">
        <ele>2531</ele>
        <time>2019-02-26T13:15:44Z</time>
      </trkpt>
      <trkpt lat="42.71767" lon="0.22394">
        <ele>2531</ele>
        <time>2019-02-26T13:15:48Z</time>
      </trkpt>
      <trkpt lat="42.71765" lon="0.22395">
        <ele>2531</ele>
        <time>2019-02-26T13:15:51Z</time>
      </trkpt>
      <trkpt lat="42.71761" lon="0.22397">
        <ele>2532</ele>
        <time>2019-02-26T13:15:58Z</time>
      </trkpt>
      <trkpt lat="42.7176" lon="0.22398">
        <ele>2532</ele>
        <time>2019-02-26T13:16:01Z</time>
      </trkpt>
      <trkpt lat="42.71758" lon="0.22399">
        <ele>2533</ele>
        <time>2019-02-26T13:16:17Z</time>
      </trkpt>
      <trkpt lat="42.71756" lon="0.22401">
        <ele>2533</ele>
        <time>2019-02-26T13:16:22Z</time>
      </trkpt>
      <trkpt lat="42.71755" lon="0.22402">
        <ele>2533</ele>
        <time>2019-02-26T13:16:26Z</time>
      </trkpt>
      <trkpt lat="42.71753" lon="0.22403">
        <ele>2534</ele>
        <time>2019-02-26T13:16:30Z</time>
      </trkpt>
      <trkpt lat="42.71745" lon="0.22406">
        <ele>2536</ele>
        <time>2019-02-26T13:16:43Z</time>
      </trkpt>
      <trkpt lat="42.71741" lon="0.22407">
        <ele>2536</ele>
        <time>2019-02-26T13:16:49Z</time>
      </trkpt>
      <trkpt lat="42.71738" lon="0.22407">
        <ele>2536</ele>
        <time>2019-02-26T13:16:53Z</time>
      </trkpt>
      <trkpt lat="42.71736" lon="0.22406">
        <ele>2536</ele>
        <time>2019-02-26T13:16:57Z</time>
      </trkpt>
      <trkpt lat="42.71734" lon="0.22406">
        <ele>2537</ele>
        <time>2019-02-26T13:17:00Z</time>
      </trkpt>
      <trkpt lat="42.71728" lon="0.22406">
        <ele>2537</ele>
        <time>2019-02-26T13:17:09Z</time>
      </trkpt>
      <trkpt lat="42.71726" lon="0.22406">
        <ele>2538</ele>
        <time>2019-02-26T13:17:12Z</time>
      </trkpt>
      <trkpt lat="42.71722" lon="0.22406">
        <ele>2539</ele>
        <time>2019-02-26T13:17:19Z</time>
      </trkpt>
      <trkpt lat="42.7172" lon="0.22406">
        <ele>2539</ele>
        <time>2019-02-26T13:17:22Z</time>
      </trkpt>
      <trkpt lat="42.71719" lon="0.22407">
        <ele>2539</ele>
        <time>2019-02-26T13:17:25Z</time>
      </trkpt>
      <trkpt lat="42.71715" lon="0.22407">
        <ele>2540</ele>
        <time>2019-02-26T13:17:31Z</time>
      </trkpt>
      <trkpt lat="42.71711" lon="0.22408">
        <ele>2541</ele>
        <time>2019-02-26T13:17:37Z</time>
      </trkpt>
      <trkpt lat="42.71705" lon="0.22409">
        <ele>2541</ele>
        <time>2019-02-26T13:17:46Z</time>
      </trkpt>
      <trkpt lat="42.71701" lon="0.2241">
        <ele>2542</ele>
        <time>2019-02-26T13:17:53Z</time>
      </trkpt>
      <trkpt lat="42.71699" lon="0.22411">
        <ele>2544</ele>
        <time>2019-02-26T13:17:57Z</time>
      </trkpt>
      <trkpt lat="42.71693" lon="0.22413">
        <ele>2545</ele>
        <time>2019-02-26T13:18:06Z</time>
      </trkpt>
      <trkpt lat="42.71691" lon="0.22414">
        <ele>2545</ele>
        <time>2019-02-26T13:18:09Z</time>
      </trkpt>
      <trkpt lat="42.71686" lon="0.22415">
        <ele>2545</ele>
        <time>2019-02-26T13:18:15Z</time>
      </trkpt>
      <trkpt lat="42.71684" lon="0.22415">
        <ele>2545</ele>
        <time>2019-02-26T13:18:18Z</time>
      </trkpt>
      <trkpt lat="42.71682" lon="0.22416">
        <ele>2545</ele>
        <time>2019-02-26T13:18:21Z</time>
      </trkpt>
      <trkpt lat="42.71679" lon="0.22417">
        <ele>2545</ele>
        <time>2019-02-26T13:18:24Z</time>
      </trkpt>
      <trkpt lat="42.71675" lon="0.22421">
        <ele>2546</ele>
        <time>2019-02-26T13:18:30Z</time>
      </trkpt>
      <trkpt lat="42.71673" lon="0.22423">
        <ele>2547</ele>
        <time>2019-02-26T13:18:35Z</time>
      </trkpt>
      <trkpt lat="42.71672" lon="0.22424">
        <ele>2547</ele>
        <time>2019-02-26T13:18:38Z</time>
      </trkpt>
      <trkpt lat="42.7167" lon="0.22426">
        <ele>2548</ele>
        <time>2019-02-26T13:18:41Z</time>
      </trkpt>
      <trkpt lat="42.71668" lon="0.22427">
        <ele>2548</ele>
        <time>2019-02-26T13:18:45Z</time>
      </trkpt>
      <trkpt lat="42.71665" lon="0.22431">
        <ele>2548</ele>
        <time>2019-02-26T13:18:53Z</time>
      </trkpt>
      <trkpt lat="42.71663" lon="0.22432">
        <ele>2549</ele>
        <time>2019-02-26T13:18:57Z</time>
      </trkpt>
      <trkpt lat="42.71662" lon="0.22434">
        <ele>2549</ele>
        <time>2019-02-26T13:19:01Z</time>
      </trkpt>
      <trkpt lat="42.7166" lon="0.22436">
        <ele>2550</ele>
        <time>2019-02-26T13:19:05Z</time>
      </trkpt>
      <trkpt lat="42.71659" lon="0.22438">
        <ele>2551</ele>
        <time>2019-02-26T13:19:10Z</time>
      </trkpt>
      <trkpt lat="42.7166" lon="0.22439">
        <ele>2551</ele>
        <time>2019-02-26T13:19:20Z</time>
      </trkpt>
      <trkpt lat="42.71662" lon="0.2244">
        <ele>2551</ele>
        <time>2019-02-26T13:19:24Z</time>
      </trkpt>
      <trkpt lat="42.71665" lon="0.2244">
        <ele>2551</ele>
        <time>2019-02-26T13:19:28Z</time>
      </trkpt>
      <trkpt lat="42.71667" lon="0.2244">
        <ele>2552</ele>
        <time>2019-02-26T13:19:32Z</time>
      </trkpt>
      <trkpt lat="42.71673" lon="0.22443">
        <ele>2554</ele>
        <time>2019-02-26T13:19:44Z</time>
      </trkpt>
      <trkpt lat="42.71671" lon="0.22444">
        <ele>2554</ele>
        <time>2019-02-26T13:19:48Z</time>
      </trkpt>
      <trkpt lat="42.71666" lon="0.22449">
        <ele>2555</ele>
        <time>2019-02-26T13:19:59Z</time>
      </trkpt>
      <trkpt lat="42.71664" lon="0.22451">
        <ele>2557</ele>
        <time>2019-02-26T13:20:03Z</time>
      </trkpt>
      <trkpt lat="42.71663" lon="0.22453">
        <ele>2557</ele>
        <time>2019-02-26T13:20:06Z</time>
      </trkpt>
      <trkpt lat="42.71661" lon="0.22455">
        <ele>2559</ele>
        <time>2019-02-26T13:20:10Z</time>
      </trkpt>
      <trkpt lat="42.7166" lon="0.22456">
        <ele>2559</ele>
        <time>2019-02-26T13:20:15Z</time>
      </trkpt>
      <trkpt lat="42.71658" lon="0.22458">
        <ele>2560</ele>
        <time>2019-02-26T13:20:19Z</time>
      </trkpt>
      <trkpt lat="42.71657" lon="0.2246">
        <ele>2560</ele>
        <time>2019-02-26T13:20:23Z</time>
      </trkpt>
      <trkpt lat="42.71655" lon="0.22462">
        <ele>2560</ele>
        <time>2019-02-26T13:20:27Z</time>
      </trkpt>
      <trkpt lat="42.71654" lon="0.22464">
        <ele>2561</ele>
        <time>2019-02-26T13:20:31Z</time>
      </trkpt>
      <trkpt lat="42.71652" lon="0.22466">
        <ele>2561</ele>
        <time>2019-02-26T13:20:35Z</time>
      </trkpt>
      <trkpt lat="42.7165" lon="0.22468">
        <ele>2561</ele>
        <time>2019-02-26T13:20:39Z</time>
      </trkpt>
      <trkpt lat="42.71649" lon="0.2247">
        <ele>2562</ele>
        <time>2019-02-26T13:20:42Z</time>
      </trkpt>
      <trkpt lat="42.71647" lon="0.22472">
        <ele>2563</ele>
        <time>2019-02-26T13:20:46Z</time>
      </trkpt>
      <trkpt lat="42.71645" lon="0.22477">
        <ele>2562</ele>
        <time>2019-02-26T13:20:55Z</time>
      </trkpt>
      <trkpt lat="42.71647" lon="0.22476">
        <ele>2563</ele>
        <time>2019-02-26T13:21:04Z</time>
      </trkpt>
      <trkpt lat="42.71656" lon="0.22475">
        <ele>2565</ele>
        <time>2019-02-26T13:21:21Z</time>
      </trkpt>
      <trkpt lat="42.71657" lon="0.22475">
        <ele>2565</ele>
        <time>2019-02-26T13:21:24Z</time>
      </trkpt>
      <trkpt lat="42.71662" lon="0.22474">
        <ele>2566</ele>
        <time>2019-02-26T13:21:30Z</time>
      </trkpt>
      <trkpt lat="42.71668" lon="0.22475">
        <ele>2567</ele>
        <time>2019-02-26T13:21:40Z</time>
      </trkpt>
      <trkpt lat="42.7167" lon="0.22474">
        <ele>2567</ele>
        <time>2019-02-26T13:21:43Z</time>
      </trkpt>
      <trkpt lat="42.71683" lon="0.22475">
        <ele>2569</ele>
        <time>2019-02-26T13:22:05Z</time>
      </trkpt>
      <trkpt lat="42.71687" lon="0.22477">
        <ele>2570</ele>
        <time>2019-02-26T13:22:13Z</time>
      </trkpt>
      <trkpt lat="42.71691" lon="0.22477">
        <ele>2571</ele>
        <time>2019-02-26T13:22:21Z</time>
      </trkpt>
      <trkpt lat="42.71697" lon="0.22479">
        <ele>2573</ele>
        <time>2019-02-26T13:22:37Z</time>
      </trkpt>
      <trkpt lat="42.717" lon="0.2248">
        <ele>2574</ele>
        <time>2019-02-26T13:22:41Z</time>
      </trkpt>
      <trkpt lat="42.71704" lon="0.22481">
        <ele>2574</ele>
        <time>2019-02-26T13:22:48Z</time>
      </trkpt>
      <trkpt lat="42.71712" lon="0.22482">
        <ele>2576</ele>
        <time>2019-02-26T13:23:01Z</time>
      </trkpt>
      <trkpt lat="42.71722" lon="0.22483">
        <ele>2578</ele>
        <time>2019-02-26T13:23:22Z</time>
      </trkpt>
      <trkpt lat="42.71724" lon="0.22484">
        <ele>2579</ele>
        <time>2019-02-26T13:23:26Z</time>
      </trkpt>
      <trkpt lat="42.71727" lon="0.22485">
        <ele>2579</ele>
        <time>2019-02-26T13:23:30Z</time>
      </trkpt>
      <trkpt lat="42.71728" lon="0.22485">
        <ele>2579</ele>
        <time>2019-02-26T13:23:34Z</time>
      </trkpt>
      <trkpt lat="42.71731" lon="0.22486">
        <ele>2580</ele>
        <time>2019-02-26T13:23:38Z</time>
      </trkpt>
      <trkpt lat="42.71733" lon="0.22487">
        <ele>2580</ele>
        <time>2019-02-26T13:23:42Z</time>
      </trkpt>
      <trkpt lat="42.71735" lon="0.22488">
        <ele>2581</ele>
        <time>2019-02-26T13:23:46Z</time>
      </trkpt>
      <trkpt lat="42.71737" lon="0.22489">
        <ele>2581</ele>
        <time>2019-02-26T13:23:49Z</time>
      </trkpt>
      <trkpt lat="42.71739" lon="0.2249">
        <ele>2581</ele>
        <time>2019-02-26T13:23:53Z</time>
      </trkpt>
      <trkpt lat="42.71741" lon="0.2249">
        <ele>2582</ele>
        <time>2019-02-26T13:23:57Z</time>
      </trkpt>
      <trkpt lat="42.71743" lon="0.22491">
        <ele>2582</ele>
        <time>2019-02-26T13:24:01Z</time>
      </trkpt>
      <trkpt lat="42.71747" lon="0.22492">
        <ele>2583</ele>
        <time>2019-02-26T13:24:09Z</time>
      </trkpt>
      <trkpt lat="42.71755" lon="0.22494">
        <ele>2587</ele>
        <time>2019-02-26T13:24:25Z</time>
      </trkpt>
      <trkpt lat="42.71757" lon="0.22495">
        <ele>2587</ele>
        <time>2019-02-26T13:24:29Z</time>
      </trkpt>
      <trkpt lat="42.71757" lon="0.22497">
        <ele>2588</ele>
        <time>2019-02-26T13:24:37Z</time>
      </trkpt>
      <trkpt lat="42.71749" lon="0.22501">
        <ele>2590</ele>
        <time>2019-02-26T13:24:51Z</time>
      </trkpt>
      <trkpt lat="42.71747" lon="0.22503">
        <ele>2590</ele>
        <time>2019-02-26T13:24:55Z</time>
      </trkpt>
      <trkpt lat="42.71745" lon="0.22504">
        <ele>2590</ele>
        <time>2019-02-26T13:25:00Z</time>
      </trkpt>
      <trkpt lat="42.71741" lon="0.22507">
        <ele>2591</ele>
        <time>2019-02-26T13:25:08Z</time>
      </trkpt>
      <trkpt lat="42.71739" lon="0.22508">
        <ele>2591</ele>
        <time>2019-02-26T13:25:11Z</time>
      </trkpt>
      <trkpt lat="42.71738" lon="0.2251">
        <ele>2593</ele>
        <time>2019-02-26T13:25:15Z</time>
      </trkpt>
      <trkpt lat="42.71736" lon="0.22511">
        <ele>2592</ele>
        <time>2019-02-26T13:25:19Z</time>
      </trkpt>
      <trkpt lat="42.71734" lon="0.22512">
        <ele>2593</ele>
        <time>2019-02-26T13:25:23Z</time>
      </trkpt>
      <trkpt lat="42.71732" lon="0.22513">
        <ele>2593</ele>
        <time>2019-02-26T13:25:27Z</time>
      </trkpt>
      <trkpt lat="42.71729" lon="0.22516">
        <ele>2594</ele>
        <time>2019-02-26T13:25:35Z</time>
      </trkpt>
      <trkpt lat="42.71727" lon="0.22518">
        <ele>2595</ele>
        <time>2019-02-26T13:25:40Z</time>
      </trkpt>
      <trkpt lat="42.71719" lon="0.22522">
        <ele>2597</ele>
        <time>2019-02-26T13:25:57Z</time>
      </trkpt>
      <trkpt lat="42.71717" lon="0.22523">
        <ele>2598</ele>
        <time>2019-02-26T13:26:01Z</time>
      </trkpt>
      <trkpt lat="42.71715" lon="0.22524">
        <ele>2598</ele>
        <time>2019-02-26T13:26:06Z</time>
      </trkpt>
      <trkpt lat="42.71713" lon="0.22525">
        <ele>2598</ele>
        <time>2019-02-26T13:26:10Z</time>
      </trkpt>
      <trkpt lat="42.71712" lon="0.22526">
        <ele>2598</ele>
        <time>2019-02-26T13:26:14Z</time>
      </trkpt>
      <trkpt lat="42.7171" lon="0.22527">
        <ele>2599</ele>
        <time>2019-02-26T13:26:18Z</time>
      </trkpt>
      <trkpt lat="42.71708" lon="0.22528">
        <ele>2600</ele>
        <time>2019-02-26T13:26:22Z</time>
      </trkpt>
      <trkpt lat="42.71706" lon="0.22529">
        <ele>2600</ele>
        <time>2019-02-26T13:26:25Z</time>
      </trkpt>
      <trkpt lat="42.71702" lon="0.22532">
        <ele>2602</ele>
        <time>2019-02-26T13:26:33Z</time>
      </trkpt>
      <trkpt lat="42.717" lon="0.22532">
        <ele>2602</ele>
        <time>2019-02-26T13:26:36Z</time>
      </trkpt>
      <trkpt lat="42.71696" lon="0.22535">
        <ele>2602</ele>
        <time>2019-02-26T13:26:44Z</time>
      </trkpt>
      <trkpt lat="42.71694" lon="0.22536">
        <ele>2603</ele>
        <time>2019-02-26T13:26:50Z</time>
      </trkpt>
      <trkpt lat="42.71691" lon="0.22538">
        <ele>2604</ele>
        <time>2019-02-26T13:26:57Z</time>
      </trkpt>
      <trkpt lat="42.71687" lon="0.22541">
        <ele>2605</ele>
        <time>2019-02-26T13:27:03Z</time>
      </trkpt>
      <trkpt lat="42.71685" lon="0.22542">
        <ele>2605</ele>
        <time>2019-02-26T13:27:06Z</time>
      </trkpt>
      <trkpt lat="42.71678" lon="0.2255">
        <ele>2609</ele>
        <time>2019-02-26T13:27:22Z</time>
      </trkpt>
      <trkpt lat="42.71676" lon="0.22551">
        <ele>2609</ele>
        <time>2019-02-26T13:27:26Z</time>
      </trkpt>
      <trkpt lat="42.71675" lon="0.22553">
        <ele>2609</ele>
        <time>2019-02-26T13:27:30Z</time>
      </trkpt>
      <trkpt lat="42.71671" lon="0.22555">
        <ele>2610</ele>
        <time>2019-02-26T13:27:37Z</time>
      </trkpt>
      <trkpt lat="42.71669" lon="0.22556">
        <ele>2610</ele>
        <time>2019-02-26T13:27:42Z</time>
      </trkpt>
      <trkpt lat="42.71671" lon="0.22557">
        <ele>2611</ele>
        <time>2019-02-26T13:27:53Z</time>
      </trkpt>
      <trkpt lat="42.71673" lon="0.22557">
        <ele>2611</ele>
        <time>2019-02-26T13:27:57Z</time>
      </trkpt>
      <trkpt lat="42.71677" lon="0.22558">
        <ele>2612</ele>
        <time>2019-02-26T13:28:05Z</time>
      </trkpt>
      <trkpt lat="42.71679" lon="0.22558">
        <ele>2613</ele>
        <time>2019-02-26T13:28:10Z</time>
      </trkpt>
      <trkpt lat="42.71681" lon="0.22559">
        <ele>2613</ele>
        <time>2019-02-26T13:28:17Z</time>
      </trkpt>
      <trkpt lat="42.71683" lon="0.22561">
        <ele>2614</ele>
        <time>2019-02-26T13:28:22Z</time>
      </trkpt>
      <trkpt lat="42.71681" lon="0.22562">
        <ele>2615</ele>
        <time>2019-02-26T13:28:28Z</time>
      </trkpt>
      <trkpt lat="42.71678" lon="0.22565">
        <ele>2616</ele>
        <time>2019-02-26T13:28:36Z</time>
      </trkpt>
      <trkpt lat="42.71674" lon="0.22567">
        <ele>2617</ele>
        <time>2019-02-26T13:28:43Z</time>
      </trkpt>
      <trkpt lat="42.71672" lon="0.22568">
        <ele>2617</ele>
        <time>2019-02-26T13:28:46Z</time>
      </trkpt>
      <trkpt lat="42.7167" lon="0.22569">
        <ele>2617</ele>
        <time>2019-02-26T13:28:49Z</time>
      </trkpt>
      <trkpt lat="42.71668" lon="0.2257">
        <ele>2617</ele>
        <time>2019-02-26T13:28:52Z</time>
      </trkpt>
      <trkpt lat="42.71666" lon="0.22571">
        <ele>2618</ele>
        <time>2019-02-26T13:28:57Z</time>
      </trkpt>
      <trkpt lat="42.71664" lon="0.22573">
        <ele>2618</ele>
        <time>2019-02-26T13:29:02Z</time>
      </trkpt>
      <trkpt lat="42.71662" lon="0.22574">
        <ele>2618</ele>
        <time>2019-02-26T13:29:06Z</time>
      </trkpt>
      <trkpt lat="42.7166" lon="0.22575">
        <ele>2619</ele>
        <time>2019-02-26T13:29:16Z</time>
      </trkpt>
      <trkpt lat="42.71659" lon="0.22576">
        <ele>2619</ele>
        <time>2019-02-26T13:29:19Z</time>
      </trkpt>
      <trkpt lat="42.71661" lon="0.22577">
        <ele>2620</ele>
        <time>2019-02-26T13:29:29Z</time>
      </trkpt>
      <trkpt lat="42.71665" lon="0.22578">
        <ele>2620</ele>
        <time>2019-02-26T13:29:36Z</time>
      </trkpt>
      <trkpt lat="42.71669" lon="0.22578">
        <ele>2621</ele>
        <time>2019-02-26T13:29:42Z</time>
      </trkpt>
      <trkpt lat="42.71671" lon="0.22578">
        <ele>2622</ele>
        <time>2019-02-26T13:29:46Z</time>
      </trkpt>
      <trkpt lat="42.71675" lon="0.22579">
        <ele>2622</ele>
        <time>2019-02-26T13:29:53Z</time>
      </trkpt>
      <trkpt lat="42.71677" lon="0.22579">
        <ele>2623</ele>
        <time>2019-02-26T13:29:57Z</time>
      </trkpt>
      <trkpt lat="42.71679" lon="0.2258">
        <ele>2623</ele>
        <time>2019-02-26T13:30:01Z</time>
      </trkpt>
      <trkpt lat="42.71678" lon="0.22582">
        <ele>2625</ele>
        <time>2019-02-26T13:30:10Z</time>
      </trkpt>
      <trkpt lat="42.71676" lon="0.22584">
        <ele>2626</ele>
        <time>2019-02-26T13:30:14Z</time>
      </trkpt>
      <trkpt lat="42.71669" lon="0.2259">
        <ele>2628</ele>
        <time>2019-02-26T13:30:29Z</time>
      </trkpt>
      <trkpt lat="42.71667" lon="0.22592">
        <ele>2628</ele>
        <time>2019-02-26T13:30:32Z</time>
      </trkpt>
      <trkpt lat="42.71665" lon="0.22593">
        <ele>2629</ele>
        <time>2019-02-26T13:30:36Z</time>
      </trkpt>
      <trkpt lat="42.71664" lon="0.22594">
        <ele>2630</ele>
        <time>2019-02-26T13:30:40Z</time>
      </trkpt>
      <trkpt lat="42.71662" lon="0.22596">
        <ele>2630</ele>
        <time>2019-02-26T13:30:47Z</time>
      </trkpt>
      <trkpt lat="42.71661" lon="0.22598">
        <ele>2630</ele>
        <time>2019-02-26T13:30:51Z</time>
      </trkpt>
      <trkpt lat="42.71662" lon="0.226">
        <ele>2631</ele>
        <time>2019-02-26T13:31:06Z</time>
      </trkpt>
      <trkpt lat="42.71664" lon="0.22602">
        <ele>2631</ele>
        <time>2019-02-26T13:31:13Z</time>
      </trkpt>
      <trkpt lat="42.71666" lon="0.22603">
        <ele>2632</ele>
        <time>2019-02-26T13:31:18Z</time>
      </trkpt>
      <trkpt lat="42.71668" lon="0.22603">
        <ele>2632</ele>
        <time>2019-02-26T13:31:26Z</time>
      </trkpt>
      <trkpt lat="42.71669" lon="0.22603">
        <ele>2633</ele>
        <time>2019-02-26T13:31:30Z</time>
      </trkpt>
      <trkpt lat="42.71671" lon="0.22605">
        <ele>2634</ele>
        <time>2019-02-26T13:31:34Z</time>
      </trkpt>
      <trkpt lat="42.71673" lon="0.22606">
        <ele>2634</ele>
        <time>2019-02-26T13:31:43Z</time>
      </trkpt>
      <trkpt lat="42.71675" lon="0.22607">
        <ele>2634</ele>
        <time>2019-02-26T13:31:46Z</time>
      </trkpt>
      <trkpt lat="42.71674" lon="0.2261">
        <ele>2636</ele>
        <time>2019-02-26T13:31:52Z</time>
      </trkpt>
      <trkpt lat="42.71671" lon="0.22614">
        <ele>2637</ele>
        <time>2019-02-26T13:32:02Z</time>
      </trkpt>
      <trkpt lat="42.71673" lon="0.22615">
        <ele>2638</ele>
        <time>2019-02-26T13:32:14Z</time>
      </trkpt>
      <trkpt lat="42.71675" lon="0.22617">
        <ele>2638</ele>
        <time>2019-02-26T13:32:18Z</time>
      </trkpt>
      <trkpt lat="42.71673" lon="0.22621">
        <ele>2640</ele>
        <time>2019-02-26T13:32:35Z</time>
      </trkpt>
      <trkpt lat="42.71672" lon="0.22623">
        <ele>2641</ele>
        <time>2019-02-26T13:32:45Z</time>
      </trkpt>
      <trkpt lat="42.7167" lon="0.22625">
        <ele>2642</ele>
        <time>2019-02-26T13:32:52Z</time>
      </trkpt>
      <trkpt lat="42.71669" lon="0.22627">
        <ele>2643</ele>
        <time>2019-02-26T13:32:57Z</time>
      </trkpt>
      <trkpt lat="42.71671" lon="0.2263">
        <ele>2643</ele>
        <time>2019-02-26T13:33:07Z</time>
      </trkpt>
      <trkpt lat="42.71676" lon="0.22633">
        <ele>2643</ele>
        <time>2019-02-26T13:33:17Z</time>
      </trkpt>
      <trkpt lat="42.71678" lon="0.22635">
        <ele>2645</ele>
        <time>2019-02-26T13:33:21Z</time>
      </trkpt>
      <trkpt lat="42.71679" lon="0.22637">
        <ele>2646</ele>
        <time>2019-02-26T13:33:25Z</time>
      </trkpt>
      <trkpt lat="42.71679" lon="0.2264">
        <ele>2647</ele>
        <time>2019-02-26T13:33:30Z</time>
      </trkpt>
      <trkpt lat="42.71679" lon="0.22643">
        <ele>2648</ele>
        <time>2019-02-26T13:33:38Z</time>
      </trkpt>
      <trkpt lat="42.71677" lon="0.22645">
        <ele>2649</ele>
        <time>2019-02-26T13:33:43Z</time>
      </trkpt>
      <trkpt lat="42.71677" lon="0.22648">
        <ele>2650</ele>
        <time>2019-02-26T13:33:48Z</time>
      </trkpt>
      <trkpt lat="42.71675" lon="0.2265">
        <ele>2651</ele>
        <time>2019-02-26T13:33:52Z</time>
      </trkpt>
      <trkpt lat="42.71673" lon="0.22651">
        <ele>2651</ele>
        <time>2019-02-26T13:33:56Z</time>
      </trkpt>
      <trkpt lat="42.71672" lon="0.22653">
        <ele>2652</ele>
        <time>2019-02-26T13:34:00Z</time>
      </trkpt>
      <trkpt lat="42.71667" lon="0.22661">
        <ele>2653</ele>
        <time>2019-02-26T13:34:16Z</time>
      </trkpt>
      <trkpt lat="42.71665" lon="0.22663">
        <ele>2653</ele>
        <time>2019-02-26T13:34:20Z</time>
      </trkpt>
      <trkpt lat="42.71664" lon="0.22665">
        <ele>2655</ele>
        <time>2019-02-26T13:34:24Z</time>
      </trkpt>
      <trkpt lat="42.71663" lon="0.22667">
        <ele>2655</ele>
        <time>2019-02-26T13:34:29Z</time>
      </trkpt>
      <trkpt lat="42.71665" lon="0.22669">
        <ele>2656</ele>
        <time>2019-02-26T13:34:42Z</time>
      </trkpt>
      <trkpt lat="42.71667" lon="0.22669">
        <ele>2656</ele>
        <time>2019-02-26T13:34:46Z</time>
      </trkpt>
      <trkpt lat="42.71675" lon="0.22671">
        <ele>2658</ele>
        <time>2019-02-26T13:35:04Z</time>
      </trkpt>
      <trkpt lat="42.71679" lon="0.22671">
        <ele>2659</ele>
        <time>2019-02-26T13:35:12Z</time>
      </trkpt>
      <trkpt lat="42.71689" lon="0.22673">
        <ele>2661</ele>
        <time>2019-02-26T13:35:41Z</time>
      </trkpt>
      <trkpt lat="42.71688" lon="0.22675">
        <ele>2663</ele>
        <time>2019-02-26T13:35:47Z</time>
      </trkpt>
      <trkpt lat="42.71686" lon="0.22677">
        <ele>2663</ele>
        <time>2019-02-26T13:35:50Z</time>
      </trkpt>
      <trkpt lat="42.71685" lon="0.22678">
        <ele>2664</ele>
        <time>2019-02-26T13:35:53Z</time>
      </trkpt>
      <trkpt lat="42.71683" lon="0.2268">
        <ele>2664</ele>
        <time>2019-02-26T13:35:56Z</time>
      </trkpt>
      <trkpt lat="42.71681" lon="0.22682">
        <ele>2664</ele>
        <time>2019-02-26T13:35:59Z</time>
      </trkpt>
      <trkpt lat="42.7168" lon="0.22684">
        <ele>2666</ele>
        <time>2019-02-26T13:36:02Z</time>
      </trkpt>
      <trkpt lat="42.71679" lon="0.22687">
        <ele>2667</ele>
        <time>2019-02-26T13:36:05Z</time>
      </trkpt>
      <trkpt lat="42.71677" lon="0.22692">
        <ele>2667</ele>
        <time>2019-02-26T13:36:13Z</time>
      </trkpt>
      <trkpt lat="42.71676" lon="0.22695">
        <ele>2668</ele>
        <time>2019-02-26T13:36:17Z</time>
      </trkpt>
      <trkpt lat="42.71673" lon="0.22699">
        <ele>2668</ele>
        <time>2019-02-26T13:36:28Z</time>
      </trkpt>
      <trkpt lat="42.71678" lon="0.22699">
        <ele>2668</ele>
        <time>2019-02-26T13:36:42Z</time>
      </trkpt>
      <trkpt lat="42.71682" lon="0.22698">
        <ele>2669</ele>
        <time>2019-02-26T13:36:48Z</time>
      </trkpt>
      <trkpt lat="42.71689" lon="0.22699">
        <ele>2671</ele>
        <time>2019-02-26T13:37:00Z</time>
      </trkpt>
      <trkpt lat="42.71693" lon="0.227">
        <ele>2671</ele>
        <time>2019-02-26T13:37:07Z</time>
      </trkpt>
      <trkpt lat="42.71695" lon="0.22701">
        <ele>2672</ele>
        <time>2019-02-26T13:37:10Z</time>
      </trkpt>
      <trkpt lat="42.71703" lon="0.22701">
        <ele>2673</ele>
        <time>2019-02-26T13:38:00Z</time>
      </trkpt>
      <trkpt lat="42.71705" lon="0.22702">
        <ele>2674</ele>
        <time>2019-02-26T13:38:04Z</time>
      </trkpt>
      <trkpt lat="42.71708" lon="0.22702">
        <ele>2674</ele>
        <time>2019-02-26T13:38:08Z</time>
      </trkpt>
      <trkpt lat="42.7171" lon="0.22702">
        <ele>2675</ele>
        <time>2019-02-26T13:38:11Z</time>
      </trkpt>
      <trkpt lat="42.71712" lon="0.22701">
        <ele>2675</ele>
        <time>2019-02-26T13:38:14Z</time>
      </trkpt>
      <trkpt lat="42.71718" lon="0.22701">
        <ele>2676</ele>
        <time>2019-02-26T13:39:10Z</time>
      </trkpt>
      <trkpt lat="42.71719" lon="0.22702">
        <ele>2676</ele>
        <time>2019-02-26T13:39:15Z</time>
      </trkpt>
      <trkpt lat="42.71724" lon="0.22703">
        <ele>2677</ele>
        <time>2019-02-26T13:39:21Z</time>
      </trkpt>
      <trkpt lat="42.71726" lon="0.22703">
        <ele>2677</ele>
        <time>2019-02-26T13:39:24Z</time>
      </trkpt>
      <trkpt lat="42.71727" lon="0.22704">
        <ele>2677</ele>
        <time>2019-02-26T13:39:27Z</time>
      </trkpt>
      <trkpt lat="42.71729" lon="0.22705">
        <ele>2677</ele>
        <time>2019-02-26T13:39:30Z</time>
      </trkpt>
      <trkpt lat="42.71732" lon="0.22706">
        <ele>2679</ele>
        <time>2019-02-26T13:39:34Z</time>
      </trkpt>
      <trkpt lat="42.71734" lon="0.22707">
        <ele>2680</ele>
        <time>2019-02-26T13:39:37Z</time>
      </trkpt>
      <trkpt lat="42.71735" lon="0.22709">
        <ele>2680</ele>
        <time>2019-02-26T13:39:41Z</time>
      </trkpt>
      <trkpt lat="42.71737" lon="0.2271">
        <ele>2678</ele>
        <time>2019-02-26T13:39:50Z</time>
      </trkpt>
      <trkpt lat="42.71738" lon="0.22709">
        <ele>2680</ele>
        <time>2019-02-26T13:42:38Z</time>
      </trkpt>
      <trkpt lat="42.71736" lon="0.22708">
        <ele>2681</ele>
        <time>2019-02-26T13:49:26Z</time>
      </trkpt>
      <trkpt lat="42.71738" lon="0.22709">
        <ele>2681</ele>
        <time>2019-02-26T14:01:20Z</time>
      </trkpt>
      <trkpt lat="42.71743" lon="0.22704">
        <ele>2681</ele>
        <time>2019-02-26T14:02:28Z</time>
      </trkpt>
      <trkpt lat="42.71745" lon="0.22704">
        <ele>2681</ele>
        <time>2019-02-26T14:02:35Z</time>
      </trkpt>
      <trkpt lat="42.71747" lon="0.22704">
        <ele>2681</ele>
        <time>2019-02-26T14:02:40Z</time>
      </trkpt>
      <trkpt lat="42.71749" lon="0.22705">
        <ele>2681</ele>
        <time>2019-02-26T14:02:48Z</time>
      </trkpt>
      <trkpt lat="42.71751" lon="0.22706">
        <ele>2681</ele>
        <time>2019-02-26T14:02:53Z</time>
      </trkpt>
      <trkpt lat="42.71753" lon="0.22705">
        <ele>2681</ele>
        <time>2019-02-26T14:03:00Z</time>
      </trkpt>
      <trkpt lat="42.71754" lon="0.22705">
        <ele>2681</ele>
        <time>2019-02-26T14:03:19Z</time>
      </trkpt>
      <trkpt lat="42.71755" lon="0.22703">
        <ele>2676</ele>
        <time>2019-02-26T14:03:29Z</time>
      </trkpt>
      <trkpt lat="42.71757" lon="0.22702">
        <ele>2675</ele>
        <time>2019-02-26T14:03:40Z</time>
      </trkpt>
      <trkpt lat="42.71759" lon="0.22704">
        <ele>2674</ele>
        <time>2019-02-26T14:03:45Z</time>
      </trkpt>
      <trkpt lat="42.71763" lon="0.22704">
        <ele>2673</ele>
        <time>2019-02-26T14:03:54Z</time>
      </trkpt>
      <trkpt lat="42.71765" lon="0.22704">
        <ele>2672</ele>
        <time>2019-02-26T14:03:58Z</time>
      </trkpt>
      <trkpt lat="42.71767" lon="0.22704">
        <ele>2671</ele>
        <time>2019-02-26T14:04:01Z</time>
      </trkpt>
      <trkpt lat="42.71771" lon="0.22704">
        <ele>2670</ele>
        <time>2019-02-26T14:04:07Z</time>
      </trkpt>
      <trkpt lat="42.71773" lon="0.22704">
        <ele>2669</ele>
        <time>2019-02-26T14:04:10Z</time>
      </trkpt>
      <trkpt lat="42.71778" lon="0.22705">
        <ele>2666</ele>
        <time>2019-02-26T14:04:17Z</time>
      </trkpt>
      <trkpt lat="42.71778" lon="0.22707">
        <ele>2664</ele>
        <time>2019-02-26T14:04:27Z</time>
      </trkpt>
      <trkpt lat="42.71779" lon="0.2271">
        <ele>2664</ele>
        <time>2019-02-26T14:09:36Z</time>
      </trkpt>
      <trkpt lat="42.71779" lon="0.22721">
        <ele>2664</ele>
        <time>2019-02-26T14:09:39Z</time>
      </trkpt>
      <trkpt lat="42.7178" lon="0.22726">
        <ele>2663</ele>
        <time>2019-02-26T14:09:40Z</time>
      </trkpt>
      <trkpt lat="42.71781" lon="0.22731">
        <ele>2661</ele>
        <time>2019-02-26T14:09:41Z</time>
      </trkpt>
      <trkpt lat="42.71782" lon="0.22737">
        <ele>2660</ele>
        <time>2019-02-26T14:09:42Z</time>
      </trkpt>
      <trkpt lat="42.71785" lon="0.22742">
        <ele>2658</ele>
        <time>2019-02-26T14:09:43Z</time>
      </trkpt>
      <trkpt lat="42.71791" lon="0.22745">
        <ele>2656</ele>
        <time>2019-02-26T14:09:44Z</time>
      </trkpt>
      <trkpt lat="42.71796" lon="0.22749">
        <ele>2655</ele>
        <time>2019-02-26T14:09:45Z</time>
      </trkpt>
      <trkpt lat="42.718" lon="0.22753">
        <ele>2652</ele>
        <time>2019-02-26T14:09:46Z</time>
      </trkpt>
      <trkpt lat="42.71805" lon="0.22757">
        <ele>2651</ele>
        <time>2019-02-26T14:09:47Z</time>
      </trkpt>
      <trkpt lat="42.71809" lon="0.22759">
        <ele>2651</ele>
        <time>2019-02-26T14:09:48Z</time>
      </trkpt>
      <trkpt lat="42.71812" lon="0.22762">
        <ele>2651</ele>
        <time>2019-02-26T14:09:49Z</time>
      </trkpt>
      <trkpt lat="42.71814" lon="0.22763">
        <ele>2651</ele>
        <time>2019-02-26T14:09:50Z</time>
      </trkpt>
      <trkpt lat="42.7182" lon="0.22768">
        <ele>2651</ele>
        <time>2019-02-26T14:09:53Z</time>
      </trkpt>
      <trkpt lat="42.71823" lon="0.22769">
        <ele>2651</ele>
        <time>2019-02-26T14:09:55Z</time>
      </trkpt>
      <trkpt lat="42.71825" lon="0.22768">
        <ele>2651</ele>
        <time>2019-02-26T14:09:57Z</time>
      </trkpt>
      <trkpt lat="42.71827" lon="0.22768">
        <ele>2651</ele>
        <time>2019-02-26T14:09:59Z</time>
      </trkpt>
      <trkpt lat="42.71829" lon="0.2277">
        <ele>2651</ele>
        <time>2019-02-26T14:10:00Z</time>
      </trkpt>
      <trkpt lat="42.71831" lon="0.22772">
        <ele>2649</ele>
        <time>2019-02-26T14:10:01Z</time>
      </trkpt>
      <trkpt lat="42.71834" lon="0.22777">
        <ele>2649</ele>
        <time>2019-02-26T14:10:03Z</time>
      </trkpt>
      <trkpt lat="42.7184" lon="0.22785">
        <ele>2648</ele>
        <time>2019-02-26T14:10:07Z</time>
      </trkpt>
      <trkpt lat="42.71841" lon="0.22787">
        <ele>2648</ele>
        <time>2019-02-26T14:10:09Z</time>
      </trkpt>
      <trkpt lat="42.71841" lon="0.2279">
        <ele>2648</ele>
        <time>2019-02-26T14:10:19Z</time>
      </trkpt>
      <trkpt lat="42.7184" lon="0.22792">
        <ele>2649</ele>
        <time>2019-02-26T14:10:29Z</time>
      </trkpt>
      <trkpt lat="42.71839" lon="0.22796">
        <ele>2650</ele>
        <time>2019-02-26T14:10:38Z</time>
      </trkpt>
      <trkpt lat="42.7184" lon="0.22798">
        <ele>2649</ele>
        <time>2019-02-26T14:10:40Z</time>
      </trkpt>
      <trkpt lat="42.71841" lon="0.22801">
        <ele>2650</ele>
        <time>2019-02-26T14:10:43Z</time>
      </trkpt>
      <trkpt lat="42.71843" lon="0.22801">
        <ele>2650</ele>
        <time>2019-02-26T14:10:45Z</time>
      </trkpt>
      <trkpt lat="42.71845" lon="0.22801">
        <ele>2649</ele>
        <time>2019-02-26T14:10:46Z</time>
      </trkpt>
      <trkpt lat="42.71848" lon="0.22802">
        <ele>2649</ele>
        <time>2019-02-26T14:10:47Z</time>
      </trkpt>
      <trkpt lat="42.71856" lon="0.22806">
        <ele>2648</ele>
        <time>2019-02-26T14:10:50Z</time>
      </trkpt>
      <trkpt lat="42.71859" lon="0.22807">
        <ele>2647</ele>
        <time>2019-02-26T14:10:51Z</time>
      </trkpt>
      <trkpt lat="42.71864" lon="0.2281">
        <ele>2647</ele>
        <time>2019-02-26T14:10:53Z</time>
      </trkpt>
      <trkpt lat="42.71875" lon="0.22817">
        <ele>2646</ele>
        <time>2019-02-26T14:10:58Z</time>
      </trkpt>
      <trkpt lat="42.71878" lon="0.22819">
        <ele>2645</ele>
        <time>2019-02-26T14:10:59Z</time>
      </trkpt>
      <trkpt lat="42.71884" lon="0.22821">
        <ele>2644</ele>
        <time>2019-02-26T14:11:01Z</time>
      </trkpt>
      <trkpt lat="42.71889" lon="0.22824">
        <ele>2644</ele>
        <time>2019-02-26T14:11:03Z</time>
      </trkpt>
      <trkpt lat="42.71894" lon="0.22827">
        <ele>2644</ele>
        <time>2019-02-26T14:11:05Z</time>
      </trkpt>
      <trkpt lat="42.71895" lon="0.22828">
        <ele>2643</ele>
        <time>2019-02-26T14:11:36Z</time>
      </trkpt>
      <trkpt lat="42.71897" lon="0.2283">
        <ele>2643</ele>
        <time>2019-02-26T14:11:44Z</time>
      </trkpt>
      <trkpt lat="42.71896" lon="0.22833">
        <ele>2643</ele>
        <time>2019-02-26T14:11:52Z</time>
      </trkpt>
      <trkpt lat="42.71898" lon="0.22834">
        <ele>2641</ele>
        <time>2019-02-26T14:12:11Z</time>
      </trkpt>
      <trkpt lat="42.71897" lon="0.22837">
        <ele>2641</ele>
        <time>2019-02-26T14:12:14Z</time>
      </trkpt>
      <trkpt lat="42.71899" lon="0.22838">
        <ele>2640</ele>
        <time>2019-02-26T14:12:19Z</time>
      </trkpt>
      <trkpt lat="42.71898" lon="0.22842">
        <ele>2639</ele>
        <time>2019-02-26T14:12:21Z</time>
      </trkpt>
      <trkpt lat="42.71897" lon="0.22846">
        <ele>2639</ele>
        <time>2019-02-26T14:12:23Z</time>
      </trkpt>
      <trkpt lat="42.71897" lon="0.22848">
        <ele>2639</ele>
        <time>2019-02-26T14:12:24Z</time>
      </trkpt>
      <trkpt lat="42.71896" lon="0.22851">
        <ele>2638</ele>
        <time>2019-02-26T14:12:27Z</time>
      </trkpt>
      <trkpt lat="42.71896" lon="0.22856">
        <ele>2638</ele>
        <time>2019-02-26T14:12:29Z</time>
      </trkpt>
      <trkpt lat="42.71895" lon="0.2286">
        <ele>2637</ele>
        <time>2019-02-26T14:12:30Z</time>
      </trkpt>
      <trkpt lat="42.71895" lon="0.22863">
        <ele>2635</ele>
        <time>2019-02-26T14:12:32Z</time>
      </trkpt>
      <trkpt lat="42.71896" lon="0.22868">
        <ele>2634</ele>
        <time>2019-02-26T14:12:37Z</time>
      </trkpt>
      <trkpt lat="42.71895" lon="0.22872">
        <ele>2633</ele>
        <time>2019-02-26T14:12:38Z</time>
      </trkpt>
      <trkpt lat="42.71895" lon="0.22876">
        <ele>2632</ele>
        <time>2019-02-26T14:12:39Z</time>
      </trkpt>
      <trkpt lat="42.71893" lon="0.22884">
        <ele>2629</ele>
        <time>2019-02-26T14:12:41Z</time>
      </trkpt>
      <trkpt lat="42.71891" lon="0.22889">
        <ele>2628</ele>
        <time>2019-02-26T14:12:42Z</time>
      </trkpt>
      <trkpt lat="42.7189" lon="0.22891">
        <ele>2627</ele>
        <time>2019-02-26T14:12:43Z</time>
      </trkpt>
      <trkpt lat="42.71889" lon="0.22896">
        <ele>2626</ele>
        <time>2019-02-26T14:12:45Z</time>
      </trkpt>
      <trkpt lat="42.71885" lon="0.22908">
        <ele>2625</ele>
        <time>2019-02-26T14:12:48Z</time>
      </trkpt>
      <trkpt lat="42.71884" lon="0.22912">
        <ele>2624</ele>
        <time>2019-02-26T14:12:49Z</time>
      </trkpt>
      <trkpt lat="42.71885" lon="0.22915">
        <ele>2624</ele>
        <time>2019-02-26T14:12:50Z</time>
      </trkpt>
      <trkpt lat="42.71889" lon="0.22916">
        <ele>2624</ele>
        <time>2019-02-26T14:12:51Z</time>
      </trkpt>
      <trkpt lat="42.71893" lon="0.22918">
        <ele>2622</ele>
        <time>2019-02-26T14:12:52Z</time>
      </trkpt>
      <trkpt lat="42.71897" lon="0.22921">
        <ele>2621</ele>
        <time>2019-02-26T14:12:53Z</time>
      </trkpt>
      <trkpt lat="42.71907" lon="0.2292">
        <ele>2616</ele>
        <time>2019-02-26T14:12:55Z</time>
      </trkpt>
      <trkpt lat="42.71912" lon="0.22921">
        <ele>2615</ele>
        <time>2019-02-26T14:12:56Z</time>
      </trkpt>
      <trkpt lat="42.71917" lon="0.22924">
        <ele>2612</ele>
        <time>2019-02-26T14:12:57Z</time>
      </trkpt>
      <trkpt lat="42.71923" lon="0.22927">
        <ele>2610</ele>
        <time>2019-02-26T14:12:58Z</time>
      </trkpt>
      <trkpt lat="42.71928" lon="0.22929">
        <ele>2607</ele>
        <time>2019-02-26T14:12:59Z</time>
      </trkpt>
      <trkpt lat="42.71933" lon="0.22932">
        <ele>2604</ele>
        <time>2019-02-26T14:13:00Z</time>
      </trkpt>
      <trkpt lat="42.71937" lon="0.22937">
        <ele>2600</ele>
        <time>2019-02-26T14:13:01Z</time>
      </trkpt>
      <trkpt lat="42.71941" lon="0.2294">
        <ele>2599</ele>
        <time>2019-02-26T14:13:02Z</time>
      </trkpt>
      <trkpt lat="42.71946" lon="0.22941">
        <ele>2597</ele>
        <time>2019-02-26T14:13:03Z</time>
      </trkpt>
      <trkpt lat="42.7195" lon="0.22944">
        <ele>2595</ele>
        <time>2019-02-26T14:13:04Z</time>
      </trkpt>
      <trkpt lat="42.7196" lon="0.2295">
        <ele>2591</ele>
        <time>2019-02-26T14:13:07Z</time>
      </trkpt>
      <trkpt lat="42.71962" lon="0.2295">
        <ele>2587</ele>
        <time>2019-02-26T14:13:12Z</time>
      </trkpt>
      <trkpt lat="42.71962" lon="0.2295">
        <ele>2587</ele>
        <time>2019-02-26T14:13:16Z</time>
      </trkpt>
      <trkpt lat="42.71961" lon="0.2295">
        <ele>2586</ele>
        <time>2019-02-26T14:13:19Z</time>
      </trkpt>
      <trkpt lat="42.71961" lon="0.2295">
        <ele>2586</ele>
        <time>2019-02-26T14:13:21Z</time>
      </trkpt>
      <trkpt lat="42.71961" lon="0.2295">
        <ele>2586</ele>
        <time>2019-02-26T14:13:24Z</time>
      </trkpt>
      <trkpt lat="42.71961" lon="0.2295">
        <ele>2586</ele>
        <time>2019-02-26T14:13:26Z</time>
      </trkpt>
      <trkpt lat="42.71961" lon="0.22951">
        <ele>2586</ele>
        <time>2019-02-26T14:13:31Z</time>
      </trkpt>
      <trkpt lat="42.71961" lon="0.22951">
        <ele>2586</ele>
        <time>2019-02-26T14:13:34Z</time>
      </trkpt>
      <trkpt lat="42.7196" lon="0.22951">
        <ele>2586</ele>
        <time>2019-02-26T14:13:36Z</time>
      </trkpt>
      <trkpt lat="42.7196" lon="0.22951">
        <ele>2586</ele>
        <time>2019-02-26T14:13:39Z</time>
      </trkpt>
      <trkpt lat="42.7196" lon="0.22951">
        <ele>2586</ele>
        <time>2019-02-26T14:13:41Z</time>
      </trkpt>
      <trkpt lat="42.7196" lon="0.22951">
        <ele>2586</ele>
        <time>2019-02-26T14:13:44Z</time>
      </trkpt>
      <trkpt lat="42.7196" lon="0.22951">
        <ele>2586</ele>
        <time>2019-02-26T14:13:51Z</time>
      </trkpt>
      <trkpt lat="42.71959" lon="0.22952">
        <ele>2586</ele>
        <time>2019-02-26T14:13:54Z</time>
      </trkpt>
      <trkpt lat="42.71959" lon="0.22952">
        <ele>2586</ele>
        <time>2019-02-26T14:13:56Z</time>
      </trkpt>
      <trkpt lat="42.71959" lon="0.22952">
        <ele>2586</ele>
        <time>2019-02-26T14:13:59Z</time>
      </trkpt>
      <trkpt lat="42.71959" lon="0.22952">
        <ele>2586</ele>
        <time>2019-02-26T14:14:01Z</time>
      </trkpt>
      <trkpt lat="42.71959" lon="0.22952">
        <ele>2586</ele>
        <time>2019-02-26T14:14:04Z</time>
      </trkpt>
      <trkpt lat="42.71959" lon="0.22952">
        <ele>2586</ele>
        <time>2019-02-26T14:14:11Z</time>
      </trkpt>
      <trkpt lat="42.71957" lon="0.22953">
        <ele>2586</ele>
        <time>2019-02-26T14:14:37Z</time>
      </trkpt>
      <trkpt lat="42.71954" lon="0.22956">
        <ele>2587</ele>
        <time>2019-02-26T14:15:25Z</time>
      </trkpt>
      <trkpt lat="42.71952" lon="0.22959">
        <ele>2587</ele>
        <time>2019-02-26T14:15:28Z</time>
      </trkpt>
      <trkpt lat="42.7195" lon="0.22962">
        <ele>2587</ele>
        <time>2019-02-26T14:15:30Z</time>
      </trkpt>
      <trkpt lat="42.71949" lon="0.22965">
        <ele>2587</ele>
        <time>2019-02-26T14:15:32Z</time>
      </trkpt>
      <trkpt lat="42.71948" lon="0.22966">
        <ele>2586</ele>
        <time>2019-02-26T14:15:34Z</time>
      </trkpt>
      <trkpt lat="42.71946" lon="0.22969">
        <ele>2586</ele>
        <time>2019-02-26T14:15:36Z</time>
      </trkpt>
      <trkpt lat="42.7194" lon="0.22984">
        <ele>2586</ele>
        <time>2019-02-26T14:15:42Z</time>
      </trkpt>
      <trkpt lat="42.71938" lon="0.2299">
        <ele>2586</ele>
        <time>2019-02-26T14:15:44Z</time>
      </trkpt>
      <trkpt lat="42.71934" lon="0.23007">
        <ele>2586</ele>
        <time>2019-02-26T14:15:48Z</time>
      </trkpt>
      <trkpt lat="42.71932" lon="0.23022">
        <ele>2584</ele>
        <time>2019-02-26T14:15:53Z</time>
      </trkpt>
      <trkpt lat="42.71927" lon="0.23058">
        <ele>2581</ele>
        <time>2019-02-26T14:16:02Z</time>
      </trkpt>
      <trkpt lat="42.71927" lon="0.23062">
        <ele>2581</ele>
        <time>2019-02-26T14:16:03Z</time>
      </trkpt>
      <trkpt lat="42.7193" lon="0.23065">
        <ele>2580</ele>
        <time>2019-02-26T14:16:04Z</time>
      </trkpt>
      <trkpt lat="42.71935" lon="0.23068">
        <ele>2578</ele>
        <time>2019-02-26T14:16:05Z</time>
      </trkpt>
      <trkpt lat="42.71942" lon="0.2307">
        <ele>2577</ele>
        <time>2019-02-26T14:16:06Z</time>
      </trkpt>
      <trkpt lat="42.71948" lon="0.23073">
        <ele>2573</ele>
        <time>2019-02-26T14:16:07Z</time>
      </trkpt>
      <trkpt lat="42.71962" lon="0.23077">
        <ele>2569</ele>
        <time>2019-02-26T14:16:09Z</time>
      </trkpt>
      <trkpt lat="42.71975" lon="0.23082">
        <ele>2564</ele>
        <time>2019-02-26T14:16:11Z</time>
      </trkpt>
      <trkpt lat="42.71982" lon="0.23084">
        <ele>2559</ele>
        <time>2019-02-26T14:16:12Z</time>
      </trkpt>
      <trkpt lat="42.71988" lon="0.23085">
        <ele>2557</ele>
        <time>2019-02-26T14:16:13Z</time>
      </trkpt>
      <trkpt lat="42.71995" lon="0.23087">
        <ele>2556</ele>
        <time>2019-02-26T14:16:14Z</time>
      </trkpt>
      <trkpt lat="42.72003" lon="0.23089">
        <ele>2553</ele>
        <time>2019-02-26T14:16:15Z</time>
      </trkpt>
      <trkpt lat="42.72008" lon="0.23093">
        <ele>2549</ele>
        <time>2019-02-26T14:16:16Z</time>
      </trkpt>
      <trkpt lat="42.72017" lon="0.23102">
        <ele>2542</ele>
        <time>2019-02-26T14:16:18Z</time>
      </trkpt>
      <trkpt lat="42.72021" lon="0.23104">
        <ele>2540</ele>
        <time>2019-02-26T14:16:19Z</time>
      </trkpt>
      <trkpt lat="42.72026" lon="0.23106">
        <ele>2537</ele>
        <time>2019-02-26T14:16:20Z</time>
      </trkpt>
      <trkpt lat="42.72035" lon="0.23109">
        <ele>2533</ele>
        <time>2019-02-26T14:16:22Z</time>
      </trkpt>
      <trkpt lat="42.72039" lon="0.23121">
        <ele>2530</ele>
        <time>2019-02-26T14:16:24Z</time>
      </trkpt>
      <trkpt lat="42.72037" lon="0.23125">
        <ele>2529</ele>
        <time>2019-02-26T14:16:25Z</time>
      </trkpt>
      <trkpt lat="42.72037" lon="0.23129">
        <ele>2528</ele>
        <time>2019-02-26T14:16:27Z</time>
      </trkpt>
      <trkpt lat="42.72038" lon="0.23131">
        <ele>2526</ele>
        <time>2019-02-26T14:16:31Z</time>
      </trkpt>
      <trkpt lat="42.72039" lon="0.23134">
        <ele>2526</ele>
        <time>2019-02-26T14:16:32Z</time>
      </trkpt>
      <trkpt lat="42.7204" lon="0.23135">
        <ele>2526</ele>
        <time>2019-02-26T14:16:36Z</time>
      </trkpt>
      <trkpt lat="42.72038" lon="0.23135">
        <ele>2525</ele>
        <time>2019-02-26T14:16:50Z</time>
      </trkpt>
      <trkpt lat="42.72036" lon="0.23135">
        <ele>2526</ele>
        <time>2019-02-26T14:17:30Z</time>
      </trkpt>
      <trkpt lat="42.72037" lon="0.23138">
        <ele>2526</ele>
        <time>2019-02-26T14:18:02Z</time>
      </trkpt>
      <trkpt lat="42.72039" lon="0.23152">
        <ele>2525</ele>
        <time>2019-02-26T14:18:05Z</time>
      </trkpt>
      <trkpt lat="42.72041" lon="0.23181">
        <ele>2521</ele>
        <time>2019-02-26T14:18:10Z</time>
      </trkpt>
      <trkpt lat="42.72042" lon="0.23185">
        <ele>2520</ele>
        <time>2019-02-26T14:18:11Z</time>
      </trkpt>
      <trkpt lat="42.72043" lon="0.23192">
        <ele>2519</ele>
        <time>2019-02-26T14:18:12Z</time>
      </trkpt>
      <trkpt lat="42.72042" lon="0.23198">
        <ele>2518</ele>
        <time>2019-02-26T14:18:13Z</time>
      </trkpt>
      <trkpt lat="42.72041" lon="0.23204">
        <ele>2517</ele>
        <time>2019-02-26T14:18:14Z</time>
      </trkpt>
      <trkpt lat="42.72039" lon="0.2322">
        <ele>2514</ele>
        <time>2019-02-26T14:18:17Z</time>
      </trkpt>
      <trkpt lat="42.72039" lon="0.2323">
        <ele>2513</ele>
        <time>2019-02-26T14:18:19Z</time>
      </trkpt>
      <trkpt lat="42.72039" lon="0.23248">
        <ele>2511</ele>
        <time>2019-02-26T14:18:23Z</time>
      </trkpt>
      <trkpt lat="42.72041" lon="0.2327">
        <ele>2508</ele>
        <time>2019-02-26T14:18:28Z</time>
      </trkpt>
      <trkpt lat="42.7204" lon="0.23271">
        <ele>2508</ele>
        <time>2019-02-26T14:18:29Z</time>
      </trkpt>
      <trkpt lat="42.72033" lon="0.23283">
        <ele>2506</ele>
        <time>2019-02-26T14:18:33Z</time>
      </trkpt>
      <trkpt lat="42.72034" lon="0.23271">
        <ele>2502</ele>
        <time>2019-02-26T14:18:39Z</time>
      </trkpt>
      <trkpt lat="42.72038" lon="0.23273">
        <ele>2500</ele>
        <time>2019-02-26T14:18:40Z</time>
      </trkpt>
      <trkpt lat="42.7204" lon="0.23276">
        <ele>2498</ele>
        <time>2019-02-26T14:18:41Z</time>
      </trkpt>
      <trkpt lat="42.72043" lon="0.23277">
        <ele>2496</ele>
        <time>2019-02-26T14:18:42Z</time>
      </trkpt>
      <trkpt lat="42.72047" lon="0.23274">
        <ele>2494</ele>
        <time>2019-02-26T14:18:43Z</time>
      </trkpt>
      <trkpt lat="42.72052" lon="0.23275">
        <ele>2492</ele>
        <time>2019-02-26T14:18:44Z</time>
      </trkpt>
      <trkpt lat="42.72053" lon="0.23279">
        <ele>2490</ele>
        <time>2019-02-26T14:18:45Z</time>
      </trkpt>
      <trkpt lat="42.72055" lon="0.23282">
        <ele>2489</ele>
        <time>2019-02-26T14:18:46Z</time>
      </trkpt>
      <trkpt lat="42.72058" lon="0.23281">
        <ele>2487</ele>
        <time>2019-02-26T14:18:47Z</time>
      </trkpt>
      <trkpt lat="42.72064" lon="0.23282">
        <ele>2484</ele>
        <time>2019-02-26T14:18:48Z</time>
      </trkpt>
      <trkpt lat="42.72078" lon="0.23308">
        <ele>2478</ele>
        <time>2019-02-26T14:18:52Z</time>
      </trkpt>
      <trkpt lat="42.72088" lon="0.23319">
        <ele>2477</ele>
        <time>2019-02-26T14:18:54Z</time>
      </trkpt>
      <trkpt lat="42.7211" lon="0.23359">
        <ele>2472</ele>
        <time>2019-02-26T14:19:00Z</time>
      </trkpt>
      <trkpt lat="42.72113" lon="0.23358">
        <ele>2471</ele>
        <time>2019-02-26T14:19:01Z</time>
      </trkpt>
      <trkpt lat="42.72117" lon="0.23355">
        <ele>2470</ele>
        <time>2019-02-26T14:19:02Z</time>
      </trkpt>
      <trkpt lat="42.72122" lon="0.23356">
        <ele>2467</ele>
        <time>2019-02-26T14:19:03Z</time>
      </trkpt>
      <trkpt lat="42.72126" lon="0.23357">
        <ele>2464</ele>
        <time>2019-02-26T14:19:04Z</time>
      </trkpt>
      <trkpt lat="42.72134" lon="0.23354">
        <ele>2464</ele>
        <time>2019-02-26T14:19:05Z</time>
      </trkpt>
      <trkpt lat="42.7214" lon="0.23347">
        <ele>2464</ele>
        <time>2019-02-26T14:19:06Z</time>
      </trkpt>
      <trkpt lat="42.72145" lon="0.2334">
        <ele>2463</ele>
        <time>2019-02-26T14:19:07Z</time>
      </trkpt>
      <trkpt lat="42.72147" lon="0.23337">
        <ele>2462</ele>
        <time>2019-02-26T14:19:08Z</time>
      </trkpt>
      <trkpt lat="42.72149" lon="0.2334">
        <ele>2460</ele>
        <time>2019-02-26T14:19:10Z</time>
      </trkpt>
      <trkpt lat="42.72147" lon="0.2334">
        <ele>2459</ele>
        <time>2019-02-26T14:19:12Z</time>
      </trkpt>
      <trkpt lat="42.72141" lon="0.23341">
        <ele>2459</ele>
        <time>2019-02-26T14:19:17Z</time>
      </trkpt>
      <trkpt lat="42.72139" lon="0.23342">
        <ele>2459</ele>
        <time>2019-02-26T14:19:21Z</time>
      </trkpt>
      <trkpt lat="42.72137" lon="0.23342">
        <ele>2459</ele>
        <time>2019-02-26T14:19:27Z</time>
      </trkpt>
      <trkpt lat="42.72135" lon="0.23343">
        <ele>2459</ele>
        <time>2019-02-26T14:19:40Z</time>
      </trkpt>
      <trkpt lat="42.72134" lon="0.23344">
        <ele>2459</ele>
        <time>2019-02-26T14:19:43Z</time>
      </trkpt>
      <trkpt lat="42.72132" lon="0.23344">
        <ele>2459</ele>
        <time>2019-02-26T14:20:02Z</time>
      </trkpt>
      <trkpt lat="42.72133" lon="0.23347">
        <ele>2459</ele>
        <time>2019-02-26T14:20:23Z</time>
      </trkpt>
      <trkpt lat="42.72134" lon="0.2335">
        <ele>2459</ele>
        <time>2019-02-26T14:20:31Z</time>
      </trkpt>
      <trkpt lat="42.72139" lon="0.23361">
        <ele>2459</ele>
        <time>2019-02-26T14:20:35Z</time>
      </trkpt>
      <trkpt lat="42.72175" lon="0.23462">
        <ele>2451</ele>
        <time>2019-02-26T14:20:47Z</time>
      </trkpt>
      <trkpt lat="42.72178" lon="0.23468">
        <ele>2450</ele>
        <time>2019-02-26T14:20:48Z</time>
      </trkpt>
      <trkpt lat="42.72183" lon="0.2347">
        <ele>2449</ele>
        <time>2019-02-26T14:20:49Z</time>
      </trkpt>
      <trkpt lat="42.72196" lon="0.23469">
        <ele>2444</ele>
        <time>2019-02-26T14:20:51Z</time>
      </trkpt>
      <trkpt lat="42.72204" lon="0.23466">
        <ele>2442</ele>
        <time>2019-02-26T14:20:52Z</time>
      </trkpt>
      <trkpt lat="42.72212" lon="0.23466">
        <ele>2439</ele>
        <time>2019-02-26T14:20:53Z</time>
      </trkpt>
      <trkpt lat="42.7222" lon="0.23467">
        <ele>2438</ele>
        <time>2019-02-26T14:20:54Z</time>
      </trkpt>
      <trkpt lat="42.72228" lon="0.2347">
        <ele>2435</ele>
        <time>2019-02-26T14:20:55Z</time>
      </trkpt>
      <trkpt lat="42.72232" lon="0.23475">
        <ele>2433</ele>
        <time>2019-02-26T14:20:56Z</time>
      </trkpt>
      <trkpt lat="42.72233" lon="0.23483">
        <ele>2432</ele>
        <time>2019-02-26T14:20:57Z</time>
      </trkpt>
      <trkpt lat="42.72232" lon="0.23508">
        <ele>2430</ele>
        <time>2019-02-26T14:21:01Z</time>
      </trkpt>
      <trkpt lat="42.72233" lon="0.23524">
        <ele>2430</ele>
        <time>2019-02-26T14:21:04Z</time>
      </trkpt>
      <trkpt lat="42.72232" lon="0.23552">
        <ele>2429</ele>
        <time>2019-02-26T14:21:09Z</time>
      </trkpt>
      <trkpt lat="42.72231" lon="0.23563">
        <ele>2428</ele>
        <time>2019-02-26T14:21:11Z</time>
      </trkpt>
      <trkpt lat="42.7223" lon="0.23567">
        <ele>2428</ele>
        <time>2019-02-26T14:21:12Z</time>
      </trkpt>
      <trkpt lat="42.7223" lon="0.23569">
        <ele>2428</ele>
        <time>2019-02-26T14:21:13Z</time>
      </trkpt>
      <trkpt lat="42.72225" lon="0.23574">
        <ele>2427</ele>
        <time>2019-02-26T14:22:21Z</time>
      </trkpt>
      <trkpt lat="42.72225" lon="0.23577">
        <ele>2427</ele>
        <time>2019-02-26T14:22:23Z</time>
      </trkpt>
      <trkpt lat="42.72226" lon="0.23585">
        <ele>2427</ele>
        <time>2019-02-26T14:22:25Z</time>
      </trkpt>
      <trkpt lat="42.72226" lon="0.23597">
        <ele>2426</ele>
        <time>2019-02-26T14:22:27Z</time>
      </trkpt>
      <trkpt lat="42.72228" lon="0.23602">
        <ele>2425</ele>
        <time>2019-02-26T14:22:28Z</time>
      </trkpt>
      <trkpt lat="42.72237" lon="0.2361">
        <ele>2419</ele>
        <time>2019-02-26T14:22:30Z</time>
      </trkpt>
      <trkpt lat="42.72242" lon="0.23611">
        <ele>2417</ele>
        <time>2019-02-26T14:22:31Z</time>
      </trkpt>
      <trkpt lat="42.72248" lon="0.23612">
        <ele>2414</ele>
        <time>2019-02-26T14:22:32Z</time>
      </trkpt>
      <trkpt lat="42.72255" lon="0.23613">
        <ele>2412</ele>
        <time>2019-02-26T14:22:33Z</time>
      </trkpt>
      <trkpt lat="42.72268" lon="0.23619">
        <ele>2406</ele>
        <time>2019-02-26T14:22:35Z</time>
      </trkpt>
      <trkpt lat="42.72273" lon="0.23622">
        <ele>2403</ele>
        <time>2019-02-26T14:22:36Z</time>
      </trkpt>
      <trkpt lat="42.7229" lon="0.23639">
        <ele>2393</ele>
        <time>2019-02-26T14:22:40Z</time>
      </trkpt>
      <trkpt lat="42.72293" lon="0.23643">
        <ele>2388</ele>
        <time>2019-02-26T14:22:42Z</time>
      </trkpt>
      <trkpt lat="42.72298" lon="0.23655">
        <ele>2386</ele>
        <time>2019-02-26T14:22:43Z</time>
      </trkpt>
      <trkpt lat="42.72299" lon="0.23661">
        <ele>2384</ele>
        <time>2019-02-26T14:22:44Z</time>
      </trkpt>
      <trkpt lat="42.72304" lon="0.23653">
        <ele>2380</ele>
        <time>2019-02-26T14:22:47Z</time>
      </trkpt>
      <trkpt lat="42.72308" lon="0.23651">
        <ele>2379</ele>
        <time>2019-02-26T14:22:48Z</time>
      </trkpt>
      <trkpt lat="42.72313" lon="0.23653">
        <ele>2377</ele>
        <time>2019-02-26T14:22:49Z</time>
      </trkpt>
      <trkpt lat="42.72318" lon="0.23655">
        <ele>2376</ele>
        <time>2019-02-26T14:22:50Z</time>
      </trkpt>
      <trkpt lat="42.72323" lon="0.2366">
        <ele>2371</ele>
        <time>2019-02-26T14:22:52Z</time>
      </trkpt>
      <trkpt lat="42.7233" lon="0.23667">
        <ele>2369</ele>
        <time>2019-02-26T14:22:53Z</time>
      </trkpt>
      <trkpt lat="42.7234" lon="0.23674">
        <ele>2363</ele>
        <time>2019-02-26T14:22:55Z</time>
      </trkpt>
      <trkpt lat="42.72343" lon="0.23675">
        <ele>2363</ele>
        <time>2019-02-26T14:22:56Z</time>
      </trkpt>
      <trkpt lat="42.72352" lon="0.2368">
        <ele>2360</ele>
        <time>2019-02-26T14:22:57Z</time>
      </trkpt>
      <trkpt lat="42.72364" lon="0.23685">
        <ele>2352</ele>
        <time>2019-02-26T14:22:59Z</time>
      </trkpt>
      <trkpt lat="42.72366" lon="0.23686">
        <ele>2351</ele>
        <time>2019-02-26T14:23:00Z</time>
      </trkpt>
      <trkpt lat="42.72374" lon="0.23691">
        <ele>2347</ele>
        <time>2019-02-26T14:23:01Z</time>
      </trkpt>
      <trkpt lat="42.72383" lon="0.23701">
        <ele>2345</ele>
        <time>2019-02-26T14:23:03Z</time>
      </trkpt>
      <trkpt lat="42.72385" lon="0.23704">
        <ele>2344</ele>
        <time>2019-02-26T14:23:04Z</time>
      </trkpt>
      <trkpt lat="42.72392" lon="0.23711">
        <ele>2341</ele>
        <time>2019-02-26T14:23:05Z</time>
      </trkpt>
      <trkpt lat="42.72394" lon="0.23712">
        <ele>2339</ele>
        <time>2019-02-26T14:23:06Z</time>
      </trkpt>
      <trkpt lat="42.724" lon="0.23714">
        <ele>2338</ele>
        <time>2019-02-26T14:23:07Z</time>
      </trkpt>
      <trkpt lat="42.724" lon="0.23715">
        <ele>2338</ele>
        <time>2019-02-26T14:23:08Z</time>
      </trkpt>
      <trkpt lat="42.724" lon="0.23717">
        <ele>2338</ele>
        <time>2019-02-26T14:23:11Z</time>
      </trkpt>
      <trkpt lat="42.724" lon="0.23717">
        <ele>2338</ele>
        <time>2019-02-26T14:23:12Z</time>
      </trkpt>
      <trkpt lat="42.72401" lon="0.23719">
        <ele>2337</ele>
        <time>2019-02-26T14:23:15Z</time>
      </trkpt>
      <trkpt lat="42.72401" lon="0.2372">
        <ele>2337</ele>
        <time>2019-02-26T14:23:16Z</time>
      </trkpt>
      <trkpt lat="42.72401" lon="0.23721">
        <ele>2337</ele>
        <time>2019-02-26T14:23:17Z</time>
      </trkpt>
      <trkpt lat="42.72403" lon="0.2373">
        <ele>2337</ele>
        <time>2019-02-26T14:23:18Z</time>
      </trkpt>
      <trkpt lat="42.72404" lon="0.23733">
        <ele>2337</ele>
        <time>2019-02-26T14:23:19Z</time>
      </trkpt>
      <trkpt lat="42.72402" lon="0.23734">
        <ele>2337</ele>
        <time>2019-02-26T14:23:29Z</time>
      </trkpt>
      <trkpt lat="42.72399" lon="0.23736">
        <ele>2337</ele>
        <time>2019-02-26T14:23:34Z</time>
      </trkpt>
      <trkpt lat="42.72397" lon="0.23736">
        <ele>2337</ele>
        <time>2019-02-26T14:23:57Z</time>
      </trkpt>
      <trkpt lat="42.72395" lon="0.23737">
        <ele>2337</ele>
        <time>2019-02-26T14:24:25Z</time>
      </trkpt>
      <trkpt lat="42.72397" lon="0.23733">
        <ele>2337</ele>
        <time>2019-02-26T14:24:33Z</time>
      </trkpt>
      <trkpt lat="42.724" lon="0.2373">
        <ele>2336</ele>
        <time>2019-02-26T14:24:34Z</time>
      </trkpt>
      <trkpt lat="42.72403" lon="0.23729">
        <ele>2335</ele>
        <time>2019-02-26T14:24:35Z</time>
      </trkpt>
      <trkpt lat="42.72407" lon="0.23727">
        <ele>2334</ele>
        <time>2019-02-26T14:24:36Z</time>
      </trkpt>
      <trkpt lat="42.72415" lon="0.23717">
        <ele>2331</ele>
        <time>2019-02-26T14:24:38Z</time>
      </trkpt>
      <trkpt lat="42.72419" lon="0.23711">
        <ele>2329</ele>
        <time>2019-02-26T14:24:39Z</time>
      </trkpt>
      <trkpt lat="42.7243" lon="0.237">
        <ele>2325</ele>
        <time>2019-02-26T14:24:41Z</time>
      </trkpt>
      <trkpt lat="42.72434" lon="0.23694">
        <ele>2324</ele>
        <time>2019-02-26T14:24:42Z</time>
      </trkpt>
      <trkpt lat="42.72437" lon="0.23688">
        <ele>2323</ele>
        <time>2019-02-26T14:24:43Z</time>
      </trkpt>
      <trkpt lat="42.72437" lon="0.2368">
        <ele>2322</ele>
        <time>2019-02-26T14:24:44Z</time>
      </trkpt>
      <trkpt lat="42.72437" lon="0.23674">
        <ele>2321</ele>
        <time>2019-02-26T14:24:45Z</time>
      </trkpt>
      <trkpt lat="42.72437" lon="0.23669">
        <ele>2320</ele>
        <time>2019-02-26T14:24:46Z</time>
      </trkpt>
      <trkpt lat="42.72438" lon="0.23666">
        <ele>2320</ele>
        <time>2019-02-26T14:24:47Z</time>
      </trkpt>
      <trkpt lat="42.72439" lon="0.23664">
        <ele>2320</ele>
        <time>2019-02-26T14:24:48Z</time>
      </trkpt>
      <trkpt lat="42.72445" lon="0.2366">
        <ele>2318</ele>
        <time>2019-02-26T14:24:52Z</time>
      </trkpt>
      <trkpt lat="42.72447" lon="0.23658">
        <ele>2318</ele>
        <time>2019-02-26T14:24:53Z</time>
      </trkpt>
      <trkpt lat="42.72448" lon="0.23657">
        <ele>2318</ele>
        <time>2019-02-26T14:24:54Z</time>
      </trkpt>
      <trkpt lat="42.7245" lon="0.23655">
        <ele>2318</ele>
        <time>2019-02-26T14:24:55Z</time>
      </trkpt>
      <trkpt lat="42.72451" lon="0.23652">
        <ele>2318</ele>
        <time>2019-02-26T14:24:57Z</time>
      </trkpt>
      <trkpt lat="42.72453" lon="0.2365">
        <ele>2319</ele>
        <time>2019-02-26T14:24:59Z</time>
      </trkpt>
      <trkpt lat="42.72457" lon="0.23649">
        <ele>2318</ele>
        <time>2019-02-26T14:25:01Z</time>
      </trkpt>
      <trkpt lat="42.72459" lon="0.23651">
        <ele>2318</ele>
        <time>2019-02-26T14:25:02Z</time>
      </trkpt>
      <trkpt lat="42.72462" lon="0.23655">
        <ele>2317</ele>
        <time>2019-02-26T14:25:03Z</time>
      </trkpt>
      <trkpt lat="42.72464" lon="0.2366">
        <ele>2315</ele>
        <time>2019-02-26T14:25:04Z</time>
      </trkpt>
      <trkpt lat="42.72466" lon="0.23664">
        <ele>2314</ele>
        <time>2019-02-26T14:25:05Z</time>
      </trkpt>
      <trkpt lat="42.7248" lon="0.23673">
        <ele>2309</ele>
        <time>2019-02-26T14:25:08Z</time>
      </trkpt>
      <trkpt lat="42.72484" lon="0.23678">
        <ele>2309</ele>
        <time>2019-02-26T14:25:09Z</time>
      </trkpt>
      <trkpt lat="42.72489" lon="0.23682">
        <ele>2307</ele>
        <time>2019-02-26T14:25:10Z</time>
      </trkpt>
      <trkpt lat="42.72495" lon="0.23684">
        <ele>2304</ele>
        <time>2019-02-26T14:25:11Z</time>
      </trkpt>
      <trkpt lat="42.72499" lon="0.23688">
        <ele>2302</ele>
        <time>2019-02-26T14:25:12Z</time>
      </trkpt>
      <trkpt lat="42.72503" lon="0.2369">
        <ele>2300</ele>
        <time>2019-02-26T14:25:13Z</time>
      </trkpt>
      <trkpt lat="42.72504" lon="0.23695">
        <ele>2298</ele>
        <time>2019-02-26T14:25:14Z</time>
      </trkpt>
      <trkpt lat="42.72506" lon="0.23702">
        <ele>2297</ele>
        <time>2019-02-26T14:25:15Z</time>
      </trkpt>
      <trkpt lat="42.72507" lon="0.23708">
        <ele>2296</ele>
        <time>2019-02-26T14:25:16Z</time>
      </trkpt>
      <trkpt lat="42.72513" lon="0.23719">
        <ele>2292</ele>
        <time>2019-02-26T14:25:20Z</time>
      </trkpt>
      <trkpt lat="42.72512" lon="0.23719">
        <ele>2291</ele>
        <time>2019-02-26T14:25:21Z</time>
      </trkpt>
      <trkpt lat="42.72512" lon="0.23718">
        <ele>2289</ele>
        <time>2019-02-26T14:25:22Z</time>
      </trkpt>
      <trkpt lat="42.72511" lon="0.23717">
        <ele>2288</ele>
        <time>2019-02-26T14:25:25Z</time>
      </trkpt>
      <trkpt lat="42.72511" lon="0.23717">
        <ele>2288</ele>
        <time>2019-02-26T14:25:26Z</time>
      </trkpt>
      <trkpt lat="42.7251" lon="0.23715">
        <ele>2288</ele>
        <time>2019-02-26T14:25:29Z</time>
      </trkpt>
      <trkpt lat="42.7251" lon="0.23715">
        <ele>2288</ele>
        <time>2019-02-26T14:25:30Z</time>
      </trkpt>
      <trkpt lat="42.72509" lon="0.23715">
        <ele>2288</ele>
        <time>2019-02-26T14:25:31Z</time>
      </trkpt>
      <trkpt lat="42.72512" lon="0.23714">
        <ele>2288</ele>
        <time>2019-02-26T14:25:34Z</time>
      </trkpt>
      <trkpt lat="42.72514" lon="0.23711">
        <ele>2288</ele>
        <time>2019-02-26T14:25:38Z</time>
      </trkpt>
      <trkpt lat="42.7251" lon="0.23712">
        <ele>2288</ele>
        <time>2019-02-26T14:25:46Z</time>
      </trkpt>
      <trkpt lat="42.72506" lon="0.23714">
        <ele>2288</ele>
        <time>2019-02-26T14:25:58Z</time>
      </trkpt>
      <trkpt lat="42.72508" lon="0.2371">
        <ele>2288</ele>
        <time>2019-02-26T14:26:15Z</time>
      </trkpt>
      <trkpt lat="42.72509" lon="0.23708">
        <ele>2288</ele>
        <time>2019-02-26T14:26:16Z</time>
      </trkpt>
      <trkpt lat="42.72512" lon="0.23706">
        <ele>2288</ele>
        <time>2019-02-26T14:26:17Z</time>
      </trkpt>
      <trkpt lat="42.72516" lon="0.23704">
        <ele>2287</ele>
        <time>2019-02-26T14:26:18Z</time>
      </trkpt>
      <trkpt lat="42.72521" lon="0.23703">
        <ele>2287</ele>
        <time>2019-02-26T14:26:19Z</time>
      </trkpt>
      <trkpt lat="42.72538" lon="0.23697">
        <ele>2285</ele>
        <time>2019-02-26T14:26:22Z</time>
      </trkpt>
      <trkpt lat="42.72546" lon="0.23695">
        <ele>2285</ele>
        <time>2019-02-26T14:26:23Z</time>
      </trkpt>
      <trkpt lat="42.72554" lon="0.23695">
        <ele>2285</ele>
        <time>2019-02-26T14:26:24Z</time>
      </trkpt>
      <trkpt lat="42.72562" lon="0.23696">
        <ele>2283</ele>
        <time>2019-02-26T14:26:25Z</time>
      </trkpt>
      <trkpt lat="42.72569" lon="0.23699">
        <ele>2282</ele>
        <time>2019-02-26T14:26:26Z</time>
      </trkpt>
      <trkpt lat="42.72575" lon="0.23702">
        <ele>2282</ele>
        <time>2019-02-26T14:26:27Z</time>
      </trkpt>
      <trkpt lat="42.72581" lon="0.23705">
        <ele>2281</ele>
        <time>2019-02-26T14:26:28Z</time>
      </trkpt>
      <trkpt lat="42.72595" lon="0.2371">
        <ele>2280</ele>
        <time>2019-02-26T14:26:32Z</time>
      </trkpt>
      <trkpt lat="42.72598" lon="0.23712">
        <ele>2280</ele>
        <time>2019-02-26T14:26:33Z</time>
      </trkpt>
      <trkpt lat="42.72601" lon="0.23716">
        <ele>2280</ele>
        <time>2019-02-26T14:26:34Z</time>
      </trkpt>
      <trkpt lat="42.72607" lon="0.23741">
        <ele>2275</ele>
        <time>2019-02-26T14:26:37Z</time>
      </trkpt>
      <trkpt lat="42.72611" lon="0.23751">
        <ele>2273</ele>
        <time>2019-02-26T14:26:38Z</time>
      </trkpt>
      <trkpt lat="42.72617" lon="0.23759">
        <ele>2271</ele>
        <time>2019-02-26T14:26:39Z</time>
      </trkpt>
      <trkpt lat="42.72625" lon="0.23764">
        <ele>2269</ele>
        <time>2019-02-26T14:26:40Z</time>
      </trkpt>
      <trkpt lat="42.72632" lon="0.23768">
        <ele>2268</ele>
        <time>2019-02-26T14:26:41Z</time>
      </trkpt>
      <trkpt lat="42.7264" lon="0.2377">
        <ele>2267</ele>
        <time>2019-02-26T14:26:42Z</time>
      </trkpt>
      <trkpt lat="42.72659" lon="0.23774">
        <ele>2265</ele>
        <time>2019-02-26T14:26:45Z</time>
      </trkpt>
      <trkpt lat="42.72665" lon="0.23775">
        <ele>2265</ele>
        <time>2019-02-26T14:26:46Z</time>
      </trkpt>
      <trkpt lat="42.7267" lon="0.23776">
        <ele>2263</ele>
        <time>2019-02-26T14:26:47Z</time>
      </trkpt>
      <trkpt lat="42.72676" lon="0.23777">
        <ele>2263</ele>
        <time>2019-02-26T14:26:48Z</time>
      </trkpt>
      <trkpt lat="42.7268" lon="0.23781">
        <ele>2261</ele>
        <time>2019-02-26T14:26:49Z</time>
      </trkpt>
      <trkpt lat="42.72683" lon="0.23788">
        <ele>2260</ele>
        <time>2019-02-26T14:26:50Z</time>
      </trkpt>
      <trkpt lat="42.72687" lon="0.23793">
        <ele>2260</ele>
        <time>2019-02-26T14:26:51Z</time>
      </trkpt>
      <trkpt lat="42.72693" lon="0.23797">
        <ele>2258</ele>
        <time>2019-02-26T14:26:52Z</time>
      </trkpt>
      <trkpt lat="42.72698" lon="0.23799">
        <ele>2257</ele>
        <time>2019-02-26T14:26:53Z</time>
      </trkpt>
      <trkpt lat="42.72703" lon="0.23801">
        <ele>2257</ele>
        <time>2019-02-26T14:26:54Z</time>
      </trkpt>
      <trkpt lat="42.72707" lon="0.23802">
        <ele>2256</ele>
        <time>2019-02-26T14:26:55Z</time>
      </trkpt>
      <trkpt lat="42.72718" lon="0.23806">
        <ele>2255</ele>
        <time>2019-02-26T14:26:58Z</time>
      </trkpt>
      <trkpt lat="42.72725" lon="0.23807">
        <ele>2254</ele>
        <time>2019-02-26T14:27:00Z</time>
      </trkpt>
      <trkpt lat="42.72727" lon="0.23809">
        <ele>2254</ele>
        <time>2019-02-26T14:27:01Z</time>
      </trkpt>
      <trkpt lat="42.7273" lon="0.2381">
        <ele>2254</ele>
        <time>2019-02-26T14:27:02Z</time>
      </trkpt>
      <trkpt lat="42.72732" lon="0.23815">
        <ele>2253</ele>
        <time>2019-02-26T14:27:03Z</time>
      </trkpt>
      <trkpt lat="42.72732" lon="0.23823">
        <ele>2252</ele>
        <time>2019-02-26T14:27:04Z</time>
      </trkpt>
      <trkpt lat="42.72733" lon="0.2383">
        <ele>2249</ele>
        <time>2019-02-26T14:27:05Z</time>
      </trkpt>
      <trkpt lat="42.72734" lon="0.23839">
        <ele>2247</ele>
        <time>2019-02-26T14:27:06Z</time>
      </trkpt>
      <trkpt lat="42.72738" lon="0.23859">
        <ele>2241</ele>
        <time>2019-02-26T14:27:08Z</time>
      </trkpt>
      <trkpt lat="42.72755" lon="0.2387">
        <ele>2233</ele>
        <time>2019-02-26T14:27:11Z</time>
      </trkpt>
      <trkpt lat="42.72758" lon="0.23872">
        <ele>2231</ele>
        <time>2019-02-26T14:27:12Z</time>
      </trkpt>
      <trkpt lat="42.72765" lon="0.2388">
        <ele>2230</ele>
        <time>2019-02-26T14:27:13Z</time>
      </trkpt>
      <trkpt lat="42.72767" lon="0.23884">
        <ele>2228</ele>
        <time>2019-02-26T14:27:14Z</time>
      </trkpt>
      <trkpt lat="42.72773" lon="0.23894">
        <ele>2227</ele>
        <time>2019-02-26T14:27:15Z</time>
      </trkpt>
      <trkpt lat="42.72777" lon="0.23898">
        <ele>2226</ele>
        <time>2019-02-26T14:27:16Z</time>
      </trkpt>
      <trkpt lat="42.72781" lon="0.23904">
        <ele>2224</ele>
        <time>2019-02-26T14:27:22Z</time>
      </trkpt>
      <trkpt lat="42.72778" lon="0.23904">
        <ele>2223</ele>
        <time>2019-02-26T14:27:25Z</time>
      </trkpt>
      <trkpt lat="42.72778" lon="0.23907">
        <ele>2224</ele>
        <time>2019-02-26T14:28:56Z</time>
      </trkpt>
      <trkpt lat="42.72779" lon="0.23912">
        <ele>2223</ele>
        <time>2019-02-26T14:28:57Z</time>
      </trkpt>
      <trkpt lat="42.7278" lon="0.23916">
        <ele>2222</ele>
        <time>2019-02-26T14:28:58Z</time>
      </trkpt>
      <trkpt lat="42.72783" lon="0.23918">
        <ele>2221</ele>
        <time>2019-02-26T14:28:59Z</time>
      </trkpt>
      <trkpt lat="42.7279" lon="0.23922">
        <ele>2218</ele>
        <time>2019-02-26T14:29:01Z</time>
      </trkpt>
      <trkpt lat="42.72794" lon="0.23923">
        <ele>2218</ele>
        <time>2019-02-26T14:29:02Z</time>
      </trkpt>
      <trkpt lat="42.72797" lon="0.23924">
        <ele>2218</ele>
        <time>2019-02-26T14:29:03Z</time>
      </trkpt>
      <trkpt lat="42.72799" lon="0.23925">
        <ele>2217</ele>
        <time>2019-02-26T14:29:04Z</time>
      </trkpt>
      <trkpt lat="42.72802" lon="0.23925">
        <ele>2217</ele>
        <time>2019-02-26T14:29:05Z</time>
      </trkpt>
      <trkpt lat="42.72804" lon="0.23926">
        <ele>2216</ele>
        <time>2019-02-26T14:29:06Z</time>
      </trkpt>
      <trkpt lat="42.72806" lon="0.23929">
        <ele>2216</ele>
        <time>2019-02-26T14:29:08Z</time>
      </trkpt>
      <trkpt lat="42.72806" lon="0.23934">
        <ele>2215</ele>
        <time>2019-02-26T14:29:09Z</time>
      </trkpt>
      <trkpt lat="42.72807" lon="0.2394">
        <ele>2213</ele>
        <time>2019-02-26T14:29:10Z</time>
      </trkpt>
      <trkpt lat="42.72809" lon="0.23945">
        <ele>2210</ele>
        <time>2019-02-26T14:29:11Z</time>
      </trkpt>
      <trkpt lat="42.72814" lon="0.23953">
        <ele>2205</ele>
        <time>2019-02-26T14:29:13Z</time>
      </trkpt>
      <trkpt lat="42.72819" lon="0.23955">
        <ele>2203</ele>
        <time>2019-02-26T14:29:14Z</time>
      </trkpt>
      <trkpt lat="42.72823" lon="0.23956">
        <ele>2201</ele>
        <time>2019-02-26T14:29:15Z</time>
      </trkpt>
      <trkpt lat="42.72826" lon="0.23958">
        <ele>2201</ele>
        <time>2019-02-26T14:29:16Z</time>
      </trkpt>
      <trkpt lat="42.72829" lon="0.23962">
        <ele>2198</ele>
        <time>2019-02-26T14:29:17Z</time>
      </trkpt>
      <trkpt lat="42.72832" lon="0.23967">
        <ele>2195</ele>
        <time>2019-02-26T14:29:18Z</time>
      </trkpt>
      <trkpt lat="42.72838" lon="0.23995">
        <ele>2184</ele>
        <time>2019-02-26T14:29:22Z</time>
      </trkpt>
      <trkpt lat="42.72839" lon="0.24004">
        <ele>2181</ele>
        <time>2019-02-26T14:29:23Z</time>
      </trkpt>
      <trkpt lat="42.72833" lon="0.24036">
        <ele>2174</ele>
        <time>2019-02-26T14:29:26Z</time>
      </trkpt>
      <trkpt lat="42.72833" lon="0.24043">
        <ele>2172</ele>
        <time>2019-02-26T14:29:27Z</time>
      </trkpt>
      <trkpt lat="42.72835" lon="0.24052">
        <ele>2171</ele>
        <time>2019-02-26T14:29:28Z</time>
      </trkpt>
      <trkpt lat="42.72837" lon="0.2406">
        <ele>2170</ele>
        <time>2019-02-26T14:29:29Z</time>
      </trkpt>
      <trkpt lat="42.72839" lon="0.24066">
        <ele>2168</ele>
        <time>2019-02-26T14:29:30Z</time>
      </trkpt>
      <trkpt lat="42.7284" lon="0.2407">
        <ele>2166</ele>
        <time>2019-02-26T14:29:31Z</time>
      </trkpt>
      <trkpt lat="42.7284" lon="0.24076">
        <ele>2165</ele>
        <time>2019-02-26T14:29:32Z</time>
      </trkpt>
      <trkpt lat="42.72842" lon="0.24093">
        <ele>2163</ele>
        <time>2019-02-26T14:29:34Z</time>
      </trkpt>
      <trkpt lat="42.72843" lon="0.24097">
        <ele>2163</ele>
        <time>2019-02-26T14:29:35Z</time>
      </trkpt>
      <trkpt lat="42.72847" lon="0.241">
        <ele>2161</ele>
        <time>2019-02-26T14:29:39Z</time>
      </trkpt>
      <trkpt lat="42.72845" lon="0.24101">
        <ele>2161</ele>
        <time>2019-02-26T14:30:30Z</time>
      </trkpt>
      <trkpt lat="42.72844" lon="0.24104">
        <ele>2161</ele>
        <time>2019-02-26T14:30:34Z</time>
      </trkpt>
      <trkpt lat="42.72841" lon="0.24106">
        <ele>2161</ele>
        <time>2019-02-26T14:30:35Z</time>
      </trkpt>
      <trkpt lat="42.72838" lon="0.2411">
        <ele>2161</ele>
        <time>2019-02-26T14:30:37Z</time>
      </trkpt>
      <trkpt lat="42.72835" lon="0.24114">
        <ele>2161</ele>
        <time>2019-02-26T14:30:39Z</time>
      </trkpt>
      <trkpt lat="42.72827" lon="0.24126">
        <ele>2158</ele>
        <time>2019-02-26T14:30:43Z</time>
      </trkpt>
      <trkpt lat="42.72823" lon="0.2413">
        <ele>2158</ele>
        <time>2019-02-26T14:30:45Z</time>
      </trkpt>
      <trkpt lat="42.72821" lon="0.24133">
        <ele>2157</ele>
        <time>2019-02-26T14:30:47Z</time>
      </trkpt>
      <trkpt lat="42.7282" lon="0.24136">
        <ele>2157</ele>
        <time>2019-02-26T14:30:49Z</time>
      </trkpt>
      <trkpt lat="42.72819" lon="0.2414">
        <ele>2157</ele>
        <time>2019-02-26T14:31:02Z</time>
      </trkpt>
      <trkpt lat="42.72818" lon="0.24143">
        <ele>2157</ele>
        <time>2019-02-26T14:31:04Z</time>
      </trkpt>
      <trkpt lat="42.72819" lon="0.24146">
        <ele>2156</ele>
        <time>2019-02-26T14:31:06Z</time>
      </trkpt>
      <trkpt lat="42.72822" lon="0.24149">
        <ele>2154</ele>
        <time>2019-02-26T14:31:07Z</time>
      </trkpt>
      <trkpt lat="42.72823" lon="0.24153">
        <ele>2152</ele>
        <time>2019-02-26T14:31:08Z</time>
      </trkpt>
      <trkpt lat="42.72823" lon="0.24158">
        <ele>2150</ele>
        <time>2019-02-26T14:31:09Z</time>
      </trkpt>
      <trkpt lat="42.72825" lon="0.2416">
        <ele>2148</ele>
        <time>2019-02-26T14:31:10Z</time>
      </trkpt>
      <trkpt lat="42.72829" lon="0.24161">
        <ele>2147</ele>
        <time>2019-02-26T14:31:11Z</time>
      </trkpt>
      <trkpt lat="42.72832" lon="0.24163">
        <ele>2145</ele>
        <time>2019-02-26T14:31:12Z</time>
      </trkpt>
      <trkpt lat="42.72836" lon="0.24163">
        <ele>2143</ele>
        <time>2019-02-26T14:31:13Z</time>
      </trkpt>
      <trkpt lat="42.72841" lon="0.24168">
        <ele>2139</ele>
        <time>2019-02-26T14:31:15Z</time>
      </trkpt>
      <trkpt lat="42.72838" lon="0.24176">
        <ele>2133</ele>
        <time>2019-02-26T14:31:18Z</time>
      </trkpt>
      <trkpt lat="42.72829" lon="0.24193">
        <ele>2130</ele>
        <time>2019-02-26T14:31:21Z</time>
      </trkpt>
      <trkpt lat="42.7283" lon="0.24197">
        <ele>2130</ele>
        <time>2019-02-26T14:31:23Z</time>
      </trkpt>
      <trkpt lat="42.72833" lon="0.24201">
        <ele>2129</ele>
        <time>2019-02-26T14:31:24Z</time>
      </trkpt>
      <trkpt lat="42.72834" lon="0.24206">
        <ele>2127</ele>
        <time>2019-02-26T14:31:25Z</time>
      </trkpt>
      <trkpt lat="42.72833" lon="0.24208">
        <ele>2126</ele>
        <time>2019-02-26T14:31:26Z</time>
      </trkpt>
      <trkpt lat="42.72832" lon="0.24211">
        <ele>2125</ele>
        <time>2019-02-26T14:31:27Z</time>
      </trkpt>
      <trkpt lat="42.72822" lon="0.24222">
        <ele>2123</ele>
        <time>2019-02-26T14:31:31Z</time>
      </trkpt>
      <trkpt lat="42.72819" lon="0.24227">
        <ele>2123</ele>
        <time>2019-02-26T14:31:32Z</time>
      </trkpt>
      <trkpt lat="42.72816" lon="0.24232">
        <ele>2122</ele>
        <time>2019-02-26T14:31:33Z</time>
      </trkpt>
      <trkpt lat="42.72814" lon="0.24237">
        <ele>2121</ele>
        <time>2019-02-26T14:31:34Z</time>
      </trkpt>
      <trkpt lat="42.72812" lon="0.2424">
        <ele>2120</ele>
        <time>2019-02-26T14:31:35Z</time>
      </trkpt>
      <trkpt lat="42.72818" lon="0.24243">
        <ele>2119</ele>
        <time>2019-02-26T14:31:38Z</time>
      </trkpt>
      <trkpt lat="42.72839" lon="0.24259">
        <ele>2105</ele>
        <time>2019-02-26T14:31:44Z</time>
      </trkpt>
      <trkpt lat="42.72842" lon="0.2426">
        <ele>2102</ele>
        <time>2019-02-26T14:31:45Z</time>
      </trkpt>
      <trkpt lat="42.72844" lon="0.24261">
        <ele>2100</ele>
        <time>2019-02-26T14:31:46Z</time>
      </trkpt>
      <trkpt lat="42.72846" lon="0.24262">
        <ele>2099</ele>
        <time>2019-02-26T14:31:47Z</time>
      </trkpt>
      <trkpt lat="42.72856" lon="0.24263">
        <ele>2096</ele>
        <time>2019-02-26T14:31:50Z</time>
      </trkpt>
      <trkpt lat="42.72867" lon="0.2428">
        <ele>2090</ele>
        <time>2019-02-26T14:31:53Z</time>
      </trkpt>
      <trkpt lat="42.72869" lon="0.24287">
        <ele>2088</ele>
        <time>2019-02-26T14:31:54Z</time>
      </trkpt>
      <trkpt lat="42.72872" lon="0.24293">
        <ele>2083</ele>
        <time>2019-02-26T14:31:56Z</time>
      </trkpt>
      <trkpt lat="42.72878" lon="0.24302">
        <ele>2080</ele>
        <time>2019-02-26T14:31:57Z</time>
      </trkpt>
      <trkpt lat="42.72891" lon="0.24316">
        <ele>2073</ele>
        <time>2019-02-26T14:32:00Z</time>
      </trkpt>
      <trkpt lat="42.72897" lon="0.24326">
        <ele>2071</ele>
        <time>2019-02-26T14:32:01Z</time>
      </trkpt>
      <trkpt lat="42.72899" lon="0.24331">
        <ele>2070</ele>
        <time>2019-02-26T14:32:02Z</time>
      </trkpt>
      <trkpt lat="42.72904" lon="0.24344">
        <ele>2068</ele>
        <time>2019-02-26T14:32:03Z</time>
      </trkpt>
      <trkpt lat="42.72907" lon="0.24348">
        <ele>2066</ele>
        <time>2019-02-26T14:32:04Z</time>
      </trkpt>
      <trkpt lat="42.72913" lon="0.24363">
        <ele>2065</ele>
        <time>2019-02-26T14:32:05Z</time>
      </trkpt>
      <trkpt lat="42.72914" lon="0.24369">
        <ele>2064</ele>
        <time>2019-02-26T14:32:06Z</time>
      </trkpt>
      <trkpt lat="42.72914" lon="0.2437">
        <ele>2064</ele>
        <time>2019-02-26T14:32:07Z</time>
      </trkpt>
      <trkpt lat="42.72914" lon="0.2437">
        <ele>2065</ele>
        <time>2019-02-26T14:32:08Z</time>
      </trkpt>
      <trkpt lat="42.72913" lon="0.2437">
        <ele>2065</ele>
        <time>2019-02-26T14:32:09Z</time>
      </trkpt>
      <trkpt lat="42.72913" lon="0.24371">
        <ele>2065</ele>
        <time>2019-02-26T14:32:10Z</time>
      </trkpt>
      <trkpt lat="42.72913" lon="0.24371">
        <ele>2065</ele>
        <time>2019-02-26T14:32:11Z</time>
      </trkpt>
      <trkpt lat="42.72913" lon="0.24371">
        <ele>2065</ele>
        <time>2019-02-26T14:32:12Z</time>
      </trkpt>
      <trkpt lat="42.72913" lon="0.24372">
        <ele>2065</ele>
        <time>2019-02-26T14:32:13Z</time>
      </trkpt>
      <trkpt lat="42.72913" lon="0.24372">
        <ele>2065</ele>
        <time>2019-02-26T14:32:14Z</time>
      </trkpt>
      <trkpt lat="42.72913" lon="0.24372">
        <ele>2065</ele>
        <time>2019-02-26T14:32:15Z</time>
      </trkpt>
      <trkpt lat="42.72913" lon="0.24373">
        <ele>2065</ele>
        <time>2019-02-26T14:32:16Z</time>
      </trkpt>
      <trkpt lat="42.72912" lon="0.24373">
        <ele>2065</ele>
        <time>2019-02-26T14:32:17Z</time>
      </trkpt>
      <trkpt lat="42.72912" lon="0.24374">
        <ele>2065</ele>
        <time>2019-02-26T14:32:18Z</time>
      </trkpt>
      <trkpt lat="42.72912" lon="0.24374">
        <ele>2065</ele>
        <time>2019-02-26T14:32:19Z</time>
      </trkpt>
      <trkpt lat="42.7291" lon="0.24374">
        <ele>2065</ele>
        <time>2019-02-26T14:32:27Z</time>
      </trkpt>
      <trkpt lat="42.72908" lon="0.24376">
        <ele>2065</ele>
        <time>2019-02-26T14:32:53Z</time>
      </trkpt>
      <trkpt lat="42.72907" lon="0.24376">
        <ele>2065</ele>
        <time>2019-02-26T14:33:02Z</time>
      </trkpt>
      <trkpt lat="42.72905" lon="0.24376">
        <ele>2064</ele>
        <time>2019-02-26T14:33:12Z</time>
      </trkpt>
      <trkpt lat="42.72904" lon="0.24377">
        <ele>2065</ele>
        <time>2019-02-26T14:33:18Z</time>
      </trkpt>
      <trkpt lat="42.72904" lon="0.24377">
        <ele>2065</ele>
        <time>2019-02-26T14:33:21Z</time>
      </trkpt>
      <trkpt lat="42.72904" lon="0.24377">
        <ele>2064</ele>
        <time>2019-02-26T14:33:23Z</time>
      </trkpt>
      <trkpt lat="42.72903" lon="0.24377">
        <ele>2064</ele>
        <time>2019-02-26T14:33:26Z</time>
      </trkpt>
      <trkpt lat="42.72903" lon="0.24377">
        <ele>2065</ele>
        <time>2019-02-26T14:33:28Z</time>
      </trkpt>
      <trkpt lat="42.72903" lon="0.24377">
        <ele>2065</ele>
        <time>2019-02-26T14:33:30Z</time>
      </trkpt>
      <trkpt lat="42.72902" lon="0.24377">
        <ele>2065</ele>
        <time>2019-02-26T14:33:35Z</time>
      </trkpt>
      <trkpt lat="42.72902" lon="0.24377">
        <ele>2065</ele>
        <time>2019-02-26T14:33:37Z</time>
      </trkpt>
      <trkpt lat="42.72902" lon="0.24378">
        <ele>2065</ele>
        <time>2019-02-26T14:33:40Z</time>
      </trkpt>
      <trkpt lat="42.72902" lon="0.24378">
        <ele>2065</ele>
        <time>2019-02-26T14:33:42Z</time>
      </trkpt>
      <trkpt lat="42.72901" lon="0.24378">
        <ele>2065</ele>
        <time>2019-02-26T14:33:45Z</time>
      </trkpt>
      <trkpt lat="42.72901" lon="0.24378">
        <ele>2065</ele>
        <time>2019-02-26T14:33:47Z</time>
      </trkpt>
      <trkpt lat="42.72901" lon="0.24378">
        <ele>2065</ele>
        <time>2019-02-26T14:33:52Z</time>
      </trkpt>
      <trkpt lat="42.729" lon="0.24378">
        <ele>2065</ele>
        <time>2019-02-26T14:33:56Z</time>
      </trkpt>
      <trkpt lat="42.729" lon="0.24378">
        <ele>2065</ele>
        <time>2019-02-26T14:33:59Z</time>
      </trkpt>
      <trkpt lat="42.729" lon="0.24378">
        <ele>2065</ele>
        <time>2019-02-26T14:34:01Z</time>
      </trkpt>
      <trkpt lat="42.72899" lon="0.24379">
        <ele>2065</ele>
        <time>2019-02-26T14:34:04Z</time>
      </trkpt>
      <trkpt lat="42.72899" lon="0.24379">
        <ele>2064</ele>
        <time>2019-02-26T14:34:08Z</time>
      </trkpt>
      <trkpt lat="42.729" lon="0.24381">
        <ele>2064</ele>
        <time>2019-02-26T14:34:25Z</time>
      </trkpt>
      <trkpt lat="42.72902" lon="0.24383">
        <ele>2064</ele>
        <time>2019-02-26T14:34:26Z</time>
      </trkpt>
      <trkpt lat="42.72904" lon="0.24386">
        <ele>2064</ele>
        <time>2019-02-26T14:34:27Z</time>
      </trkpt>
      <trkpt lat="42.72907" lon="0.24388">
        <ele>2064</ele>
        <time>2019-02-26T14:34:28Z</time>
      </trkpt>
      <trkpt lat="42.72911" lon="0.24389">
        <ele>2064</ele>
        <time>2019-02-26T14:34:29Z</time>
      </trkpt>
      <trkpt lat="42.72917" lon="0.24391">
        <ele>2063</ele>
        <time>2019-02-26T14:34:30Z</time>
      </trkpt>
      <trkpt lat="42.72922" lon="0.24393">
        <ele>2062</ele>
        <time>2019-02-26T14:34:31Z</time>
      </trkpt>
      <trkpt lat="42.72924" lon="0.24397">
        <ele>2061</ele>
        <time>2019-02-26T14:34:32Z</time>
      </trkpt>
      <trkpt lat="42.72928" lon="0.24401">
        <ele>2061</ele>
        <time>2019-02-26T14:34:33Z</time>
      </trkpt>
      <trkpt lat="42.7293" lon="0.24406">
        <ele>2059</ele>
        <time>2019-02-26T14:34:34Z</time>
      </trkpt>
      <trkpt lat="42.72931" lon="0.24413">
        <ele>2058</ele>
        <time>2019-02-26T14:34:35Z</time>
      </trkpt>
      <trkpt lat="42.72929" lon="0.24421">
        <ele>2057</ele>
        <time>2019-02-26T14:34:36Z</time>
      </trkpt>
      <trkpt lat="42.72928" lon="0.24429">
        <ele>2055</ele>
        <time>2019-02-26T14:34:37Z</time>
      </trkpt>
      <trkpt lat="42.72927" lon="0.24436">
        <ele>2054</ele>
        <time>2019-02-26T14:34:38Z</time>
      </trkpt>
      <trkpt lat="42.72929" lon="0.24441">
        <ele>2052</ele>
        <time>2019-02-26T14:34:39Z</time>
      </trkpt>
      <trkpt lat="42.72937" lon="0.24442">
        <ele>2051</ele>
        <time>2019-02-26T14:34:40Z</time>
      </trkpt>
      <trkpt lat="42.72943" lon="0.24444">
        <ele>2049</ele>
        <time>2019-02-26T14:34:41Z</time>
      </trkpt>
      <trkpt lat="42.72948" lon="0.24447">
        <ele>2048</ele>
        <time>2019-02-26T14:34:42Z</time>
      </trkpt>
      <trkpt lat="42.72951" lon="0.24447">
        <ele>2045</ele>
        <time>2019-02-26T14:34:43Z</time>
      </trkpt>
      <trkpt lat="42.72963" lon="0.2445">
        <ele>2038</ele>
        <time>2019-02-26T14:34:47Z</time>
      </trkpt>
      <trkpt lat="42.72967" lon="0.24454">
        <ele>2036</ele>
        <time>2019-02-26T14:34:48Z</time>
      </trkpt>
      <trkpt lat="42.72971" lon="0.24458">
        <ele>2035</ele>
        <time>2019-02-26T14:34:49Z</time>
      </trkpt>
      <trkpt lat="42.72972" lon="0.24464">
        <ele>2033</ele>
        <time>2019-02-26T14:34:50Z</time>
      </trkpt>
      <trkpt lat="42.72975" lon="0.2447">
        <ele>2031</ele>
        <time>2019-02-26T14:34:51Z</time>
      </trkpt>
      <trkpt lat="42.72982" lon="0.24479">
        <ele>2025</ele>
        <time>2019-02-26T14:34:53Z</time>
      </trkpt>
      <trkpt lat="42.72987" lon="0.24483">
        <ele>2021</ele>
        <time>2019-02-26T14:34:55Z</time>
      </trkpt>
      <trkpt lat="42.72995" lon="0.2449">
        <ele>2019</ele>
        <time>2019-02-26T14:34:56Z</time>
      </trkpt>
      <trkpt lat="42.72998" lon="0.24493">
        <ele>2017</ele>
        <time>2019-02-26T14:34:57Z</time>
      </trkpt>
      <trkpt lat="42.73003" lon="0.24506">
        <ele>2016</ele>
        <time>2019-02-26T14:34:58Z</time>
      </trkpt>
      <trkpt lat="42.73003" lon="0.24513">
        <ele>2015</ele>
        <time>2019-02-26T14:34:59Z</time>
      </trkpt>
      <trkpt lat="42.73002" lon="0.24523">
        <ele>2013</ele>
        <time>2019-02-26T14:35:01Z</time>
      </trkpt>
      <trkpt lat="42.73004" lon="0.24525">
        <ele>2013</ele>
        <time>2019-02-26T14:35:02Z</time>
      </trkpt>
      <trkpt lat="42.73002" lon="0.24525">
        <ele>2010</ele>
        <time>2019-02-26T14:35:27Z</time>
      </trkpt>
      <trkpt lat="42.73" lon="0.24526">
        <ele>2009</ele>
        <time>2019-02-26T14:35:33Z</time>
      </trkpt>
      <trkpt lat="42.72997" lon="0.24526">
        <ele>2009</ele>
        <time>2019-02-26T14:35:38Z</time>
      </trkpt>
      <trkpt lat="42.72999" lon="0.24529">
        <ele>2009</ele>
        <time>2019-02-26T14:35:48Z</time>
      </trkpt>
      <trkpt lat="42.73" lon="0.24533">
        <ele>2009</ele>
        <time>2019-02-26T14:35:49Z</time>
      </trkpt>
      <trkpt lat="42.73002" lon="0.24538">
        <ele>2009</ele>
        <time>2019-02-26T14:35:50Z</time>
      </trkpt>
      <trkpt lat="42.73005" lon="0.24541">
        <ele>2008</ele>
        <time>2019-02-26T14:35:51Z</time>
      </trkpt>
      <trkpt lat="42.7301" lon="0.24543">
        <ele>2006</ele>
        <time>2019-02-26T14:35:52Z</time>
      </trkpt>
      <trkpt lat="42.73016" lon="0.24544">
        <ele>2005</ele>
        <time>2019-02-26T14:35:53Z</time>
      </trkpt>
      <trkpt lat="42.73022" lon="0.24545">
        <ele>2002</ele>
        <time>2019-02-26T14:35:54Z</time>
      </trkpt>
      <trkpt lat="42.73026" lon="0.24549">
        <ele>2002</ele>
        <time>2019-02-26T14:35:55Z</time>
      </trkpt>
      <trkpt lat="42.73031" lon="0.24553">
        <ele>2000</ele>
        <time>2019-02-26T14:35:56Z</time>
      </trkpt>
      <trkpt lat="42.73036" lon="0.24556">
        <ele>1997</ele>
        <time>2019-02-26T14:35:57Z</time>
      </trkpt>
      <trkpt lat="42.73045" lon="0.24559">
        <ele>1994</ele>
        <time>2019-02-26T14:35:59Z</time>
      </trkpt>
      <trkpt lat="42.73049" lon="0.24563">
        <ele>1992</ele>
        <time>2019-02-26T14:36:00Z</time>
      </trkpt>
      <trkpt lat="42.73052" lon="0.24568">
        <ele>1990</ele>
        <time>2019-02-26T14:36:01Z</time>
      </trkpt>
      <trkpt lat="42.73055" lon="0.24573">
        <ele>1990</ele>
        <time>2019-02-26T14:36:02Z</time>
      </trkpt>
      <trkpt lat="42.73058" lon="0.24586">
        <ele>1986</ele>
        <time>2019-02-26T14:36:04Z</time>
      </trkpt>
      <trkpt lat="42.73063" lon="0.24603">
        <ele>1981</ele>
        <time>2019-02-26T14:36:08Z</time>
      </trkpt>
      <trkpt lat="42.73065" lon="0.24618">
        <ele>1975</ele>
        <time>2019-02-26T14:36:12Z</time>
      </trkpt>
      <trkpt lat="42.73067" lon="0.24621">
        <ele>1974</ele>
        <time>2019-02-26T14:36:13Z</time>
      </trkpt>
      <trkpt lat="42.73065" lon="0.24638">
        <ele>1971</ele>
        <time>2019-02-26T14:36:17Z</time>
      </trkpt>
      <trkpt lat="42.73065" lon="0.24639">
        <ele>1971</ele>
        <time>2019-02-26T14:36:18Z</time>
      </trkpt>
      <trkpt lat="42.73064" lon="0.2464">
        <ele>1971</ele>
        <time>2019-02-26T14:36:19Z</time>
      </trkpt>
      <trkpt lat="42.73064" lon="0.24641">
        <ele>1971</ele>
        <time>2019-02-26T14:36:20Z</time>
      </trkpt>
      <trkpt lat="42.73063" lon="0.24642">
        <ele>1971</ele>
        <time>2019-02-26T14:36:21Z</time>
      </trkpt>
      <trkpt lat="42.73063" lon="0.24643">
        <ele>1971</ele>
        <time>2019-02-26T14:36:22Z</time>
      </trkpt>
      <trkpt lat="42.73063" lon="0.24644">
        <ele>1970</ele>
        <time>2019-02-26T14:36:23Z</time>
      </trkpt>
      <trkpt lat="42.73062" lon="0.24645">
        <ele>1970</ele>
        <time>2019-02-26T14:36:24Z</time>
      </trkpt>
      <trkpt lat="42.73062" lon="0.24646">
        <ele>1970</ele>
        <time>2019-02-26T14:36:25Z</time>
      </trkpt>
      <trkpt lat="42.7306" lon="0.24648">
        <ele>1970</ele>
        <time>2019-02-26T14:36:34Z</time>
      </trkpt>
      <trkpt lat="42.73059" lon="0.24648">
        <ele>1970</ele>
        <time>2019-02-26T14:36:35Z</time>
      </trkpt>
      <trkpt lat="42.73059" lon="0.24649">
        <ele>1970</ele>
        <time>2019-02-26T14:36:36Z</time>
      </trkpt>
      <trkpt lat="42.73058" lon="0.24649">
        <ele>1970</ele>
        <time>2019-02-26T14:36:38Z</time>
      </trkpt>
      <trkpt lat="42.73057" lon="0.24649">
        <ele>1970</ele>
        <time>2019-02-26T14:36:39Z</time>
      </trkpt>
      <trkpt lat="42.73056" lon="0.2465">
        <ele>1970</ele>
        <time>2019-02-26T14:36:41Z</time>
      </trkpt>
      <trkpt lat="42.73056" lon="0.2465">
        <ele>1970</ele>
        <time>2019-02-26T14:36:42Z</time>
      </trkpt>
      <trkpt lat="42.73055" lon="0.2465">
        <ele>1970</ele>
        <time>2019-02-26T14:36:43Z</time>
      </trkpt>
      <trkpt lat="42.73054" lon="0.24652">
        <ele>1970</ele>
        <time>2019-02-26T14:36:44Z</time>
      </trkpt>
      <trkpt lat="42.73052" lon="0.24655">
        <ele>1970</ele>
        <time>2019-02-26T14:36:46Z</time>
      </trkpt>
      <trkpt lat="42.73051" lon="0.24656">
        <ele>1970</ele>
        <time>2019-02-26T14:36:48Z</time>
      </trkpt>
      <trkpt lat="42.73049" lon="0.24657">
        <ele>1969</ele>
        <time>2019-02-26T14:36:57Z</time>
      </trkpt>
      <trkpt lat="42.7305" lon="0.24657">
        <ele>1969</ele>
        <time>2019-02-26T14:36:59Z</time>
      </trkpt>
      <trkpt lat="42.73051" lon="0.24657">
        <ele>1969</ele>
        <time>2019-02-26T14:37:00Z</time>
      </trkpt>
      <trkpt lat="42.73055" lon="0.24658">
        <ele>1969</ele>
        <time>2019-02-26T14:37:05Z</time>
      </trkpt>
      <trkpt lat="42.73055" lon="0.24658">
        <ele>1969</ele>
        <time>2019-02-26T14:37:06Z</time>
      </trkpt>
      <trkpt lat="42.73058" lon="0.24659">
        <ele>1968</ele>
        <time>2019-02-26T14:37:09Z</time>
      </trkpt>
      <trkpt lat="42.73059" lon="0.24663">
        <ele>1967</ele>
        <time>2019-02-26T14:37:10Z</time>
      </trkpt>
      <trkpt lat="42.73055" lon="0.24672">
        <ele>1965</ele>
        <time>2019-02-26T14:37:12Z</time>
      </trkpt>
      <trkpt lat="42.73054" lon="0.24677">
        <ele>1963</ele>
        <time>2019-02-26T14:37:13Z</time>
      </trkpt>
      <trkpt lat="42.73057" lon="0.24681">
        <ele>1960</ele>
        <time>2019-02-26T14:37:14Z</time>
      </trkpt>
      <trkpt lat="42.73061" lon="0.24684">
        <ele>1958</ele>
        <time>2019-02-26T14:37:15Z</time>
      </trkpt>
      <trkpt lat="42.73064" lon="0.24688">
        <ele>1956</ele>
        <time>2019-02-26T14:37:16Z</time>
      </trkpt>
      <trkpt lat="42.73066" lon="0.24692">
        <ele>1955</ele>
        <time>2019-02-26T14:37:17Z</time>
      </trkpt>
      <trkpt lat="42.73067" lon="0.24706">
        <ele>1949</ele>
        <time>2019-02-26T14:37:21Z</time>
      </trkpt>
      <trkpt lat="42.73068" lon="0.24709">
        <ele>1948</ele>
        <time>2019-02-26T14:37:22Z</time>
      </trkpt>
      <trkpt lat="42.73071" lon="0.24712">
        <ele>1946</ele>
        <time>2019-02-26T14:37:23Z</time>
      </trkpt>
      <trkpt lat="42.73074" lon="0.24715">
        <ele>1944</ele>
        <time>2019-02-26T14:37:24Z</time>
      </trkpt>
      <trkpt lat="42.73073" lon="0.24719">
        <ele>1942</ele>
        <time>2019-02-26T14:37:25Z</time>
      </trkpt>
      <trkpt lat="42.73071" lon="0.24723">
        <ele>1941</ele>
        <time>2019-02-26T14:37:26Z</time>
      </trkpt>
      <trkpt lat="42.7307" lon="0.24728">
        <ele>1940</ele>
        <time>2019-02-26T14:37:27Z</time>
      </trkpt>
      <trkpt lat="42.73071" lon="0.24733">
        <ele>1939</ele>
        <time>2019-02-26T14:37:28Z</time>
      </trkpt>
      <trkpt lat="42.73085" lon="0.24746">
        <ele>1933</ele>
        <time>2019-02-26T14:37:32Z</time>
      </trkpt>
      <trkpt lat="42.73095" lon="0.24749">
        <ele>1931</ele>
        <time>2019-02-26T14:37:34Z</time>
      </trkpt>
      <trkpt lat="42.731" lon="0.24751">
        <ele>1929</ele>
        <time>2019-02-26T14:37:35Z</time>
      </trkpt>
      <trkpt lat="42.73105" lon="0.24751">
        <ele>1927</ele>
        <time>2019-02-26T14:37:36Z</time>
      </trkpt>
      <trkpt lat="42.7311" lon="0.24752">
        <ele>1926</ele>
        <time>2019-02-26T14:37:37Z</time>
      </trkpt>
      <trkpt lat="42.73116" lon="0.24752">
        <ele>1925</ele>
        <time>2019-02-26T14:37:38Z</time>
      </trkpt>
      <trkpt lat="42.7312" lon="0.24753">
        <ele>1923</ele>
        <time>2019-02-26T14:37:39Z</time>
      </trkpt>
      <trkpt lat="42.73125" lon="0.24753">
        <ele>1922</ele>
        <time>2019-02-26T14:37:40Z</time>
      </trkpt>
      <trkpt lat="42.7313" lon="0.24755">
        <ele>1920</ele>
        <time>2019-02-26T14:37:41Z</time>
      </trkpt>
      <trkpt lat="42.73135" lon="0.24766">
        <ele>1919</ele>
        <time>2019-02-26T14:37:43Z</time>
      </trkpt>
      <trkpt lat="42.73137" lon="0.24773">
        <ele>1917</ele>
        <time>2019-02-26T14:37:45Z</time>
      </trkpt>
      <trkpt lat="42.73143" lon="0.24791">
        <ele>1917</ele>
        <time>2019-02-26T14:37:47Z</time>
      </trkpt>
      <trkpt lat="42.73146" lon="0.24809">
        <ele>1916</ele>
        <time>2019-02-26T14:37:50Z</time>
      </trkpt>
      <trkpt lat="42.73144" lon="0.24819">
        <ele>1915</ele>
        <time>2019-02-26T14:37:52Z</time>
      </trkpt>
      <trkpt lat="42.73143" lon="0.24823">
        <ele>1914</ele>
        <time>2019-02-26T14:37:53Z</time>
      </trkpt>
      <trkpt lat="42.73143" lon="0.24828">
        <ele>1913</ele>
        <time>2019-02-26T14:37:54Z</time>
      </trkpt>
      <trkpt lat="42.73143" lon="0.24832">
        <ele>1913</ele>
        <time>2019-02-26T14:37:55Z</time>
      </trkpt>
      <trkpt lat="42.73143" lon="0.24829">
        <ele>1911</ele>
        <time>2019-02-26T14:38:00Z</time>
      </trkpt>
      <trkpt lat="42.73138" lon="0.24826">
        <ele>1911</ele>
        <time>2019-02-26T14:38:09Z</time>
      </trkpt>
      <trkpt lat="42.73138" lon="0.24828">
        <ele>1910</ele>
        <time>2019-02-26T14:38:23Z</time>
      </trkpt>
      <trkpt lat="42.73138" lon="0.24826">
        <ele>1910</ele>
        <time>2019-02-26T14:39:21Z</time>
      </trkpt>
      <trkpt lat="42.73141" lon="0.24831">
        <ele>1909</ele>
        <time>2019-02-26T14:39:24Z</time>
      </trkpt>
      <trkpt lat="42.73142" lon="0.24836">
        <ele>1909</ele>
        <time>2019-02-26T14:39:25Z</time>
      </trkpt>
      <trkpt lat="42.73145" lon="0.2484">
        <ele>1908</ele>
        <time>2019-02-26T14:39:26Z</time>
      </trkpt>
      <trkpt lat="42.73149" lon="0.24843">
        <ele>1907</ele>
        <time>2019-02-26T14:39:27Z</time>
      </trkpt>
      <trkpt lat="42.73164" lon="0.24852">
        <ele>1899</ele>
        <time>2019-02-26T14:39:31Z</time>
      </trkpt>
      <trkpt lat="42.7317" lon="0.24855">
        <ele>1897</ele>
        <time>2019-02-26T14:39:32Z</time>
      </trkpt>
      <trkpt lat="42.73173" lon="0.2486">
        <ele>1895</ele>
        <time>2019-02-26T14:39:33Z</time>
      </trkpt>
      <trkpt lat="42.7318" lon="0.24862">
        <ele>1888</ele>
        <time>2019-02-26T14:39:36Z</time>
      </trkpt>
      <trkpt lat="42.7319" lon="0.24864">
        <ele>1886</ele>
        <time>2019-02-26T14:39:37Z</time>
      </trkpt>
      <trkpt lat="42.73192" lon="0.24864">
        <ele>1884</ele>
        <time>2019-02-26T14:39:38Z</time>
      </trkpt>
      <trkpt lat="42.732" lon="0.24864">
        <ele>1882</ele>
        <time>2019-02-26T14:39:39Z</time>
      </trkpt>
      <trkpt lat="42.73203" lon="0.24863">
        <ele>1880</ele>
        <time>2019-02-26T14:39:40Z</time>
      </trkpt>
      <trkpt lat="42.73209" lon="0.24858">
        <ele>1877</ele>
        <time>2019-02-26T14:39:41Z</time>
      </trkpt>
      <trkpt lat="42.73211" lon="0.24857">
        <ele>1876</ele>
        <time>2019-02-26T14:39:42Z</time>
      </trkpt>
      <trkpt lat="42.73216" lon="0.2485">
        <ele>1874</ele>
        <time>2019-02-26T14:39:44Z</time>
      </trkpt>
      <trkpt lat="42.73217" lon="0.24849">
        <ele>1873</ele>
        <time>2019-02-26T14:39:46Z</time>
      </trkpt>
      <trkpt lat="42.73218" lon="0.24849">
        <ele>1873</ele>
        <time>2019-02-26T14:39:47Z</time>
      </trkpt>
      <trkpt lat="42.7322" lon="0.24849">
        <ele>1872</ele>
        <time>2019-02-26T14:39:51Z</time>
      </trkpt>
      <trkpt lat="42.7322" lon="0.24849">
        <ele>1871</ele>
        <time>2019-02-26T14:39:52Z</time>
      </trkpt>
      <trkpt lat="42.73221" lon="0.24849">
        <ele>1868</ele>
        <time>2019-02-26T14:39:54Z</time>
      </trkpt>
      <trkpt lat="42.73229" lon="0.24849">
        <ele>1866</ele>
        <time>2019-02-26T14:39:55Z</time>
      </trkpt>
      <trkpt lat="42.73231" lon="0.2485">
        <ele>1864</ele>
        <time>2019-02-26T14:39:56Z</time>
      </trkpt>
      <trkpt lat="42.73238" lon="0.24852">
        <ele>1863</ele>
        <time>2019-02-26T14:39:57Z</time>
      </trkpt>
      <trkpt lat="42.73242" lon="0.24851">
        <ele>1860</ele>
        <time>2019-02-26T14:39:59Z</time>
      </trkpt>
      <trkpt lat="42.73249" lon="0.24851">
        <ele>1858</ele>
        <time>2019-02-26T14:40:00Z</time>
      </trkpt>
      <trkpt lat="42.73256" lon="0.24855">
        <ele>1855</ele>
        <time>2019-02-26T14:40:05Z</time>
      </trkpt>
      <trkpt lat="42.73256" lon="0.24855">
        <ele>1855</ele>
        <time>2019-02-26T14:40:06Z</time>
      </trkpt>
      <trkpt lat="42.73256" lon="0.24856">
        <ele>1855</ele>
        <time>2019-02-26T14:40:07Z</time>
      </trkpt>
      <trkpt lat="42.73256" lon="0.24856">
        <ele>1855</ele>
        <time>2019-02-26T14:40:09Z</time>
      </trkpt>
      <trkpt lat="42.73256" lon="0.24856">
        <ele>1855</ele>
        <time>2019-02-26T14:40:10Z</time>
      </trkpt>
      <trkpt lat="42.73255" lon="0.24856">
        <ele>1855</ele>
        <time>2019-02-26T14:40:12Z</time>
      </trkpt>
      <trkpt lat="42.73255" lon="0.24857">
        <ele>1855</ele>
        <time>2019-02-26T14:40:13Z</time>
      </trkpt>
      <trkpt lat="42.73255" lon="0.24857">
        <ele>1855</ele>
        <time>2019-02-26T14:40:15Z</time>
      </trkpt>
      <trkpt lat="42.73255" lon="0.24857">
        <ele>1855</ele>
        <time>2019-02-26T14:40:16Z</time>
      </trkpt>
      <trkpt lat="42.73255" lon="0.24857">
        <ele>1855</ele>
        <time>2019-02-26T14:40:18Z</time>
      </trkpt>
      <trkpt lat="42.73255" lon="0.24858">
        <ele>1855</ele>
        <time>2019-02-26T14:40:20Z</time>
      </trkpt>
      <trkpt lat="42.73254" lon="0.24858">
        <ele>1855</ele>
        <time>2019-02-26T14:40:22Z</time>
      </trkpt>
      <trkpt lat="42.73254" lon="0.24858">
        <ele>1855</ele>
        <time>2019-02-26T14:40:23Z</time>
      </trkpt>
      <trkpt lat="42.73254" lon="0.24859">
        <ele>1855</ele>
        <time>2019-02-26T14:40:25Z</time>
      </trkpt>
      <trkpt lat="42.73254" lon="0.24859">
        <ele>1855</ele>
        <time>2019-02-26T14:40:26Z</time>
      </trkpt>
      <trkpt lat="42.73254" lon="0.24859">
        <ele>1855</ele>
        <time>2019-02-26T14:40:28Z</time>
      </trkpt>
      <trkpt lat="42.73254" lon="0.24859">
        <ele>1855</ele>
        <time>2019-02-26T14:40:29Z</time>
      </trkpt>
      <trkpt lat="42.73254" lon="0.2486">
        <ele>1855</ele>
        <time>2019-02-26T14:40:31Z</time>
      </trkpt>
      <trkpt lat="42.73253" lon="0.2486">
        <ele>1855</ele>
        <time>2019-02-26T14:40:32Z</time>
      </trkpt>
      <trkpt lat="42.73253" lon="0.2486">
        <ele>1855</ele>
        <time>2019-02-26T14:40:33Z</time>
      </trkpt>
      <trkpt lat="42.7325" lon="0.24861">
        <ele>1854</ele>
        <time>2019-02-26T14:40:40Z</time>
      </trkpt>
      <trkpt lat="42.7325" lon="0.24861">
        <ele>1854</ele>
        <time>2019-02-26T14:40:41Z</time>
      </trkpt>
      <trkpt lat="42.7325" lon="0.2486">
        <ele>1855</ele>
        <time>2019-02-26T14:40:44Z</time>
      </trkpt>
      <trkpt lat="42.73249" lon="0.2486">
        <ele>1855</ele>
        <time>2019-02-26T14:40:45Z</time>
      </trkpt>
      <trkpt lat="42.73249" lon="0.2486">
        <ele>1855</ele>
        <time>2019-02-26T14:40:48Z</time>
      </trkpt>
      <trkpt lat="42.73249" lon="0.24859">
        <ele>1855</ele>
        <time>2019-02-26T14:40:49Z</time>
      </trkpt>
      <trkpt lat="42.73248" lon="0.24859">
        <ele>1855</ele>
        <time>2019-02-26T14:40:52Z</time>
      </trkpt>
      <trkpt lat="42.73248" lon="0.24859">
        <ele>1855</ele>
        <time>2019-02-26T14:40:54Z</time>
      </trkpt>
      <trkpt lat="42.73248" lon="0.24858">
        <ele>1855</ele>
        <time>2019-02-26T14:40:57Z</time>
      </trkpt>
      <trkpt lat="42.73248" lon="0.24858">
        <ele>1855</ele>
        <time>2019-02-26T14:40:58Z</time>
      </trkpt>
      <trkpt lat="42.73247" lon="0.24857">
        <ele>1855</ele>
        <time>2019-02-26T14:41:01Z</time>
      </trkpt>
      <trkpt lat="42.73247" lon="0.24857">
        <ele>1855</ele>
        <time>2019-02-26T14:41:02Z</time>
      </trkpt>
      <trkpt lat="42.73246" lon="0.24857">
        <ele>1855</ele>
        <time>2019-02-26T14:41:05Z</time>
      </trkpt>
      <trkpt lat="42.73246" lon="0.24856">
        <ele>1855</ele>
        <time>2019-02-26T14:41:06Z</time>
      </trkpt>
      <trkpt lat="42.73244" lon="0.24856">
        <ele>1855</ele>
        <time>2019-02-26T14:41:12Z</time>
      </trkpt>
      <trkpt lat="42.73243" lon="0.24856">
        <ele>1854</ele>
        <time>2019-02-26T14:41:20Z</time>
      </trkpt>
      <trkpt lat="42.73242" lon="0.24852">
        <ele>1854</ele>
        <time>2019-02-26T14:41:23Z</time>
      </trkpt>
      <trkpt lat="42.73239" lon="0.2484">
        <ele>1854</ele>
        <time>2019-02-26T14:41:26Z</time>
      </trkpt>
      <trkpt lat="42.73238" lon="0.24835">
        <ele>1853</ele>
        <time>2019-02-26T14:41:27Z</time>
      </trkpt>
      <trkpt lat="42.73237" lon="0.24832">
        <ele>1852</ele>
        <time>2019-02-26T14:41:28Z</time>
      </trkpt>
      <trkpt lat="42.73236" lon="0.24831">
        <ele>1851</ele>
        <time>2019-02-26T14:41:29Z</time>
      </trkpt>
      <trkpt lat="42.73235" lon="0.24829">
        <ele>1850</ele>
        <time>2019-02-26T14:41:30Z</time>
      </trkpt>
      <trkpt lat="42.73235" lon="0.24827">
        <ele>1849</ele>
        <time>2019-02-26T14:41:31Z</time>
      </trkpt>
      <trkpt lat="42.73234" lon="0.24823">
        <ele>1849</ele>
        <time>2019-02-26T14:41:33Z</time>
      </trkpt>
      <trkpt lat="42.73235" lon="0.2482">
        <ele>1849</ele>
        <time>2019-02-26T14:41:34Z</time>
      </trkpt>
      <trkpt lat="42.73236" lon="0.24816">
        <ele>1848</ele>
        <time>2019-02-26T14:41:35Z</time>
      </trkpt>
      <trkpt lat="42.73237" lon="0.24813">
        <ele>1848</ele>
        <time>2019-02-26T14:41:36Z</time>
      </trkpt>
      <trkpt lat="42.73234" lon="0.24813">
        <ele>1847</ele>
        <time>2019-02-26T14:41:55Z</time>
      </trkpt>
      <trkpt lat="42.73235" lon="0.24809">
        <ele>1847</ele>
        <time>2019-02-26T14:42:08Z</time>
      </trkpt>
      <trkpt lat="42.73236" lon="0.24807">
        <ele>1846</ele>
        <time>2019-02-26T14:42:09Z</time>
      </trkpt>
      <trkpt lat="42.73239" lon="0.24805">
        <ele>1845</ele>
        <time>2019-02-26T14:42:10Z</time>
      </trkpt>
      <trkpt lat="42.73243" lon="0.24807">
        <ele>1844</ele>
        <time>2019-02-26T14:42:11Z</time>
      </trkpt>
      <trkpt lat="42.73245" lon="0.2481">
        <ele>1842</ele>
        <time>2019-02-26T14:42:12Z</time>
      </trkpt>
      <trkpt lat="42.73246" lon="0.24813">
        <ele>1841</ele>
        <time>2019-02-26T14:42:13Z</time>
      </trkpt>
      <trkpt lat="42.73246" lon="0.24816">
        <ele>1839</ele>
        <time>2019-02-26T14:42:23Z</time>
      </trkpt>
      <trkpt lat="42.73249" lon="0.24819">
        <ele>1838</ele>
        <time>2019-02-26T14:42:25Z</time>
      </trkpt>
      <trkpt lat="42.73252" lon="0.24822">
        <ele>1837</ele>
        <time>2019-02-26T14:42:26Z</time>
      </trkpt>
      <trkpt lat="42.73254" lon="0.24823">
        <ele>1836</ele>
        <time>2019-02-26T14:42:27Z</time>
      </trkpt>
      <trkpt lat="42.73257" lon="0.24823">
        <ele>1835</ele>
        <time>2019-02-26T14:42:28Z</time>
      </trkpt>
      <trkpt lat="42.73261" lon="0.24819">
        <ele>1832</ele>
        <time>2019-02-26T14:42:31Z</time>
      </trkpt>
      <trkpt lat="42.7327" lon="0.24799">
        <ele>1827</ele>
        <time>2019-02-26T14:42:37Z</time>
      </trkpt>
      <trkpt lat="42.73272" lon="0.248">
        <ele>1825</ele>
        <time>2019-02-26T14:42:38Z</time>
      </trkpt>
      <trkpt lat="42.73275" lon="0.24802">
        <ele>1823</ele>
        <time>2019-02-26T14:42:39Z</time>
      </trkpt>
      <trkpt lat="42.73279" lon="0.24803">
        <ele>1822</ele>
        <time>2019-02-26T14:42:40Z</time>
      </trkpt>
      <trkpt lat="42.73283" lon="0.24797">
        <ele>1817</ele>
        <time>2019-02-26T14:42:43Z</time>
      </trkpt>
      <trkpt lat="42.73289" lon="0.2479">
        <ele>1814</ele>
        <time>2019-02-26T14:42:44Z</time>
      </trkpt>
      <trkpt lat="42.73293" lon="0.24789">
        <ele>1811</ele>
        <time>2019-02-26T14:42:46Z</time>
      </trkpt>
      <trkpt lat="42.73299" lon="0.24787">
        <ele>1809</ele>
        <time>2019-02-26T14:42:47Z</time>
      </trkpt>
      <trkpt lat="42.73299" lon="0.24788">
        <ele>1807</ele>
        <time>2019-02-26T14:42:49Z</time>
      </trkpt>
      <trkpt lat="42.733" lon="0.24788">
        <ele>1806</ele>
        <time>2019-02-26T14:42:50Z</time>
      </trkpt>
      <trkpt lat="42.73301" lon="0.2479">
        <ele>1806</ele>
        <time>2019-02-26T14:42:54Z</time>
      </trkpt>
      <trkpt lat="42.73301" lon="0.2479">
        <ele>1806</ele>
        <time>2019-02-26T14:42:55Z</time>
      </trkpt>
      <trkpt lat="42.73302" lon="0.24791">
        <ele>1806</ele>
        <time>2019-02-26T14:42:57Z</time>
      </trkpt>
      <trkpt lat="42.73302" lon="0.24792">
        <ele>1806</ele>
        <time>2019-02-26T14:42:58Z</time>
      </trkpt>
      <trkpt lat="42.73312" lon="0.24805">
        <ele>1806</ele>
        <time>2019-02-26T14:43:07Z</time>
      </trkpt>
      <trkpt lat="42.7331" lon="0.24804">
        <ele>1806</ele>
        <time>2019-02-26T14:43:13Z</time>
      </trkpt>
      <trkpt lat="42.73308" lon="0.24803">
        <ele>1806</ele>
        <time>2019-02-26T14:43:16Z</time>
      </trkpt>
      <trkpt lat="42.73306" lon="0.24802">
        <ele>1806</ele>
        <time>2019-02-26T14:43:22Z</time>
      </trkpt>
      <trkpt lat="42.733" lon="0.24799">
        <ele>1806</ele>
        <time>2019-02-26T14:43:30Z</time>
      </trkpt>
      <trkpt lat="42.73296" lon="0.24797">
        <ele>1806</ele>
        <time>2019-02-26T14:43:43Z</time>
      </trkpt>
      <trkpt lat="42.73294" lon="0.24796">
        <ele>1806</ele>
        <time>2019-02-26T14:43:50Z</time>
      </trkpt>
      <trkpt lat="42.73295" lon="0.24797">
        <ele>1806</ele>
        <time>2019-02-26T14:43:52Z</time>
      </trkpt>
      <trkpt lat="42.73295" lon="0.24798">
        <ele>1806</ele>
        <time>2019-02-26T14:43:53Z</time>
      </trkpt>
      <trkpt lat="42.73295" lon="0.24798">
        <ele>1806</ele>
        <time>2019-02-26T14:43:54Z</time>
      </trkpt>
      <trkpt lat="42.73296" lon="0.24799">
        <ele>1806</ele>
        <time>2019-02-26T14:43:55Z</time>
      </trkpt>
      <trkpt lat="42.73296" lon="0.24799">
        <ele>1806</ele>
        <time>2019-02-26T14:43:56Z</time>
      </trkpt>
      <trkpt lat="42.73297" lon="0.248">
        <ele>1806</ele>
        <time>2019-02-26T14:43:58Z</time>
      </trkpt>
      <trkpt lat="42.73297" lon="0.24801">
        <ele>1806</ele>
        <time>2019-02-26T14:43:59Z</time>
      </trkpt>
      <trkpt lat="42.73298" lon="0.24801">
        <ele>1806</ele>
        <time>2019-02-26T14:44:00Z</time>
      </trkpt>
      <trkpt lat="42.73298" lon="0.24802">
        <ele>1806</ele>
        <time>2019-02-26T14:44:01Z</time>
      </trkpt>
      <trkpt lat="42.73299" lon="0.24802">
        <ele>1806</ele>
        <time>2019-02-26T14:44:02Z</time>
      </trkpt>
      <trkpt lat="42.73299" lon="0.24803">
        <ele>1806</ele>
        <time>2019-02-26T14:44:03Z</time>
      </trkpt>
      <trkpt lat="42.73299" lon="0.24803">
        <ele>1806</ele>
        <time>2019-02-26T14:44:04Z</time>
      </trkpt>
      <trkpt lat="42.733" lon="0.24804">
        <ele>1806</ele>
        <time>2019-02-26T14:44:05Z</time>
      </trkpt>
      <trkpt lat="42.733" lon="0.24804">
        <ele>1806</ele>
        <time>2019-02-26T14:44:06Z</time>
      </trkpt>
      <trkpt lat="42.73302" lon="0.24804">
        <ele>1806</ele>
        <time>2019-02-26T14:44:24Z</time>
      </trkpt>
      <trkpt lat="42.73301" lon="0.24804">
        <ele>1806</ele>
        <time>2019-02-26T14:44:25Z</time>
      </trkpt>
      <trkpt lat="42.73301" lon="0.24804">
        <ele>1806</ele>
        <time>2019-02-26T14:44:26Z</time>
      </trkpt>
      <trkpt lat="42.733" lon="0.24803">
        <ele>1806</ele>
        <time>2019-02-26T14:44:28Z</time>
      </trkpt>
      <trkpt lat="42.73299" lon="0.24802">
        <ele>1806</ele>
        <time>2019-02-26T14:44:30Z</time>
      </trkpt>
      <trkpt lat="42.73298" lon="0.24801">
        <ele>1806</ele>
        <time>2019-02-26T14:44:31Z</time>
      </trkpt>
      <trkpt lat="42.73297" lon="0.24801">
        <ele>1806</ele>
        <time>2019-02-26T14:44:32Z</time>
      </trkpt>
      <trkpt lat="42.73297" lon="0.24801">
        <ele>1806</ele>
        <time>2019-02-26T14:44:33Z</time>
      </trkpt>
      <trkpt lat="42.73296" lon="0.248">
        <ele>1807</ele>
        <time>2019-02-26T14:44:35Z</time>
      </trkpt>
      <trkpt lat="42.73294" lon="0.24799">
        <ele>1807</ele>
        <time>2019-02-26T14:44:37Z</time>
      </trkpt>
      <trkpt lat="42.73294" lon="0.24798">
        <ele>1807</ele>
        <time>2019-02-26T14:44:38Z</time>
      </trkpt>
      <trkpt lat="42.73293" lon="0.24798">
        <ele>1806</ele>
        <time>2019-02-26T14:44:39Z</time>
      </trkpt>
      <trkpt lat="42.73293" lon="0.24798">
        <ele>1806</ele>
        <time>2019-02-26T14:44:40Z</time>
      </trkpt>
      <trkpt lat="42.73294" lon="0.24798">
        <ele>1806</ele>
        <time>2019-02-26T14:44:41Z</time>
      </trkpt>
      <trkpt lat="42.73294" lon="0.24799">
        <ele>1807</ele>
        <time>2019-02-26T14:44:44Z</time>
      </trkpt>
      <trkpt lat="42.73294" lon="0.24799">
        <ele>1807</ele>
        <time>2019-02-26T14:44:45Z</time>
      </trkpt>
      <trkpt lat="42.73294" lon="0.24799">
        <ele>1806</ele>
        <time>2019-02-26T14:44:48Z</time>
      </trkpt>
      <trkpt lat="42.73294" lon="0.24799">
        <ele>1806</ele>
        <time>2019-02-26T14:44:49Z</time>
      </trkpt>
      <trkpt lat="42.73295" lon="0.24799">
        <ele>1806</ele>
        <time>2019-02-26T14:44:51Z</time>
      </trkpt>
      <trkpt lat="42.73295" lon="0.248">
        <ele>1806</ele>
        <time>2019-02-26T14:44:52Z</time>
      </trkpt>
      <trkpt lat="42.73295" lon="0.248">
        <ele>1806</ele>
        <time>2019-02-26T14:44:55Z</time>
      </trkpt>
      <trkpt lat="42.73295" lon="0.248">
        <ele>1806</ele>
        <time>2019-02-26T14:44:56Z</time>
      </trkpt>
      <trkpt lat="42.73295" lon="0.248">
        <ele>1806</ele>
        <time>2019-02-26T14:44:58Z</time>
      </trkpt>
      <trkpt lat="42.73295" lon="0.24801">
        <ele>1806</ele>
        <time>2019-02-26T14:44:59Z</time>
      </trkpt>
      <trkpt lat="42.73296" lon="0.24801">
        <ele>1806</ele>
        <time>2019-02-26T14:45:02Z</time>
      </trkpt>
      <trkpt lat="42.73296" lon="0.24801">
        <ele>1806</ele>
        <time>2019-02-26T14:45:03Z</time>
      </trkpt>
      <trkpt lat="42.73296" lon="0.24801">
        <ele>1806</ele>
        <time>2019-02-26T14:45:06Z</time>
      </trkpt>
      <trkpt lat="42.73296" lon="0.24802">
        <ele>1807</ele>
        <time>2019-02-26T14:45:07Z</time>
      </trkpt>
      <trkpt lat="42.73296" lon="0.24802">
        <ele>1807</ele>
        <time>2019-02-26T14:45:09Z</time>
      </trkpt>
      <trkpt lat="42.73296" lon="0.24802">
        <ele>1807</ele>
        <time>2019-02-26T14:45:10Z</time>
      </trkpt>
      <trkpt lat="42.73297" lon="0.24802">
        <ele>1807</ele>
        <time>2019-02-26T14:45:13Z</time>
      </trkpt>
      <trkpt lat="42.73297" lon="0.24803">
        <ele>1807</ele>
        <time>2019-02-26T14:45:15Z</time>
      </trkpt>
      <trkpt lat="42.73297" lon="0.24803">
        <ele>1807</ele>
        <time>2019-02-26T14:45:17Z</time>
      </trkpt>
      <trkpt lat="42.73297" lon="0.24803">
        <ele>1807</ele>
        <time>2019-02-26T14:45:18Z</time>
      </trkpt>
      <trkpt lat="42.73297" lon="0.24803">
        <ele>1806</ele>
        <time>2019-02-26T14:45:20Z</time>
      </trkpt>
      <trkpt lat="42.73297" lon="0.24803">
        <ele>1806</ele>
        <time>2019-02-26T14:45:21Z</time>
      </trkpt>
      <trkpt lat="42.73298" lon="0.24804">
        <ele>1806</ele>
        <time>2019-02-26T14:45:24Z</time>
      </trkpt>
      <trkpt lat="42.73298" lon="0.24804">
        <ele>1806</ele>
        <time>2019-02-26T14:45:25Z</time>
      </trkpt>
      <trkpt lat="42.73298" lon="0.24804">
        <ele>1806</ele>
        <time>2019-02-26T14:45:28Z</time>
      </trkpt>
      <trkpt lat="42.73298" lon="0.24804">
        <ele>1806</ele>
        <time>2019-02-26T14:45:29Z</time>
      </trkpt>
      <trkpt lat="42.73298" lon="0.24804">
        <ele>1806</ele>
        <time>2019-02-26T14:45:30Z</time>
      </trkpt>
      <trkpt lat="42.73298" lon="0.24805">
        <ele>1806</ele>
        <time>2019-02-26T14:45:31Z</time>
      </trkpt>
      <trkpt lat="42.73299" lon="0.24805">
        <ele>1806</ele>
        <time>2019-02-26T14:45:32Z</time>
      </trkpt>
      <trkpt lat="42.73299" lon="0.24805">
        <ele>1806</ele>
        <time>2019-02-26T14:45:35Z</time>
      </trkpt>
      <trkpt lat="42.73299" lon="0.24805">
        <ele>1806</ele>
        <time>2019-02-26T14:45:36Z</time>
      </trkpt>
      <trkpt lat="42.73299" lon="0.24805">
        <ele>1806</ele>
        <time>2019-02-26T14:45:38Z</time>
      </trkpt>
      <trkpt lat="42.73299" lon="0.24806">
        <ele>1806</ele>
        <time>2019-02-26T14:45:39Z</time>
      </trkpt>
      <trkpt lat="42.733" lon="0.24806">
        <ele>1806</ele>
        <time>2019-02-26T14:45:42Z</time>
      </trkpt>
      <trkpt lat="42.733" lon="0.24806">
        <ele>1806</ele>
        <time>2019-02-26T14:45:43Z</time>
      </trkpt>
      <trkpt lat="42.733" lon="0.24806">
        <ele>1806</ele>
        <time>2019-02-26T14:45:46Z</time>
      </trkpt>
      <trkpt lat="42.733" lon="0.24807">
        <ele>1806</ele>
        <time>2019-02-26T14:45:47Z</time>
      </trkpt>
      <trkpt lat="42.733" lon="0.24807">
        <ele>1806</ele>
        <time>2019-02-26T14:45:48Z</time>
      </trkpt>
      <trkpt lat="42.73301" lon="0.24808">
        <ele>1806</ele>
        <time>2019-02-26T14:45:50Z</time>
      </trkpt>
      <trkpt lat="42.73302" lon="0.24809">
        <ele>1806</ele>
        <time>2019-02-26T14:45:51Z</time>
      </trkpt>
      <trkpt lat="42.73304" lon="0.24811">
        <ele>1805</ele>
        <time>2019-02-26T14:45:54Z</time>
      </trkpt>
      <trkpt lat="42.73309" lon="0.24816">
        <ele>1804</ele>
        <time>2019-02-26T14:45:55Z</time>
      </trkpt>
      <trkpt lat="42.73311" lon="0.24817">
        <ele>1804</ele>
        <time>2019-02-26T14:45:56Z</time>
      </trkpt>
      <trkpt lat="42.73312" lon="0.24817">
        <ele>1803</ele>
        <time>2019-02-26T14:45:57Z</time>
      </trkpt>
      <trkpt lat="42.73314" lon="0.24817">
        <ele>1802</ele>
        <time>2019-02-26T14:45:58Z</time>
      </trkpt>
      <trkpt lat="42.73315" lon="0.24817">
        <ele>1801</ele>
        <time>2019-02-26T14:45:59Z</time>
      </trkpt>
      <trkpt lat="42.73317" lon="0.24818">
        <ele>1799</ele>
        <time>2019-02-26T14:46:00Z</time>
      </trkpt>
      <trkpt lat="42.7332" lon="0.24812">
        <ele>1791</ele>
        <time>2019-02-26T14:46:04Z</time>
      </trkpt>
      <trkpt lat="42.73324" lon="0.24806">
        <ele>1790</ele>
        <time>2019-02-26T14:46:05Z</time>
      </trkpt>
      <trkpt lat="42.73333" lon="0.24805">
        <ele>1782</ele>
        <time>2019-02-26T14:46:11Z</time>
      </trkpt>
      <trkpt lat="42.73333" lon="0.24805">
        <ele>1782</ele>
        <time>2019-02-26T14:46:12Z</time>
      </trkpt>
      <trkpt lat="42.73333" lon="0.24804">
        <ele>1781</ele>
        <time>2019-02-26T14:46:13Z</time>
      </trkpt>
      <trkpt lat="42.73334" lon="0.24804">
        <ele>1781</ele>
        <time>2019-02-26T14:46:14Z</time>
      </trkpt>
      <trkpt lat="42.73334" lon="0.24803">
        <ele>1780</ele>
        <time>2019-02-26T14:46:15Z</time>
      </trkpt>
      <trkpt lat="42.73335" lon="0.24803">
        <ele>1779</ele>
        <time>2019-02-26T14:46:16Z</time>
      </trkpt>
      <trkpt lat="42.73335" lon="0.24802">
        <ele>1779</ele>
        <time>2019-02-26T14:46:17Z</time>
      </trkpt>
      <trkpt lat="42.73335" lon="0.24802">
        <ele>1779</ele>
        <time>2019-02-26T14:46:18Z</time>
      </trkpt>
      <trkpt lat="42.73336" lon="0.24801">
        <ele>1779</ele>
        <time>2019-02-26T14:46:19Z</time>
      </trkpt>
      <trkpt lat="42.73336" lon="0.24801">
        <ele>1779</ele>
        <time>2019-02-26T14:46:20Z</time>
      </trkpt>
      <trkpt lat="42.73336" lon="0.248">
        <ele>1779</ele>
        <time>2019-02-26T14:46:21Z</time>
      </trkpt>
      <trkpt lat="42.73337" lon="0.248">
        <ele>1779</ele>
        <time>2019-02-26T14:46:22Z</time>
      </trkpt>
      <trkpt lat="42.73337" lon="0.24799">
        <ele>1779</ele>
        <time>2019-02-26T14:46:23Z</time>
      </trkpt>
      <trkpt lat="42.73337" lon="0.24799">
        <ele>1779</ele>
        <time>2019-02-26T14:46:24Z</time>
      </trkpt>
      <trkpt lat="42.73338" lon="0.24798">
        <ele>1779</ele>
        <time>2019-02-26T14:46:25Z</time>
      </trkpt>
      <trkpt lat="42.73338" lon="0.24798">
        <ele>1779</ele>
        <time>2019-02-26T14:46:26Z</time>
      </trkpt>
      <trkpt lat="42.73339" lon="0.24797">
        <ele>1778</ele>
        <time>2019-02-26T14:46:27Z</time>
      </trkpt>
      <trkpt lat="42.73339" lon="0.24797">
        <ele>1777</ele>
        <time>2019-02-26T14:46:28Z</time>
      </trkpt>
      <trkpt lat="42.73339" lon="0.24796">
        <ele>1776</ele>
        <time>2019-02-26T14:46:29Z</time>
      </trkpt>
      <trkpt lat="42.73341" lon="0.24796">
        <ele>1775</ele>
        <time>2019-02-26T14:46:30Z</time>
      </trkpt>
      <trkpt lat="42.7335" lon="0.24793">
        <ele>1769</ele>
        <time>2019-02-26T14:46:34Z</time>
      </trkpt>
      <trkpt lat="42.73352" lon="0.24791">
        <ele>1767</ele>
        <time>2019-02-26T14:46:38Z</time>
      </trkpt>
      <trkpt lat="42.73353" lon="0.24791">
        <ele>1767</ele>
        <time>2019-02-26T14:46:39Z</time>
      </trkpt>
      <trkpt lat="42.73353" lon="0.24791">
        <ele>1766</ele>
        <time>2019-02-26T14:46:40Z</time>
      </trkpt>
      <trkpt lat="42.73354" lon="0.2479">
        <ele>1766</ele>
        <time>2019-02-26T14:46:41Z</time>
      </trkpt>
      <trkpt lat="42.73354" lon="0.2479">
        <ele>1765</ele>
        <time>2019-02-26T14:46:42Z</time>
      </trkpt>
      <trkpt lat="42.73355" lon="0.2479">
        <ele>1765</ele>
        <time>2019-02-26T14:46:43Z</time>
      </trkpt>
      <trkpt lat="42.73362" lon="0.24785">
        <ele>1763</ele>
        <time>2019-02-26T14:46:44Z</time>
      </trkpt>
      <trkpt lat="42.73372" lon="0.2478">
        <ele>1757</ele>
        <time>2019-02-26T14:46:47Z</time>
      </trkpt>
      <trkpt lat="42.73372" lon="0.2478">
        <ele>1756</ele>
        <time>2019-02-26T14:46:48Z</time>
      </trkpt>
      <trkpt lat="42.73372" lon="0.2478">
        <ele>1755</ele>
        <time>2019-02-26T14:46:49Z</time>
      </trkpt>
      <trkpt lat="42.73372" lon="0.2478">
        <ele>1755</ele>
        <time>2019-02-26T14:46:50Z</time>
      </trkpt>
      <trkpt lat="42.73371" lon="0.24781">
        <ele>1755</ele>
        <time>2019-02-26T14:46:51Z</time>
      </trkpt>
      <trkpt lat="42.73371" lon="0.24781">
        <ele>1754</ele>
        <time>2019-02-26T14:46:52Z</time>
      </trkpt>
      <trkpt lat="42.73371" lon="0.24781">
        <ele>1754</ele>
        <time>2019-02-26T14:46:53Z</time>
      </trkpt>
      <trkpt lat="42.73371" lon="0.24781">
        <ele>1754</ele>
        <time>2019-02-26T14:46:54Z</time>
      </trkpt>
      <trkpt lat="42.73371" lon="0.24781">
        <ele>1754</ele>
        <time>2019-02-26T14:46:55Z</time>
      </trkpt>
      <trkpt lat="42.7337" lon="0.24781">
        <ele>1754</ele>
        <time>2019-02-26T14:46:56Z</time>
      </trkpt>
      <trkpt lat="42.7337" lon="0.24782">
        <ele>1754</ele>
        <time>2019-02-26T14:46:57Z</time>
      </trkpt>
      <trkpt lat="42.7337" lon="0.24782">
        <ele>1754</ele>
        <time>2019-02-26T14:46:58Z</time>
      </trkpt>
      <trkpt lat="42.7337" lon="0.24782">
        <ele>1754</ele>
        <time>2019-02-26T14:46:59Z</time>
      </trkpt>
      <trkpt lat="42.7337" lon="0.24782">
        <ele>1754</ele>
        <time>2019-02-26T14:47:00Z</time>
      </trkpt>
      <trkpt lat="42.7337" lon="0.24782">
        <ele>1754</ele>
        <time>2019-02-26T14:47:01Z</time>
      </trkpt>
      <trkpt lat="42.73369" lon="0.24782">
        <ele>1754</ele>
        <time>2019-02-26T14:47:02Z</time>
      </trkpt>
      <trkpt lat="42.73369" lon="0.24782">
        <ele>1754</ele>
        <time>2019-02-26T14:47:03Z</time>
      </trkpt>
      <trkpt lat="42.73369" lon="0.24783">
        <ele>1754</ele>
        <time>2019-02-26T14:47:04Z</time>
      </trkpt>
      <trkpt lat="42.73369" lon="0.24783">
        <ele>1754</ele>
        <time>2019-02-26T14:47:05Z</time>
      </trkpt>
      <trkpt lat="42.73369" lon="0.24783">
        <ele>1754</ele>
        <time>2019-02-26T14:47:06Z</time>
      </trkpt>
      <trkpt lat="42.73368" lon="0.24783">
        <ele>1754</ele>
        <time>2019-02-26T14:47:07Z</time>
      </trkpt>
      <trkpt lat="42.73368" lon="0.24783">
        <ele>1754</ele>
        <time>2019-02-26T14:47:08Z</time>
      </trkpt>
      <trkpt lat="42.73368" lon="0.24783">
        <ele>1753</ele>
        <time>2019-02-26T14:47:09Z</time>
      </trkpt>
      <trkpt lat="42.73368" lon="0.24783">
        <ele>1753</ele>
        <time>2019-02-26T14:47:10Z</time>
      </trkpt>
      <trkpt lat="42.73368" lon="0.24784">
        <ele>1753</ele>
        <time>2019-02-26T14:47:11Z</time>
      </trkpt>
      <trkpt lat="42.73367" lon="0.24784">
        <ele>1753</ele>
        <time>2019-02-26T14:47:12Z</time>
      </trkpt>
      <trkpt lat="42.73367" lon="0.24784">
        <ele>1753</ele>
        <time>2019-02-26T14:47:13Z</time>
      </trkpt>
      <trkpt lat="42.73367" lon="0.24784">
        <ele>1753</ele>
        <time>2019-02-26T14:47:14Z</time>
      </trkpt>
      <trkpt lat="42.73367" lon="0.24784">
        <ele>1753</ele>
        <time>2019-02-26T14:47:15Z</time>
      </trkpt>
      <trkpt lat="42.73367" lon="0.24784">
        <ele>1753</ele>
        <time>2019-02-26T14:47:16Z</time>
      </trkpt>
      <trkpt lat="42.73367" lon="0.24785">
        <ele>1753</ele>
        <time>2019-02-26T14:47:17Z</time>
      </trkpt>
      <trkpt lat="42.73366" lon="0.24785">
        <ele>1753</ele>
        <time>2019-02-26T14:47:18Z</time>
      </trkpt>
      <trkpt lat="42.73366" lon="0.24785">
        <ele>1753</ele>
        <time>2019-02-26T14:47:19Z</time>
      </trkpt>
      <trkpt lat="42.73366" lon="0.24785">
        <ele>1753</ele>
        <time>2019-02-26T14:47:20Z</time>
      </trkpt>
      <trkpt lat="42.73366" lon="0.24785">
        <ele>1753</ele>
        <time>2019-02-26T14:47:21Z</time>
      </trkpt>
      <trkpt lat="42.73366" lon="0.24785">
        <ele>1753</ele>
        <time>2019-02-26T14:47:22Z</time>
      </trkpt>
      <trkpt lat="42.73365" lon="0.24785">
        <ele>1753</ele>
        <time>2019-02-26T14:47:23Z</time>
      </trkpt>
      <trkpt lat="42.73365" lon="0.24786">
        <ele>1753</ele>
        <time>2019-02-26T14:47:24Z</time>
      </trkpt>
      <trkpt lat="42.73365" lon="0.24786">
        <ele>1753</ele>
        <time>2019-02-26T14:47:25Z</time>
      </trkpt>
      <trkpt lat="42.73365" lon="0.24786">
        <ele>1753</ele>
        <time>2019-02-26T14:47:26Z</time>
      </trkpt>
      <trkpt lat="42.73365" lon="0.24786">
        <ele>1753</ele>
        <time>2019-02-26T14:47:27Z</time>
      </trkpt>
      <trkpt lat="42.73365" lon="0.24786">
        <ele>1753</ele>
        <time>2019-02-26T14:47:28Z</time>
      </trkpt>
      <trkpt lat="42.73364" lon="0.24786">
        <ele>1753</ele>
        <time>2019-02-26T14:47:31Z</time>
      </trkpt>
      <trkpt lat="42.73361" lon="0.24786">
        <ele>1754</ele>
        <time>2019-02-26T14:47:48Z</time>
      </trkpt>
      <trkpt lat="42.73361" lon="0.24786">
        <ele>1754</ele>
        <time>2019-02-26T14:47:51Z</time>
      </trkpt>
      <trkpt lat="42.73361" lon="0.24786">
        <ele>1754</ele>
        <time>2019-02-26T14:47:52Z</time>
      </trkpt>
      <trkpt lat="42.73361" lon="0.24786">
        <ele>1754</ele>
        <time>2019-02-26T14:47:54Z</time>
      </trkpt>
      <trkpt lat="42.73361" lon="0.24786">
        <ele>1754</ele>
        <time>2019-02-26T14:47:55Z</time>
      </trkpt>
      <trkpt lat="42.73362" lon="0.24787">
        <ele>1754</ele>
        <time>2019-02-26T14:47:57Z</time>
      </trkpt>
      <trkpt lat="42.73362" lon="0.24787">
        <ele>1754</ele>
        <time>2019-02-26T14:47:58Z</time>
      </trkpt>
      <trkpt lat="42.73362" lon="0.24787">
        <ele>1754</ele>
        <time>2019-02-26T14:48:00Z</time>
      </trkpt>
      <trkpt lat="42.73363" lon="0.24787">
        <ele>1754</ele>
        <time>2019-02-26T14:48:01Z</time>
      </trkpt>
      <trkpt lat="42.73363" lon="0.24787">
        <ele>1754</ele>
        <time>2019-02-26T14:48:02Z</time>
      </trkpt>
      <trkpt lat="42.73363" lon="0.24788">
        <ele>1754</ele>
        <time>2019-02-26T14:48:04Z</time>
      </trkpt>
      <trkpt lat="42.73363" lon="0.24788">
        <ele>1754</ele>
        <time>2019-02-26T14:48:05Z</time>
      </trkpt>
      <trkpt lat="42.73363" lon="0.24788">
        <ele>1754</ele>
        <time>2019-02-26T14:48:06Z</time>
      </trkpt>
      <trkpt lat="42.73364" lon="0.24788">
        <ele>1754</ele>
        <time>2019-02-26T14:48:07Z</time>
      </trkpt>
      <trkpt lat="42.73364" lon="0.24788">
        <ele>1754</ele>
        <time>2019-02-26T14:48:09Z</time>
      </trkpt>
      <trkpt lat="42.73364" lon="0.24788">
        <ele>1754</ele>
        <time>2019-02-26T14:48:10Z</time>
      </trkpt>
      <trkpt lat="42.73364" lon="0.24789">
        <ele>1754</ele>
        <time>2019-02-26T14:48:11Z</time>
      </trkpt>
      <trkpt lat="42.73365" lon="0.24789">
        <ele>1754</ele>
        <time>2019-02-26T14:48:12Z</time>
      </trkpt>
      <trkpt lat="42.73365" lon="0.24789">
        <ele>1754</ele>
        <time>2019-02-26T14:48:13Z</time>
      </trkpt>
      <trkpt lat="42.73365" lon="0.24789">
        <ele>1754</ele>
        <time>2019-02-26T14:48:14Z</time>
      </trkpt>
      <trkpt lat="42.73365" lon="0.24789">
        <ele>1754</ele>
        <time>2019-02-26T14:48:16Z</time>
      </trkpt>
      <trkpt lat="42.73366" lon="0.24789">
        <ele>1754</ele>
        <time>2019-02-26T14:48:17Z</time>
      </trkpt>
      <trkpt lat="42.73366" lon="0.2479">
        <ele>1753</ele>
        <time>2019-02-26T14:48:19Z</time>
      </trkpt>
      <trkpt lat="42.73366" lon="0.2479">
        <ele>1753</ele>
        <time>2019-02-26T14:48:21Z</time>
      </trkpt>
      <trkpt lat="42.73366" lon="0.2479">
        <ele>1753</ele>
        <time>2019-02-26T14:48:22Z</time>
      </trkpt>
      <trkpt lat="42.73367" lon="0.2479">
        <ele>1753</ele>
        <time>2019-02-26T14:48:23Z</time>
      </trkpt>
      <trkpt lat="42.73367" lon="0.2479">
        <ele>1753</ele>
        <time>2019-02-26T14:48:25Z</time>
      </trkpt>
      <trkpt lat="42.73367" lon="0.24791">
        <ele>1753</ele>
        <time>2019-02-26T14:48:26Z</time>
      </trkpt>
      <trkpt lat="42.73368" lon="0.24791">
        <ele>1753</ele>
        <time>2019-02-26T14:48:28Z</time>
      </trkpt>
      <trkpt lat="42.73368" lon="0.24791">
        <ele>1753</ele>
        <time>2019-02-26T14:48:29Z</time>
      </trkpt>
      <trkpt lat="42.73368" lon="0.24791">
        <ele>1753</ele>
        <time>2019-02-26T14:48:31Z</time>
      </trkpt>
      <trkpt lat="42.73368" lon="0.24791">
        <ele>1753</ele>
        <time>2019-02-26T14:48:32Z</time>
      </trkpt>
      <trkpt lat="42.73369" lon="0.24791">
        <ele>1753</ele>
        <time>2019-02-26T14:48:33Z</time>
      </trkpt>
      <trkpt lat="42.73368" lon="0.24792">
        <ele>1753</ele>
        <time>2019-02-26T14:48:34Z</time>
      </trkpt>
      <trkpt lat="42.73368" lon="0.24792">
        <ele>1753</ele>
        <time>2019-02-26T14:48:35Z</time>
      </trkpt>
      <trkpt lat="42.73368" lon="0.24792">
        <ele>1753</ele>
        <time>2019-02-26T14:48:36Z</time>
      </trkpt>
      <trkpt lat="42.73368" lon="0.24792">
        <ele>1753</ele>
        <time>2019-02-26T14:48:38Z</time>
      </trkpt>
      <trkpt lat="42.73368" lon="0.24792">
        <ele>1753</ele>
        <time>2019-02-26T14:48:39Z</time>
      </trkpt>
      <trkpt lat="42.73368" lon="0.24793">
        <ele>1753</ele>
        <time>2019-02-26T14:48:41Z</time>
      </trkpt>
      <trkpt lat="42.73368" lon="0.24793">
        <ele>1753</ele>
        <time>2019-02-26T14:48:42Z</time>
      </trkpt>
      <trkpt lat="42.73368" lon="0.24793">
        <ele>1753</ele>
        <time>2019-02-26T14:48:44Z</time>
      </trkpt>
      <trkpt lat="42.73368" lon="0.24793">
        <ele>1753</ele>
        <time>2019-02-26T14:48:45Z</time>
      </trkpt>
      <trkpt lat="42.73367" lon="0.24793">
        <ele>1753</ele>
        <time>2019-02-26T14:48:46Z</time>
      </trkpt>
      <trkpt lat="42.73367" lon="0.24794">
        <ele>1753</ele>
        <time>2019-02-26T14:48:48Z</time>
      </trkpt>
      <trkpt lat="42.73367" lon="0.24794">
        <ele>1753</ele>
        <time>2019-02-26T14:48:49Z</time>
      </trkpt>
      <trkpt lat="42.73367" lon="0.24794">
        <ele>1753</ele>
        <time>2019-02-26T14:48:51Z</time>
      </trkpt>
      <trkpt lat="42.73367" lon="0.24794">
        <ele>1753</ele>
        <time>2019-02-26T14:48:52Z</time>
      </trkpt>
      <trkpt lat="42.73367" lon="0.24794">
        <ele>1753</ele>
        <time>2019-02-26T14:48:53Z</time>
      </trkpt>
      <trkpt lat="42.73367" lon="0.24795">
        <ele>1753</ele>
        <time>2019-02-26T14:48:55Z</time>
      </trkpt>
      <trkpt lat="42.73367" lon="0.24795">
        <ele>1753</ele>
        <time>2019-02-26T14:48:56Z</time>
      </trkpt>
      <trkpt lat="42.73366" lon="0.24795">
        <ele>1753</ele>
        <time>2019-02-26T14:48:58Z</time>
      </trkpt>
      <trkpt lat="42.73366" lon="0.24795">
        <ele>1753</ele>
        <time>2019-02-26T14:49:00Z</time>
      </trkpt>
      <trkpt lat="42.73366" lon="0.24795">
        <ele>1753</ele>
        <time>2019-02-26T14:49:01Z</time>
      </trkpt>
      <trkpt lat="42.73366" lon="0.24796">
        <ele>1753</ele>
        <time>2019-02-26T14:49:02Z</time>
      </trkpt>
      <trkpt lat="42.73366" lon="0.24796">
        <ele>1753</ele>
        <time>2019-02-26T14:49:04Z</time>
      </trkpt>
      <trkpt lat="42.73366" lon="0.24796">
        <ele>1753</ele>
        <time>2019-02-26T14:49:05Z</time>
      </trkpt>
      <trkpt lat="42.73366" lon="0.24796">
        <ele>1753</ele>
        <time>2019-02-26T14:49:07Z</time>
      </trkpt>
      <trkpt lat="42.73366" lon="0.24796">
        <ele>1753</ele>
        <time>2019-02-26T14:49:08Z</time>
      </trkpt>
      <trkpt lat="42.73365" lon="0.24797">
        <ele>1753</ele>
        <time>2019-02-26T14:49:09Z</time>
      </trkpt>
      <trkpt lat="42.73365" lon="0.24797">
        <ele>1753</ele>
        <time>2019-02-26T14:49:11Z</time>
      </trkpt>
      <trkpt lat="42.73365" lon="0.24797">
        <ele>1753</ele>
        <time>2019-02-26T14:49:12Z</time>
      </trkpt>
      <trkpt lat="42.73365" lon="0.24797">
        <ele>1753</ele>
        <time>2019-02-26T14:49:13Z</time>
      </trkpt>
      <trkpt lat="42.73368" lon="0.2481">
        <ele>1751</ele>
        <time>2019-02-26T14:49:17Z</time>
      </trkpt>
      <trkpt lat="42.7337" lon="0.2481">
        <ele>1750</ele>
        <time>2019-02-26T14:49:18Z</time>
      </trkpt>
      <trkpt lat="42.73372" lon="0.24809">
        <ele>1748</ele>
        <time>2019-02-26T14:49:19Z</time>
      </trkpt>
      <trkpt lat="42.73374" lon="0.24809">
        <ele>1746</ele>
        <time>2019-02-26T14:49:20Z</time>
      </trkpt>
      <trkpt lat="42.73379" lon="0.24806">
        <ele>1745</ele>
        <time>2019-02-26T14:49:21Z</time>
      </trkpt>
      <trkpt lat="42.7338" lon="0.24804">
        <ele>1743</ele>
        <time>2019-02-26T14:49:24Z</time>
      </trkpt>
      <trkpt lat="42.7338" lon="0.24803">
        <ele>1743</ele>
        <time>2019-02-26T14:49:25Z</time>
      </trkpt>
      <trkpt lat="42.73382" lon="0.24793">
        <ele>1742</ele>
        <time>2019-02-26T14:49:29Z</time>
      </trkpt>
      <trkpt lat="42.73383" lon="0.24787">
        <ele>1740</ele>
        <time>2019-02-26T14:49:37Z</time>
      </trkpt>
      <trkpt lat="42.73384" lon="0.24781">
        <ele>1740</ele>
        <time>2019-02-26T14:49:46Z</time>
      </trkpt>
      <trkpt lat="42.73384" lon="0.24781">
        <ele>1740</ele>
        <time>2019-02-26T14:49:47Z</time>
      </trkpt>
      <trkpt lat="42.73385" lon="0.2478">
        <ele>1739</ele>
        <time>2019-02-26T14:49:48Z</time>
      </trkpt>
      <trkpt lat="42.73385" lon="0.2478">
        <ele>1739</ele>
        <time>2019-02-26T14:49:49Z</time>
      </trkpt>
      <trkpt lat="42.73385" lon="0.2478">
        <ele>1739</ele>
        <time>2019-02-26T14:49:50Z</time>
      </trkpt>
      <trkpt lat="42.73385" lon="0.24779">
        <ele>1739</ele>
        <time>2019-02-26T14:49:51Z</time>
      </trkpt>
      <trkpt lat="42.73386" lon="0.24779">
        <ele>1739</ele>
        <time>2019-02-26T14:49:52Z</time>
      </trkpt>
      <trkpt lat="42.73386" lon="0.24778">
        <ele>1739</ele>
        <time>2019-02-26T14:49:53Z</time>
      </trkpt>
      <trkpt lat="42.73386" lon="0.24778">
        <ele>1739</ele>
        <time>2019-02-26T14:49:54Z</time>
      </trkpt>
      <trkpt lat="42.73386" lon="0.24777">
        <ele>1738</ele>
        <time>2019-02-26T14:49:56Z</time>
      </trkpt>
      <trkpt lat="42.73387" lon="0.24777">
        <ele>1737</ele>
        <time>2019-02-26T14:49:57Z</time>
      </trkpt>
      <trkpt lat="42.73387" lon="0.24776">
        <ele>1737</ele>
        <time>2019-02-26T14:49:58Z</time>
      </trkpt>
      <trkpt lat="42.73387" lon="0.24776">
        <ele>1738</ele>
        <time>2019-02-26T14:49:59Z</time>
      </trkpt>
      <trkpt lat="42.73387" lon="0.24776">
        <ele>1738</ele>
        <time>2019-02-26T14:50:00Z</time>
      </trkpt>
      <trkpt lat="42.73388" lon="0.24775">
        <ele>1738</ele>
        <time>2019-02-26T14:50:01Z</time>
      </trkpt>
      <trkpt lat="42.73388" lon="0.24775">
        <ele>1738</ele>
        <time>2019-02-26T14:50:02Z</time>
      </trkpt>
      <trkpt lat="42.73388" lon="0.24775">
        <ele>1738</ele>
        <time>2019-02-26T14:50:03Z</time>
      </trkpt>
      <trkpt lat="42.73389" lon="0.24774">
        <ele>1738</ele>
        <time>2019-02-26T14:50:05Z</time>
      </trkpt>
      <trkpt lat="42.73389" lon="0.24773">
        <ele>1738</ele>
        <time>2019-02-26T14:50:06Z</time>
      </trkpt>
      <trkpt lat="42.73389" lon="0.24773">
        <ele>1738</ele>
        <time>2019-02-26T14:50:07Z</time>
      </trkpt>
      <trkpt lat="42.73389" lon="0.24773">
        <ele>1738</ele>
        <time>2019-02-26T14:50:08Z</time>
      </trkpt>
      <trkpt lat="42.7339" lon="0.24772">
        <ele>1738</ele>
        <time>2019-02-26T14:50:09Z</time>
      </trkpt>
      <trkpt lat="42.7339" lon="0.24772">
        <ele>1738</ele>
        <time>2019-02-26T14:50:10Z</time>
      </trkpt>
      <trkpt lat="42.7339" lon="0.24771">
        <ele>1738</ele>
        <time>2019-02-26T14:50:11Z</time>
      </trkpt>
      <trkpt lat="42.7339" lon="0.24771">
        <ele>1738</ele>
        <time>2019-02-26T14:50:12Z</time>
      </trkpt>
      <trkpt lat="42.73391" lon="0.24771">
        <ele>1738</ele>
        <time>2019-02-26T14:50:13Z</time>
      </trkpt>
      <trkpt lat="42.73397" lon="0.24761">
        <ele>1738</ele>
        <time>2019-02-26T14:50:16Z</time>
      </trkpt>
      <trkpt lat="42.73403" lon="0.24743">
        <ele>1735</ele>
        <time>2019-02-26T14:50:22Z</time>
      </trkpt>
      <trkpt lat="42.73409" lon="0.24733">
        <ele>1735</ele>
        <time>2019-02-26T14:50:23Z</time>
      </trkpt>
      <trkpt lat="42.73412" lon="0.24728">
        <ele>1734</ele>
        <time>2019-02-26T14:50:24Z</time>
      </trkpt>
      <trkpt lat="42.73417" lon="0.24725">
        <ele>1731</ele>
        <time>2019-02-26T14:50:27Z</time>
      </trkpt>
      <trkpt lat="42.73425" lon="0.24717">
        <ele>1730</ele>
        <time>2019-02-26T14:50:28Z</time>
      </trkpt>
      <trkpt lat="42.73437" lon="0.24703">
        <ele>1728</ele>
        <time>2019-02-26T14:50:32Z</time>
      </trkpt>
      <trkpt lat="42.73437" lon="0.24703">
        <ele>1727</ele>
        <time>2019-02-26T14:50:34Z</time>
      </trkpt>
      <trkpt lat="42.73437" lon="0.24703">
        <ele>1727</ele>
        <time>2019-02-26T14:50:36Z</time>
      </trkpt>
      <trkpt lat="42.73437" lon="0.24702">
        <ele>1727</ele>
        <time>2019-02-26T14:50:44Z</time>
      </trkpt>
      <trkpt lat="42.73437" lon="0.24702">
        <ele>1727</ele>
        <time>2019-02-26T14:50:47Z</time>
      </trkpt>
      <trkpt lat="42.73438" lon="0.24702">
        <ele>1727</ele>
        <time>2019-02-26T14:50:53Z</time>
      </trkpt>
      <trkpt lat="42.73438" lon="0.24701">
        <ele>1727</ele>
        <time>2019-02-26T14:50:55Z</time>
      </trkpt>
      <trkpt lat="42.73438" lon="0.24701">
        <ele>1727</ele>
        <time>2019-02-26T14:50:59Z</time>
      </trkpt>
      <trkpt lat="42.73438" lon="0.24701">
        <ele>1727</ele>
        <time>2019-02-26T14:51:00Z</time>
      </trkpt>
      <trkpt lat="42.73438" lon="0.24701">
        <ele>1727</ele>
        <time>2019-02-26T14:51:02Z</time>
      </trkpt>
      <trkpt lat="42.73438" lon="0.24701">
        <ele>1727</ele>
        <time>2019-02-26T14:51:04Z</time>
      </trkpt>
      <trkpt lat="42.73439" lon="0.247">
        <ele>1727</ele>
        <time>2019-02-26T14:51:10Z</time>
      </trkpt>
      <trkpt lat="42.73439" lon="0.247">
        <ele>1727</ele>
        <time>2019-02-26T14:51:13Z</time>
      </trkpt>
      <trkpt lat="42.73439" lon="0.24699">
        <ele>1727</ele>
        <time>2019-02-26T14:51:21Z</time>
      </trkpt>
      <trkpt lat="42.73439" lon="0.24699">
        <ele>1727</ele>
        <time>2019-02-26T14:51:23Z</time>
      </trkpt>
      <trkpt lat="42.73439" lon="0.24699">
        <ele>1727</ele>
        <time>2019-02-26T14:51:25Z</time>
      </trkpt>
      <trkpt lat="42.7344" lon="0.24699">
        <ele>1727</ele>
        <time>2019-02-26T14:51:26Z</time>
      </trkpt>
      <trkpt lat="42.7344" lon="0.24698">
        <ele>1727</ele>
        <time>2019-02-26T14:51:30Z</time>
      </trkpt>
      <trkpt lat="42.7344" lon="0.24698">
        <ele>1727</ele>
        <time>2019-02-26T14:51:32Z</time>
      </trkpt>
      <trkpt lat="42.7344" lon="0.24698">
        <ele>1727</ele>
        <time>2019-02-26T14:51:38Z</time>
      </trkpt>
      <trkpt lat="42.7344" lon="0.24697">
        <ele>1727</ele>
        <time>2019-02-26T14:51:41Z</time>
      </trkpt>
      <trkpt lat="42.73441" lon="0.24697">
        <ele>1727</ele>
        <time>2019-02-26T14:51:47Z</time>
      </trkpt>
      <trkpt lat="42.73441" lon="0.24697">
        <ele>1727</ele>
        <time>2019-02-26T14:51:49Z</time>
      </trkpt>
      <trkpt lat="42.73441" lon="0.24696">
        <ele>1727</ele>
        <time>2019-02-26T14:51:53Z</time>
      </trkpt>
      <trkpt lat="42.73444" lon="0.24696">
        <ele>1727</ele>
        <time>2019-02-26T14:52:06Z</time>
      </trkpt>
      <trkpt lat="42.73455" lon="0.24699">
        <ele>1727</ele>
        <time>2019-02-26T14:52:18Z</time>
      </trkpt>
      <trkpt lat="42.7346" lon="0.24704">
        <ele>1725</ele>
        <time>2019-02-26T14:52:20Z</time>
      </trkpt>
      <trkpt lat="42.73475" lon="0.24711">
        <ele>1723</ele>
        <time>2019-02-26T14:52:24Z</time>
      </trkpt>
      <trkpt lat="42.73481" lon="0.24715">
        <ele>1719</ele>
        <time>2019-02-26T14:52:26Z</time>
      </trkpt>
      <trkpt lat="42.73491" lon="0.24716">
        <ele>1717</ele>
        <time>2019-02-26T14:52:30Z</time>
      </trkpt>
      <trkpt lat="42.73491" lon="0.24716">
        <ele>1717</ele>
        <time>2019-02-26T14:52:31Z</time>
      </trkpt>
      <trkpt lat="42.73491" lon="0.24716">
        <ele>1717</ele>
        <time>2019-02-26T14:52:33Z</time>
      </trkpt>
      <trkpt lat="42.73492" lon="0.24716">
        <ele>1717</ele>
        <time>2019-02-26T14:52:34Z</time>
      </trkpt>
      <trkpt lat="42.73492" lon="0.24716">
        <ele>1717</ele>
        <time>2019-02-26T14:52:35Z</time>
      </trkpt>
      <trkpt lat="42.73493" lon="0.24717">
        <ele>1717</ele>
        <time>2019-02-26T14:52:37Z</time>
      </trkpt>
      <trkpt lat="42.73493" lon="0.24717">
        <ele>1717</ele>
        <time>2019-02-26T14:52:39Z</time>
      </trkpt>
      <trkpt lat="42.73494" lon="0.24717">
        <ele>1717</ele>
        <time>2019-02-26T14:52:41Z</time>
      </trkpt>
      <trkpt lat="42.73494" lon="0.24717">
        <ele>1716</ele>
        <time>2019-02-26T14:52:42Z</time>
      </trkpt>
      <trkpt lat="42.73495" lon="0.24717">
        <ele>1715</ele>
        <time>2019-02-26T14:52:43Z</time>
      </trkpt>
      <trkpt lat="42.73495" lon="0.24717">
        <ele>1715</ele>
        <time>2019-02-26T14:52:45Z</time>
      </trkpt>
      <trkpt lat="42.73496" lon="0.24717">
        <ele>1715</ele>
        <time>2019-02-26T14:52:46Z</time>
      </trkpt>
      <trkpt lat="42.73501" lon="0.24718">
        <ele>1715</ele>
        <time>2019-02-26T14:52:47Z</time>
      </trkpt>
      <trkpt lat="42.73501" lon="0.24718">
        <ele>1716</ele>
        <time>2019-02-26T14:52:49Z</time>
      </trkpt>
      <trkpt lat="42.73501" lon="0.24718">
        <ele>1716</ele>
        <time>2019-02-26T14:52:51Z</time>
      </trkpt>
      <trkpt lat="42.73501" lon="0.24718">
        <ele>1716</ele>
        <time>2019-02-26T14:52:52Z</time>
      </trkpt>
      <trkpt lat="42.73501" lon="0.24718">
        <ele>1716</ele>
        <time>2019-02-26T14:52:54Z</time>
      </trkpt>
      <trkpt lat="42.73502" lon="0.24718">
        <ele>1716</ele>
        <time>2019-02-26T14:52:56Z</time>
      </trkpt>
      <trkpt lat="42.73502" lon="0.24718">
        <ele>1716</ele>
        <time>2019-02-26T14:52:57Z</time>
      </trkpt>
      <trkpt lat="42.73502" lon="0.24718">
        <ele>1716</ele>
        <time>2019-02-26T14:52:59Z</time>
      </trkpt>
      <trkpt lat="42.73502" lon="0.24718">
        <ele>1716</ele>
        <time>2019-02-26T14:53:01Z</time>
      </trkpt>
      <trkpt lat="42.73502" lon="0.24717">
        <ele>1716</ele>
        <time>2019-02-26T14:53:02Z</time>
      </trkpt>
      <trkpt lat="42.73503" lon="0.24717">
        <ele>1716</ele>
        <time>2019-02-26T14:53:04Z</time>
      </trkpt>
      <trkpt lat="42.73503" lon="0.24717">
        <ele>1716</ele>
        <time>2019-02-26T14:53:06Z</time>
      </trkpt>
      <trkpt lat="42.73503" lon="0.24717">
        <ele>1716</ele>
        <time>2019-02-26T14:53:07Z</time>
      </trkpt>
      <trkpt lat="42.73505" lon="0.24716">
        <ele>1716</ele>
        <time>2019-02-26T14:53:21Z</time>
      </trkpt>
      <trkpt lat="42.73505" lon="0.24716">
        <ele>1716</ele>
        <time>2019-02-26T14:53:22Z</time>
      </trkpt>
      <trkpt lat="42.73505" lon="0.24716">
        <ele>1716</ele>
        <time>2019-02-26T14:53:24Z</time>
      </trkpt>
      <trkpt lat="42.73505" lon="0.24716">
        <ele>1716</ele>
        <time>2019-02-26T14:53:25Z</time>
      </trkpt>
      <trkpt lat="42.73505" lon="0.24716">
        <ele>1716</ele>
        <time>2019-02-26T14:53:27Z</time>
      </trkpt>
      <trkpt lat="42.73506" lon="0.24716">
        <ele>1716</ele>
        <time>2019-02-26T14:53:29Z</time>
      </trkpt>
      <trkpt lat="42.73506" lon="0.24716">
        <ele>1716</ele>
        <time>2019-02-26T14:53:30Z</time>
      </trkpt>
      <trkpt lat="42.73506" lon="0.24716">
        <ele>1716</ele>
        <time>2019-02-26T14:53:32Z</time>
      </trkpt>
      <trkpt lat="42.73506" lon="0.24716">
        <ele>1716</ele>
        <time>2019-02-26T14:53:34Z</time>
      </trkpt>
      <trkpt lat="42.73506" lon="0.24715">
        <ele>1716</ele>
        <time>2019-02-26T14:53:35Z</time>
      </trkpt>
      <trkpt lat="42.73508" lon="0.24715">
        <ele>1716</ele>
        <time>2019-02-26T14:53:49Z</time>
      </trkpt>
      <trkpt lat="42.73508" lon="0.24715">
        <ele>1716</ele>
        <time>2019-02-26T14:53:50Z</time>
      </trkpt>
      <trkpt lat="42.73508" lon="0.24714">
        <ele>1716</ele>
        <time>2019-02-26T14:53:52Z</time>
      </trkpt>
      <trkpt lat="42.73508" lon="0.24714">
        <ele>1716</ele>
        <time>2019-02-26T14:53:54Z</time>
      </trkpt>
      <trkpt lat="42.73509" lon="0.24714">
        <ele>1716</ele>
        <time>2019-02-26T14:53:55Z</time>
      </trkpt>
      <trkpt lat="42.73509" lon="0.24714">
        <ele>1715</ele>
        <time>2019-02-26T14:53:57Z</time>
      </trkpt>
      <trkpt lat="42.73509" lon="0.24714">
        <ele>1715</ele>
        <time>2019-02-26T14:53:59Z</time>
      </trkpt>
      <trkpt lat="42.73512" lon="0.24714">
        <ele>1714</ele>
        <time>2019-02-26T14:54:01Z</time>
      </trkpt>
      <trkpt lat="42.73515" lon="0.24714">
        <ele>1714</ele>
        <time>2019-02-26T14:54:02Z</time>
      </trkpt>
      <trkpt lat="42.7352" lon="0.24713">
        <ele>1713</ele>
        <time>2019-02-26T14:54:03Z</time>
      </trkpt>
      <trkpt lat="42.73523" lon="0.24711">
        <ele>1713</ele>
        <time>2019-02-26T14:54:04Z</time>
      </trkpt>
      <trkpt lat="42.73525" lon="0.24709">
        <ele>1712</ele>
        <time>2019-02-26T14:54:05Z</time>
      </trkpt>
      <trkpt lat="42.7353" lon="0.24703">
        <ele>1712</ele>
        <time>2019-02-26T14:54:07Z</time>
      </trkpt>
      <trkpt lat="42.73532" lon="0.24702">
        <ele>1711</ele>
        <time>2019-02-26T14:54:08Z</time>
      </trkpt>
      <trkpt lat="42.73536" lon="0.247">
        <ele>1710</ele>
        <time>2019-02-26T14:54:10Z</time>
      </trkpt>
      <trkpt lat="42.73538" lon="0.24699">
        <ele>1710</ele>
        <time>2019-02-26T14:54:11Z</time>
      </trkpt>
      <trkpt lat="42.73542" lon="0.24697">
        <ele>1710</ele>
        <time>2019-02-26T14:54:13Z</time>
      </trkpt>
      <trkpt lat="42.73547" lon="0.24699">
        <ele>1707</ele>
        <time>2019-02-26T14:54:16Z</time>
      </trkpt>
      <trkpt lat="42.73557" lon="0.247">
        <ele>1705</ele>
        <time>2019-02-26T14:54:17Z</time>
      </trkpt>
      <trkpt lat="42.73561" lon="0.24698">
        <ele>1704</ele>
        <time>2019-02-26T14:54:18Z</time>
      </trkpt>
      <trkpt lat="42.73566" lon="0.24694">
        <ele>1701</ele>
        <time>2019-02-26T14:54:20Z</time>
      </trkpt>
      <trkpt lat="42.73574" lon="0.24687">
        <ele>1700</ele>
        <time>2019-02-26T14:54:21Z</time>
      </trkpt>
      <trkpt lat="42.7358" lon="0.24683">
        <ele>1699</ele>
        <time>2019-02-26T14:54:23Z</time>
      </trkpt>
      <trkpt lat="42.73584" lon="0.24686">
        <ele>1697</ele>
        <time>2019-02-26T14:54:25Z</time>
      </trkpt>
      <trkpt lat="42.73588" lon="0.24695">
        <ele>1694</ele>
        <time>2019-02-26T14:54:28Z</time>
      </trkpt>
      <trkpt lat="42.73597" lon="0.247">
        <ele>1690</ele>
        <time>2019-02-26T14:54:30Z</time>
      </trkpt>
      <trkpt lat="42.73605" lon="0.24706">
        <ele>1687</ele>
        <time>2019-02-26T14:54:32Z</time>
      </trkpt>
      <trkpt lat="42.73614" lon="0.24708">
        <ele>1682</ele>
        <time>2019-02-26T14:54:36Z</time>
      </trkpt>
      <trkpt lat="42.73633" lon="0.24707">
        <ele>1680</ele>
        <time>2019-02-26T14:54:41Z</time>
      </trkpt>
      <trkpt lat="42.73638" lon="0.24709">
        <ele>1678</ele>
        <time>2019-02-26T14:54:42Z</time>
      </trkpt>
      <trkpt lat="42.73639" lon="0.24712">
        <ele>1676</ele>
        <time>2019-02-26T14:54:43Z</time>
      </trkpt>
      <trkpt lat="42.73641" lon="0.24728">
        <ele>1674</ele>
        <time>2019-02-26T14:54:45Z</time>
      </trkpt>
      <trkpt lat="42.73642" lon="0.24735">
        <ele>1672</ele>
        <time>2019-02-26T14:54:46Z</time>
      </trkpt>
      <trkpt lat="42.73637" lon="0.24739">
        <ele>1670</ele>
        <time>2019-02-26T14:54:48Z</time>
      </trkpt>
      <trkpt lat="42.73633" lon="0.24744">
        <ele>1669</ele>
        <time>2019-02-26T14:54:49Z</time>
      </trkpt>
      <trkpt lat="42.73636" lon="0.24747">
        <ele>1667</ele>
        <time>2019-02-26T14:54:51Z</time>
      </trkpt>
      <trkpt lat="42.73645" lon="0.24751">
        <ele>1666</ele>
        <time>2019-02-26T14:54:52Z</time>
      </trkpt>
      <trkpt lat="42.73677" lon="0.24753">
        <ele>1657</ele>
        <time>2019-02-26T14:54:57Z</time>
      </trkpt>
      <trkpt lat="42.73689" lon="0.24753">
        <ele>1657</ele>
        <time>2019-02-26T14:54:58Z</time>
      </trkpt>
      <trkpt lat="42.73708" lon="0.24751">
        <ele>1654</ele>
        <time>2019-02-26T14:55:03Z</time>
      </trkpt>
      <trkpt lat="42.73712" lon="0.24751">
        <ele>1653</ele>
        <time>2019-02-26T14:55:05Z</time>
      </trkpt>
      <trkpt lat="42.73722" lon="0.24748">
        <ele>1652</ele>
        <time>2019-02-26T14:55:06Z</time>
      </trkpt>
      <trkpt lat="42.73726" lon="0.24745">
        <ele>1652</ele>
        <time>2019-02-26T14:55:07Z</time>
      </trkpt>
      <trkpt lat="42.7373" lon="0.24744">
        <ele>1651</ele>
        <time>2019-02-26T14:55:19Z</time>
      </trkpt>
      <trkpt lat="42.73732" lon="0.24745">
        <ele>1651</ele>
        <time>2019-02-26T14:55:21Z</time>
      </trkpt>
      <trkpt lat="42.73734" lon="0.24745">
        <ele>1651</ele>
        <time>2019-02-26T14:55:25Z</time>
      </trkpt>
      <trkpt lat="42.73736" lon="0.24746">
        <ele>1651</ele>
        <time>2019-02-26T14:55:29Z</time>
      </trkpt>
      <trkpt lat="42.73737" lon="0.24748">
        <ele>1651</ele>
        <time>2019-02-26T14:55:34Z</time>
      </trkpt>
      <trkpt lat="42.7374" lon="0.24749">
        <ele>1651</ele>
        <time>2019-02-26T14:55:36Z</time>
      </trkpt>
      <trkpt lat="42.73743" lon="0.24749">
        <ele>1651</ele>
        <time>2019-02-26T14:55:38Z</time>
      </trkpt>
      <trkpt lat="42.73745" lon="0.24749">
        <ele>1651</ele>
        <time>2019-02-26T14:55:42Z</time>
      </trkpt>
      <trkpt lat="42.73747" lon="0.24748">
        <ele>1651</ele>
        <time>2019-02-26T14:55:49Z</time>
      </trkpt>
      <trkpt lat="42.73751" lon="0.24747">
        <ele>1651</ele>
        <time>2019-02-26T14:55:51Z</time>
      </trkpt>
      <trkpt lat="42.7376" lon="0.24746">
        <ele>1650</ele>
        <time>2019-02-26T14:55:54Z</time>
      </trkpt>
      <trkpt lat="42.73764" lon="0.24745">
        <ele>1650</ele>
        <time>2019-02-26T14:55:58Z</time>
      </trkpt>
      <trkpt lat="42.73766" lon="0.24746">
        <ele>1650</ele>
        <time>2019-02-26T14:56:06Z</time>
      </trkpt>
      <trkpt lat="42.73768" lon="0.24749">
        <ele>1650</ele>
        <time>2019-02-26T14:56:08Z</time>
      </trkpt>
      <trkpt lat="42.73773" lon="0.24752">
        <ele>1650</ele>
        <time>2019-02-26T14:56:12Z</time>
      </trkpt>
      <trkpt lat="42.73776" lon="0.24753">
        <ele>1650</ele>
        <time>2019-02-26T14:56:14Z</time>
      </trkpt>
      <trkpt lat="42.73779" lon="0.24754">
        <ele>1650</ele>
        <time>2019-02-26T14:56:16Z</time>
      </trkpt>
      <trkpt lat="42.73781" lon="0.24754">
        <ele>1649</ele>
        <time>2019-02-26T14:56:17Z</time>
      </trkpt>
      <trkpt lat="42.73783" lon="0.24754">
        <ele>1649</ele>
        <time>2019-02-26T14:56:18Z</time>
      </trkpt>
      <trkpt lat="42.73786" lon="0.24753">
        <ele>1649</ele>
        <time>2019-02-26T14:56:19Z</time>
      </trkpt>
      <trkpt lat="42.73797" lon="0.24749">
        <ele>1647</ele>
        <time>2019-02-26T14:56:22Z</time>
      </trkpt>
      <trkpt lat="42.73799" lon="0.24748">
        <ele>1647</ele>
        <time>2019-02-26T14:56:23Z</time>
      </trkpt>
      <trkpt lat="42.73803" lon="0.24746">
        <ele>1647</ele>
        <time>2019-02-26T14:56:26Z</time>
      </trkpt>
      <trkpt lat="42.73804" lon="0.24744">
        <ele>1647</ele>
        <time>2019-02-26T14:56:27Z</time>
      </trkpt>
      <trkpt lat="42.73806" lon="0.24743">
        <ele>1647</ele>
        <time>2019-02-26T14:56:28Z</time>
      </trkpt>
      <trkpt lat="42.73811" lon="0.24738">
        <ele>1647</ele>
        <time>2019-02-26T14:56:31Z</time>
      </trkpt>
      <trkpt lat="42.73814" lon="0.24736">
        <ele>1646</ele>
        <time>2019-02-26T14:56:32Z</time>
      </trkpt>
      <trkpt lat="42.73844" lon="0.24716">
        <ele>1641</ele>
        <time>2019-02-26T14:56:42Z</time>
      </trkpt>
      <trkpt lat="42.73847" lon="0.24715">
        <ele>1640</ele>
        <time>2019-02-26T14:56:43Z</time>
      </trkpt>
      <trkpt lat="42.73848" lon="0.24714">
        <ele>1640</ele>
        <time>2019-02-26T14:56:44Z</time>
      </trkpt>
      <trkpt lat="42.73851" lon="0.24712">
        <ele>1640</ele>
        <time>2019-02-26T14:56:46Z</time>
      </trkpt>
      <trkpt lat="42.73853" lon="0.24711">
        <ele>1640</ele>
        <time>2019-02-26T14:56:49Z</time>
      </trkpt>
      <trkpt lat="42.73862" lon="0.24702">
        <ele>1639</ele>
        <time>2019-02-26T14:56:55Z</time>
      </trkpt>
      <trkpt lat="42.73865" lon="0.24701">
        <ele>1639</ele>
        <time>2019-02-26T14:56:56Z</time>
      </trkpt>
      <trkpt lat="42.7387" lon="0.24696">
        <ele>1638</ele>
        <time>2019-02-26T14:56:58Z</time>
      </trkpt>
      <trkpt lat="42.73876" lon="0.24688">
        <ele>1638</ele>
        <time>2019-02-26T14:57:00Z</time>
      </trkpt>
      <trkpt lat="42.73879" lon="0.24683">
        <ele>1637</ele>
        <time>2019-02-26T14:57:01Z</time>
      </trkpt>
      <trkpt lat="42.73883" lon="0.24678">
        <ele>1637</ele>
        <time>2019-02-26T14:57:02Z</time>
      </trkpt>
      <trkpt lat="42.73887" lon="0.24674">
        <ele>1636</ele>
        <time>2019-02-26T14:57:03Z</time>
      </trkpt>
      <trkpt lat="42.73892" lon="0.24671">
        <ele>1636</ele>
        <time>2019-02-26T14:57:04Z</time>
      </trkpt>
      <trkpt lat="42.73898" lon="0.24668">
        <ele>1635</ele>
        <time>2019-02-26T14:57:05Z</time>
      </trkpt>
      <trkpt lat="42.73907" lon="0.24665">
        <ele>1634</ele>
        <time>2019-02-26T14:57:07Z</time>
      </trkpt>
      <trkpt lat="42.7391" lon="0.24664">
        <ele>1634</ele>
        <time>2019-02-26T14:57:08Z</time>
      </trkpt>
      <trkpt lat="42.73912" lon="0.24662">
        <ele>1634</ele>
        <time>2019-02-26T14:57:09Z</time>
      </trkpt>
      <trkpt lat="42.73918" lon="0.24659">
        <ele>1634</ele>
        <time>2019-02-26T14:57:11Z</time>
      </trkpt>
      <trkpt lat="42.7393" lon="0.24653">
        <ele>1633</ele>
        <time>2019-02-26T14:57:14Z</time>
      </trkpt>
      <trkpt lat="42.73946" lon="0.24643">
        <ele>1632</ele>
        <time>2019-02-26T14:57:18Z</time>
      </trkpt>
      <trkpt lat="42.7395" lon="0.2464">
        <ele>1631</ele>
        <time>2019-02-26T14:57:19Z</time>
      </trkpt>
      <trkpt lat="42.73956" lon="0.24633">
        <ele>1630</ele>
        <time>2019-02-26T14:57:21Z</time>
      </trkpt>
      <trkpt lat="42.73965" lon="0.24623">
        <ele>1628</ele>
        <time>2019-02-26T14:57:24Z</time>
      </trkpt>
      <trkpt lat="42.73976" lon="0.24612">
        <ele>1626</ele>
        <time>2019-02-26T14:57:27Z</time>
      </trkpt>
      <trkpt lat="42.73981" lon="0.24609">
        <ele>1625</ele>
        <time>2019-02-26T14:57:28Z</time>
      </trkpt>
      <trkpt lat="42.73985" lon="0.24607">
        <ele>1624</ele>
        <time>2019-02-26T14:57:29Z</time>
      </trkpt>
      <trkpt lat="42.73996" lon="0.24597">
        <ele>1620</ele>
        <time>2019-02-26T14:57:32Z</time>
      </trkpt>
      <trkpt lat="42.74002" lon="0.24591">
        <ele>1618</ele>
        <time>2019-02-26T14:57:34Z</time>
      </trkpt>
      <trkpt lat="42.74008" lon="0.24585">
        <ele>1617</ele>
        <time>2019-02-26T14:57:36Z</time>
      </trkpt>
      <trkpt lat="42.74012" lon="0.24581">
        <ele>1616</ele>
        <time>2019-02-26T14:57:37Z</time>
      </trkpt>
      <trkpt lat="42.74015" lon="0.24576">
        <ele>1615</ele>
        <time>2019-02-26T14:57:38Z</time>
      </trkpt>
      <trkpt lat="42.7402" lon="0.24572">
        <ele>1614</ele>
        <time>2019-02-26T14:57:39Z</time>
      </trkpt>
      <trkpt lat="42.74034" lon="0.24563">
        <ele>1613</ele>
        <time>2019-02-26T14:57:42Z</time>
      </trkpt>
      <trkpt lat="42.74037" lon="0.24562">
        <ele>1613</ele>
        <time>2019-02-26T14:57:43Z</time>
      </trkpt>
      <trkpt lat="42.74045" lon="0.24556">
        <ele>1612</ele>
        <time>2019-02-26T14:57:46Z</time>
      </trkpt>
      <trkpt lat="42.74062" lon="0.24535">
        <ele>1608</ele>
        <time>2019-02-26T14:57:51Z</time>
      </trkpt>
      <trkpt lat="42.74063" lon="0.24535">
        <ele>1608</ele>
        <time>2019-02-26T14:57:52Z</time>
      </trkpt>
      <trkpt lat="42.74063" lon="0.24534">
        <ele>1608</ele>
        <time>2019-02-26T14:57:53Z</time>
      </trkpt>
      <trkpt lat="42.74063" lon="0.24533">
        <ele>1607</ele>
        <time>2019-02-26T14:57:54Z</time>
      </trkpt>
      <trkpt lat="42.74064" lon="0.24532">
        <ele>1607</ele>
        <time>2019-02-26T14:57:55Z</time>
      </trkpt>
      <trkpt lat="42.74064" lon="0.24532">
        <ele>1607</ele>
        <time>2019-02-26T14:57:56Z</time>
      </trkpt>
      <trkpt lat="42.74065" lon="0.24531">
        <ele>1607</ele>
        <time>2019-02-26T14:57:57Z</time>
      </trkpt>
      <trkpt lat="42.74066" lon="0.24529">
        <ele>1606</ele>
        <time>2019-02-26T14:57:59Z</time>
      </trkpt>
      <trkpt lat="42.7407" lon="0.24521">
        <ele>1606</ele>
        <time>2019-02-26T14:58:00Z</time>
      </trkpt>
      <trkpt lat="42.74081" lon="0.24508">
        <ele>1604</ele>
        <time>2019-02-26T14:58:05Z</time>
      </trkpt>
      <trkpt lat="42.7409" lon="0.24499">
        <ele>1604</ele>
        <time>2019-02-26T14:58:07Z</time>
      </trkpt>
      <trkpt lat="42.74105" lon="0.24487">
        <ele>1602</ele>
        <time>2019-02-26T14:58:11Z</time>
      </trkpt>
      <trkpt lat="42.74108" lon="0.24485">
        <ele>1602</ele>
        <time>2019-02-26T14:58:12Z</time>
      </trkpt>
      <trkpt lat="42.74113" lon="0.2448">
        <ele>1602</ele>
        <time>2019-02-26T14:58:13Z</time>
      </trkpt>
      <trkpt lat="42.74125" lon="0.24466">
        <ele>1600</ele>
        <time>2019-02-26T14:58:16Z</time>
      </trkpt>
      <trkpt lat="42.74134" lon="0.24454">
        <ele>1599</ele>
        <time>2019-02-26T14:58:19Z</time>
      </trkpt>
      <trkpt lat="42.74156" lon="0.24418">
        <ele>1596</ele>
        <time>2019-02-26T14:58:26Z</time>
      </trkpt>
      <trkpt lat="42.74158" lon="0.24414">
        <ele>1595</ele>
        <time>2019-02-26T14:58:27Z</time>
      </trkpt>
      <trkpt lat="42.7416" lon="0.24412">
        <ele>1596</ele>
        <time>2019-02-26T14:58:29Z</time>
      </trkpt>
      <trkpt lat="42.74159" lon="0.24411">
        <ele>1596</ele>
        <time>2019-02-26T14:58:30Z</time>
      </trkpt>
      <trkpt lat="42.74159" lon="0.2441">
        <ele>1596</ele>
        <time>2019-02-26T14:58:32Z</time>
      </trkpt>
      <trkpt lat="42.74159" lon="0.24409">
        <ele>1596</ele>
        <time>2019-02-26T14:58:33Z</time>
      </trkpt>
      <trkpt lat="42.74159" lon="0.24407">
        <ele>1597</ele>
        <time>2019-02-26T14:58:37Z</time>
      </trkpt>
      <trkpt lat="42.74159" lon="0.24407">
        <ele>1597</ele>
        <time>2019-02-26T14:58:38Z</time>
      </trkpt>
      <trkpt lat="42.74159" lon="0.24406">
        <ele>1597</ele>
        <time>2019-02-26T14:58:40Z</time>
      </trkpt>
      <trkpt lat="42.74159" lon="0.24405">
        <ele>1597</ele>
        <time>2019-02-26T14:58:41Z</time>
      </trkpt>
      <trkpt lat="42.74159" lon="0.24404">
        <ele>1597</ele>
        <time>2019-02-26T14:58:43Z</time>
      </trkpt>
      <trkpt lat="42.74159" lon="0.24403">
        <ele>1597</ele>
        <time>2019-02-26T14:58:44Z</time>
      </trkpt>
      <trkpt lat="42.74158" lon="0.24401">
        <ele>1597</ele>
        <time>2019-02-26T14:58:48Z</time>
      </trkpt>
      <trkpt lat="42.74158" lon="0.244">
        <ele>1597</ele>
        <time>2019-02-26T14:58:49Z</time>
      </trkpt>
      <trkpt lat="42.74158" lon="0.24399">
        <ele>1597</ele>
        <time>2019-02-26T14:58:51Z</time>
      </trkpt>
      <trkpt lat="42.74164" lon="0.2439">
        <ele>1596</ele>
        <time>2019-02-26T14:58:56Z</time>
      </trkpt>
      <trkpt lat="42.74165" lon="0.24389">
        <ele>1596</ele>
        <time>2019-02-26T14:58:57Z</time>
      </trkpt>
      <trkpt lat="42.74165" lon="0.24388">
        <ele>1596</ele>
        <time>2019-02-26T14:58:58Z</time>
      </trkpt>
      <trkpt lat="42.74166" lon="0.24387">
        <ele>1596</ele>
        <time>2019-02-26T14:58:59Z</time>
      </trkpt>
      <trkpt lat="42.74166" lon="0.24387">
        <ele>1596</ele>
        <time>2019-02-26T14:59:00Z</time>
      </trkpt>
      <trkpt lat="42.74166" lon="0.24386">
        <ele>1596</ele>
        <time>2019-02-26T14:59:01Z</time>
      </trkpt>
      <trkpt lat="42.74167" lon="0.24385">
        <ele>1596</ele>
        <time>2019-02-26T14:59:03Z</time>
      </trkpt>
      <trkpt lat="42.74168" lon="0.24384">
        <ele>1596</ele>
        <time>2019-02-26T14:59:04Z</time>
      </trkpt>
      <trkpt lat="42.74168" lon="0.24383">
        <ele>1596</ele>
        <time>2019-02-26T14:59:05Z</time>
      </trkpt>
      <trkpt lat="42.74168" lon="0.24382">
        <ele>1596</ele>
        <time>2019-02-26T14:59:06Z</time>
      </trkpt>
      <trkpt lat="42.74169" lon="0.24382">
        <ele>1596</ele>
        <time>2019-02-26T14:59:07Z</time>
      </trkpt>
      <trkpt lat="42.74169" lon="0.24381">
        <ele>1596</ele>
        <time>2019-02-26T14:59:08Z</time>
      </trkpt>
      <trkpt lat="42.74169" lon="0.2438">
        <ele>1596</ele>
        <time>2019-02-26T14:59:09Z</time>
      </trkpt>
      <trkpt lat="42.7417" lon="0.24379">
        <ele>1596</ele>
        <time>2019-02-26T14:59:10Z</time>
      </trkpt>
      <trkpt lat="42.74179" lon="0.24357">
        <ele>1595</ele>
        <time>2019-02-26T14:59:21Z</time>
      </trkpt>
      <trkpt lat="42.74177" lon="0.24354">
        <ele>1595</ele>
        <time>2019-02-26T14:59:28Z</time>
      </trkpt>
      <trkpt lat="42.74177" lon="0.24354">
        <ele>1595</ele>
        <time>2019-02-26T14:59:29Z</time>
      </trkpt>
      <trkpt lat="42.74177" lon="0.24353">
        <ele>1595</ele>
        <time>2019-02-26T14:59:30Z</time>
      </trkpt>
      <trkpt lat="42.74178" lon="0.24353">
        <ele>1595</ele>
        <time>2019-02-26T14:59:31Z</time>
      </trkpt>
      <trkpt lat="42.74178" lon="0.24353">
        <ele>1596</ele>
        <time>2019-02-26T14:59:32Z</time>
      </trkpt>
      <trkpt lat="42.74178" lon="0.24353">
        <ele>1596</ele>
        <time>2019-02-26T14:59:33Z</time>
      </trkpt>
      <trkpt lat="42.74178" lon="0.24352">
        <ele>1596</ele>
        <time>2019-02-26T14:59:34Z</time>
      </trkpt>
      <trkpt lat="42.74178" lon="0.24352">
        <ele>1596</ele>
        <time>2019-02-26T14:59:35Z</time>
      </trkpt>
      <trkpt lat="42.74178" lon="0.24352">
        <ele>1596</ele>
        <time>2019-02-26T14:59:36Z</time>
      </trkpt>
      <trkpt lat="42.74179" lon="0.24352">
        <ele>1596</ele>
        <time>2019-02-26T14:59:38Z</time>
      </trkpt>
      <trkpt lat="42.74179" lon="0.24351">
        <ele>1595</ele>
        <time>2019-02-26T14:59:39Z</time>
      </trkpt>
      <trkpt lat="42.74179" lon="0.24351">
        <ele>1595</ele>
        <time>2019-02-26T14:59:41Z</time>
      </trkpt>
      <trkpt lat="42.74179" lon="0.24351">
        <ele>1595</ele>
        <time>2019-02-26T14:59:42Z</time>
      </trkpt>
      <trkpt lat="42.7418" lon="0.2435">
        <ele>1595</ele>
        <time>2019-02-26T14:59:43Z</time>
      </trkpt>
      <trkpt lat="42.7418" lon="0.2435">
        <ele>1595</ele>
        <time>2019-02-26T14:59:44Z</time>
      </trkpt>
      <trkpt lat="42.7418" lon="0.2435">
        <ele>1595</ele>
        <time>2019-02-26T14:59:45Z</time>
      </trkpt>
      <trkpt lat="42.7418" lon="0.2435">
        <ele>1595</ele>
        <time>2019-02-26T14:59:47Z</time>
      </trkpt>
      <trkpt lat="42.7418" lon="0.24349">
        <ele>1595</ele>
        <time>2019-02-26T14:59:48Z</time>
      </trkpt>
      <trkpt lat="42.74181" lon="0.24349">
        <ele>1595</ele>
        <time>2019-02-26T14:59:50Z</time>
      </trkpt>
      <trkpt lat="42.74181" lon="0.24349">
        <ele>1595</ele>
        <time>2019-02-26T14:59:51Z</time>
      </trkpt>
      <trkpt lat="42.74181" lon="0.24348">
        <ele>1595</ele>
        <time>2019-02-26T14:59:52Z</time>
      </trkpt>
      <trkpt lat="42.74181" lon="0.24348">
        <ele>1595</ele>
        <time>2019-02-26T14:59:53Z</time>
      </trkpt>
      <trkpt lat="42.74181" lon="0.24348">
        <ele>1595</ele>
        <time>2019-02-26T14:59:54Z</time>
      </trkpt>
      <trkpt lat="42.74182" lon="0.24348">
        <ele>1595</ele>
        <time>2019-02-26T14:59:56Z</time>
      </trkpt>
      <trkpt lat="42.74182" lon="0.24347">
        <ele>1595</ele>
        <time>2019-02-26T14:59:57Z</time>
      </trkpt>
      <trkpt lat="42.74182" lon="0.24347">
        <ele>1595</ele>
        <time>2019-02-26T14:59:59Z</time>
      </trkpt>
      <trkpt lat="42.74182" lon="0.24347">
        <ele>1595</ele>
        <time>2019-02-26T15:00:00Z</time>
      </trkpt>
      <trkpt lat="42.74183" lon="0.24346">
        <ele>1595</ele>
        <time>2019-02-26T15:00:01Z</time>
      </trkpt>
      <trkpt lat="42.74183" lon="0.24346">
        <ele>1595</ele>
        <time>2019-02-26T15:00:02Z</time>
      </trkpt>
      <trkpt lat="42.74183" lon="0.24346">
        <ele>1594</ele>
        <time>2019-02-26T15:00:03Z</time>
      </trkpt>
      <trkpt lat="42.74183" lon="0.24346">
        <ele>1594</ele>
        <time>2019-02-26T15:00:04Z</time>
      </trkpt>
      <trkpt lat="42.74183" lon="0.24345">
        <ele>1594</ele>
        <time>2019-02-26T15:00:05Z</time>
      </trkpt>
      <trkpt lat="42.74183" lon="0.24345">
        <ele>1594</ele>
        <time>2019-02-26T15:00:06Z</time>
      </trkpt>
      <trkpt lat="42.74203" lon="0.24321">
        <ele>1592</ele>
        <time>2019-02-26T15:00:17Z</time>
      </trkpt>
      <trkpt lat="42.74204" lon="0.2432">
        <ele>1591</ele>
        <time>2019-02-26T15:00:18Z</time>
      </trkpt>
      <trkpt lat="42.74211" lon="0.24312">
        <ele>1591</ele>
        <time>2019-02-26T15:00:20Z</time>
      </trkpt>
      <trkpt lat="42.74214" lon="0.24309">
        <ele>1590</ele>
        <time>2019-02-26T15:00:22Z</time>
      </trkpt>
      <trkpt lat="42.74224" lon="0.24303">
        <ele>1589</ele>
        <time>2019-02-26T15:00:23Z</time>
      </trkpt>
      <trkpt lat="42.74228" lon="0.24301">
        <ele>1589</ele>
        <time>2019-02-26T15:00:24Z</time>
      </trkpt>
      <trkpt lat="42.74238" lon="0.24299">
        <ele>1588</ele>
        <time>2019-02-26T15:00:26Z</time>
      </trkpt>
      <trkpt lat="42.74244" lon="0.243">
        <ele>1586</ele>
        <time>2019-02-26T15:00:29Z</time>
      </trkpt>
      <trkpt lat="42.74253" lon="0.24301">
        <ele>1585</ele>
        <time>2019-02-26T15:00:31Z</time>
      </trkpt>
      <trkpt lat="42.74254" lon="0.24302">
        <ele>1585</ele>
        <time>2019-02-26T15:00:32Z</time>
      </trkpt>
      <trkpt lat="42.74261" lon="0.24302">
        <ele>1585</ele>
        <time>2019-02-26T15:00:33Z</time>
      </trkpt>
      <trkpt lat="42.74264" lon="0.24299">
        <ele>1585</ele>
        <time>2019-02-26T15:00:35Z</time>
      </trkpt>
      <trkpt lat="42.7427" lon="0.24293">
        <ele>1584</ele>
        <time>2019-02-26T15:00:36Z</time>
      </trkpt>
      <trkpt lat="42.74277" lon="0.24277">
        <ele>1582</ele>
        <time>2019-02-26T15:00:40Z</time>
      </trkpt>
      <trkpt lat="42.74294" lon="0.24246">
        <ele>1581</ele>
        <time>2019-02-26T15:00:45Z</time>
      </trkpt>
      <trkpt lat="42.74304" lon="0.24231">
        <ele>1579</ele>
        <time>2019-02-26T15:00:48Z</time>
      </trkpt>
      <trkpt lat="42.74305" lon="0.24228">
        <ele>1578</ele>
        <time>2019-02-26T15:00:49Z</time>
      </trkpt>
      <trkpt lat="42.7431" lon="0.2422">
        <ele>1577</ele>
        <time>2019-02-26T15:00:50Z</time>
      </trkpt>
      <trkpt lat="42.74312" lon="0.24218">
        <ele>1576</ele>
        <time>2019-02-26T15:00:51Z</time>
      </trkpt>
      <trkpt lat="42.74314" lon="0.24217">
        <ele>1576</ele>
        <time>2019-02-26T15:00:52Z</time>
      </trkpt>
      <trkpt lat="42.74323" lon="0.24208">
        <ele>1575</ele>
        <time>2019-02-26T15:00:53Z</time>
      </trkpt>
      <trkpt lat="42.74328" lon="0.24206">
        <ele>1574</ele>
        <time>2019-02-26T15:00:54Z</time>
      </trkpt>
      <trkpt lat="42.74343" lon="0.24183">
        <ele>1570</ele>
        <time>2019-02-26T15:00:59Z</time>
      </trkpt>
      <trkpt lat="42.7435" lon="0.24178">
        <ele>1567</ele>
        <time>2019-02-26T15:01:01Z</time>
      </trkpt>
      <trkpt lat="42.74385" lon="0.24144">
        <ele>1561</ele>
        <time>2019-02-26T15:01:06Z</time>
      </trkpt>
      <trkpt lat="42.74396" lon="0.2413">
        <ele>1558</ele>
        <time>2019-02-26T15:01:08Z</time>
      </trkpt>
      <trkpt lat="42.74399" lon="0.24126">
        <ele>1557</ele>
        <time>2019-02-26T15:01:09Z</time>
      </trkpt>
      <trkpt lat="42.74407" lon="0.24116">
        <ele>1555</ele>
        <time>2019-02-26T15:01:10Z</time>
      </trkpt>
      <trkpt lat="42.74419" lon="0.24108">
        <ele>1553</ele>
        <time>2019-02-26T15:01:12Z</time>
      </trkpt>
      <trkpt lat="42.74447" lon="0.24087">
        <ele>1550</ele>
        <time>2019-02-26T15:01:16Z</time>
      </trkpt>
      <trkpt lat="42.74465" lon="0.24075">
        <ele>1548</ele>
        <time>2019-02-26T15:01:21Z</time>
      </trkpt>
      <trkpt lat="42.74465" lon="0.24074">
        <ele>1548</ele>
        <time>2019-02-26T15:01:22Z</time>
      </trkpt>
      <trkpt lat="42.74466" lon="0.24074">
        <ele>1548</ele>
        <time>2019-02-26T15:01:23Z</time>
      </trkpt>
      <trkpt lat="42.74466" lon="0.24074">
        <ele>1548</ele>
        <time>2019-02-26T15:01:24Z</time>
      </trkpt>
      <trkpt lat="42.74466" lon="0.24073">
        <ele>1548</ele>
        <time>2019-02-26T15:01:25Z</time>
      </trkpt>
      <trkpt lat="42.74467" lon="0.24073">
        <ele>1548</ele>
        <time>2019-02-26T15:01:26Z</time>
      </trkpt>
      <trkpt lat="42.74468" lon="0.24072">
        <ele>1548</ele>
        <time>2019-02-26T15:01:29Z</time>
      </trkpt>
      <trkpt lat="42.74469" lon="0.24071">
        <ele>1548</ele>
        <time>2019-02-26T15:01:30Z</time>
      </trkpt>
      <trkpt lat="42.74471" lon="0.2407">
        <ele>1548</ele>
        <time>2019-02-26T15:01:34Z</time>
      </trkpt>
      <trkpt lat="42.74471" lon="0.2407">
        <ele>1549</ele>
        <time>2019-02-26T15:01:35Z</time>
      </trkpt>
      <trkpt lat="42.74472" lon="0.24069">
        <ele>1549</ele>
        <time>2019-02-26T15:01:36Z</time>
      </trkpt>
      <trkpt lat="42.74472" lon="0.24069">
        <ele>1549</ele>
        <time>2019-02-26T15:01:37Z</time>
      </trkpt>
      <trkpt lat="42.74472" lon="0.24069">
        <ele>1548</ele>
        <time>2019-02-26T15:01:38Z</time>
      </trkpt>
      <trkpt lat="42.74473" lon="0.24068">
        <ele>1548</ele>
        <time>2019-02-26T15:01:39Z</time>
      </trkpt>
      <trkpt lat="42.74474" lon="0.24068">
        <ele>1548</ele>
        <time>2019-02-26T15:01:40Z</time>
      </trkpt>
      <trkpt lat="42.74474" lon="0.24068">
        <ele>1548</ele>
        <time>2019-02-26T15:01:41Z</time>
      </trkpt>
      <trkpt lat="42.74475" lon="0.24068">
        <ele>1548</ele>
        <time>2019-02-26T15:01:42Z</time>
      </trkpt>
      <trkpt lat="42.74475" lon="0.24067">
        <ele>1548</ele>
        <time>2019-02-26T15:01:43Z</time>
      </trkpt>
      <trkpt lat="42.74476" lon="0.24067">
        <ele>1548</ele>
        <time>2019-02-26T15:01:44Z</time>
      </trkpt>
      <trkpt lat="42.74476" lon="0.24067">
        <ele>1548</ele>
        <time>2019-02-26T15:01:45Z</time>
      </trkpt>
      <trkpt lat="42.74477" lon="0.24067">
        <ele>1548</ele>
        <time>2019-02-26T15:01:46Z</time>
      </trkpt>
      <trkpt lat="42.74477" lon="0.24067">
        <ele>1548</ele>
        <time>2019-02-26T15:01:47Z</time>
      </trkpt>
      <trkpt lat="42.74478" lon="0.24066">
        <ele>1548</ele>
        <time>2019-02-26T15:01:48Z</time>
      </trkpt>
      <trkpt lat="42.74484" lon="0.24063">
        <ele>1547</ele>
        <time>2019-02-26T15:01:49Z</time>
      </trkpt>
      <trkpt lat="42.74501" lon="0.24053">
        <ele>1546</ele>
        <time>2019-02-26T15:01:59Z</time>
      </trkpt>
      <trkpt lat="42.74503" lon="0.24054">
        <ele>1546</ele>
        <time>2019-02-26T15:04:29Z</time>
      </trkpt>
      <trkpt lat="42.74503" lon="0.24054">
        <ele>1546</ele>
        <time>2019-02-26T15:04:30Z</time>
      </trkpt>
      <trkpt lat="42.74504" lon="0.24055">
        <ele>1546</ele>
        <time>2019-02-26T15:04:31Z</time>
      </trkpt>
      <trkpt lat="42.74504" lon="0.24055">
        <ele>1546</ele>
        <time>2019-02-26T15:04:32Z</time>
      </trkpt>
      <trkpt lat="42.74504" lon="0.24055">
        <ele>1546</ele>
        <time>2019-02-26T15:04:33Z</time>
      </trkpt>
      <trkpt lat="42.74504" lon="0.24055">
        <ele>1546</ele>
        <time>2019-02-26T15:04:34Z</time>
      </trkpt>
      <trkpt lat="42.74505" lon="0.24056">
        <ele>1546</ele>
        <time>2019-02-26T15:04:35Z</time>
      </trkpt>
      <trkpt lat="42.74506" lon="0.24057">
        <ele>1546</ele>
        <time>2019-02-26T15:04:42Z</time>
      </trkpt>
      <trkpt lat="42.74506" lon="0.24057">
        <ele>1546</ele>
        <time>2019-02-26T15:04:43Z</time>
      </trkpt>
      <trkpt lat="42.74508" lon="0.24059">
        <ele>1546</ele>
        <time>2019-02-26T15:04:49Z</time>
      </trkpt>
      <trkpt lat="42.74508" lon="0.24059">
        <ele>1546</ele>
        <time>2019-02-26T15:04:50Z</time>
      </trkpt>
      <trkpt lat="42.74508" lon="0.24059">
        <ele>1546</ele>
        <time>2019-02-26T15:04:51Z</time>
      </trkpt>
      <trkpt lat="42.74508" lon="0.24059">
        <ele>1546</ele>
        <time>2019-02-26T15:04:52Z</time>
      </trkpt>
      <trkpt lat="42.74508" lon="0.2406">
        <ele>1546</ele>
        <time>2019-02-26T15:04:53Z</time>
      </trkpt>
      <trkpt lat="42.74509" lon="0.2406">
        <ele>1546</ele>
        <time>2019-02-26T15:04:54Z</time>
      </trkpt>
      <trkpt lat="42.74509" lon="0.2406">
        <ele>1546</ele>
        <time>2019-02-26T15:04:55Z</time>
      </trkpt>
      <trkpt lat="42.74508" lon="0.24058">
        <ele>1547</ele>
        <time>2019-02-26T15:05:07Z</time>
      </trkpt>
      <trkpt lat="42.74506" lon="0.24055">
        <ele>1547</ele>
        <time>2019-02-26T15:05:25Z</time>
      </trkpt>
      <trkpt lat="42.74504" lon="0.24057">
        <ele>1548</ele>
        <time>2019-02-26T15:05:35Z</time>
      </trkpt>
      <trkpt lat="42.74503" lon="0.24055">
        <ele>1547</ele>
        <time>2019-02-26T15:05:39Z</time>
      </trkpt>
      <trkpt lat="42.74503" lon="0.24052">
        <ele>1546</ele>
        <time>2019-02-26T15:05:42Z</time>
      </trkpt>
      <trkpt lat="42.74505" lon="0.24054">
        <ele>1547</ele>
        <time>2019-02-26T15:05:49Z</time>
      </trkpt>
      <trkpt lat="42.74507" lon="0.24055">
        <ele>1545</ele>
        <time>2019-02-26T15:05:54Z</time>
      </trkpt>
      <trkpt lat="42.74505" lon="0.24053">
        <ele>1545</ele>
        <time>2019-02-26T15:06:06Z</time>
      </trkpt>
      <trkpt lat="42.74502" lon="0.24052">
        <ele>1545</ele>
        <time>2019-02-26T15:06:18Z</time>
      </trkpt>
      <trkpt lat="42.74503" lon="0.24054">
        <ele>1546</ele>
        <time>2019-02-26T15:06:41Z</time>
      </trkpt>
      <trkpt lat="42.74503" lon="0.24054">
        <ele>1546</ele>
        <time>2019-02-26T15:06:44Z</time>
      </trkpt>
      <trkpt lat="42.74508" lon="0.24055">
        <ele>1546</ele>
        <time>2019-02-26T15:07:19Z</time>
      </trkpt>
      <trkpt lat="42.74507" lon="0.24053">
        <ele>1545</ele>
        <time>2019-02-26T15:07:24Z</time>
      </trkpt>
      <trkpt lat="42.74507" lon="0.24053">
        <ele>1545</ele>
        <time>2019-02-26T15:07:25Z</time>
      </trkpt>
      <trkpt lat="42.74506" lon="0.24053">
        <ele>1545</ele>
        <time>2019-02-26T15:07:26Z</time>
      </trkpt>
      <trkpt lat="42.74506" lon="0.24053">
        <ele>1546</ele>
        <time>2019-02-26T15:07:27Z</time>
      </trkpt>
      <trkpt lat="42.74506" lon="0.24052">
        <ele>1546</ele>
        <time>2019-02-26T15:07:28Z</time>
      </trkpt>
      <trkpt lat="42.74505" lon="0.24052">
        <ele>1546</ele>
        <time>2019-02-26T15:07:29Z</time>
      </trkpt>
      <trkpt lat="42.74505" lon="0.24052">
        <ele>1546</ele>
        <time>2019-02-26T15:07:30Z</time>
      </trkpt>
      <trkpt lat="42.74505" lon="0.24052">
        <ele>1546</ele>
        <time>2019-02-26T15:07:31Z</time>
      </trkpt>
      <trkpt lat="42.74505" lon="0.24051">
        <ele>1546</ele>
        <time>2019-02-26T15:07:32Z</time>
      </trkpt>
      <trkpt lat="42.74504" lon="0.24051">
        <ele>1546</ele>
        <time>2019-02-26T15:07:33Z</time>
      </trkpt>
      <trkpt lat="42.74504" lon="0.24051">
        <ele>1546</ele>
        <time>2019-02-26T15:07:34Z</time>
      </trkpt>
      <trkpt lat="42.74504" lon="0.24051">
        <ele>1546</ele>
        <time>2019-02-26T15:07:35Z</time>
      </trkpt>
      <trkpt lat="42.74503" lon="0.2405">
        <ele>1546</ele>
        <time>2019-02-26T15:07:36Z</time>
      </trkpt>
      <trkpt lat="42.74503" lon="0.2405">
        <ele>1546</ele>
        <time>2019-02-26T15:07:37Z</time>
      </trkpt>
      <trkpt lat="42.74503" lon="0.2405">
        <ele>1546</ele>
        <time>2019-02-26T15:07:38Z</time>
      </trkpt>
      <trkpt lat="42.74502" lon="0.2405">
        <ele>1546</ele>
        <time>2019-02-26T15:07:39Z</time>
      </trkpt>
      <trkpt lat="42.74502" lon="0.24049">
        <ele>1546</ele>
        <time>2019-02-26T15:07:40Z</time>
      </trkpt>
      <trkpt lat="42.74502" lon="0.24049">
        <ele>1546</ele>
        <time>2019-02-26T15:07:41Z</time>
      </trkpt>
      <trkpt lat="42.74501" lon="0.24049">
        <ele>1546</ele>
        <time>2019-02-26T15:07:42Z</time>
      </trkpt>
      <trkpt lat="42.74504" lon="0.24049">
        <ele>1546</ele>
        <time>2019-02-26T15:08:04Z</time>
      </trkpt>
      <trkpt lat="42.74502" lon="0.24051">
        <ele>1546</ele>
        <time>2019-02-26T15:08:20Z</time>
      </trkpt>
      <trkpt lat="42.74502" lon="0.24054">
        <ele>1546</ele>
        <time>2019-02-26T15:08:26Z</time>
      </trkpt>
      <trkpt lat="42.74502" lon="0.24056">
        <ele>1546</ele>
        <time>2019-02-26T15:09:00Z</time>
      </trkpt>
      <trkpt lat="42.74508" lon="0.24055">
        <ele>1547</ele>
        <time>2019-02-26T15:09:17Z</time>
      </trkpt>
      <trkpt lat="42.74512" lon="0.24054">
        <ele>1547</ele>
        <time>2019-02-26T15:09:19Z</time>
      </trkpt>
      <trkpt lat="42.74514" lon="0.24053">
        <ele>1546</ele>
        <time>2019-02-26T15:09:20Z</time>
      </trkpt>
      <trkpt lat="42.74517" lon="0.24053">
        <ele>1545</ele>
        <time>2019-02-26T15:09:21Z</time>
      </trkpt>
      <trkpt lat="42.74519" lon="0.24053">
        <ele>1545</ele>
        <time>2019-02-26T15:09:22Z</time>
      </trkpt>
      <trkpt lat="42.74521" lon="0.24053">
        <ele>1545</ele>
        <time>2019-02-26T15:09:23Z</time>
      </trkpt>
      <trkpt lat="42.74526" lon="0.24052">
        <ele>1544</ele>
        <time>2019-02-26T15:09:25Z</time>
      </trkpt>
      <trkpt lat="42.74529" lon="0.24051">
        <ele>1544</ele>
        <time>2019-02-26T15:09:26Z</time>
      </trkpt>
      <trkpt lat="42.74532" lon="0.2405">
        <ele>1544</ele>
        <time>2019-02-26T15:09:27Z</time>
      </trkpt>
      <trkpt lat="42.74534" lon="0.24048">
        <ele>1544</ele>
        <time>2019-02-26T15:09:28Z</time>
      </trkpt>
      <trkpt lat="42.74537" lon="0.24043">
        <ele>1544</ele>
        <time>2019-02-26T15:09:30Z</time>
      </trkpt>
      <trkpt lat="42.74541" lon="0.24039">
        <ele>1543</ele>
        <time>2019-02-26T15:09:33Z</time>
      </trkpt>
      <trkpt lat="42.74543" lon="0.24035">
        <ele>1543</ele>
        <time>2019-02-26T15:09:47Z</time>
      </trkpt>
      <trkpt lat="42.74546" lon="0.24034">
        <ele>1543</ele>
        <time>2019-02-26T15:09:51Z</time>
      </trkpt>
      <trkpt lat="42.7455" lon="0.2403">
        <ele>1542</ele>
        <time>2019-02-26T15:09:53Z</time>
      </trkpt>
      <trkpt lat="42.74553" lon="0.24026">
        <ele>1542</ele>
        <time>2019-02-26T15:09:56Z</time>
      </trkpt>
      <trkpt lat="42.74555" lon="0.24024">
        <ele>1542</ele>
        <time>2019-02-26T15:09:58Z</time>
      </trkpt>
      <trkpt lat="42.74556" lon="0.24022">
        <ele>1541</ele>
        <time>2019-02-26T15:10:00Z</time>
      </trkpt>
      <trkpt lat="42.74556" lon="0.24018">
        <ele>1541</ele>
        <time>2019-02-26T15:10:08Z</time>
      </trkpt>
      <trkpt lat="42.74564" lon="0.23989">
        <ele>1539</ele>
        <time>2019-02-26T15:10:14Z</time>
      </trkpt>
      <trkpt lat="42.74566" lon="0.23984">
        <ele>1538</ele>
        <time>2019-02-26T15:10:15Z</time>
      </trkpt>
      <trkpt lat="42.74567" lon="0.2398">
        <ele>1538</ele>
        <time>2019-02-26T15:10:16Z</time>
      </trkpt>
      <trkpt lat="42.74571" lon="0.23969">
        <ele>1538</ele>
        <time>2019-02-26T15:10:19Z</time>
      </trkpt>
      <trkpt lat="42.74572" lon="0.23958">
        <ele>1537</ele>
        <time>2019-02-26T15:10:22Z</time>
      </trkpt>
      <trkpt lat="42.74572" lon="0.23953">
        <ele>1537</ele>
        <time>2019-02-26T15:10:23Z</time>
      </trkpt>
      <trkpt lat="42.74571" lon="0.23948">
        <ele>1537</ele>
        <time>2019-02-26T15:10:24Z</time>
      </trkpt>
      <trkpt lat="42.74565" lon="0.23941">
        <ele>1535</ele>
        <time>2019-02-26T15:10:26Z</time>
      </trkpt>
      <trkpt lat="42.74565" lon="0.23938">
        <ele>1534</ele>
        <time>2019-02-26T15:10:27Z</time>
      </trkpt>
      <trkpt lat="42.74566" lon="0.23937">
        <ele>1534</ele>
        <time>2019-02-26T15:10:30Z</time>
      </trkpt>
      <trkpt lat="42.74569" lon="0.23937">
        <ele>1533</ele>
        <time>2019-02-26T15:10:46Z</time>
      </trkpt>
      <trkpt lat="42.7457" lon="0.23934">
        <ele>1533</ele>
        <time>2019-02-26T15:10:52Z</time>
      </trkpt>
      <trkpt lat="42.74571" lon="0.23932">
        <ele>1533</ele>
        <time>2019-02-26T15:10:54Z</time>
      </trkpt>
      <trkpt lat="42.74571" lon="0.23929">
        <ele>1533</ele>
        <time>2019-02-26T15:10:56Z</time>
      </trkpt>
      <trkpt lat="42.74572" lon="0.23927">
        <ele>1533</ele>
        <time>2019-02-26T15:10:58Z</time>
      </trkpt>
      <trkpt lat="42.74572" lon="0.23924">
        <ele>1533</ele>
        <time>2019-02-26T15:11:01Z</time>
      </trkpt>
      <trkpt lat="42.74571" lon="0.23921">
        <ele>1533</ele>
        <time>2019-02-26T15:11:04Z</time>
      </trkpt>
      <trkpt lat="42.74569" lon="0.23923">
        <ele>1533</ele>
        <time>2019-02-26T15:11:39Z</time>
      </trkpt>
      <trkpt lat="42.74568" lon="0.23922">
        <ele>1533</ele>
        <time>2019-02-26T15:11:50Z</time>
      </trkpt>
      <trkpt lat="42.74569" lon="0.23923">
        <ele>1534</ele>
        <time>2019-02-26T15:12:35Z</time>
      </trkpt>
      <trkpt lat="42.74577" lon="0.2392">
        <ele>1532</ele>
        <time>2019-02-26T15:12:54Z</time>
      </trkpt>
      <trkpt lat="42.7458" lon="0.2392">
        <ele>1532</ele>
        <time>2019-02-26T15:12:55Z</time>
      </trkpt>
      <trkpt lat="42.74582" lon="0.23919">
        <ele>1532</ele>
        <time>2019-02-26T15:12:56Z</time>
      </trkpt>
      <trkpt lat="42.74584" lon="0.23919">
        <ele>1532</ele>
        <time>2019-02-26T15:12:57Z</time>
      </trkpt>
      <trkpt lat="42.74586" lon="0.23918">
        <ele>1532</ele>
        <time>2019-02-26T15:12:58Z</time>
      </trkpt>
      <trkpt lat="42.74589" lon="0.23916">
        <ele>1532</ele>
        <time>2019-02-26T15:13:00Z</time>
      </trkpt>
      <trkpt lat="42.74591" lon="0.23915">
        <ele>1532</ele>
        <time>2019-02-26T15:13:02Z</time>
      </trkpt>
      <trkpt lat="42.74594" lon="0.23914">
        <ele>1531</ele>
        <time>2019-02-26T15:13:04Z</time>
      </trkpt>
      <trkpt lat="42.74596" lon="0.23914">
        <ele>1531</ele>
        <time>2019-02-26T15:13:06Z</time>
      </trkpt>
      <trkpt lat="42.74601" lon="0.23913">
        <ele>1531</ele>
        <time>2019-02-26T15:13:10Z</time>
      </trkpt>
      <trkpt lat="42.74604" lon="0.23913">
        <ele>1532</ele>
        <time>2019-02-26T15:13:12Z</time>
      </trkpt>
      <trkpt lat="42.74606" lon="0.23913">
        <ele>1531</ele>
        <time>2019-02-26T15:13:14Z</time>
      </trkpt>
      <trkpt lat="42.7461" lon="0.23913">
        <ele>1531</ele>
        <time>2019-02-26T15:13:16Z</time>
      </trkpt>
      <trkpt lat="42.74613" lon="0.23912">
        <ele>1531</ele>
        <time>2019-02-26T15:13:18Z</time>
      </trkpt>
      <trkpt lat="42.74617" lon="0.23912">
        <ele>1531</ele>
        <time>2019-02-26T15:13:20Z</time>
      </trkpt>
      <trkpt lat="42.74624" lon="0.23911">
        <ele>1531</ele>
        <time>2019-02-26T15:13:24Z</time>
      </trkpt>
      <trkpt lat="42.74626" lon="0.23911">
        <ele>1531</ele>
        <time>2019-02-26T15:13:25Z</time>
      </trkpt>
      <trkpt lat="42.74628" lon="0.23911">
        <ele>1531</ele>
        <time>2019-02-26T15:13:26Z</time>
      </trkpt>
      <trkpt lat="42.7463" lon="0.2391">
        <ele>1530</ele>
        <time>2019-02-26T15:13:27Z</time>
      </trkpt>
      <trkpt lat="42.74632" lon="0.2391">
        <ele>1530</ele>
        <time>2019-02-26T15:13:28Z</time>
      </trkpt>
      <trkpt lat="42.74634" lon="0.2391">
        <ele>1530</ele>
        <time>2019-02-26T15:13:29Z</time>
      </trkpt>
      <trkpt lat="42.74635" lon="0.2391">
        <ele>1531</ele>
        <time>2019-02-26T15:13:30Z</time>
      </trkpt>
      <trkpt lat="42.74636" lon="0.2391">
        <ele>1531</ele>
        <time>2019-02-26T15:13:31Z</time>
      </trkpt>
      <trkpt lat="42.74638" lon="0.23909">
        <ele>1531</ele>
        <time>2019-02-26T15:13:33Z</time>
      </trkpt>
      <trkpt lat="42.74639" lon="0.23909">
        <ele>1531</ele>
        <time>2019-02-26T15:13:34Z</time>
      </trkpt>
      <trkpt lat="42.7464" lon="0.23909">
        <ele>1531</ele>
        <time>2019-02-26T15:13:35Z</time>
      </trkpt>
      <trkpt lat="42.74643" lon="0.2391">
        <ele>1531</ele>
        <time>2019-02-26T15:13:38Z</time>
      </trkpt>
      <trkpt lat="42.74644" lon="0.23911">
        <ele>1531</ele>
        <time>2019-02-26T15:13:40Z</time>
      </trkpt>
      <trkpt lat="42.74647" lon="0.23912">
        <ele>1531</ele>
        <time>2019-02-26T15:13:43Z</time>
      </trkpt>
      <trkpt lat="42.74652" lon="0.23913">
        <ele>1531</ele>
        <time>2019-02-26T15:13:47Z</time>
      </trkpt>
      <trkpt lat="42.74655" lon="0.23914">
        <ele>1531</ele>
        <time>2019-02-26T15:13:49Z</time>
      </trkpt>
      <trkpt lat="42.74658" lon="0.23915">
        <ele>1531</ele>
        <time>2019-02-26T15:13:51Z</time>
      </trkpt>
      <trkpt lat="42.7466" lon="0.23916">
        <ele>1531</ele>
        <time>2019-02-26T15:13:53Z</time>
      </trkpt>
      <trkpt lat="42.74661" lon="0.23917">
        <ele>1531</ele>
        <time>2019-02-26T15:13:54Z</time>
      </trkpt>
      <trkpt lat="42.74672" lon="0.23921">
        <ele>1530</ele>
        <time>2019-02-26T15:13:57Z</time>
      </trkpt>
      <trkpt lat="42.7469" lon="0.23928">
        <ele>1530</ele>
        <time>2019-02-26T15:14:04Z</time>
      </trkpt>
      <trkpt lat="42.74693" lon="0.23929">
        <ele>1530</ele>
        <time>2019-02-26T15:14:06Z</time>
      </trkpt>
      <trkpt lat="42.74696" lon="0.2393">
        <ele>1530</ele>
        <time>2019-02-26T15:14:08Z</time>
      </trkpt>
      <trkpt lat="42.74699" lon="0.23929">
        <ele>1530</ele>
        <time>2019-02-26T15:14:10Z</time>
      </trkpt>
      <trkpt lat="42.74702" lon="0.23929">
        <ele>1530</ele>
        <time>2019-02-26T15:14:12Z</time>
      </trkpt>
      <trkpt lat="42.74704" lon="0.23928">
        <ele>1530</ele>
        <time>2019-02-26T15:14:14Z</time>
      </trkpt>
      <trkpt lat="42.74708" lon="0.23927">
        <ele>1530</ele>
        <time>2019-02-26T15:14:17Z</time>
      </trkpt>
      <trkpt lat="42.74714" lon="0.23926">
        <ele>1530</ele>
        <time>2019-02-26T15:14:20Z</time>
      </trkpt>
      <trkpt lat="42.7472" lon="0.23923">
        <ele>1530</ele>
        <time>2019-02-26T15:14:23Z</time>
      </trkpt>
      <trkpt lat="42.74723" lon="0.23922">
        <ele>1530</ele>
        <time>2019-02-26T15:14:24Z</time>
      </trkpt>
      <trkpt lat="42.74731" lon="0.23919">
        <ele>1530</ele>
        <time>2019-02-26T15:14:27Z</time>
      </trkpt>
      <trkpt lat="42.74743" lon="0.23914">
        <ele>1529</ele>
        <time>2019-02-26T15:14:31Z</time>
      </trkpt>
      <trkpt lat="42.74746" lon="0.23913">
        <ele>1529</ele>
        <time>2019-02-26T15:14:32Z</time>
      </trkpt>
      <trkpt lat="42.74759" lon="0.2391">
        <ele>1528</ele>
        <time>2019-02-26T15:14:36Z</time>
      </trkpt>
      <trkpt lat="42.74762" lon="0.23909">
        <ele>1528</ele>
        <time>2019-02-26T15:14:37Z</time>
      </trkpt>
      <trkpt lat="42.74768" lon="0.23906">
        <ele>1528</ele>
        <time>2019-02-26T15:14:39Z</time>
      </trkpt>
      <trkpt lat="42.74775" lon="0.23902">
        <ele>1527</ele>
        <time>2019-02-26T15:14:41Z</time>
      </trkpt>
      <trkpt lat="42.74809" lon="0.23887">
        <ele>1526</ele>
        <time>2019-02-26T15:14:49Z</time>
      </trkpt>
      <trkpt lat="42.74821" lon="0.23882">
        <ele>1525</ele>
        <time>2019-02-26T15:14:52Z</time>
      </trkpt>
      <trkpt lat="42.74824" lon="0.2388">
        <ele>1524</ele>
        <time>2019-02-26T15:14:53Z</time>
      </trkpt>
      <trkpt lat="42.74831" lon="0.23877">
        <ele>1524</ele>
        <time>2019-02-26T15:14:55Z</time>
      </trkpt>
      <trkpt lat="42.74834" lon="0.23877">
        <ele>1524</ele>
        <time>2019-02-26T15:14:56Z</time>
      </trkpt>
      <trkpt lat="42.74837" lon="0.23877">
        <ele>1524</ele>
        <time>2019-02-26T15:14:57Z</time>
      </trkpt>
      <trkpt lat="42.7484" lon="0.23878">
        <ele>1524</ele>
        <time>2019-02-26T15:14:58Z</time>
      </trkpt>
      <trkpt lat="42.74847" lon="0.23883">
        <ele>1524</ele>
        <time>2019-02-26T15:15:02Z</time>
      </trkpt>
      <trkpt lat="42.74857" lon="0.23888">
        <ele>1524</ele>
        <time>2019-02-26T15:15:07Z</time>
      </trkpt>
      <trkpt lat="42.74858" lon="0.23889">
        <ele>1524</ele>
        <time>2019-02-26T15:15:08Z</time>
      </trkpt>
      <trkpt lat="42.7486" lon="0.23889">
        <ele>1524</ele>
        <time>2019-02-26T15:15:09Z</time>
      </trkpt>
      <trkpt lat="42.74863" lon="0.2389">
        <ele>1523</ele>
        <time>2019-02-26T15:15:11Z</time>
      </trkpt>
      <trkpt lat="42.74871" lon="0.23895">
        <ele>1523</ele>
        <time>2019-02-26T15:15:12Z</time>
      </trkpt>
      <trkpt lat="42.74878" lon="0.23899">
        <ele>1524</ele>
        <time>2019-02-26T15:15:14Z</time>
      </trkpt>
      <trkpt lat="42.74892" lon="0.23906">
        <ele>1523</ele>
        <time>2019-02-26T15:15:19Z</time>
      </trkpt>
      <trkpt lat="42.74899" lon="0.23908">
        <ele>1523</ele>
        <time>2019-02-26T15:15:21Z</time>
      </trkpt>
      <trkpt lat="42.749" lon="0.23908">
        <ele>1523</ele>
        <time>2019-02-26T15:15:22Z</time>
      </trkpt>
      <trkpt lat="42.74902" lon="0.23908">
        <ele>1523</ele>
        <time>2019-02-26T15:15:23Z</time>
      </trkpt>
      <trkpt lat="42.74905" lon="0.23909">
        <ele>1523</ele>
        <time>2019-02-26T15:15:25Z</time>
      </trkpt>
      <trkpt lat="42.74907" lon="0.23909">
        <ele>1523</ele>
        <time>2019-02-26T15:15:27Z</time>
      </trkpt>
      <trkpt lat="42.74909" lon="0.23909">
        <ele>1523</ele>
        <time>2019-02-26T15:15:30Z</time>
      </trkpt>
      <trkpt lat="42.74912" lon="0.2391">
        <ele>1523</ele>
        <time>2019-02-26T15:15:32Z</time>
      </trkpt>
      <trkpt lat="42.74915" lon="0.2391">
        <ele>1523</ele>
        <time>2019-02-26T15:15:34Z</time>
      </trkpt>
      <trkpt lat="42.74918" lon="0.2391">
        <ele>1522</ele>
        <time>2019-02-26T15:15:36Z</time>
      </trkpt>
      <trkpt lat="42.74923" lon="0.23909">
        <ele>1522</ele>
        <time>2019-02-26T15:15:39Z</time>
      </trkpt>
      <trkpt lat="42.74925" lon="0.23908">
        <ele>1522</ele>
        <time>2019-02-26T15:15:40Z</time>
      </trkpt>
      <trkpt lat="42.74939" lon="0.23905">
        <ele>1521</ele>
        <time>2019-02-26T15:15:45Z</time>
      </trkpt>
      <trkpt lat="42.74954" lon="0.23902">
        <ele>1519</ele>
        <time>2019-02-26T15:15:49Z</time>
      </trkpt>
      <trkpt lat="42.74958" lon="0.23902">
        <ele>1519</ele>
        <time>2019-02-26T15:15:50Z</time>
      </trkpt>
      <trkpt lat="42.7496" lon="0.23902">
        <ele>1519</ele>
        <time>2019-02-26T15:15:51Z</time>
      </trkpt>
      <trkpt lat="42.74962" lon="0.23902">
        <ele>1519</ele>
        <time>2019-02-26T15:15:52Z</time>
      </trkpt>
      <trkpt lat="42.7497" lon="0.239">
        <ele>1519</ele>
        <time>2019-02-26T15:15:56Z</time>
      </trkpt>
      <trkpt lat="42.74972" lon="0.23899">
        <ele>1520</ele>
        <time>2019-02-26T15:15:57Z</time>
      </trkpt>
      <trkpt lat="42.74977" lon="0.23899">
        <ele>1520</ele>
        <time>2019-02-26T15:15:59Z</time>
      </trkpt>
      <trkpt lat="42.74985" lon="0.23895">
        <ele>1520</ele>
        <time>2019-02-26T15:16:03Z</time>
      </trkpt>
      <trkpt lat="42.74989" lon="0.23895">
        <ele>1520</ele>
        <time>2019-02-26T15:16:04Z</time>
      </trkpt>
      <trkpt lat="42.74992" lon="0.23894">
        <ele>1519</ele>
        <time>2019-02-26T15:16:05Z</time>
      </trkpt>
      <trkpt lat="42.74994" lon="0.23893">
        <ele>1519</ele>
        <time>2019-02-26T15:16:06Z</time>
      </trkpt>
      <trkpt lat="42.74997" lon="0.23892">
        <ele>1519</ele>
        <time>2019-02-26T15:16:07Z</time>
      </trkpt>
      <trkpt lat="42.75001" lon="0.23889">
        <ele>1519</ele>
        <time>2019-02-26T15:16:09Z</time>
      </trkpt>
      <trkpt lat="42.75003" lon="0.23888">
        <ele>1519</ele>
        <time>2019-02-26T15:16:10Z</time>
      </trkpt>
      <trkpt lat="42.75006" lon="0.23887">
        <ele>1519</ele>
        <time>2019-02-26T15:16:11Z</time>
      </trkpt>
      <trkpt lat="42.75011" lon="0.23885">
        <ele>1519</ele>
        <time>2019-02-26T15:16:13Z</time>
      </trkpt>
      <trkpt lat="42.75013" lon="0.23885">
        <ele>1519</ele>
        <time>2019-02-26T15:16:14Z</time>
      </trkpt>
      <trkpt lat="42.75016" lon="0.23884">
        <ele>1519</ele>
        <time>2019-02-26T15:16:15Z</time>
      </trkpt>
      <trkpt lat="42.75018" lon="0.23883">
        <ele>1519</ele>
        <time>2019-02-26T15:16:16Z</time>
      </trkpt>
      <trkpt lat="42.75023" lon="0.23883">
        <ele>1519</ele>
        <time>2019-02-26T15:16:18Z</time>
      </trkpt>
      <trkpt lat="42.75025" lon="0.23882">
        <ele>1518</ele>
        <time>2019-02-26T15:16:19Z</time>
      </trkpt>
      <trkpt lat="42.75027" lon="0.23882">
        <ele>1518</ele>
        <time>2019-02-26T15:16:20Z</time>
      </trkpt>
      <trkpt lat="42.7503" lon="0.23881">
        <ele>1518</ele>
        <time>2019-02-26T15:16:21Z</time>
      </trkpt>
      <trkpt lat="42.75033" lon="0.2388">
        <ele>1518</ele>
        <time>2019-02-26T15:16:23Z</time>
      </trkpt>
      <trkpt lat="42.75035" lon="0.2388">
        <ele>1518</ele>
        <time>2019-02-26T15:16:24Z</time>
      </trkpt>
      <trkpt lat="42.75038" lon="0.23876">
        <ele>1519</ele>
        <time>2019-02-26T15:16:27Z</time>
      </trkpt>
      <trkpt lat="42.75043" lon="0.23873">
        <ele>1518</ele>
        <time>2019-02-26T15:16:34Z</time>
      </trkpt>
      <trkpt lat="42.75045" lon="0.23871">
        <ele>1518</ele>
        <time>2019-02-26T15:16:36Z</time>
      </trkpt>
      <trkpt lat="42.75052" lon="0.23867">
        <ele>1518</ele>
        <time>2019-02-26T15:16:42Z</time>
      </trkpt>
      <trkpt lat="42.75057" lon="0.23864">
        <ele>1518</ele>
        <time>2019-02-26T15:16:46Z</time>
      </trkpt>
      <trkpt lat="42.7506" lon="0.23863">
        <ele>1518</ele>
        <time>2019-02-26T15:16:48Z</time>
      </trkpt>
      <trkpt lat="42.75062" lon="0.23862">
        <ele>1518</ele>
        <time>2019-02-26T15:16:49Z</time>
      </trkpt>
      <trkpt lat="42.75065" lon="0.23861">
        <ele>1518</ele>
        <time>2019-02-26T15:16:50Z</time>
      </trkpt>
      <trkpt lat="42.75068" lon="0.23861">
        <ele>1518</ele>
        <time>2019-02-26T15:16:51Z</time>
      </trkpt>
      <trkpt lat="42.75077" lon="0.23859">
        <ele>1517</ele>
        <time>2019-02-26T15:16:54Z</time>
      </trkpt>
      <trkpt lat="42.7509" lon="0.23857">
        <ele>1516</ele>
        <time>2019-02-26T15:16:58Z</time>
      </trkpt>
      <trkpt lat="42.75092" lon="0.23857">
        <ele>1516</ele>
        <time>2019-02-26T15:16:59Z</time>
      </trkpt>
      <trkpt lat="42.75095" lon="0.23856">
        <ele>1516</ele>
        <time>2019-02-26T15:17:00Z</time>
      </trkpt>
      <trkpt lat="42.75097" lon="0.23856">
        <ele>1516</ele>
        <time>2019-02-26T15:17:01Z</time>
      </trkpt>
      <trkpt lat="42.75104" lon="0.23854">
        <ele>1516</ele>
        <time>2019-02-26T15:17:05Z</time>
      </trkpt>
      <trkpt lat="42.75106" lon="0.23855">
        <ele>1516</ele>
        <time>2019-02-26T15:17:06Z</time>
      </trkpt>
      <trkpt lat="42.75112" lon="0.23854">
        <ele>1516</ele>
        <time>2019-02-26T15:17:09Z</time>
      </trkpt>
      <trkpt lat="42.75114" lon="0.23854">
        <ele>1516</ele>
        <time>2019-02-26T15:17:10Z</time>
      </trkpt>
      <trkpt lat="42.75118" lon="0.23853">
        <ele>1516</ele>
        <time>2019-02-26T15:17:11Z</time>
      </trkpt>
      <trkpt lat="42.7512" lon="0.23851">
        <ele>1516</ele>
        <time>2019-02-26T15:17:12Z</time>
      </trkpt>
      <trkpt lat="42.75123" lon="0.2385">
        <ele>1516</ele>
        <time>2019-02-26T15:17:13Z</time>
      </trkpt>
      <trkpt lat="42.75137" lon="0.23848">
        <ele>1515</ele>
        <time>2019-02-26T15:17:18Z</time>
      </trkpt>
      <trkpt lat="42.75139" lon="0.23847">
        <ele>1515</ele>
        <time>2019-02-26T15:17:19Z</time>
      </trkpt>
      <trkpt lat="42.75142" lon="0.23846">
        <ele>1516</ele>
        <time>2019-02-26T15:17:20Z</time>
      </trkpt>
      <trkpt lat="42.75144" lon="0.23846">
        <ele>1516</ele>
        <time>2019-02-26T15:17:21Z</time>
      </trkpt>
      <trkpt lat="42.75147" lon="0.23845">
        <ele>1516</ele>
        <time>2019-02-26T15:17:22Z</time>
      </trkpt>
      <trkpt lat="42.75166" lon="0.2384">
        <ele>1514</ele>
        <time>2019-02-26T15:17:29Z</time>
      </trkpt>
      <trkpt lat="42.75172" lon="0.2384">
        <ele>1514</ele>
        <time>2019-02-26T15:17:32Z</time>
      </trkpt>
      <trkpt lat="42.75176" lon="0.23841">
        <ele>1514</ele>
        <time>2019-02-26T15:17:34Z</time>
      </trkpt>
      <trkpt lat="42.75177" lon="0.23841">
        <ele>1514</ele>
        <time>2019-02-26T15:17:35Z</time>
      </trkpt>
      <trkpt lat="42.75184" lon="0.23839">
        <ele>1514</ele>
        <time>2019-02-26T15:17:39Z</time>
      </trkpt>
      <trkpt lat="42.75186" lon="0.23838">
        <ele>1514</ele>
        <time>2019-02-26T15:17:40Z</time>
      </trkpt>
      <trkpt lat="42.75189" lon="0.23837">
        <ele>1514</ele>
        <time>2019-02-26T15:17:42Z</time>
      </trkpt>
      <trkpt lat="42.75192" lon="0.23837">
        <ele>1513</ele>
        <time>2019-02-26T15:17:44Z</time>
      </trkpt>
      <trkpt lat="42.75194" lon="0.23837">
        <ele>1513</ele>
        <time>2019-02-26T15:17:45Z</time>
      </trkpt>
      <trkpt lat="42.75206" lon="0.23836">
        <ele>1513</ele>
        <time>2019-02-26T15:17:47Z</time>
      </trkpt>
      <trkpt lat="42.75219" lon="0.23838">
        <ele>1512</ele>
        <time>2019-02-26T15:17:50Z</time>
      </trkpt>
      <trkpt lat="42.75239" lon="0.23841">
        <ele>1512</ele>
        <time>2019-02-26T15:17:56Z</time>
      </trkpt>
      <trkpt lat="42.75247" lon="0.2384">
        <ele>1511</ele>
        <time>2019-02-26T15:18:00Z</time>
      </trkpt>
      <trkpt lat="42.75251" lon="0.23838">
        <ele>1510</ele>
        <time>2019-02-26T15:18:03Z</time>
      </trkpt>
      <trkpt lat="42.75255" lon="0.23836">
        <ele>1510</ele>
        <time>2019-02-26T15:18:06Z</time>
      </trkpt>
      <trkpt lat="42.75257" lon="0.23835">
        <ele>1510</ele>
        <time>2019-02-26T15:18:07Z</time>
      </trkpt>
      <trkpt lat="42.7526" lon="0.23834">
        <ele>1510</ele>
        <time>2019-02-26T15:18:08Z</time>
      </trkpt>
      <trkpt lat="42.75268" lon="0.23831">
        <ele>1510</ele>
        <time>2019-02-26T15:18:10Z</time>
      </trkpt>
      <trkpt lat="42.75276" lon="0.2383">
        <ele>1509</ele>
        <time>2019-02-26T15:18:12Z</time>
      </trkpt>
      <trkpt lat="42.7529" lon="0.23829">
        <ele>1509</ele>
        <time>2019-02-26T15:18:16Z</time>
      </trkpt>
      <trkpt lat="42.75298" lon="0.2383">
        <ele>1508</ele>
        <time>2019-02-26T15:18:18Z</time>
      </trkpt>
      <trkpt lat="42.75302" lon="0.2383">
        <ele>1508</ele>
        <time>2019-02-26T15:18:19Z</time>
      </trkpt>
      <trkpt lat="42.75305" lon="0.23832">
        <ele>1508</ele>
        <time>2019-02-26T15:18:20Z</time>
      </trkpt>
      <trkpt lat="42.75311" lon="0.23835">
        <ele>1507</ele>
        <time>2019-02-26T15:18:22Z</time>
      </trkpt>
      <trkpt lat="42.75313" lon="0.23836">
        <ele>1506</ele>
        <time>2019-02-26T15:18:23Z</time>
      </trkpt>
      <trkpt lat="42.7532" lon="0.23838">
        <ele>1506</ele>
        <time>2019-02-26T15:18:26Z</time>
      </trkpt>
      <trkpt lat="42.75323" lon="0.2384">
        <ele>1506</ele>
        <time>2019-02-26T15:18:28Z</time>
      </trkpt>
      <trkpt lat="42.75325" lon="0.23841">
        <ele>1506</ele>
        <time>2019-02-26T15:18:29Z</time>
      </trkpt>
      <trkpt lat="42.7533" lon="0.23843">
        <ele>1506</ele>
        <time>2019-02-26T15:18:31Z</time>
      </trkpt>
      <trkpt lat="42.75332" lon="0.23844">
        <ele>1506</ele>
        <time>2019-02-26T15:18:32Z</time>
      </trkpt>
      <trkpt lat="42.75344" lon="0.2385">
        <ele>1506</ele>
        <time>2019-02-26T15:18:37Z</time>
      </trkpt>
      <trkpt lat="42.75347" lon="0.23852">
        <ele>1505</ele>
        <time>2019-02-26T15:18:38Z</time>
      </trkpt>
      <trkpt lat="42.75362" lon="0.23857">
        <ele>1504</ele>
        <time>2019-02-26T15:18:42Z</time>
      </trkpt>
      <trkpt lat="42.75366" lon="0.23859">
        <ele>1504</ele>
        <time>2019-02-26T15:18:43Z</time>
      </trkpt>
      <trkpt lat="42.75375" lon="0.23861">
        <ele>1504</ele>
        <time>2019-02-26T15:18:45Z</time>
      </trkpt>
      <trkpt lat="42.75379" lon="0.23861">
        <ele>1503</ele>
        <time>2019-02-26T15:18:46Z</time>
      </trkpt>
      <trkpt lat="42.75384" lon="0.23861">
        <ele>1503</ele>
        <time>2019-02-26T15:18:47Z</time>
      </trkpt>
      <trkpt lat="42.75388" lon="0.23861">
        <ele>1503</ele>
        <time>2019-02-26T15:18:48Z</time>
      </trkpt>
      <trkpt lat="42.75391" lon="0.2386">
        <ele>1502</ele>
        <time>2019-02-26T15:18:49Z</time>
      </trkpt>
      <trkpt lat="42.75395" lon="0.23858">
        <ele>1502</ele>
        <time>2019-02-26T15:18:50Z</time>
      </trkpt>
      <trkpt lat="42.75399" lon="0.23857">
        <ele>1501</ele>
        <time>2019-02-26T15:18:51Z</time>
      </trkpt>
      <trkpt lat="42.75413" lon="0.23848">
        <ele>1500</ele>
        <time>2019-02-26T15:18:56Z</time>
      </trkpt>
      <trkpt lat="42.75419" lon="0.23845">
        <ele>1500</ele>
        <time>2019-02-26T15:18:58Z</time>
      </trkpt>
      <trkpt lat="42.75426" lon="0.23842">
        <ele>1499</ele>
        <time>2019-02-26T15:19:01Z</time>
      </trkpt>
      <trkpt lat="42.75429" lon="0.23842">
        <ele>1499</ele>
        <time>2019-02-26T15:19:02Z</time>
      </trkpt>
      <trkpt lat="42.7543" lon="0.23841">
        <ele>1499</ele>
        <time>2019-02-26T15:19:03Z</time>
      </trkpt>
      <trkpt lat="42.75438" lon="0.23841">
        <ele>1498</ele>
        <time>2019-02-26T15:19:07Z</time>
      </trkpt>
      <trkpt lat="42.75443" lon="0.23841">
        <ele>1498</ele>
        <time>2019-02-26T15:19:09Z</time>
      </trkpt>
      <trkpt lat="42.75444" lon="0.23841">
        <ele>1498</ele>
        <time>2019-02-26T15:19:10Z</time>
      </trkpt>
      <trkpt lat="42.75446" lon="0.23844">
        <ele>1498</ele>
        <time>2019-02-26T15:19:15Z</time>
      </trkpt>
      <trkpt lat="42.75449" lon="0.23845">
        <ele>1498</ele>
        <time>2019-02-26T15:19:19Z</time>
      </trkpt>
      <trkpt lat="42.75451" lon="0.23845">
        <ele>1498</ele>
        <time>2019-02-26T15:19:21Z</time>
      </trkpt>
      <trkpt lat="42.75465" lon="0.23842">
        <ele>1497</ele>
        <time>2019-02-26T15:19:31Z</time>
      </trkpt>
      <trkpt lat="42.75467" lon="0.23841">
        <ele>1497</ele>
        <time>2019-02-26T15:19:32Z</time>
      </trkpt>
      <trkpt lat="42.75471" lon="0.2384">
        <ele>1497</ele>
        <time>2019-02-26T15:19:33Z</time>
      </trkpt>
      <trkpt lat="42.75474" lon="0.23838">
        <ele>1496</ele>
        <time>2019-02-26T15:19:34Z</time>
      </trkpt>
      <trkpt lat="42.75481" lon="0.23832">
        <ele>1496</ele>
        <time>2019-02-26T15:19:36Z</time>
      </trkpt>
      <trkpt lat="42.75485" lon="0.23829">
        <ele>1496</ele>
        <time>2019-02-26T15:19:37Z</time>
      </trkpt>
      <trkpt lat="42.75489" lon="0.23826">
        <ele>1495</ele>
        <time>2019-02-26T15:19:38Z</time>
      </trkpt>
      <trkpt lat="42.75493" lon="0.23825">
        <ele>1495</ele>
        <time>2019-02-26T15:19:39Z</time>
      </trkpt>
      <trkpt lat="42.75523" lon="0.23817">
        <ele>1493</ele>
        <time>2019-02-26T15:19:46Z</time>
      </trkpt>
      <trkpt lat="42.75527" lon="0.23815">
        <ele>1493</ele>
        <time>2019-02-26T15:19:47Z</time>
      </trkpt>
      <trkpt lat="42.75532" lon="0.23813">
        <ele>1492</ele>
        <time>2019-02-26T15:19:48Z</time>
      </trkpt>
      <trkpt lat="42.75541" lon="0.23808">
        <ele>1492</ele>
        <time>2019-02-26T15:19:50Z</time>
      </trkpt>
      <trkpt lat="42.75549" lon="0.23803">
        <ele>1492</ele>
        <time>2019-02-26T15:19:52Z</time>
      </trkpt>
      <trkpt lat="42.75557" lon="0.23799">
        <ele>1491</ele>
        <time>2019-02-26T15:19:54Z</time>
      </trkpt>
      <trkpt lat="42.75561" lon="0.23796">
        <ele>1491</ele>
        <time>2019-02-26T15:19:55Z</time>
      </trkpt>
      <trkpt lat="42.75564" lon="0.23793">
        <ele>1491</ele>
        <time>2019-02-26T15:19:56Z</time>
      </trkpt>
      <trkpt lat="42.75571" lon="0.23787">
        <ele>1490</ele>
        <time>2019-02-26T15:19:58Z</time>
      </trkpt>
      <trkpt lat="42.75575" lon="0.23784">
        <ele>1490</ele>
        <time>2019-02-26T15:19:59Z</time>
      </trkpt>
      <trkpt lat="42.75579" lon="0.23781">
        <ele>1490</ele>
        <time>2019-02-26T15:20:00Z</time>
      </trkpt>
      <trkpt lat="42.75603" lon="0.23766">
        <ele>1488</ele>
        <time>2019-02-26T15:20:07Z</time>
      </trkpt>
      <trkpt lat="42.75611" lon="0.23762">
        <ele>1488</ele>
        <time>2019-02-26T15:20:09Z</time>
      </trkpt>
      <trkpt lat="42.75614" lon="0.23761">
        <ele>1488</ele>
        <time>2019-02-26T15:20:10Z</time>
      </trkpt>
      <trkpt lat="42.75617" lon="0.2376">
        <ele>1487</ele>
        <time>2019-02-26T15:20:11Z</time>
      </trkpt>
      <trkpt lat="42.75635" lon="0.23763">
        <ele>1486</ele>
        <time>2019-02-26T15:20:19Z</time>
      </trkpt>
      <trkpt lat="42.75638" lon="0.23763">
        <ele>1486</ele>
        <time>2019-02-26T15:20:20Z</time>
      </trkpt>
      <trkpt lat="42.75646" lon="0.23762">
        <ele>1485</ele>
        <time>2019-02-26T15:20:23Z</time>
      </trkpt>
      <trkpt lat="42.75652" lon="0.23761">
        <ele>1485</ele>
        <time>2019-02-26T15:20:25Z</time>
      </trkpt>
      <trkpt lat="42.75656" lon="0.2376">
        <ele>1484</ele>
        <time>2019-02-26T15:20:26Z</time>
      </trkpt>
      <trkpt lat="42.75659" lon="0.23759">
        <ele>1484</ele>
        <time>2019-02-26T15:20:27Z</time>
      </trkpt>
      <trkpt lat="42.75663" lon="0.23758">
        <ele>1484</ele>
        <time>2019-02-26T15:20:28Z</time>
      </trkpt>
      <trkpt lat="42.75671" lon="0.23759">
        <ele>1483</ele>
        <time>2019-02-26T15:20:30Z</time>
      </trkpt>
      <trkpt lat="42.75681" lon="0.23763">
        <ele>1482</ele>
        <time>2019-02-26T15:20:33Z</time>
      </trkpt>
      <trkpt lat="42.75686" lon="0.23767">
        <ele>1482</ele>
        <time>2019-02-26T15:20:35Z</time>
      </trkpt>
      <trkpt lat="42.75693" lon="0.2377">
        <ele>1481</ele>
        <time>2019-02-26T15:20:38Z</time>
      </trkpt>
      <trkpt lat="42.75695" lon="0.23771">
        <ele>1481</ele>
        <time>2019-02-26T15:20:39Z</time>
      </trkpt>
      <trkpt lat="42.75698" lon="0.23773">
        <ele>1481</ele>
        <time>2019-02-26T15:20:40Z</time>
      </trkpt>
      <trkpt lat="42.75704" lon="0.23775">
        <ele>1481</ele>
        <time>2019-02-26T15:20:42Z</time>
      </trkpt>
      <trkpt lat="42.75708" lon="0.23776">
        <ele>1481</ele>
        <time>2019-02-26T15:20:43Z</time>
      </trkpt>
      <trkpt lat="42.75711" lon="0.23775">
        <ele>1481</ele>
        <time>2019-02-26T15:20:44Z</time>
      </trkpt>
      <trkpt lat="42.75714" lon="0.23774">
        <ele>1481</ele>
        <time>2019-02-26T15:20:45Z</time>
      </trkpt>
      <trkpt lat="42.75716" lon="0.23773">
        <ele>1481</ele>
        <time>2019-02-26T15:20:46Z</time>
      </trkpt>
      <trkpt lat="42.75719" lon="0.23771">
        <ele>1480</ele>
        <time>2019-02-26T15:20:47Z</time>
      </trkpt>
      <trkpt lat="42.75723" lon="0.23768">
        <ele>1481</ele>
        <time>2019-02-26T15:20:49Z</time>
      </trkpt>
      <trkpt lat="42.75726" lon="0.23766">
        <ele>1481</ele>
        <time>2019-02-26T15:20:52Z</time>
      </trkpt>
      <trkpt lat="42.75728" lon="0.23767">
        <ele>1481</ele>
        <time>2019-02-26T15:20:55Z</time>
      </trkpt>
      <trkpt lat="42.75729" lon="0.23769">
        <ele>1481</ele>
        <time>2019-02-26T15:21:15Z</time>
      </trkpt>
      <trkpt lat="42.75731" lon="0.23771">
        <ele>1481</ele>
        <time>2019-02-26T15:21:17Z</time>
      </trkpt>
      <trkpt lat="42.75733" lon="0.23773">
        <ele>1481</ele>
        <time>2019-02-26T15:21:20Z</time>
      </trkpt>
      <trkpt lat="42.75736" lon="0.23775">
        <ele>1481</ele>
        <time>2019-02-26T15:21:26Z</time>
      </trkpt>
      <trkpt lat="42.75741" lon="0.23779">
        <ele>1481</ele>
        <time>2019-02-26T15:21:30Z</time>
      </trkpt>
      <trkpt lat="42.75743" lon="0.2378">
        <ele>1481</ele>
        <time>2019-02-26T15:21:31Z</time>
      </trkpt>
      <trkpt lat="42.75744" lon="0.23782">
        <ele>1481</ele>
        <time>2019-02-26T15:21:33Z</time>
      </trkpt>
      <trkpt lat="42.75745" lon="0.23785">
        <ele>1481</ele>
        <time>2019-02-26T15:21:47Z</time>
      </trkpt>
      <trkpt lat="42.75747" lon="0.23786">
        <ele>1481</ele>
        <time>2019-02-26T15:22:00Z</time>
      </trkpt>
      <trkpt lat="42.75749" lon="0.23788">
        <ele>1481</ele>
        <time>2019-02-26T15:22:02Z</time>
      </trkpt>
      <trkpt lat="42.75754" lon="0.23792">
        <ele>1481</ele>
        <time>2019-02-26T15:22:06Z</time>
      </trkpt>
      <trkpt lat="42.75756" lon="0.23793">
        <ele>1481</ele>
        <time>2019-02-26T15:22:07Z</time>
      </trkpt>
      <trkpt lat="42.75762" lon="0.23797">
        <ele>1481</ele>
        <time>2019-02-26T15:22:10Z</time>
      </trkpt>
      <trkpt lat="42.75765" lon="0.23798">
        <ele>1481</ele>
        <time>2019-02-26T15:22:11Z</time>
      </trkpt>
      <trkpt lat="42.75775" lon="0.23803">
        <ele>1480</ele>
        <time>2019-02-26T15:22:14Z</time>
      </trkpt>
      <trkpt lat="42.7578" lon="0.23804">
        <ele>1480</ele>
        <time>2019-02-26T15:22:15Z</time>
      </trkpt>
      <trkpt lat="42.75786" lon="0.23806">
        <ele>1480</ele>
        <time>2019-02-26T15:22:16Z</time>
      </trkpt>
      <trkpt lat="42.75792" lon="0.23805">
        <ele>1479</ele>
        <time>2019-02-26T15:22:17Z</time>
      </trkpt>
      <trkpt lat="42.75799" lon="0.23804">
        <ele>1478</ele>
        <time>2019-02-26T15:22:18Z</time>
      </trkpt>
      <trkpt lat="42.75805" lon="0.23801">
        <ele>1477</ele>
        <time>2019-02-26T15:22:19Z</time>
      </trkpt>
      <trkpt lat="42.75844" lon="0.23783">
        <ele>1474</ele>
        <time>2019-02-26T15:22:25Z</time>
      </trkpt>
      <trkpt lat="42.7585" lon="0.23779">
        <ele>1473</ele>
        <time>2019-02-26T15:22:26Z</time>
      </trkpt>
      <trkpt lat="42.75855" lon="0.23775">
        <ele>1473</ele>
        <time>2019-02-26T15:22:27Z</time>
      </trkpt>
      <trkpt lat="42.75868" lon="0.23758">
        <ele>1472</ele>
        <time>2019-02-26T15:22:30Z</time>
      </trkpt>
      <trkpt lat="42.75896" lon="0.23725">
        <ele>1467</ele>
        <time>2019-02-26T15:22:37Z</time>
      </trkpt>
      <trkpt lat="42.759" lon="0.23722">
        <ele>1467</ele>
        <time>2019-02-26T15:22:38Z</time>
      </trkpt>
      <trkpt lat="42.75903" lon="0.23719">
        <ele>1467</ele>
        <time>2019-02-26T15:22:39Z</time>
      </trkpt>
      <trkpt lat="42.75915" lon="0.23711">
        <ele>1467</ele>
        <time>2019-02-26T15:22:43Z</time>
      </trkpt>
      <trkpt lat="42.75917" lon="0.2371">
        <ele>1467</ele>
        <time>2019-02-26T15:22:44Z</time>
      </trkpt>
      <trkpt lat="42.7592" lon="0.23708">
        <ele>1467</ele>
        <time>2019-02-26T15:22:46Z</time>
      </trkpt>
      <trkpt lat="42.75922" lon="0.23707">
        <ele>1467</ele>
        <time>2019-02-26T15:22:47Z</time>
      </trkpt>
      <trkpt lat="42.75923" lon="0.23706">
        <ele>1467</ele>
        <time>2019-02-26T15:22:48Z</time>
      </trkpt>
      <trkpt lat="42.75927" lon="0.23703">
        <ele>1467</ele>
        <time>2019-02-26T15:22:50Z</time>
      </trkpt>
      <trkpt lat="42.7593" lon="0.23701">
        <ele>1467</ele>
        <time>2019-02-26T15:22:51Z</time>
      </trkpt>
      <trkpt lat="42.75931" lon="0.23699">
        <ele>1467</ele>
        <time>2019-02-26T15:22:52Z</time>
      </trkpt>
      <trkpt lat="42.75933" lon="0.23697">
        <ele>1468</ele>
        <time>2019-02-26T15:22:53Z</time>
      </trkpt>
      <trkpt lat="42.75936" lon="0.23695">
        <ele>1468</ele>
        <time>2019-02-26T15:22:55Z</time>
      </trkpt>
      <trkpt lat="42.75938" lon="0.23693">
        <ele>1468</ele>
        <time>2019-02-26T15:22:56Z</time>
      </trkpt>
      <trkpt lat="42.75941" lon="0.23686">
        <ele>1468</ele>
        <time>2019-02-26T15:22:58Z</time>
      </trkpt>
      <trkpt lat="42.75947" lon="0.23674">
        <ele>1467</ele>
        <time>2019-02-26T15:23:02Z</time>
      </trkpt>
      <trkpt lat="42.75949" lon="0.23667">
        <ele>1467</ele>
        <time>2019-02-26T15:23:04Z</time>
      </trkpt>
      <trkpt lat="42.75956" lon="0.23652">
        <ele>1467</ele>
        <time>2019-02-26T15:23:09Z</time>
      </trkpt>
      <trkpt lat="42.75957" lon="0.23649">
        <ele>1467</ele>
        <time>2019-02-26T15:23:10Z</time>
      </trkpt>
      <trkpt lat="42.75959" lon="0.23647">
        <ele>1467</ele>
        <time>2019-02-26T15:23:11Z</time>
      </trkpt>
      <trkpt lat="42.75963" lon="0.23642">
        <ele>1467</ele>
        <time>2019-02-26T15:23:13Z</time>
      </trkpt>
      <trkpt lat="42.75965" lon="0.23641">
        <ele>1467</ele>
        <time>2019-02-26T15:23:14Z</time>
      </trkpt>
      <trkpt lat="42.75969" lon="0.23637">
        <ele>1466</ele>
        <time>2019-02-26T15:23:16Z</time>
      </trkpt>
      <trkpt lat="42.75978" lon="0.23631">
        <ele>1466</ele>
        <time>2019-02-26T15:23:21Z</time>
      </trkpt>
      <trkpt lat="42.7598" lon="0.23631">
        <ele>1466</ele>
        <time>2019-02-26T15:23:22Z</time>
      </trkpt>
      <trkpt lat="42.75981" lon="0.23631">
        <ele>1466</ele>
        <time>2019-02-26T15:23:23Z</time>
      </trkpt>
      <trkpt lat="42.75982" lon="0.2363">
        <ele>1466</ele>
        <time>2019-02-26T15:23:24Z</time>
      </trkpt>
      <trkpt lat="42.75983" lon="0.2363">
        <ele>1466</ele>
        <time>2019-02-26T15:23:25Z</time>
      </trkpt>
      <trkpt lat="42.75985" lon="0.2363">
        <ele>1466</ele>
        <time>2019-02-26T15:23:26Z</time>
      </trkpt>
      <trkpt lat="42.75994" lon="0.23627">
        <ele>1466</ele>
        <time>2019-02-26T15:23:27Z</time>
      </trkpt>
      <trkpt lat="42.75997" lon="0.23625">
        <ele>1466</ele>
        <time>2019-02-26T15:23:28Z</time>
      </trkpt>
      <trkpt lat="42.76" lon="0.23624">
        <ele>1466</ele>
        <time>2019-02-26T15:23:29Z</time>
      </trkpt>
      <trkpt lat="42.76012" lon="0.23619">
        <ele>1466</ele>
        <time>2019-02-26T15:23:34Z</time>
      </trkpt>
      <trkpt lat="42.76015" lon="0.23618">
        <ele>1466</ele>
        <time>2019-02-26T15:23:35Z</time>
      </trkpt>
      <trkpt lat="42.76017" lon="0.23616">
        <ele>1465</ele>
        <time>2019-02-26T15:23:36Z</time>
      </trkpt>
      <trkpt lat="42.76019" lon="0.23615">
        <ele>1465</ele>
        <time>2019-02-26T15:23:37Z</time>
      </trkpt>
      <trkpt lat="42.76021" lon="0.23613">
        <ele>1465</ele>
        <time>2019-02-26T15:23:38Z</time>
      </trkpt>
      <trkpt lat="42.76028" lon="0.23607">
        <ele>1465</ele>
        <time>2019-02-26T15:23:41Z</time>
      </trkpt>
      <trkpt lat="42.76029" lon="0.23606">
        <ele>1465</ele>
        <time>2019-02-26T15:23:42Z</time>
      </trkpt>
      <trkpt lat="42.76029" lon="0.23605">
        <ele>1465</ele>
        <time>2019-02-26T15:23:43Z</time>
      </trkpt>
      <trkpt lat="42.7603" lon="0.23604">
        <ele>1465</ele>
        <time>2019-02-26T15:23:44Z</time>
      </trkpt>
      <trkpt lat="42.76031" lon="0.23603">
        <ele>1465</ele>
        <time>2019-02-26T15:23:45Z</time>
      </trkpt>
      <trkpt lat="42.76042" lon="0.23588">
        <ele>1465</ele>
        <time>2019-02-26T15:23:50Z</time>
      </trkpt>
      <trkpt lat="42.76051" lon="0.23581">
        <ele>1464</ele>
        <time>2019-02-26T15:23:54Z</time>
      </trkpt>
      <trkpt lat="42.76056" lon="0.2358">
        <ele>1464</ele>
        <time>2019-02-26T15:23:59Z</time>
      </trkpt>
      <trkpt lat="42.76064" lon="0.23578">
        <ele>1464</ele>
        <time>2019-02-26T15:24:00Z</time>
      </trkpt>
      <trkpt lat="42.76071" lon="0.23573">
        <ele>1463</ele>
        <time>2019-02-26T15:24:04Z</time>
      </trkpt>
      <trkpt lat="42.7608" lon="0.23566">
        <ele>1464</ele>
        <time>2019-02-26T15:24:14Z</time>
      </trkpt>
      <trkpt lat="42.76081" lon="0.23566">
        <ele>1464</ele>
        <time>2019-02-26T15:24:15Z</time>
      </trkpt>
      <trkpt lat="42.76084" lon="0.23563">
        <ele>1464</ele>
        <time>2019-02-26T15:24:24Z</time>
      </trkpt>
      <trkpt lat="42.76085" lon="0.23563">
        <ele>1464</ele>
        <time>2019-02-26T15:24:25Z</time>
      </trkpt>
      <trkpt lat="42.76086" lon="0.23561">
        <ele>1464</ele>
        <time>2019-02-26T15:24:29Z</time>
      </trkpt>
      <trkpt lat="42.76088" lon="0.23559">
        <ele>1464</ele>
        <time>2019-02-26T15:24:32Z</time>
      </trkpt>
      <trkpt lat="42.76089" lon="0.23557">
        <ele>1464</ele>
        <time>2019-02-26T15:24:34Z</time>
      </trkpt>
      <trkpt lat="42.7609" lon="0.23556">
        <ele>1464</ele>
        <time>2019-02-26T15:24:35Z</time>
      </trkpt>
      <trkpt lat="42.76093" lon="0.23551">
        <ele>1464</ele>
        <time>2019-02-26T15:24:40Z</time>
      </trkpt>
      <trkpt lat="42.76093" lon="0.23551">
        <ele>1464</ele>
        <time>2019-02-26T15:24:41Z</time>
      </trkpt>
      <trkpt lat="42.76094" lon="0.23551">
        <ele>1464</ele>
        <time>2019-02-26T15:24:42Z</time>
      </trkpt>
      <trkpt lat="42.76094" lon="0.23551">
        <ele>1464</ele>
        <time>2019-02-26T15:24:43Z</time>
      </trkpt>
      <trkpt lat="42.76095" lon="0.2355">
        <ele>1464</ele>
        <time>2019-02-26T15:24:44Z</time>
      </trkpt>
      <trkpt lat="42.76095" lon="0.2355">
        <ele>1464</ele>
        <time>2019-02-26T15:24:45Z</time>
      </trkpt>
      <trkpt lat="42.76096" lon="0.2355">
        <ele>1464</ele>
        <time>2019-02-26T15:24:46Z</time>
      </trkpt>
      <trkpt lat="42.76096" lon="0.2355">
        <ele>1464</ele>
        <time>2019-02-26T15:24:47Z</time>
      </trkpt>
      <trkpt lat="42.76096" lon="0.23549">
        <ele>1464</ele>
        <time>2019-02-26T15:24:48Z</time>
      </trkpt>
      <trkpt lat="42.76097" lon="0.23549">
        <ele>1464</ele>
        <time>2019-02-26T15:24:49Z</time>
      </trkpt>
      <trkpt lat="42.76097" lon="0.23549">
        <ele>1464</ele>
        <time>2019-02-26T15:24:50Z</time>
      </trkpt>
      <trkpt lat="42.76103" lon="0.23546">
        <ele>1464</ele>
        <time>2019-02-26T15:24:52Z</time>
      </trkpt>
      <trkpt lat="42.76104" lon="0.23546">
        <ele>1464</ele>
        <time>2019-02-26T15:24:53Z</time>
      </trkpt>
      <trkpt lat="42.76105" lon="0.23546">
        <ele>1464</ele>
        <time>2019-02-26T15:24:54Z</time>
      </trkpt>
      <trkpt lat="42.76107" lon="0.23545">
        <ele>1464</ele>
        <time>2019-02-26T15:24:56Z</time>
      </trkpt>
      <trkpt lat="42.76108" lon="0.23545">
        <ele>1464</ele>
        <time>2019-02-26T15:24:57Z</time>
      </trkpt>
      <trkpt lat="42.76109" lon="0.23545">
        <ele>1464</ele>
        <time>2019-02-26T15:24:58Z</time>
      </trkpt>
      <trkpt lat="42.76112" lon="0.23544">
        <ele>1464</ele>
        <time>2019-02-26T15:25:01Z</time>
      </trkpt>
      <trkpt lat="42.76112" lon="0.23544">
        <ele>1464</ele>
        <time>2019-02-26T15:25:02Z</time>
      </trkpt>
      <trkpt lat="42.76112" lon="0.23543">
        <ele>1464</ele>
        <time>2019-02-26T15:25:03Z</time>
      </trkpt>
      <trkpt lat="42.76113" lon="0.23542">
        <ele>1464</ele>
        <time>2019-02-26T15:25:06Z</time>
      </trkpt>
      <trkpt lat="42.76113" lon="0.23542">
        <ele>1464</ele>
        <time>2019-02-26T15:25:07Z</time>
      </trkpt>
      <trkpt lat="42.76113" lon="0.23541">
        <ele>1464</ele>
        <time>2019-02-26T15:25:10Z</time>
      </trkpt>
      <trkpt lat="42.76114" lon="0.23541">
        <ele>1464</ele>
        <time>2019-02-26T15:25:11Z</time>
      </trkpt>
      <trkpt lat="42.76114" lon="0.2354">
        <ele>1464</ele>
        <time>2019-02-26T15:25:13Z</time>
      </trkpt>
      <trkpt lat="42.76114" lon="0.2354">
        <ele>1464</ele>
        <time>2019-02-26T15:25:14Z</time>
      </trkpt>
      <trkpt lat="42.76114" lon="0.23539">
        <ele>1464</ele>
        <time>2019-02-26T15:25:15Z</time>
      </trkpt>
      <trkpt lat="42.76115" lon="0.23539">
        <ele>1464</ele>
        <time>2019-02-26T15:25:16Z</time>
      </trkpt>
      <trkpt lat="42.76115" lon="0.23539">
        <ele>1464</ele>
        <time>2019-02-26T15:25:17Z</time>
      </trkpt>
      <trkpt lat="42.76115" lon="0.23538">
        <ele>1464</ele>
        <time>2019-02-26T15:25:18Z</time>
      </trkpt>
      <trkpt lat="42.76115" lon="0.23538">
        <ele>1464</ele>
        <time>2019-02-26T15:25:20Z</time>
      </trkpt>
      <trkpt lat="42.76116" lon="0.23537">
        <ele>1464</ele>
        <time>2019-02-26T15:25:21Z</time>
      </trkpt>
      <trkpt lat="42.76116" lon="0.23537">
        <ele>1464</ele>
        <time>2019-02-26T15:25:24Z</time>
      </trkpt>
      <trkpt lat="42.76116" lon="0.23536">
        <ele>1464</ele>
        <time>2019-02-26T15:25:25Z</time>
      </trkpt>
      <trkpt lat="42.76117" lon="0.23535">
        <ele>1464</ele>
        <time>2019-02-26T15:25:28Z</time>
      </trkpt>
      <trkpt lat="42.76117" lon="0.23535">
        <ele>1464</ele>
        <time>2019-02-26T15:25:29Z</time>
      </trkpt>
      <trkpt lat="42.76117" lon="0.23535">
        <ele>1464</ele>
        <time>2019-02-26T15:25:30Z</time>
      </trkpt>
      <trkpt lat="42.76119" lon="0.23535">
        <ele>1464</ele>
        <time>2019-02-26T15:25:32Z</time>
      </trkpt>
      <trkpt lat="42.76126" lon="0.23535">
        <ele>1464</ele>
        <time>2019-02-26T15:25:44Z</time>
      </trkpt>
      <trkpt lat="42.76127" lon="0.23535">
        <ele>1464</ele>
        <time>2019-02-26T15:25:46Z</time>
      </trkpt>
      <trkpt lat="42.76127" lon="0.23536">
        <ele>1464</ele>
        <time>2019-02-26T15:25:47Z</time>
      </trkpt>
      <trkpt lat="42.76128" lon="0.23537">
        <ele>1464</ele>
        <time>2019-02-26T15:25:50Z</time>
      </trkpt>
      <trkpt lat="42.76128" lon="0.23537">
        <ele>1464</ele>
        <time>2019-02-26T15:25:51Z</time>
      </trkpt>
      <trkpt lat="42.76129" lon="0.23537">
        <ele>1464</ele>
        <time>2019-02-26T15:25:52Z</time>
      </trkpt>
      <trkpt lat="42.76129" lon="0.23538">
        <ele>1464</ele>
        <time>2019-02-26T15:25:53Z</time>
      </trkpt>
      <trkpt lat="42.76129" lon="0.23538">
        <ele>1464</ele>
        <time>2019-02-26T15:25:54Z</time>
      </trkpt>
      <trkpt lat="42.7613" lon="0.23538">
        <ele>1464</ele>
        <time>2019-02-26T15:25:55Z</time>
      </trkpt>
      <trkpt lat="42.7613" lon="0.23539">
        <ele>1464</ele>
        <time>2019-02-26T15:25:56Z</time>
      </trkpt>
      <trkpt lat="42.7613" lon="0.23539">
        <ele>1464</ele>
        <time>2019-02-26T15:25:57Z</time>
      </trkpt>
      <trkpt lat="42.76131" lon="0.23539">
        <ele>1464</ele>
        <time>2019-02-26T15:25:58Z</time>
      </trkpt>
      <trkpt lat="42.76131" lon="0.2354">
        <ele>1463</ele>
        <time>2019-02-26T15:25:59Z</time>
      </trkpt>
      <trkpt lat="42.76131" lon="0.2354">
        <ele>1463</ele>
        <time>2019-02-26T15:26:00Z</time>
      </trkpt>
      <trkpt lat="42.76132" lon="0.2354">
        <ele>1463</ele>
        <time>2019-02-26T15:26:01Z</time>
      </trkpt>
      <trkpt lat="42.76132" lon="0.2354">
        <ele>1463</ele>
        <time>2019-02-26T15:26:02Z</time>
      </trkpt>
      <trkpt lat="42.76132" lon="0.23541">
        <ele>1463</ele>
        <time>2019-02-26T15:26:03Z</time>
      </trkpt>
      <trkpt lat="42.76133" lon="0.23541">
        <ele>1463</ele>
        <time>2019-02-26T15:26:04Z</time>
      </trkpt>
      <trkpt lat="42.76134" lon="0.23542">
        <ele>1463</ele>
        <time>2019-02-26T15:26:07Z</time>
      </trkpt>
      <trkpt lat="42.76134" lon="0.23542">
        <ele>1463</ele>
        <time>2019-02-26T15:26:08Z</time>
      </trkpt>
      <trkpt lat="42.76134" lon="0.23543">
        <ele>1463</ele>
        <time>2019-02-26T15:26:09Z</time>
      </trkpt>
      <trkpt lat="42.76135" lon="0.23543">
        <ele>1463</ele>
        <time>2019-02-26T15:26:10Z</time>
      </trkpt>
      <trkpt lat="42.76135" lon="0.23543">
        <ele>1463</ele>
        <time>2019-02-26T15:26:11Z</time>
      </trkpt>
      <trkpt lat="42.76136" lon="0.23543">
        <ele>1462</ele>
        <time>2019-02-26T15:26:12Z</time>
      </trkpt>
      <trkpt lat="42.76141" lon="0.23544">
        <ele>1462</ele>
        <time>2019-02-26T15:26:18Z</time>
      </trkpt>
      <trkpt lat="42.76141" lon="0.23544">
        <ele>1462</ele>
        <time>2019-02-26T15:26:19Z</time>
      </trkpt>
      <trkpt lat="42.76145" lon="0.23544">
        <ele>1461</ele>
        <time>2019-02-26T15:26:23Z</time>
      </trkpt>
      <trkpt lat="42.76154" lon="0.23548">
        <ele>1460</ele>
        <time>2019-02-26T15:26:27Z</time>
      </trkpt>
      <trkpt lat="42.76163" lon="0.2355">
        <ele>1459</ele>
        <time>2019-02-26T15:26:29Z</time>
      </trkpt>
      <trkpt lat="42.76166" lon="0.2355">
        <ele>1457</ele>
        <time>2019-02-26T15:26:32Z</time>
      </trkpt>
      <trkpt lat="42.76166" lon="0.2355">
        <ele>1457</ele>
        <time>2019-02-26T15:26:33Z</time>
      </trkpt>
      <trkpt lat="42.7617" lon="0.23549">
        <ele>1456</ele>
        <time>2019-02-26T15:26:38Z</time>
      </trkpt>
      <trkpt lat="42.76171" lon="0.23549">
        <ele>1456</ele>
        <time>2019-02-26T15:26:39Z</time>
      </trkpt>
      <trkpt lat="42.76192" lon="0.23547">
        <ele>1454</ele>
        <time>2019-02-26T15:27:10Z</time>
      </trkpt>
      <trkpt lat="42.76198" lon="0.23548">
        <ele>1453</ele>
        <time>2019-02-26T15:27:13Z</time>
      </trkpt>
      <trkpt lat="42.76209" lon="0.23551">
        <ele>1452</ele>
        <time>2019-02-26T15:27:14Z</time>
      </trkpt>
      <trkpt lat="42.76214" lon="0.23553">
        <ele>1451</ele>
        <time>2019-02-26T15:27:15Z</time>
      </trkpt>
      <trkpt lat="42.76227" lon="0.23557">
        <ele>1448</ele>
        <time>2019-02-26T15:27:18Z</time>
      </trkpt>
      <trkpt lat="42.7623" lon="0.23557">
        <ele>1447</ele>
        <time>2019-02-26T15:27:19Z</time>
      </trkpt>
      <trkpt lat="42.76239" lon="0.23558">
        <ele>1447</ele>
        <time>2019-02-26T15:27:20Z</time>
      </trkpt>
      <trkpt lat="42.76242" lon="0.23557">
        <ele>1445</ele>
        <time>2019-02-26T15:27:21Z</time>
      </trkpt>
      <trkpt lat="42.76266" lon="0.23555">
        <ele>1444</ele>
        <time>2019-02-26T15:27:24Z</time>
      </trkpt>
      <trkpt lat="42.76278" lon="0.23549">
        <ele>1441</ele>
        <time>2019-02-26T15:27:27Z</time>
      </trkpt>
      <trkpt lat="42.76286" lon="0.23546">
        <ele>1441</ele>
        <time>2019-02-26T15:27:28Z</time>
      </trkpt>
      <trkpt lat="42.76289" lon="0.23546">
        <ele>1441</ele>
        <time>2019-02-26T15:27:29Z</time>
      </trkpt>
      <trkpt lat="42.76298" lon="0.23543">
        <ele>1440</ele>
        <time>2019-02-26T15:27:30Z</time>
      </trkpt>
      <trkpt lat="42.76306" lon="0.2354">
        <ele>1439</ele>
        <time>2019-02-26T15:27:34Z</time>
      </trkpt>
      <trkpt lat="42.76307" lon="0.23539">
        <ele>1439</ele>
        <time>2019-02-26T15:27:35Z</time>
      </trkpt>
      <trkpt lat="42.7632" lon="0.23535">
        <ele>1437</ele>
        <time>2019-02-26T15:27:41Z</time>
      </trkpt>
      <trkpt lat="42.76327" lon="0.23532">
        <ele>1437</ele>
        <time>2019-02-26T15:27:42Z</time>
      </trkpt>
      <trkpt lat="42.76334" lon="0.23527">
        <ele>1437</ele>
        <time>2019-02-26T15:27:45Z</time>
      </trkpt>
      <trkpt lat="42.76343" lon="0.23522">
        <ele>1437</ele>
        <time>2019-02-26T15:27:48Z</time>
      </trkpt>
      <trkpt lat="42.76348" lon="0.23515">
        <ele>1436</ele>
        <time>2019-02-26T15:27:52Z</time>
      </trkpt>
      <trkpt lat="42.7635" lon="0.23514">
        <ele>1436</ele>
        <time>2019-02-26T15:27:53Z</time>
      </trkpt>
      <trkpt lat="42.76358" lon="0.23518">
        <ele>1435</ele>
        <time>2019-02-26T15:27:59Z</time>
      </trkpt>
      <trkpt lat="42.76359" lon="0.23517">
        <ele>1435</ele>
        <time>2019-02-26T15:28:00Z</time>
      </trkpt>
      <trkpt lat="42.76359" lon="0.23517">
        <ele>1435</ele>
        <time>2019-02-26T15:28:01Z</time>
      </trkpt>
      <trkpt lat="42.7636" lon="0.23517">
        <ele>1434</ele>
        <time>2019-02-26T15:28:03Z</time>
      </trkpt>
      <trkpt lat="42.7636" lon="0.23517">
        <ele>1434</ele>
        <time>2019-02-26T15:28:04Z</time>
      </trkpt>
      <trkpt lat="42.76362" lon="0.23517">
        <ele>1434</ele>
        <time>2019-02-26T15:28:07Z</time>
      </trkpt>
      <trkpt lat="42.76362" lon="0.23516">
        <ele>1433</ele>
        <time>2019-02-26T15:28:08Z</time>
      </trkpt>
      <trkpt lat="42.76363" lon="0.23516">
        <ele>1433</ele>
        <time>2019-02-26T15:28:10Z</time>
      </trkpt>
      <trkpt lat="42.76363" lon="0.23516">
        <ele>1433</ele>
        <time>2019-02-26T15:28:11Z</time>
      </trkpt>
      <trkpt lat="42.76364" lon="0.23516">
        <ele>1433</ele>
        <time>2019-02-26T15:28:13Z</time>
      </trkpt>
      <trkpt lat="42.76364" lon="0.23516">
        <ele>1433</ele>
        <time>2019-02-26T15:28:14Z</time>
      </trkpt>
      <trkpt lat="42.76366" lon="0.23515">
        <ele>1433</ele>
        <time>2019-02-26T15:28:17Z</time>
      </trkpt>
      <trkpt lat="42.76366" lon="0.23515">
        <ele>1434</ele>
        <time>2019-02-26T15:28:18Z</time>
      </trkpt>
      <trkpt lat="42.76367" lon="0.23515">
        <ele>1434</ele>
        <time>2019-02-26T15:28:20Z</time>
      </trkpt>
      <trkpt lat="42.76367" lon="0.23515">
        <ele>1434</ele>
        <time>2019-02-26T15:28:21Z</time>
      </trkpt>
      <trkpt lat="42.76368" lon="0.23515">
        <ele>1434</ele>
        <time>2019-02-26T15:28:22Z</time>
      </trkpt>
      <trkpt lat="42.76377" lon="0.23518">
        <ele>1434</ele>
        <time>2019-02-26T15:28:28Z</time>
      </trkpt>
      <trkpt lat="42.76379" lon="0.23519">
        <ele>1433</ele>
        <time>2019-02-26T15:28:34Z</time>
      </trkpt>
      <trkpt lat="42.7638" lon="0.23519">
        <ele>1433</ele>
        <time>2019-02-26T15:28:35Z</time>
      </trkpt>
      <trkpt lat="42.76388" lon="0.23524">
        <ele>1433</ele>
        <time>2019-02-26T15:28:42Z</time>
      </trkpt>
      <trkpt lat="42.76396" lon="0.23528">
        <ele>1433</ele>
        <time>2019-02-26T15:28:49Z</time>
      </trkpt>
      <trkpt lat="42.76396" lon="0.23528">
        <ele>1433</ele>
        <time>2019-02-26T15:28:50Z</time>
      </trkpt>
      <trkpt lat="42.76396" lon="0.23528">
        <ele>1433</ele>
        <time>2019-02-26T15:28:51Z</time>
      </trkpt>
      <trkpt lat="42.76397" lon="0.23527">
        <ele>1433</ele>
        <time>2019-02-26T15:28:53Z</time>
      </trkpt>
      <trkpt lat="42.76397" lon="0.23527">
        <ele>1433</ele>
        <time>2019-02-26T15:28:54Z</time>
      </trkpt>
      <trkpt lat="42.76397" lon="0.23526">
        <ele>1433</ele>
        <time>2019-02-26T15:28:55Z</time>
      </trkpt>
      <trkpt lat="42.76398" lon="0.23525">
        <ele>1433</ele>
        <time>2019-02-26T15:28:58Z</time>
      </trkpt>
      <trkpt lat="42.76398" lon="0.23525">
        <ele>1433</ele>
        <time>2019-02-26T15:28:59Z</time>
      </trkpt>
      <trkpt lat="42.76398" lon="0.23525">
        <ele>1433</ele>
        <time>2019-02-26T15:29:01Z</time>
      </trkpt>
      <trkpt lat="42.76399" lon="0.23524">
        <ele>1433</ele>
        <time>2019-02-26T15:29:02Z</time>
      </trkpt>
      <trkpt lat="42.76399" lon="0.23524">
        <ele>1433</ele>
        <time>2019-02-26T15:29:03Z</time>
      </trkpt>
      <trkpt lat="42.76399" lon="0.23524">
        <ele>1433</ele>
        <time>2019-02-26T15:29:04Z</time>
      </trkpt>
      <trkpt lat="42.76399" lon="0.23523">
        <ele>1433</ele>
        <time>2019-02-26T15:29:05Z</time>
      </trkpt>
      <trkpt lat="42.764" lon="0.23523">
        <ele>1433</ele>
        <time>2019-02-26T15:29:06Z</time>
      </trkpt>
      <trkpt lat="42.764" lon="0.23522">
        <ele>1433</ele>
        <time>2019-02-26T15:29:08Z</time>
      </trkpt>
      <trkpt lat="42.764" lon="0.23522">
        <ele>1433</ele>
        <time>2019-02-26T15:29:09Z</time>
      </trkpt>
      <trkpt lat="42.76401" lon="0.23521">
        <ele>1433</ele>
        <time>2019-02-26T15:29:12Z</time>
      </trkpt>
      <trkpt lat="42.76401" lon="0.23521">
        <ele>1433</ele>
        <time>2019-02-26T15:29:13Z</time>
      </trkpt>
      <trkpt lat="42.76401" lon="0.2352">
        <ele>1433</ele>
        <time>2019-02-26T15:29:14Z</time>
      </trkpt>
      <trkpt lat="42.76402" lon="0.2352">
        <ele>1432</ele>
        <time>2019-02-26T15:29:16Z</time>
      </trkpt>
      <trkpt lat="42.76402" lon="0.2352">
        <ele>1432</ele>
        <time>2019-02-26T15:29:17Z</time>
      </trkpt>
      <trkpt lat="42.76402" lon="0.23519">
        <ele>1432</ele>
        <time>2019-02-26T15:29:18Z</time>
      </trkpt>
      <trkpt lat="42.76411" lon="0.23516">
        <ele>1431</ele>
        <time>2019-02-26T15:29:27Z</time>
      </trkpt>
      <trkpt lat="42.76414" lon="0.23517">
        <ele>1431</ele>
        <time>2019-02-26T15:29:29Z</time>
      </trkpt>
      <trkpt lat="42.76415" lon="0.23518">
        <ele>1431</ele>
        <time>2019-02-26T15:29:30Z</time>
      </trkpt>
      <trkpt lat="42.76416" lon="0.23519">
        <ele>1431</ele>
        <time>2019-02-26T15:29:31Z</time>
      </trkpt>
      <trkpt lat="42.76418" lon="0.2352">
        <ele>1431</ele>
        <time>2019-02-26T15:29:33Z</time>
      </trkpt>
      <trkpt lat="42.76419" lon="0.23521">
        <ele>1431</ele>
        <time>2019-02-26T15:29:34Z</time>
      </trkpt>
      <trkpt lat="42.7642" lon="0.23521">
        <ele>1431</ele>
        <time>2019-02-26T15:29:35Z</time>
      </trkpt>
      <trkpt lat="42.7642" lon="0.23522">
        <ele>1431</ele>
        <time>2019-02-26T15:29:37Z</time>
      </trkpt>
      <trkpt lat="42.7642" lon="0.23522">
        <ele>1430</ele>
        <time>2019-02-26T15:29:39Z</time>
      </trkpt>
      <trkpt lat="42.76421" lon="0.23522">
        <ele>1430</ele>
        <time>2019-02-26T15:29:40Z</time>
      </trkpt>
      <trkpt lat="42.76421" lon="0.23522">
        <ele>1430</ele>
        <time>2019-02-26T15:29:41Z</time>
      </trkpt>
      <trkpt lat="42.76421" lon="0.23522">
        <ele>1430</ele>
        <time>2019-02-26T15:29:43Z</time>
      </trkpt>
      <trkpt lat="42.76422" lon="0.23522">
        <ele>1430</ele>
        <time>2019-02-26T15:29:45Z</time>
      </trkpt>
      <trkpt lat="42.76423" lon="0.23523">
        <ele>1430</ele>
        <time>2019-02-26T15:29:49Z</time>
      </trkpt>
      <trkpt lat="42.76423" lon="0.23523">
        <ele>1430</ele>
        <time>2019-02-26T15:29:51Z</time>
      </trkpt>
      <trkpt lat="42.76423" lon="0.23523">
        <ele>1430</ele>
        <time>2019-02-26T15:29:52Z</time>
      </trkpt>
      <trkpt lat="42.76423" lon="0.23523">
        <ele>1430</ele>
        <time>2019-02-26T15:29:53Z</time>
      </trkpt>
      <trkpt lat="42.76424" lon="0.23523">
        <ele>1430</ele>
        <time>2019-02-26T15:29:55Z</time>
      </trkpt>
      <trkpt lat="42.76424" lon="0.23523">
        <ele>1430</ele>
        <time>2019-02-26T15:29:57Z</time>
      </trkpt>
      <trkpt lat="42.76425" lon="0.23523">
        <ele>1430</ele>
        <time>2019-02-26T15:29:59Z</time>
      </trkpt>
      <trkpt lat="42.76433" lon="0.23527">
        <ele>1429</ele>
        <time>2019-02-26T15:30:02Z</time>
      </trkpt>
      <trkpt lat="42.76435" lon="0.23528">
        <ele>1429</ele>
        <time>2019-02-26T15:30:03Z</time>
      </trkpt>
      <trkpt lat="42.76436" lon="0.23528">
        <ele>1429</ele>
        <time>2019-02-26T15:30:04Z</time>
      </trkpt>
      <trkpt lat="42.76437" lon="0.23529">
        <ele>1429</ele>
        <time>2019-02-26T15:30:05Z</time>
      </trkpt>
      <trkpt lat="42.76448" lon="0.23534">
        <ele>1429</ele>
        <time>2019-02-26T15:30:13Z</time>
      </trkpt>
      <trkpt lat="42.76449" lon="0.23536">
        <ele>1430</ele>
        <time>2019-02-26T15:30:15Z</time>
      </trkpt>
      <trkpt lat="42.76454" lon="0.23543">
        <ele>1430</ele>
        <time>2019-02-26T15:30:27Z</time>
      </trkpt>
      <trkpt lat="42.76455" lon="0.23544">
        <ele>1430</ele>
        <time>2019-02-26T15:30:28Z</time>
      </trkpt>
      <trkpt lat="42.76464" lon="0.23544">
        <ele>1430</ele>
        <time>2019-02-26T15:30:38Z</time>
      </trkpt>
      <trkpt lat="42.76465" lon="0.23545">
        <ele>1430</ele>
        <time>2019-02-26T15:30:39Z</time>
      </trkpt>
      <trkpt lat="42.76466" lon="0.23546">
        <ele>1430</ele>
        <time>2019-02-26T15:30:41Z</time>
      </trkpt>
      <trkpt lat="42.76467" lon="0.23546">
        <ele>1430</ele>
        <time>2019-02-26T15:30:42Z</time>
      </trkpt>
      <trkpt lat="42.76468" lon="0.23547">
        <ele>1429</ele>
        <time>2019-02-26T15:30:43Z</time>
      </trkpt>
      <trkpt lat="42.76468" lon="0.23547">
        <ele>1429</ele>
        <time>2019-02-26T15:30:44Z</time>
      </trkpt>
      <trkpt lat="42.76471" lon="0.23549">
        <ele>1429</ele>
        <time>2019-02-26T15:30:47Z</time>
      </trkpt>
      <trkpt lat="42.76473" lon="0.23548">
        <ele>1429</ele>
        <time>2019-02-26T15:30:49Z</time>
      </trkpt>
      <trkpt lat="42.76474" lon="0.23549">
        <ele>1429</ele>
        <time>2019-02-26T15:30:50Z</time>
      </trkpt>
      <trkpt lat="42.76475" lon="0.23549">
        <ele>1429</ele>
        <time>2019-02-26T15:30:51Z</time>
      </trkpt>
      <trkpt lat="42.76475" lon="0.2355">
        <ele>1429</ele>
        <time>2019-02-26T15:30:52Z</time>
      </trkpt>
      <trkpt lat="42.76476" lon="0.23551">
        <ele>1429</ele>
        <time>2019-02-26T15:30:53Z</time>
      </trkpt>
      <trkpt lat="42.76477" lon="0.23551">
        <ele>1429</ele>
        <time>2019-02-26T15:30:54Z</time>
      </trkpt>
      <trkpt lat="42.76478" lon="0.23551">
        <ele>1429</ele>
        <time>2019-02-26T15:30:55Z</time>
      </trkpt>
      <trkpt lat="42.76479" lon="0.2355">
        <ele>1429</ele>
        <time>2019-02-26T15:30:56Z</time>
      </trkpt>
      <trkpt lat="42.7648" lon="0.2355">
        <ele>1429</ele>
        <time>2019-02-26T15:30:57Z</time>
      </trkpt>
      <trkpt lat="42.76484" lon="0.23548">
        <ele>1429</ele>
        <time>2019-02-26T15:31:01Z</time>
      </trkpt>
      <trkpt lat="42.76485" lon="0.23547">
        <ele>1429</ele>
        <time>2019-02-26T15:31:02Z</time>
      </trkpt>
      <trkpt lat="42.76485" lon="0.23546">
        <ele>1429</ele>
        <time>2019-02-26T15:31:03Z</time>
      </trkpt>
      <trkpt lat="42.76486" lon="0.23546">
        <ele>1429</ele>
        <time>2019-02-26T15:31:04Z</time>
      </trkpt>
      <trkpt lat="42.76488" lon="0.23547">
        <ele>1429</ele>
        <time>2019-02-26T15:31:06Z</time>
      </trkpt>
      <trkpt lat="42.76488" lon="0.23548">
        <ele>1429</ele>
        <time>2019-02-26T15:31:07Z</time>
      </trkpt>
      <trkpt lat="42.7649" lon="0.2355">
        <ele>1429</ele>
        <time>2019-02-26T15:31:11Z</time>
      </trkpt>
      <trkpt lat="42.76491" lon="0.2355">
        <ele>1429</ele>
        <time>2019-02-26T15:31:12Z</time>
      </trkpt>
      <trkpt lat="42.76493" lon="0.23552">
        <ele>1429</ele>
        <time>2019-02-26T15:31:15Z</time>
      </trkpt>
      <trkpt lat="42.76493" lon="0.23552">
        <ele>1429</ele>
        <time>2019-02-26T15:31:16Z</time>
      </trkpt>
      <trkpt lat="42.76494" lon="0.23553">
        <ele>1429</ele>
        <time>2019-02-26T15:31:17Z</time>
      </trkpt>
      <trkpt lat="42.76494" lon="0.23553">
        <ele>1429</ele>
        <time>2019-02-26T15:31:18Z</time>
      </trkpt>
      <trkpt lat="42.76502" lon="0.23562">
        <ele>1428</ele>
        <time>2019-02-26T15:31:25Z</time>
      </trkpt>
      <trkpt lat="42.76503" lon="0.23564">
        <ele>1427</ele>
        <time>2019-02-26T15:31:28Z</time>
      </trkpt>
      <trkpt lat="42.76504" lon="0.23565">
        <ele>1427</ele>
        <time>2019-02-26T15:31:29Z</time>
      </trkpt>
      <trkpt lat="42.76505" lon="0.23567">
        <ele>1426</ele>
        <time>2019-02-26T15:31:32Z</time>
      </trkpt>
      <trkpt lat="42.76509" lon="0.23573">
        <ele>1426</ele>
        <time>2019-02-26T15:31:33Z</time>
      </trkpt>
      <trkpt lat="42.76511" lon="0.23574">
        <ele>1426</ele>
        <time>2019-02-26T15:31:34Z</time>
      </trkpt>
      <trkpt lat="42.76512" lon="0.23575">
        <ele>1426</ele>
        <time>2019-02-26T15:31:35Z</time>
      </trkpt>
      <trkpt lat="42.76515" lon="0.23578">
        <ele>1425</ele>
        <time>2019-02-26T15:31:38Z</time>
      </trkpt>
      <trkpt lat="42.76516" lon="0.23578">
        <ele>1425</ele>
        <time>2019-02-26T15:31:39Z</time>
      </trkpt>
      <trkpt lat="42.76519" lon="0.23581">
        <ele>1424</ele>
        <time>2019-02-26T15:31:42Z</time>
      </trkpt>
      <trkpt lat="42.7652" lon="0.23581">
        <ele>1424</ele>
        <time>2019-02-26T15:31:43Z</time>
      </trkpt>
      <trkpt lat="42.7652" lon="0.23582">
        <ele>1424</ele>
        <time>2019-02-26T15:31:44Z</time>
      </trkpt>
      <trkpt lat="42.76521" lon="0.23583">
        <ele>1424</ele>
        <time>2019-02-26T15:31:45Z</time>
      </trkpt>
      <trkpt lat="42.76522" lon="0.23583">
        <ele>1424</ele>
        <time>2019-02-26T15:31:46Z</time>
      </trkpt>
      <trkpt lat="42.76523" lon="0.23584">
        <ele>1424</ele>
        <time>2019-02-26T15:31:47Z</time>
      </trkpt>
      <trkpt lat="42.76524" lon="0.23584">
        <ele>1424</ele>
        <time>2019-02-26T15:31:48Z</time>
      </trkpt>
      <trkpt lat="42.76525" lon="0.23585">
        <ele>1424</ele>
        <time>2019-02-26T15:31:49Z</time>
      </trkpt>
      <trkpt lat="42.76532" lon="0.23595">
        <ele>1422</ele>
        <time>2019-02-26T15:31:58Z</time>
      </trkpt>
      <trkpt lat="42.76532" lon="0.23595">
        <ele>1421</ele>
        <time>2019-02-26T15:31:59Z</time>
      </trkpt>
      <trkpt lat="42.76533" lon="0.23596">
        <ele>1420</ele>
        <time>2019-02-26T15:32:01Z</time>
      </trkpt>
      <trkpt lat="42.76533" lon="0.23596">
        <ele>1420</ele>
        <time>2019-02-26T15:32:02Z</time>
      </trkpt>
      <trkpt lat="42.76534" lon="0.23597">
        <ele>1420</ele>
        <time>2019-02-26T15:32:03Z</time>
      </trkpt>
      <trkpt lat="42.76534" lon="0.23597">
        <ele>1420</ele>
        <time>2019-02-26T15:32:04Z</time>
      </trkpt>
      <trkpt lat="42.76535" lon="0.23598">
        <ele>1419</ele>
        <time>2019-02-26T15:32:06Z</time>
      </trkpt>
      <trkpt lat="42.76547" lon="0.23612">
        <ele>1417</ele>
        <time>2019-02-26T15:32:15Z</time>
      </trkpt>
      <trkpt lat="42.76552" lon="0.23623">
        <ele>1416</ele>
        <time>2019-02-26T15:32:24Z</time>
      </trkpt>
      <trkpt lat="42.76553" lon="0.23624">
        <ele>1416</ele>
        <time>2019-02-26T15:32:25Z</time>
      </trkpt>
      <trkpt lat="42.76554" lon="0.23625">
        <ele>1415</ele>
        <time>2019-02-26T15:32:26Z</time>
      </trkpt>
      <trkpt lat="42.76555" lon="0.23625">
        <ele>1415</ele>
        <time>2019-02-26T15:32:27Z</time>
      </trkpt>
      <trkpt lat="42.76555" lon="0.23626">
        <ele>1415</ele>
        <time>2019-02-26T15:32:28Z</time>
      </trkpt>
      <trkpt lat="42.76556" lon="0.23627">
        <ele>1415</ele>
        <time>2019-02-26T15:32:29Z</time>
      </trkpt>
      <trkpt lat="42.76557" lon="0.23628">
        <ele>1415</ele>
        <time>2019-02-26T15:32:30Z</time>
      </trkpt>
      <trkpt lat="42.76558" lon="0.23629">
        <ele>1415</ele>
        <time>2019-02-26T15:32:31Z</time>
      </trkpt>
      <trkpt lat="42.76558" lon="0.23629">
        <ele>1415</ele>
        <time>2019-02-26T15:32:32Z</time>
      </trkpt>
      <trkpt lat="42.76559" lon="0.2363">
        <ele>1415</ele>
        <time>2019-02-26T15:32:33Z</time>
      </trkpt>
      <trkpt lat="42.7656" lon="0.23631">
        <ele>1415</ele>
        <time>2019-02-26T15:32:34Z</time>
      </trkpt>
      <trkpt lat="42.76565" lon="0.23635">
        <ele>1415</ele>
        <time>2019-02-26T15:32:39Z</time>
      </trkpt>
      <trkpt lat="42.76566" lon="0.23635">
        <ele>1415</ele>
        <time>2019-02-26T15:32:40Z</time>
      </trkpt>
      <trkpt lat="42.76567" lon="0.23636">
        <ele>1415</ele>
        <time>2019-02-26T15:32:41Z</time>
      </trkpt>
      <trkpt lat="42.76568" lon="0.23637">
        <ele>1415</ele>
        <time>2019-02-26T15:32:42Z</time>
      </trkpt>
      <trkpt lat="42.76569" lon="0.23639">
        <ele>1415</ele>
        <time>2019-02-26T15:32:44Z</time>
      </trkpt>
      <trkpt lat="42.76573" lon="0.23646">
        <ele>1415</ele>
        <time>2019-02-26T15:32:50Z</time>
      </trkpt>
      <trkpt lat="42.76575" lon="0.23652">
        <ele>1415</ele>
        <time>2019-02-26T15:32:54Z</time>
      </trkpt>
      <trkpt lat="42.76582" lon="0.23661">
        <ele>1414</ele>
        <time>2019-02-26T15:33:01Z</time>
      </trkpt>
      <trkpt lat="42.76582" lon="0.23662">
        <ele>1414</ele>
        <time>2019-02-26T15:33:02Z</time>
      </trkpt>
      <trkpt lat="42.76586" lon="0.23669">
        <ele>1414</ele>
        <time>2019-02-26T15:33:07Z</time>
      </trkpt>
      <trkpt lat="42.76586" lon="0.2367">
        <ele>1414</ele>
        <time>2019-02-26T15:33:08Z</time>
      </trkpt>
      <trkpt lat="42.76587" lon="0.23671">
        <ele>1414</ele>
        <time>2019-02-26T15:33:09Z</time>
      </trkpt>
      <trkpt lat="42.76587" lon="0.23672">
        <ele>1414</ele>
        <time>2019-02-26T15:33:10Z</time>
      </trkpt>
      <trkpt lat="42.76589" lon="0.23675">
        <ele>1414</ele>
        <time>2019-02-26T15:33:12Z</time>
      </trkpt>
      <trkpt lat="42.76589" lon="0.23676">
        <ele>1414</ele>
        <time>2019-02-26T15:33:13Z</time>
      </trkpt>
      <trkpt lat="42.76595" lon="0.23686">
        <ele>1413</ele>
        <time>2019-02-26T15:33:20Z</time>
      </trkpt>
      <trkpt lat="42.76596" lon="0.23687">
        <ele>1413</ele>
        <time>2019-02-26T15:33:21Z</time>
      </trkpt>
      <trkpt lat="42.76599" lon="0.23692">
        <ele>1413</ele>
        <time>2019-02-26T15:33:25Z</time>
      </trkpt>
      <trkpt lat="42.76603" lon="0.23695">
        <ele>1413</ele>
        <time>2019-02-26T15:33:29Z</time>
      </trkpt>
      <trkpt lat="42.76604" lon="0.23696">
        <ele>1413</ele>
        <time>2019-02-26T15:33:30Z</time>
      </trkpt>
      <trkpt lat="42.76605" lon="0.23697">
        <ele>1413</ele>
        <time>2019-02-26T15:33:31Z</time>
      </trkpt>
      <trkpt lat="42.76606" lon="0.23698">
        <ele>1413</ele>
        <time>2019-02-26T15:33:32Z</time>
      </trkpt>
      <trkpt lat="42.76607" lon="0.23699">
        <ele>1413</ele>
        <time>2019-02-26T15:33:33Z</time>
      </trkpt>
      <trkpt lat="42.76608" lon="0.237">
        <ele>1412</ele>
        <time>2019-02-26T15:33:34Z</time>
      </trkpt>
      <trkpt lat="42.76609" lon="0.237">
        <ele>1412</ele>
        <time>2019-02-26T15:33:35Z</time>
      </trkpt>
      <trkpt lat="42.76609" lon="0.23701">
        <ele>1412</ele>
        <time>2019-02-26T15:33:36Z</time>
      </trkpt>
      <trkpt lat="42.7661" lon="0.23702">
        <ele>1412</ele>
        <time>2019-02-26T15:33:37Z</time>
      </trkpt>
      <trkpt lat="42.76611" lon="0.23702">
        <ele>1412</ele>
        <time>2019-02-26T15:33:38Z</time>
      </trkpt>
      <trkpt lat="42.76612" lon="0.23703">
        <ele>1411</ele>
        <time>2019-02-26T15:33:39Z</time>
      </trkpt>
      <trkpt lat="42.76613" lon="0.23704">
        <ele>1411</ele>
        <time>2019-02-26T15:33:40Z</time>
      </trkpt>
      <trkpt lat="42.76614" lon="0.23705">
        <ele>1411</ele>
        <time>2019-02-26T15:33:41Z</time>
      </trkpt>
      <trkpt lat="42.76615" lon="0.23705">
        <ele>1411</ele>
        <time>2019-02-26T15:33:42Z</time>
      </trkpt>
      <trkpt lat="42.76617" lon="0.23706">
        <ele>1410</ele>
        <time>2019-02-26T15:33:44Z</time>
      </trkpt>
      <trkpt lat="42.76618" lon="0.23707">
        <ele>1410</ele>
        <time>2019-02-26T15:33:45Z</time>
      </trkpt>
      <trkpt lat="42.76621" lon="0.23708">
        <ele>1410</ele>
        <time>2019-02-26T15:33:48Z</time>
      </trkpt>
      <trkpt lat="42.76622" lon="0.23709">
        <ele>1410</ele>
        <time>2019-02-26T15:33:49Z</time>
      </trkpt>
      <trkpt lat="42.76624" lon="0.2371">
        <ele>1409</ele>
        <time>2019-02-26T15:33:51Z</time>
      </trkpt>
      <trkpt lat="42.76625" lon="0.2371">
        <ele>1409</ele>
        <time>2019-02-26T15:33:52Z</time>
      </trkpt>
      <trkpt lat="42.76626" lon="0.2371">
        <ele>1409</ele>
        <time>2019-02-26T15:33:53Z</time>
      </trkpt>
      <trkpt lat="42.76627" lon="0.2371">
        <ele>1409</ele>
        <time>2019-02-26T15:33:54Z</time>
      </trkpt>
      <trkpt lat="42.76628" lon="0.23709">
        <ele>1408</ele>
        <time>2019-02-26T15:33:55Z</time>
      </trkpt>
      <trkpt lat="42.76629" lon="0.23709">
        <ele>1408</ele>
        <time>2019-02-26T15:33:56Z</time>
      </trkpt>
      <trkpt lat="42.76629" lon="0.23709">
        <ele>1408</ele>
        <time>2019-02-26T15:33:57Z</time>
      </trkpt>
      <trkpt lat="42.7663" lon="0.23709">
        <ele>1408</ele>
        <time>2019-02-26T15:33:58Z</time>
      </trkpt>
      <trkpt lat="42.76631" lon="0.23709">
        <ele>1408</ele>
        <time>2019-02-26T15:33:59Z</time>
      </trkpt>
      <trkpt lat="42.76632" lon="0.23709">
        <ele>1408</ele>
        <time>2019-02-26T15:34:00Z</time>
      </trkpt>
      <trkpt lat="42.76633" lon="0.23708">
        <ele>1408</ele>
        <time>2019-02-26T15:34:01Z</time>
      </trkpt>
      <trkpt lat="42.76643" lon="0.23709">
        <ele>1406</ele>
        <time>2019-02-26T15:34:09Z</time>
      </trkpt>
      <trkpt lat="42.76642" lon="0.2371">
        <ele>1406</ele>
        <time>2019-02-26T15:34:10Z</time>
      </trkpt>
      <trkpt lat="42.76642" lon="0.23711">
        <ele>1406</ele>
        <time>2019-02-26T15:34:11Z</time>
      </trkpt>
      <trkpt lat="42.76641" lon="0.23712">
        <ele>1406</ele>
        <time>2019-02-26T15:34:12Z</time>
      </trkpt>
      <trkpt lat="42.76641" lon="0.23713">
        <ele>1406</ele>
        <time>2019-02-26T15:34:13Z</time>
      </trkpt>
      <trkpt lat="42.76641" lon="0.23714">
        <ele>1406</ele>
        <time>2019-02-26T15:34:14Z</time>
      </trkpt>
      <trkpt lat="42.7664" lon="0.23715">
        <ele>1406</ele>
        <time>2019-02-26T15:34:15Z</time>
      </trkpt>
      <trkpt lat="42.7664" lon="0.23716">
        <ele>1406</ele>
        <time>2019-02-26T15:34:16Z</time>
      </trkpt>
      <trkpt lat="42.76639" lon="0.23718">
        <ele>1406</ele>
        <time>2019-02-26T15:34:18Z</time>
      </trkpt>
      <trkpt lat="42.76639" lon="0.23719">
        <ele>1406</ele>
        <time>2019-02-26T15:34:19Z</time>
      </trkpt>
      <trkpt lat="42.76639" lon="0.2372">
        <ele>1406</ele>
        <time>2019-02-26T15:34:20Z</time>
      </trkpt>
      <trkpt lat="42.76639" lon="0.2372">
        <ele>1406</ele>
        <time>2019-02-26T15:34:21Z</time>
      </trkpt>
      <trkpt lat="42.76639" lon="0.23721">
        <ele>1407</ele>
        <time>2019-02-26T15:34:22Z</time>
      </trkpt>
      <trkpt lat="42.76639" lon="0.23721">
        <ele>1407</ele>
        <time>2019-02-26T15:34:23Z</time>
      </trkpt>
      <trkpt lat="42.7664" lon="0.23721">
        <ele>1406</ele>
        <time>2019-02-26T15:34:24Z</time>
      </trkpt>
      <trkpt lat="42.7664" lon="0.23722">
        <ele>1406</ele>
        <time>2019-02-26T15:34:25Z</time>
      </trkpt>
      <trkpt lat="42.7664" lon="0.23722">
        <ele>1406</ele>
        <time>2019-02-26T15:34:26Z</time>
      </trkpt>
      <trkpt lat="42.7664" lon="0.23722">
        <ele>1406</ele>
        <time>2019-02-26T15:34:27Z</time>
      </trkpt>
      <trkpt lat="42.76641" lon="0.23723">
        <ele>1406</ele>
        <time>2019-02-26T15:34:28Z</time>
      </trkpt>
      <trkpt lat="42.76641" lon="0.23723">
        <ele>1406</ele>
        <time>2019-02-26T15:34:29Z</time>
      </trkpt>
      <trkpt lat="42.76641" lon="0.23723">
        <ele>1406</ele>
        <time>2019-02-26T15:34:30Z</time>
      </trkpt>
      <trkpt lat="42.76642" lon="0.23724">
        <ele>1406</ele>
        <time>2019-02-26T15:34:31Z</time>
      </trkpt>
      <trkpt lat="42.76642" lon="0.23724">
        <ele>1406</ele>
        <time>2019-02-26T15:34:32Z</time>
      </trkpt>
      <trkpt lat="42.76642" lon="0.23724">
        <ele>1406</ele>
        <time>2019-02-26T15:34:33Z</time>
      </trkpt>
      <trkpt lat="42.76642" lon="0.23725">
        <ele>1406</ele>
        <time>2019-02-26T15:34:34Z</time>
      </trkpt>
      <trkpt lat="42.76643" lon="0.23725">
        <ele>1406</ele>
        <time>2019-02-26T15:34:35Z</time>
      </trkpt>
      <trkpt lat="42.76643" lon="0.23725">
        <ele>1406</ele>
        <time>2019-02-26T15:34:36Z</time>
      </trkpt>
      <trkpt lat="42.76643" lon="0.23726">
        <ele>1406</ele>
        <time>2019-02-26T15:34:37Z</time>
      </trkpt>
      <trkpt lat="42.76643" lon="0.23726">
        <ele>1406</ele>
        <time>2019-02-26T15:34:38Z</time>
      </trkpt>
      <trkpt lat="42.76644" lon="0.23726">
        <ele>1406</ele>
        <time>2019-02-26T15:34:39Z</time>
      </trkpt>
      <trkpt lat="42.76644" lon="0.23727">
        <ele>1406</ele>
        <time>2019-02-26T15:34:40Z</time>
      </trkpt>
      <trkpt lat="42.76644" lon="0.23727">
        <ele>1406</ele>
        <time>2019-02-26T15:34:41Z</time>
      </trkpt>
      <trkpt lat="42.76645" lon="0.23728">
        <ele>1404</ele>
        <time>2019-02-26T15:34:43Z</time>
      </trkpt>
      <trkpt lat="42.76645" lon="0.23728">
        <ele>1404</ele>
        <time>2019-02-26T15:34:44Z</time>
      </trkpt>
      <trkpt lat="42.76645" lon="0.23728">
        <ele>1404</ele>
        <time>2019-02-26T15:34:45Z</time>
      </trkpt>
      <trkpt lat="42.76646" lon="0.23728">
        <ele>1404</ele>
        <time>2019-02-26T15:34:46Z</time>
      </trkpt>
      <trkpt lat="42.76646" lon="0.23727">
        <ele>1404</ele>
        <time>2019-02-26T15:34:47Z</time>
      </trkpt>
      <trkpt lat="42.76646" lon="0.23727">
        <ele>1405</ele>
        <time>2019-02-26T15:34:48Z</time>
      </trkpt>
      <trkpt lat="42.76646" lon="0.23726">
        <ele>1405</ele>
        <time>2019-02-26T15:34:49Z</time>
      </trkpt>
      <trkpt lat="42.76647" lon="0.23726">
        <ele>1405</ele>
        <time>2019-02-26T15:34:50Z</time>
      </trkpt>
      <trkpt lat="42.76647" lon="0.23725">
        <ele>1405</ele>
        <time>2019-02-26T15:34:51Z</time>
      </trkpt>
      <trkpt lat="42.76648" lon="0.23724">
        <ele>1406</ele>
        <time>2019-02-26T15:34:53Z</time>
      </trkpt>
      <trkpt lat="42.76648" lon="0.23723">
        <ele>1406</ele>
        <time>2019-02-26T15:34:54Z</time>
      </trkpt>
      <trkpt lat="42.76648" lon="0.23723">
        <ele>1406</ele>
        <time>2019-02-26T15:34:55Z</time>
      </trkpt>
      <trkpt lat="42.76648" lon="0.23722">
        <ele>1406</ele>
        <time>2019-02-26T15:34:56Z</time>
      </trkpt>
      <trkpt lat="42.76649" lon="0.23721">
        <ele>1406</ele>
        <time>2019-02-26T15:34:58Z</time>
      </trkpt>
      <trkpt lat="42.76649" lon="0.23721">
        <ele>1406</ele>
        <time>2019-02-26T15:34:59Z</time>
      </trkpt>
      <trkpt lat="42.7665" lon="0.2372">
        <ele>1406</ele>
        <time>2019-02-26T15:35:00Z</time>
      </trkpt>
      <trkpt lat="42.7665" lon="0.23719">
        <ele>1405</ele>
        <time>2019-02-26T15:35:01Z</time>
      </trkpt>
      <trkpt lat="42.7665" lon="0.23719">
        <ele>1405</ele>
        <time>2019-02-26T15:35:02Z</time>
      </trkpt>
      <trkpt lat="42.7665" lon="0.23718">
        <ele>1405</ele>
        <time>2019-02-26T15:35:03Z</time>
      </trkpt>
      <trkpt lat="42.76651" lon="0.23718">
        <ele>1405</ele>
        <time>2019-02-26T15:35:04Z</time>
      </trkpt>
      <trkpt lat="42.76655" lon="0.23718">
        <ele>1404</ele>
        <time>2019-02-26T15:35:06Z</time>
      </trkpt>
      <trkpt lat="42.76657" lon="0.23717">
        <ele>1403</ele>
        <time>2019-02-26T15:35:07Z</time>
      </trkpt>
      <trkpt lat="42.76661" lon="0.23717">
        <ele>1403</ele>
        <time>2019-02-26T15:35:09Z</time>
      </trkpt>
      <trkpt lat="42.76663" lon="0.23718">
        <ele>1402</ele>
        <time>2019-02-26T15:35:10Z</time>
      </trkpt>
      <trkpt lat="42.76664" lon="0.23718">
        <ele>1402</ele>
        <time>2019-02-26T15:35:11Z</time>
      </trkpt>
      <trkpt lat="42.76667" lon="0.23719">
        <ele>1402</ele>
        <time>2019-02-26T15:35:13Z</time>
      </trkpt>
      <trkpt lat="42.76684" lon="0.23721">
        <ele>1401</ele>
        <time>2019-02-26T15:35:15Z</time>
      </trkpt>
      <trkpt lat="42.76715" lon="0.23723">
        <ele>1398</ele>
        <time>2019-02-26T15:35:23Z</time>
      </trkpt>
      <trkpt lat="42.76716" lon="0.23723">
        <ele>1398</ele>
        <time>2019-02-26T15:35:24Z</time>
      </trkpt>
      <trkpt lat="42.76717" lon="0.23723">
        <ele>1398</ele>
        <time>2019-02-26T15:35:25Z</time>
      </trkpt>
      <trkpt lat="42.76719" lon="0.23723">
        <ele>1398</ele>
        <time>2019-02-26T15:35:26Z</time>
      </trkpt>
      <trkpt lat="42.7672" lon="0.23723">
        <ele>1397</ele>
        <time>2019-02-26T15:35:27Z</time>
      </trkpt>
      <trkpt lat="42.76728" lon="0.23724">
        <ele>1396</ele>
        <time>2019-02-26T15:35:28Z</time>
      </trkpt>
      <trkpt lat="42.76734" lon="0.23727">
        <ele>1395</ele>
        <time>2019-02-26T15:35:30Z</time>
      </trkpt>
      <trkpt lat="42.76744" lon="0.23725">
        <ele>1393</ele>
        <time>2019-02-26T15:35:34Z</time>
      </trkpt>
      <trkpt lat="42.76752" lon="0.23716">
        <ele>1392</ele>
        <time>2019-02-26T15:35:37Z</time>
      </trkpt>
      <trkpt lat="42.76752" lon="0.23716">
        <ele>1392</ele>
        <time>2019-02-26T15:35:38Z</time>
      </trkpt>
      <trkpt lat="42.76752" lon="0.23715">
        <ele>1392</ele>
        <time>2019-02-26T15:35:40Z</time>
      </trkpt>
      <trkpt lat="42.76752" lon="0.23715">
        <ele>1392</ele>
        <time>2019-02-26T15:35:41Z</time>
      </trkpt>
      <trkpt lat="42.76752" lon="0.23714">
        <ele>1392</ele>
        <time>2019-02-26T15:35:43Z</time>
      </trkpt>
      <trkpt lat="42.76751" lon="0.23714">
        <ele>1392</ele>
        <time>2019-02-26T15:35:44Z</time>
      </trkpt>
      <trkpt lat="42.76751" lon="0.23714">
        <ele>1392</ele>
        <time>2019-02-26T15:35:46Z</time>
      </trkpt>
      <trkpt lat="42.76751" lon="0.23713">
        <ele>1392</ele>
        <time>2019-02-26T15:35:48Z</time>
      </trkpt>
      <trkpt lat="42.76751" lon="0.23713">
        <ele>1392</ele>
        <time>2019-02-26T15:35:49Z</time>
      </trkpt>
      <trkpt lat="42.76751" lon="0.23712">
        <ele>1392</ele>
        <time>2019-02-26T15:35:51Z</time>
      </trkpt>
      <trkpt lat="42.76751" lon="0.23712">
        <ele>1392</ele>
        <time>2019-02-26T15:35:52Z</time>
      </trkpt>
      <trkpt lat="42.76751" lon="0.23712">
        <ele>1392</ele>
        <time>2019-02-26T15:35:54Z</time>
      </trkpt>
      <trkpt lat="42.76751" lon="0.23711">
        <ele>1392</ele>
        <time>2019-02-26T15:35:55Z</time>
      </trkpt>
      <trkpt lat="42.76751" lon="0.23711">
        <ele>1392</ele>
        <time>2019-02-26T15:35:57Z</time>
      </trkpt>
      <trkpt lat="42.76751" lon="0.23711">
        <ele>1392</ele>
        <time>2019-02-26T15:35:58Z</time>
      </trkpt>
      <trkpt lat="42.76751" lon="0.23711">
        <ele>1392</ele>
        <time>2019-02-26T15:36:00Z</time>
      </trkpt>
      <trkpt lat="42.76751" lon="0.23711">
        <ele>1392</ele>
        <time>2019-02-26T15:36:01Z</time>
      </trkpt>
      <trkpt lat="42.76751" lon="0.23712">
        <ele>1392</ele>
        <time>2019-02-26T15:36:03Z</time>
      </trkpt>
      <trkpt lat="42.76751" lon="0.23712">
        <ele>1392</ele>
        <time>2019-02-26T15:36:05Z</time>
      </trkpt>
      <trkpt lat="42.76751" lon="0.23712">
        <ele>1392</ele>
        <time>2019-02-26T15:36:06Z</time>
      </trkpt>
      <trkpt lat="42.76751" lon="0.23712">
        <ele>1392</ele>
        <time>2019-02-26T15:36:08Z</time>
      </trkpt>
      <trkpt lat="42.76751" lon="0.23712">
        <ele>1392</ele>
        <time>2019-02-26T15:36:09Z</time>
      </trkpt>
      <trkpt lat="42.76752" lon="0.23713">
        <ele>1392</ele>
        <time>2019-02-26T15:36:11Z</time>
      </trkpt>
      <trkpt lat="42.76752" lon="0.23713">
        <ele>1392</ele>
        <time>2019-02-26T15:36:12Z</time>
      </trkpt>
      <trkpt lat="42.76752" lon="0.23713">
        <ele>1392</ele>
        <time>2019-02-26T15:36:17Z</time>
      </trkpt>
      <trkpt lat="42.76752" lon="0.23714">
        <ele>1393</ele>
        <time>2019-02-26T15:36:19Z</time>
      </trkpt>
      <trkpt lat="42.76752" lon="0.23714">
        <ele>1393</ele>
        <time>2019-02-26T15:36:20Z</time>
      </trkpt>
      <trkpt lat="42.76752" lon="0.23714">
        <ele>1392</ele>
        <time>2019-02-26T15:36:25Z</time>
      </trkpt>
      <trkpt lat="42.76753" lon="0.23714">
        <ele>1392</ele>
        <time>2019-02-26T15:36:26Z</time>
      </trkpt>
      <trkpt lat="42.76753" lon="0.23715">
        <ele>1392</ele>
        <time>2019-02-26T15:36:28Z</time>
      </trkpt>
      <trkpt lat="42.76753" lon="0.23715">
        <ele>1392</ele>
        <time>2019-02-26T15:36:29Z</time>
      </trkpt>
      <trkpt lat="42.76753" lon="0.23715">
        <ele>1392</ele>
        <time>2019-02-26T15:36:31Z</time>
      </trkpt>
      <trkpt lat="42.76753" lon="0.23715">
        <ele>1392</ele>
        <time>2019-02-26T15:36:33Z</time>
      </trkpt>
      <trkpt lat="42.76753" lon="0.23715">
        <ele>1392</ele>
        <time>2019-02-26T15:36:34Z</time>
      </trkpt>
      <trkpt lat="42.76753" lon="0.23716">
        <ele>1392</ele>
        <time>2019-02-26T15:36:36Z</time>
      </trkpt>
      <trkpt lat="42.76754" lon="0.23717">
        <ele>1392</ele>
        <time>2019-02-26T15:36:37Z</time>
      </trkpt>
      <trkpt lat="42.76754" lon="0.23718">
        <ele>1392</ele>
        <time>2019-02-26T15:36:38Z</time>
      </trkpt>
      <trkpt lat="42.76755" lon="0.2372">
        <ele>1392</ele>
        <time>2019-02-26T15:36:40Z</time>
      </trkpt>
      <trkpt lat="42.76756" lon="0.23721">
        <ele>1392</ele>
        <time>2019-02-26T15:36:41Z</time>
      </trkpt>
      <trkpt lat="42.76756" lon="0.23722">
        <ele>1392</ele>
        <time>2019-02-26T15:36:42Z</time>
      </trkpt>
      <trkpt lat="42.76759" lon="0.23724">
        <ele>1392</ele>
        <time>2019-02-26T15:36:48Z</time>
      </trkpt>
      <trkpt lat="42.76759" lon="0.23725">
        <ele>1392</ele>
        <time>2019-02-26T15:36:49Z</time>
      </trkpt>
      <trkpt lat="42.7676" lon="0.23725">
        <ele>1391</ele>
        <time>2019-02-26T15:36:50Z</time>
      </trkpt>
      <trkpt lat="42.7676" lon="0.23725">
        <ele>1391</ele>
        <time>2019-02-26T15:36:51Z</time>
      </trkpt>
      <trkpt lat="42.7676" lon="0.23726">
        <ele>1391</ele>
        <time>2019-02-26T15:36:52Z</time>
      </trkpt>
      <trkpt lat="42.7676" lon="0.23726">
        <ele>1391</ele>
        <time>2019-02-26T15:36:53Z</time>
      </trkpt>
      <trkpt lat="42.7676" lon="0.23726">
        <ele>1391</ele>
        <time>2019-02-26T15:36:54Z</time>
      </trkpt>
      <trkpt lat="42.7676" lon="0.23727">
        <ele>1391</ele>
        <time>2019-02-26T15:36:55Z</time>
      </trkpt>
      <trkpt lat="42.76761" lon="0.23727">
        <ele>1391</ele>
        <time>2019-02-26T15:36:56Z</time>
      </trkpt>
      <trkpt lat="42.76761" lon="0.23728">
        <ele>1391</ele>
        <time>2019-02-26T15:36:58Z</time>
      </trkpt>
      <trkpt lat="42.76761" lon="0.23728">
        <ele>1391</ele>
        <time>2019-02-26T15:36:59Z</time>
      </trkpt>
      <trkpt lat="42.76762" lon="0.23729">
        <ele>1391</ele>
        <time>2019-02-26T15:37:01Z</time>
      </trkpt>
      <trkpt lat="42.76762" lon="0.23729">
        <ele>1391</ele>
        <time>2019-02-26T15:37:02Z</time>
      </trkpt>
      <trkpt lat="42.76762" lon="0.23729">
        <ele>1391</ele>
        <time>2019-02-26T15:37:03Z</time>
      </trkpt>
      <trkpt lat="42.76762" lon="0.2373">
        <ele>1391</ele>
        <time>2019-02-26T15:37:04Z</time>
      </trkpt>
      <trkpt lat="42.76762" lon="0.2373">
        <ele>1391</ele>
        <time>2019-02-26T15:37:05Z</time>
      </trkpt>
      <trkpt lat="42.76763" lon="0.23731">
        <ele>1391</ele>
        <time>2019-02-26T15:37:07Z</time>
      </trkpt>
      <trkpt lat="42.76763" lon="0.23731">
        <ele>1391</ele>
        <time>2019-02-26T15:37:08Z</time>
      </trkpt>
      <trkpt lat="42.76763" lon="0.23732">
        <ele>1391</ele>
        <time>2019-02-26T15:37:10Z</time>
      </trkpt>
      <trkpt lat="42.76763" lon="0.23732">
        <ele>1391</ele>
        <time>2019-02-26T15:37:11Z</time>
      </trkpt>
      <trkpt lat="42.76763" lon="0.23732">
        <ele>1391</ele>
        <time>2019-02-26T15:37:12Z</time>
      </trkpt>
      <trkpt lat="42.76764" lon="0.23733">
        <ele>1391</ele>
        <time>2019-02-26T15:37:13Z</time>
      </trkpt>
      <trkpt lat="42.76764" lon="0.23733">
        <ele>1391</ele>
        <time>2019-02-26T15:37:14Z</time>
      </trkpt>
      <trkpt lat="42.76764" lon="0.23733">
        <ele>1391</ele>
        <time>2019-02-26T15:37:15Z</time>
      </trkpt>
      <trkpt lat="42.76764" lon="0.23734">
        <ele>1391</ele>
        <time>2019-02-26T15:37:16Z</time>
      </trkpt>
      <trkpt lat="42.76764" lon="0.23734">
        <ele>1391</ele>
        <time>2019-02-26T15:37:17Z</time>
      </trkpt>
      <trkpt lat="42.76765" lon="0.23734">
        <ele>1391</ele>
        <time>2019-02-26T15:37:18Z</time>
      </trkpt>
      <trkpt lat="42.76769" lon="0.23739">
        <ele>1390</ele>
        <time>2019-02-26T15:37:23Z</time>
      </trkpt>
      <trkpt lat="42.76775" lon="0.23745">
        <ele>1389</ele>
        <time>2019-02-26T15:37:24Z</time>
      </trkpt>
      <trkpt lat="42.76777" lon="0.23745">
        <ele>1389</ele>
        <time>2019-02-26T15:37:25Z</time>
      </trkpt>
      <trkpt lat="42.76779" lon="0.23746">
        <ele>1389</ele>
        <time>2019-02-26T15:37:26Z</time>
      </trkpt>
      <trkpt lat="42.76787" lon="0.23747">
        <ele>1388</ele>
        <time>2019-02-26T15:37:27Z</time>
      </trkpt>
      <trkpt lat="42.76794" lon="0.23746">
        <ele>1386</ele>
        <time>2019-02-26T15:37:30Z</time>
      </trkpt>
      <trkpt lat="42.76804" lon="0.23745">
        <ele>1385</ele>
        <time>2019-02-26T15:37:33Z</time>
      </trkpt>
      <trkpt lat="42.76814" lon="0.23746">
        <ele>1383</ele>
        <time>2019-02-26T15:37:36Z</time>
      </trkpt>
      <trkpt lat="42.76833" lon="0.23747">
        <ele>1378</ele>
        <time>2019-02-26T15:37:43Z</time>
      </trkpt>
      <trkpt lat="42.7684" lon="0.23748">
        <ele>1375</ele>
        <time>2019-02-26T15:37:46Z</time>
      </trkpt>
      <trkpt lat="42.7685" lon="0.23751">
        <ele>1374</ele>
        <time>2019-02-26T15:37:47Z</time>
      </trkpt>
      <trkpt lat="42.76872" lon="0.23763">
        <ele>1373</ele>
        <time>2019-02-26T15:37:51Z</time>
      </trkpt>
      <trkpt lat="42.76876" lon="0.23766">
        <ele>1372</ele>
        <time>2019-02-26T15:37:53Z</time>
      </trkpt>
      <trkpt lat="42.76883" lon="0.23773">
        <ele>1372</ele>
        <time>2019-02-26T15:37:54Z</time>
      </trkpt>
      <trkpt lat="42.76887" lon="0.2378">
        <ele>1372</ele>
        <time>2019-02-26T15:37:56Z</time>
      </trkpt>
      <trkpt lat="42.76889" lon="0.23781">
        <ele>1371</ele>
        <time>2019-02-26T15:37:57Z</time>
      </trkpt>
      <trkpt lat="42.76892" lon="0.23782">
        <ele>1371</ele>
        <time>2019-02-26T15:37:58Z</time>
      </trkpt>
      <trkpt lat="42.76896" lon="0.23784">
        <ele>1371</ele>
        <time>2019-02-26T15:38:00Z</time>
      </trkpt>
      <trkpt lat="42.76905" lon="0.23783">
        <ele>1369</ele>
        <time>2019-02-26T15:38:04Z</time>
      </trkpt>
      <trkpt lat="42.76911" lon="0.23784">
        <ele>1367</ele>
        <time>2019-02-26T15:38:08Z</time>
      </trkpt>
      <trkpt lat="42.76921" lon="0.23785">
        <ele>1366</ele>
        <time>2019-02-26T15:38:09Z</time>
      </trkpt>
      <trkpt lat="42.76927" lon="0.23787">
        <ele>1366</ele>
        <time>2019-02-26T15:38:11Z</time>
      </trkpt>
      <trkpt lat="42.76937" lon="0.23783">
        <ele>1364</ele>
        <time>2019-02-26T15:38:14Z</time>
      </trkpt>
      <trkpt lat="42.76942" lon="0.2378">
        <ele>1363</ele>
        <time>2019-02-26T15:38:17Z</time>
      </trkpt>
      <trkpt lat="42.76952" lon="0.23776">
        <ele>1362</ele>
        <time>2019-02-26T15:38:18Z</time>
      </trkpt>
      <trkpt lat="42.76956" lon="0.23774">
        <ele>1361</ele>
        <time>2019-02-26T15:38:19Z</time>
      </trkpt>
      <trkpt lat="42.7696" lon="0.23769">
        <ele>1360</ele>
        <time>2019-02-26T15:38:22Z</time>
      </trkpt>
      <trkpt lat="42.76966" lon="0.23764">
        <ele>1359</ele>
        <time>2019-02-26T15:38:23Z</time>
      </trkpt>
      <trkpt lat="42.76971" lon="0.23762">
        <ele>1358</ele>
        <time>2019-02-26T15:38:26Z</time>
      </trkpt>
      <trkpt lat="42.76978" lon="0.23757">
        <ele>1357</ele>
        <time>2019-02-26T15:38:27Z</time>
      </trkpt>
      <trkpt lat="42.76987" lon="0.2375">
        <ele>1357</ele>
        <time>2019-02-26T15:38:30Z</time>
      </trkpt>
      <trkpt lat="42.76997" lon="0.23744">
        <ele>1357</ele>
        <time>2019-02-26T15:38:33Z</time>
      </trkpt>
      <trkpt lat="42.76998" lon="0.23743">
        <ele>1357</ele>
        <time>2019-02-26T15:38:34Z</time>
      </trkpt>
      <trkpt lat="42.76999" lon="0.23742">
        <ele>1356</ele>
        <time>2019-02-26T15:38:35Z</time>
      </trkpt>
      <trkpt lat="42.77007" lon="0.23735">
        <ele>1355</ele>
        <time>2019-02-26T15:38:37Z</time>
      </trkpt>
      <trkpt lat="42.7701" lon="0.23733">
        <ele>1355</ele>
        <time>2019-02-26T15:38:39Z</time>
      </trkpt>
      <trkpt lat="42.77019" lon="0.23726">
        <ele>1354</ele>
        <time>2019-02-26T15:38:40Z</time>
      </trkpt>
      <trkpt lat="42.77023" lon="0.23724">
        <ele>1354</ele>
        <time>2019-02-26T15:38:41Z</time>
      </trkpt>
      <trkpt lat="42.77026" lon="0.23725">
        <ele>1353</ele>
        <time>2019-02-26T15:38:44Z</time>
      </trkpt>
      <trkpt lat="42.77027" lon="0.23726">
        <ele>1353</ele>
        <time>2019-02-26T15:38:45Z</time>
      </trkpt>
      <trkpt lat="42.77029" lon="0.23727">
        <ele>1353</ele>
        <time>2019-02-26T15:38:47Z</time>
      </trkpt>
      <trkpt lat="42.7703" lon="0.23723">
        <ele>1353</ele>
        <time>2019-02-26T15:39:07Z</time>
      </trkpt>
      <trkpt lat="42.77031" lon="0.23723">
        <ele>1353</ele>
        <time>2019-02-26T15:39:08Z</time>
      </trkpt>
      <trkpt lat="42.77031" lon="0.23723">
        <ele>1353</ele>
        <time>2019-02-26T15:39:09Z</time>
      </trkpt>
      <trkpt lat="42.77032" lon="0.23722">
        <ele>1353</ele>
        <time>2019-02-26T15:39:10Z</time>
      </trkpt>
      <trkpt lat="42.77032" lon="0.23722">
        <ele>1353</ele>
        <time>2019-02-26T15:39:11Z</time>
      </trkpt>
      <trkpt lat="42.77033" lon="0.23722">
        <ele>1353</ele>
        <time>2019-02-26T15:39:12Z</time>
      </trkpt>
      <trkpt lat="42.77033" lon="0.23722">
        <ele>1353</ele>
        <time>2019-02-26T15:39:13Z</time>
      </trkpt>
      <trkpt lat="42.77034" lon="0.23721">
        <ele>1353</ele>
        <time>2019-02-26T15:39:14Z</time>
      </trkpt>
      <trkpt lat="42.77034" lon="0.23721">
        <ele>1353</ele>
        <time>2019-02-26T15:39:15Z</time>
      </trkpt>
      <trkpt lat="42.77035" lon="0.23721">
        <ele>1352</ele>
        <time>2019-02-26T15:39:16Z</time>
      </trkpt>
      <trkpt lat="42.77035" lon="0.23721">
        <ele>1352</ele>
        <time>2019-02-26T15:39:17Z</time>
      </trkpt>
      <trkpt lat="42.77036" lon="0.2372">
        <ele>1352</ele>
        <time>2019-02-26T15:39:18Z</time>
      </trkpt>
      <trkpt lat="42.77036" lon="0.2372">
        <ele>1352</ele>
        <time>2019-02-26T15:39:19Z</time>
      </trkpt>
      <trkpt lat="42.77037" lon="0.2372">
        <ele>1352</ele>
        <time>2019-02-26T15:39:20Z</time>
      </trkpt>
      <trkpt lat="42.77037" lon="0.2372">
        <ele>1352</ele>
        <time>2019-02-26T15:39:21Z</time>
      </trkpt>
      <trkpt lat="42.77038" lon="0.23719">
        <ele>1352</ele>
        <time>2019-02-26T15:39:22Z</time>
      </trkpt>
      <trkpt lat="42.77038" lon="0.23719">
        <ele>1352</ele>
        <time>2019-02-26T15:39:23Z</time>
      </trkpt>
      <trkpt lat="42.77039" lon="0.23719">
        <ele>1352</ele>
        <time>2019-02-26T15:39:24Z</time>
      </trkpt>
      <trkpt lat="42.77039" lon="0.23719">
        <ele>1351</ele>
        <time>2019-02-26T15:39:25Z</time>
      </trkpt>
      <trkpt lat="42.7704" lon="0.23718">
        <ele>1351</ele>
        <time>2019-02-26T15:39:26Z</time>
      </trkpt>
      <trkpt lat="42.7704" lon="0.23719">
        <ele>1351</ele>
        <time>2019-02-26T15:39:27Z</time>
      </trkpt>
      <trkpt lat="42.77041" lon="0.23719">
        <ele>1351</ele>
        <time>2019-02-26T15:39:28Z</time>
      </trkpt>
      <trkpt lat="42.77044" lon="0.2372">
        <ele>1351</ele>
        <time>2019-02-26T15:39:31Z</time>
      </trkpt>
      <trkpt lat="42.77044" lon="0.2372">
        <ele>1351</ele>
        <time>2019-02-26T15:39:32Z</time>
      </trkpt>
      <trkpt lat="42.77047" lon="0.23721">
        <ele>1350</ele>
        <time>2019-02-26T15:39:35Z</time>
      </trkpt>
      <trkpt lat="42.77048" lon="0.23722">
        <ele>1350</ele>
        <time>2019-02-26T15:39:36Z</time>
      </trkpt>
      <trkpt lat="42.77048" lon="0.23722">
        <ele>1350</ele>
        <time>2019-02-26T15:39:37Z</time>
      </trkpt>
      <trkpt lat="42.77056" lon="0.23722">
        <ele>1349</ele>
        <time>2019-02-26T15:39:42Z</time>
      </trkpt>
      <trkpt lat="42.7706" lon="0.23722">
        <ele>1348</ele>
        <time>2019-02-26T15:39:44Z</time>
      </trkpt>
      <trkpt lat="42.77063" lon="0.23724">
        <ele>1348</ele>
        <time>2019-02-26T15:39:46Z</time>
      </trkpt>
      <trkpt lat="42.77065" lon="0.23724">
        <ele>1348</ele>
        <time>2019-02-26T15:39:47Z</time>
      </trkpt>
      <trkpt lat="42.77068" lon="0.23726">
        <ele>1348</ele>
        <time>2019-02-26T15:39:49Z</time>
      </trkpt>
      <trkpt lat="42.77069" lon="0.23728">
        <ele>1348</ele>
        <time>2019-02-26T15:39:51Z</time>
      </trkpt>
      <trkpt lat="42.7707" lon="0.23729">
        <ele>1348</ele>
        <time>2019-02-26T15:39:52Z</time>
      </trkpt>
      <trkpt lat="42.77073" lon="0.23732">
        <ele>1348</ele>
        <time>2019-02-26T15:39:55Z</time>
      </trkpt>
      <trkpt lat="42.77074" lon="0.23733">
        <ele>1348</ele>
        <time>2019-02-26T15:39:56Z</time>
      </trkpt>
      <trkpt lat="42.77074" lon="0.23734">
        <ele>1348</ele>
        <time>2019-02-26T15:39:57Z</time>
      </trkpt>
      <trkpt lat="42.77075" lon="0.23735">
        <ele>1348</ele>
        <time>2019-02-26T15:39:58Z</time>
      </trkpt>
      <trkpt lat="42.77077" lon="0.23737">
        <ele>1348</ele>
        <time>2019-02-26T15:40:00Z</time>
      </trkpt>
      <trkpt lat="42.77077" lon="0.23738">
        <ele>1347</ele>
        <time>2019-02-26T15:40:01Z</time>
      </trkpt>
      <trkpt lat="42.77079" lon="0.23741">
        <ele>1347</ele>
        <time>2019-02-26T15:40:04Z</time>
      </trkpt>
      <trkpt lat="42.7708" lon="0.23742">
        <ele>1347</ele>
        <time>2019-02-26T15:40:05Z</time>
      </trkpt>
      <trkpt lat="42.77081" lon="0.23744">
        <ele>1347</ele>
        <time>2019-02-26T15:40:07Z</time>
      </trkpt>
      <trkpt lat="42.77083" lon="0.23744">
        <ele>1347</ele>
        <time>2019-02-26T15:40:08Z</time>
      </trkpt>
      <trkpt lat="42.77084" lon="0.23744">
        <ele>1347</ele>
        <time>2019-02-26T15:40:09Z</time>
      </trkpt>
      <trkpt lat="42.77085" lon="0.23744">
        <ele>1347</ele>
        <time>2019-02-26T15:40:10Z</time>
      </trkpt>
      <trkpt lat="42.77087" lon="0.23745">
        <ele>1347</ele>
        <time>2019-02-26T15:40:11Z</time>
      </trkpt>
      <trkpt lat="42.77088" lon="0.23745">
        <ele>1347</ele>
        <time>2019-02-26T15:40:12Z</time>
      </trkpt>
      <trkpt lat="42.77089" lon="0.23745">
        <ele>1346</ele>
        <time>2019-02-26T15:40:13Z</time>
      </trkpt>
      <trkpt lat="42.77091" lon="0.23745">
        <ele>1346</ele>
        <time>2019-02-26T15:40:14Z</time>
      </trkpt>
      <trkpt lat="42.77093" lon="0.23744">
        <ele>1346</ele>
        <time>2019-02-26T15:40:17Z</time>
      </trkpt>
      <trkpt lat="42.77094" lon="0.23744">
        <ele>1346</ele>
        <time>2019-02-26T15:40:18Z</time>
      </trkpt>
      <trkpt lat="42.77098" lon="0.23743">
        <ele>1346</ele>
        <time>2019-02-26T15:40:23Z</time>
      </trkpt>
      <trkpt lat="42.77099" lon="0.23743">
        <ele>1346</ele>
        <time>2019-02-26T15:40:24Z</time>
      </trkpt>
      <trkpt lat="42.77101" lon="0.23742">
        <ele>1346</ele>
        <time>2019-02-26T15:40:26Z</time>
      </trkpt>
      <trkpt lat="42.77103" lon="0.23744">
        <ele>1345</ele>
        <time>2019-02-26T15:40:29Z</time>
      </trkpt>
      <trkpt lat="42.77104" lon="0.23745">
        <ele>1345</ele>
        <time>2019-02-26T15:40:30Z</time>
      </trkpt>
      <trkpt lat="42.77105" lon="0.23745">
        <ele>1345</ele>
        <time>2019-02-26T15:40:31Z</time>
      </trkpt>
      <trkpt lat="42.77109" lon="0.23747">
        <ele>1344</ele>
        <time>2019-02-26T15:40:35Z</time>
      </trkpt>
      <trkpt lat="42.7711" lon="0.23748">
        <ele>1344</ele>
        <time>2019-02-26T15:40:36Z</time>
      </trkpt>
      <trkpt lat="42.7711" lon="0.23749">
        <ele>1344</ele>
        <time>2019-02-26T15:40:37Z</time>
      </trkpt>
      <trkpt lat="42.77111" lon="0.23749">
        <ele>1344</ele>
        <time>2019-02-26T15:40:38Z</time>
      </trkpt>
      <trkpt lat="42.77112" lon="0.23751">
        <ele>1344</ele>
        <time>2019-02-26T15:40:40Z</time>
      </trkpt>
      <trkpt lat="42.77112" lon="0.23751">
        <ele>1343</ele>
        <time>2019-02-26T15:40:41Z</time>
      </trkpt>
      <trkpt lat="42.77113" lon="0.23752">
        <ele>1343</ele>
        <time>2019-02-26T15:40:42Z</time>
      </trkpt>
      <trkpt lat="42.77114" lon="0.23753">
        <ele>1343</ele>
        <time>2019-02-26T15:40:44Z</time>
      </trkpt>
      <trkpt lat="42.77115" lon="0.23754">
        <ele>1342</ele>
        <time>2019-02-26T15:40:45Z</time>
      </trkpt>
      <trkpt lat="42.77115" lon="0.23755">
        <ele>1342</ele>
        <time>2019-02-26T15:40:46Z</time>
      </trkpt>
      <trkpt lat="42.77116" lon="0.23755">
        <ele>1342</ele>
        <time>2019-02-26T15:40:47Z</time>
      </trkpt>
      <trkpt lat="42.77122" lon="0.23765">
        <ele>1342</ele>
        <time>2019-02-26T15:40:55Z</time>
      </trkpt>
      <trkpt lat="42.77124" lon="0.23766">
        <ele>1341</ele>
        <time>2019-02-26T15:40:56Z</time>
      </trkpt>
      <trkpt lat="42.77125" lon="0.23767">
        <ele>1341</ele>
        <time>2019-02-26T15:40:57Z</time>
      </trkpt>
      <trkpt lat="42.77126" lon="0.23767">
        <ele>1341</ele>
        <time>2019-02-26T15:40:58Z</time>
      </trkpt>
      <trkpt lat="42.77128" lon="0.23768">
        <ele>1341</ele>
        <time>2019-02-26T15:40:59Z</time>
      </trkpt>
      <trkpt lat="42.77129" lon="0.23769">
        <ele>1341</ele>
        <time>2019-02-26T15:41:00Z</time>
      </trkpt>
      <trkpt lat="42.7713" lon="0.23769">
        <ele>1341</ele>
        <time>2019-02-26T15:41:01Z</time>
      </trkpt>
      <trkpt lat="42.77131" lon="0.2377">
        <ele>1341</ele>
        <time>2019-02-26T15:41:02Z</time>
      </trkpt>
      <trkpt lat="42.77132" lon="0.23772">
        <ele>1341</ele>
        <time>2019-02-26T15:41:04Z</time>
      </trkpt>
      <trkpt lat="42.77132" lon="0.23773">
        <ele>1341</ele>
        <time>2019-02-26T15:41:05Z</time>
      </trkpt>
      <trkpt lat="42.77134" lon="0.23778">
        <ele>1340</ele>
        <time>2019-02-26T15:41:10Z</time>
      </trkpt>
      <trkpt lat="42.77134" lon="0.23779">
        <ele>1340</ele>
        <time>2019-02-26T15:41:11Z</time>
      </trkpt>
      <trkpt lat="42.77138" lon="0.23795">
        <ele>1339</ele>
        <time>2019-02-26T15:41:22Z</time>
      </trkpt>
      <trkpt lat="42.77138" lon="0.23797">
        <ele>1339</ele>
        <time>2019-02-26T15:41:23Z</time>
      </trkpt>
      <trkpt lat="42.77139" lon="0.23798">
        <ele>1339</ele>
        <time>2019-02-26T15:41:24Z</time>
      </trkpt>
      <trkpt lat="42.77139" lon="0.23804">
        <ele>1339</ele>
        <time>2019-02-26T15:41:27Z</time>
      </trkpt>
      <trkpt lat="42.77139" lon="0.23806">
        <ele>1339</ele>
        <time>2019-02-26T15:41:28Z</time>
      </trkpt>
      <trkpt lat="42.7714" lon="0.23807">
        <ele>1339</ele>
        <time>2019-02-26T15:41:29Z</time>
      </trkpt>
      <trkpt lat="42.77144" lon="0.23818">
        <ele>1339</ele>
        <time>2019-02-26T15:41:34Z</time>
      </trkpt>
      <trkpt lat="42.77145" lon="0.23819">
        <ele>1339</ele>
        <time>2019-02-26T15:41:35Z</time>
      </trkpt>
      <trkpt lat="42.77146" lon="0.2382">
        <ele>1339</ele>
        <time>2019-02-26T15:41:36Z</time>
      </trkpt>
      <trkpt lat="42.77147" lon="0.23821">
        <ele>1338</ele>
        <time>2019-02-26T15:41:37Z</time>
      </trkpt>
      <trkpt lat="42.7715" lon="0.23824">
        <ele>1338</ele>
        <time>2019-02-26T15:41:40Z</time>
      </trkpt>
      <trkpt lat="42.7715" lon="0.23825">
        <ele>1338</ele>
        <time>2019-02-26T15:41:41Z</time>
      </trkpt>
      <trkpt lat="42.77151" lon="0.23826">
        <ele>1338</ele>
        <time>2019-02-26T15:41:42Z</time>
      </trkpt>
      <trkpt lat="42.77153" lon="0.23826">
        <ele>1338</ele>
        <time>2019-02-26T15:41:43Z</time>
      </trkpt>
      <trkpt lat="42.77154" lon="0.23826">
        <ele>1337</ele>
        <time>2019-02-26T15:41:44Z</time>
      </trkpt>
      <trkpt lat="42.77155" lon="0.23827">
        <ele>1337</ele>
        <time>2019-02-26T15:41:45Z</time>
      </trkpt>
      <trkpt lat="42.77157" lon="0.23827">
        <ele>1337</ele>
        <time>2019-02-26T15:41:46Z</time>
      </trkpt>
      <trkpt lat="42.77158" lon="0.23828">
        <ele>1337</ele>
        <time>2019-02-26T15:41:47Z</time>
      </trkpt>
      <trkpt lat="42.77159" lon="0.23828">
        <ele>1337</ele>
        <time>2019-02-26T15:41:48Z</time>
      </trkpt>
      <trkpt lat="42.7716" lon="0.23828">
        <ele>1337</ele>
        <time>2019-02-26T15:41:49Z</time>
      </trkpt>
      <trkpt lat="42.77169" lon="0.23829">
        <ele>1336</ele>
        <time>2019-02-26T15:42:02Z</time>
      </trkpt>
      <trkpt lat="42.7718" lon="0.23827">
        <ele>1334</ele>
        <time>2019-02-26T15:42:20Z</time>
      </trkpt>
      <trkpt lat="42.7718" lon="0.23827">
        <ele>1334</ele>
        <time>2019-02-26T15:42:21Z</time>
      </trkpt>
      <trkpt lat="42.77181" lon="0.23827">
        <ele>1334</ele>
        <time>2019-02-26T15:42:22Z</time>
      </trkpt>
      <trkpt lat="42.77181" lon="0.23827">
        <ele>1334</ele>
        <time>2019-02-26T15:42:23Z</time>
      </trkpt>
      <trkpt lat="42.77181" lon="0.23827">
        <ele>1334</ele>
        <time>2019-02-26T15:42:24Z</time>
      </trkpt>
      <trkpt lat="42.77182" lon="0.23827">
        <ele>1334</ele>
        <time>2019-02-26T15:42:25Z</time>
      </trkpt>
      <trkpt lat="42.77182" lon="0.23827">
        <ele>1334</ele>
        <time>2019-02-26T15:42:26Z</time>
      </trkpt>
      <trkpt lat="42.77182" lon="0.23827">
        <ele>1333</ele>
        <time>2019-02-26T15:42:27Z</time>
      </trkpt>
      <trkpt lat="42.77183" lon="0.23826">
        <ele>1333</ele>
        <time>2019-02-26T15:42:29Z</time>
      </trkpt>
      <trkpt lat="42.77184" lon="0.23826">
        <ele>1333</ele>
        <time>2019-02-26T15:42:30Z</time>
      </trkpt>
      <trkpt lat="42.77185" lon="0.23826">
        <ele>1333</ele>
        <time>2019-02-26T15:42:33Z</time>
      </trkpt>
      <trkpt lat="42.77185" lon="0.23826">
        <ele>1333</ele>
        <time>2019-02-26T15:42:34Z</time>
      </trkpt>
      <trkpt lat="42.77186" lon="0.23825">
        <ele>1333</ele>
        <time>2019-02-26T15:42:36Z</time>
      </trkpt>
      <trkpt lat="42.77186" lon="0.23825">
        <ele>1333</ele>
        <time>2019-02-26T15:42:37Z</time>
      </trkpt>
      <trkpt lat="42.77187" lon="0.23825">
        <ele>1333</ele>
        <time>2019-02-26T15:42:38Z</time>
      </trkpt>
      <trkpt lat="42.77187" lon="0.23825">
        <ele>1333</ele>
        <time>2019-02-26T15:42:39Z</time>
      </trkpt>
      <trkpt lat="42.77187" lon="0.23825">
        <ele>1333</ele>
        <time>2019-02-26T15:42:40Z</time>
      </trkpt>
      <trkpt lat="42.77188" lon="0.23825">
        <ele>1333</ele>
        <time>2019-02-26T15:42:41Z</time>
      </trkpt>
      <trkpt lat="42.77188" lon="0.23825">
        <ele>1333</ele>
        <time>2019-02-26T15:42:42Z</time>
      </trkpt>
      <trkpt lat="42.77188" lon="0.23825">
        <ele>1333</ele>
        <time>2019-02-26T15:42:43Z</time>
      </trkpt>
      <trkpt lat="42.77189" lon="0.23824">
        <ele>1333</ele>
        <time>2019-02-26T15:42:44Z</time>
      </trkpt>
      <trkpt lat="42.77188" lon="0.23827">
        <ele>1334</ele>
        <time>2019-02-26T15:42:48Z</time>
      </trkpt>
      <trkpt lat="42.77188" lon="0.23828">
        <ele>1334</ele>
        <time>2019-02-26T15:42:49Z</time>
      </trkpt>
      <trkpt lat="42.77185" lon="0.2384">
        <ele>1334</ele>
        <time>2019-02-26T15:42:55Z</time>
      </trkpt>
      <trkpt lat="42.77186" lon="0.23839">
        <ele>1333</ele>
        <time>2019-02-26T15:42:56Z</time>
      </trkpt>
      <trkpt lat="42.77191" lon="0.23839">
        <ele>1333</ele>
        <time>2019-02-26T15:43:12Z</time>
      </trkpt>
      <trkpt lat="42.77198" lon="0.23838">
        <ele>1333</ele>
        <time>2019-02-26T15:43:14Z</time>
      </trkpt>
      <trkpt lat="42.77198" lon="0.23838">
        <ele>1333</ele>
        <time>2019-02-26T15:43:15Z</time>
      </trkpt>
      <trkpt lat="42.77198" lon="0.23827">
        <ele>1332</ele>
        <time>2019-02-26T15:43:42Z</time>
      </trkpt>
      <trkpt lat="42.77199" lon="0.23826">
        <ele>1332</ele>
        <time>2019-02-26T15:43:44Z</time>
      </trkpt>
      <trkpt lat="42.772" lon="0.23826">
        <ele>1331</ele>
        <time>2019-02-26T15:43:45Z</time>
      </trkpt>
      <trkpt lat="42.772" lon="0.23826">
        <ele>1330</ele>
        <time>2019-02-26T15:43:46Z</time>
      </trkpt>
      <trkpt lat="42.77202" lon="0.23825">
        <ele>1330</ele>
        <time>2019-02-26T15:43:49Z</time>
      </trkpt>
      <trkpt lat="42.77203" lon="0.23825">
        <ele>1329</ele>
        <time>2019-02-26T15:43:50Z</time>
      </trkpt>
      <trkpt lat="42.77212" lon="0.23822">
        <ele>1328</ele>
        <time>2019-02-26T15:43:53Z</time>
      </trkpt>
      <trkpt lat="42.77216" lon="0.2382">
        <ele>1327</ele>
        <time>2019-02-26T15:43:56Z</time>
      </trkpt>
      <trkpt lat="42.77218" lon="0.2382">
        <ele>1327</ele>
        <time>2019-02-26T15:43:57Z</time>
      </trkpt>
      <trkpt lat="42.77219" lon="0.2382">
        <ele>1326</ele>
        <time>2019-02-26T15:43:58Z</time>
      </trkpt>
      <trkpt lat="42.7723" lon="0.23825">
        <ele>1324</ele>
        <time>2019-02-26T15:44:03Z</time>
      </trkpt>
      <trkpt lat="42.77242" lon="0.23828">
        <ele>1323</ele>
        <time>2019-02-26T15:44:07Z</time>
      </trkpt>
      <trkpt lat="42.77242" lon="0.23828">
        <ele>1323</ele>
        <time>2019-02-26T15:44:08Z</time>
      </trkpt>
      <trkpt lat="42.77241" lon="0.23828">
        <ele>1323</ele>
        <time>2019-02-26T15:44:09Z</time>
      </trkpt>
      <trkpt lat="42.77241" lon="0.23828">
        <ele>1323</ele>
        <time>2019-02-26T15:44:10Z</time>
      </trkpt>
      <trkpt lat="42.77241" lon="0.23827">
        <ele>1323</ele>
        <time>2019-02-26T15:44:11Z</time>
      </trkpt>
      <trkpt lat="42.7724" lon="0.23827">
        <ele>1323</ele>
        <time>2019-02-26T15:44:12Z</time>
      </trkpt>
      <trkpt lat="42.7724" lon="0.23827">
        <ele>1322</ele>
        <time>2019-02-26T15:44:13Z</time>
      </trkpt>
      <trkpt lat="42.77239" lon="0.23827">
        <ele>1321</ele>
        <time>2019-02-26T15:44:14Z</time>
      </trkpt>
      <trkpt lat="42.77239" lon="0.23826">
        <ele>1321</ele>
        <time>2019-02-26T15:44:15Z</time>
      </trkpt>
      <trkpt lat="42.77239" lon="0.23826">
        <ele>1322</ele>
        <time>2019-02-26T15:44:16Z</time>
      </trkpt>
      <trkpt lat="42.77238" lon="0.23826">
        <ele>1322</ele>
        <time>2019-02-26T15:44:17Z</time>
      </trkpt>
      <trkpt lat="42.77238" lon="0.23826">
        <ele>1321</ele>
        <time>2019-02-26T15:44:18Z</time>
      </trkpt>
      <trkpt lat="42.77238" lon="0.23825">
        <ele>1321</ele>
        <time>2019-02-26T15:44:19Z</time>
      </trkpt>
      <trkpt lat="42.77237" lon="0.23825">
        <ele>1321</ele>
        <time>2019-02-26T15:44:20Z</time>
      </trkpt>
      <trkpt lat="42.77237" lon="0.23825">
        <ele>1321</ele>
        <time>2019-02-26T15:44:21Z</time>
      </trkpt>
      <trkpt lat="42.77236" lon="0.23825">
        <ele>1321</ele>
        <time>2019-02-26T15:44:22Z</time>
      </trkpt>
      <trkpt lat="42.77236" lon="0.23824">
        <ele>1321</ele>
        <time>2019-02-26T15:44:23Z</time>
      </trkpt>
      <trkpt lat="42.77236" lon="0.23824">
        <ele>1321</ele>
        <time>2019-02-26T15:44:24Z</time>
      </trkpt>
      <trkpt lat="42.77235" lon="0.23824">
        <ele>1321</ele>
        <time>2019-02-26T15:44:25Z</time>
      </trkpt>
      <trkpt lat="42.77235" lon="0.23824">
        <ele>1321</ele>
        <time>2019-02-26T15:44:26Z</time>
      </trkpt>
      <trkpt lat="42.77235" lon="0.23823">
        <ele>1321</ele>
        <time>2019-02-26T15:44:27Z</time>
      </trkpt>
      <trkpt lat="42.77234" lon="0.23823">
        <ele>1321</ele>
        <time>2019-02-26T15:44:28Z</time>
      </trkpt>
      <trkpt lat="42.77234" lon="0.23823">
        <ele>1321</ele>
        <time>2019-02-26T15:44:29Z</time>
      </trkpt>
      <trkpt lat="42.77234" lon="0.23831">
        <ele>1322</ele>
        <time>2019-02-26T15:44:37Z</time>
      </trkpt>
      <trkpt lat="42.77232" lon="0.23839">
        <ele>1322</ele>
        <time>2019-02-26T15:44:44Z</time>
      </trkpt>
      <trkpt lat="42.77227" lon="0.23845">
        <ele>1323</ele>
        <time>2019-02-26T15:44:47Z</time>
      </trkpt>
      <trkpt lat="42.77227" lon="0.23844">
        <ele>1323</ele>
        <time>2019-02-26T15:44:48Z</time>
      </trkpt>
      <trkpt lat="42.77227" lon="0.23844">
        <ele>1323</ele>
        <time>2019-02-26T15:44:49Z</time>
      </trkpt>
      <trkpt lat="42.77227" lon="0.23843">
        <ele>1323</ele>
        <time>2019-02-26T15:44:50Z</time>
      </trkpt>
      <trkpt lat="42.77227" lon="0.23843">
        <ele>1323</ele>
        <time>2019-02-26T15:44:51Z</time>
      </trkpt>
      <trkpt lat="42.77227" lon="0.23842">
        <ele>1323</ele>
        <time>2019-02-26T15:44:53Z</time>
      </trkpt>
      <trkpt lat="42.77228" lon="0.23841">
        <ele>1323</ele>
        <time>2019-02-26T15:44:54Z</time>
      </trkpt>
      <trkpt lat="42.77228" lon="0.2384">
        <ele>1323</ele>
        <time>2019-02-26T15:44:55Z</time>
      </trkpt>
      <trkpt lat="42.77228" lon="0.2384">
        <ele>1323</ele>
        <time>2019-02-26T15:44:56Z</time>
      </trkpt>
      <trkpt lat="42.77228" lon="0.23839">
        <ele>1323</ele>
        <time>2019-02-26T15:44:57Z</time>
      </trkpt>
      <trkpt lat="42.77228" lon="0.23839">
        <ele>1323</ele>
        <time>2019-02-26T15:44:58Z</time>
      </trkpt>
      <trkpt lat="42.77228" lon="0.23838">
        <ele>1323</ele>
        <time>2019-02-26T15:44:59Z</time>
      </trkpt>
      <trkpt lat="42.77228" lon="0.23838">
        <ele>1323</ele>
        <time>2019-02-26T15:45:00Z</time>
      </trkpt>
      <trkpt lat="42.77229" lon="0.23837">
        <ele>1323</ele>
        <time>2019-02-26T15:45:01Z</time>
      </trkpt>
      <trkpt lat="42.77229" lon="0.23837">
        <ele>1323</ele>
        <time>2019-02-26T15:45:02Z</time>
      </trkpt>
      <trkpt lat="42.77229" lon="0.23836">
        <ele>1323</ele>
        <time>2019-02-26T15:45:03Z</time>
      </trkpt>
      <trkpt lat="42.77229" lon="0.23835">
        <ele>1323</ele>
        <time>2019-02-26T15:45:05Z</time>
      </trkpt>
      <trkpt lat="42.77229" lon="0.23834">
        <ele>1323</ele>
        <time>2019-02-26T15:45:06Z</time>
      </trkpt>
      <trkpt lat="42.77229" lon="0.23834">
        <ele>1323</ele>
        <time>2019-02-26T15:45:07Z</time>
      </trkpt>
      <trkpt lat="42.7723" lon="0.23833">
        <ele>1323</ele>
        <time>2019-02-26T15:45:08Z</time>
      </trkpt>
      <trkpt lat="42.7723" lon="0.23833">
        <ele>1323</ele>
        <time>2019-02-26T15:45:09Z</time>
      </trkpt>
      <trkpt lat="42.7723" lon="0.23833">
        <ele>1323</ele>
        <time>2019-02-26T15:45:10Z</time>
      </trkpt>
      <trkpt lat="42.7723" lon="0.23833">
        <ele>1323</ele>
        <time>2019-02-26T15:45:11Z</time>
      </trkpt>
      <trkpt lat="42.7723" lon="0.23833">
        <ele>1323</ele>
        <time>2019-02-26T15:45:12Z</time>
      </trkpt>
      <trkpt lat="42.7723" lon="0.23834">
        <ele>1323</ele>
        <time>2019-02-26T15:45:13Z</time>
      </trkpt>
      <trkpt lat="42.7723" lon="0.23834">
        <ele>1323</ele>
        <time>2019-02-26T15:45:14Z</time>
      </trkpt>
      <trkpt lat="42.7723" lon="0.23834">
        <ele>1324</ele>
        <time>2019-02-26T15:45:15Z</time>
      </trkpt>
      <trkpt lat="42.77231" lon="0.23834">
        <ele>1324</ele>
        <time>2019-02-26T15:45:16Z</time>
      </trkpt>
      <trkpt lat="42.77231" lon="0.23835">
        <ele>1323</ele>
        <time>2019-02-26T15:45:17Z</time>
      </trkpt>
      <trkpt lat="42.77231" lon="0.23835">
        <ele>1323</ele>
        <time>2019-02-26T15:45:18Z</time>
      </trkpt>
      <trkpt lat="42.77231" lon="0.23835">
        <ele>1323</ele>
        <time>2019-02-26T15:45:19Z</time>
      </trkpt>
      <trkpt lat="42.77231" lon="0.23835">
        <ele>1323</ele>
        <time>2019-02-26T15:45:20Z</time>
      </trkpt>
      <trkpt lat="42.77231" lon="0.23836">
        <ele>1323</ele>
        <time>2019-02-26T15:45:21Z</time>
      </trkpt>
      <trkpt lat="42.77231" lon="0.23836">
        <ele>1323</ele>
        <time>2019-02-26T15:45:22Z</time>
      </trkpt>
      <trkpt lat="42.77232" lon="0.23836">
        <ele>1323</ele>
        <time>2019-02-26T15:45:23Z</time>
      </trkpt>
      <trkpt lat="42.77232" lon="0.23836">
        <ele>1323</ele>
        <time>2019-02-26T15:45:24Z</time>
      </trkpt>
      <trkpt lat="42.77232" lon="0.23837">
        <ele>1323</ele>
        <time>2019-02-26T15:45:25Z</time>
      </trkpt>
      <trkpt lat="42.77232" lon="0.23837">
        <ele>1323</ele>
        <time>2019-02-26T15:45:26Z</time>
      </trkpt>
      <trkpt lat="42.77232" lon="0.23837">
        <ele>1323</ele>
        <time>2019-02-26T15:45:27Z</time>
      </trkpt>
      <trkpt lat="42.77232" lon="0.23838">
        <ele>1323</ele>
        <time>2019-02-26T15:45:28Z</time>
      </trkpt>
      <trkpt lat="42.77232" lon="0.23838">
        <ele>1323</ele>
        <time>2019-02-26T15:45:29Z</time>
      </trkpt>
      <trkpt lat="42.77232" lon="0.23838">
        <ele>1323</ele>
        <time>2019-02-26T15:45:30Z</time>
      </trkpt>
      <trkpt lat="42.77233" lon="0.23838">
        <ele>1323</ele>
        <time>2019-02-26T15:45:31Z</time>
      </trkpt>
      <trkpt lat="42.77233" lon="0.23839">
        <ele>1323</ele>
        <time>2019-02-26T15:45:32Z</time>
      </trkpt>
      <trkpt lat="42.77236" lon="0.23844">
        <ele>1323</ele>
        <time>2019-02-26T15:45:33Z</time>
      </trkpt>
      <trkpt lat="42.77235" lon="0.23841">
        <ele>1323</ele>
        <time>2019-02-26T15:45:36Z</time>
      </trkpt>
      <trkpt lat="42.77235" lon="0.2384">
        <ele>1323</ele>
        <time>2019-02-26T15:45:37Z</time>
      </trkpt>
      <trkpt lat="42.77234" lon="0.23838">
        <ele>1323</ele>
        <time>2019-02-26T15:45:40Z</time>
      </trkpt>
      <trkpt lat="42.77234" lon="0.23837">
        <ele>1323</ele>
        <time>2019-02-26T15:45:41Z</time>
      </trkpt>
      <trkpt lat="42.77232" lon="0.23829">
        <ele>1323</ele>
        <time>2019-02-26T15:45:42Z</time>
      </trkpt>
      <trkpt lat="42.77233" lon="0.23828">
        <ele>1323</ele>
        <time>2019-02-26T15:45:43Z</time>
      </trkpt>
      <trkpt lat="42.77233" lon="0.23828">
        <ele>1323</ele>
        <time>2019-02-26T15:45:44Z</time>
      </trkpt>
      <trkpt lat="42.77234" lon="0.23825">
        <ele>1323</ele>
        <time>2019-02-26T15:45:48Z</time>
      </trkpt>
      <trkpt lat="42.77234" lon="0.23825">
        <ele>1324</ele>
        <time>2019-02-26T15:45:49Z</time>
      </trkpt>
      <trkpt lat="42.77234" lon="0.23823">
        <ele>1324</ele>
        <time>2019-02-26T15:45:52Z</time>
      </trkpt>
      <trkpt lat="42.77234" lon="0.23822">
        <ele>1324</ele>
        <time>2019-02-26T15:45:53Z</time>
      </trkpt>
      <trkpt lat="42.77235" lon="0.23819">
        <ele>1324</ele>
        <time>2019-02-26T15:45:57Z</time>
      </trkpt>
      <trkpt lat="42.77235" lon="0.23819">
        <ele>1324</ele>
        <time>2019-02-26T15:45:58Z</time>
      </trkpt>
      <trkpt lat="42.77236" lon="0.23817">
        <ele>1324</ele>
        <time>2019-02-26T15:46:00Z</time>
      </trkpt>
      <trkpt lat="42.77236" lon="0.23817">
        <ele>1323</ele>
        <time>2019-02-26T15:46:01Z</time>
      </trkpt>
      <trkpt lat="42.77236" lon="0.23817">
        <ele>1323</ele>
        <time>2019-02-26T15:46:02Z</time>
      </trkpt>
      <trkpt lat="42.77237" lon="0.23817">
        <ele>1323</ele>
        <time>2019-02-26T15:46:04Z</time>
      </trkpt>
      <trkpt lat="42.77237" lon="0.23817">
        <ele>1323</ele>
        <time>2019-02-26T15:46:05Z</time>
      </trkpt>
      <trkpt lat="42.77237" lon="0.23817">
        <ele>1323</ele>
        <time>2019-02-26T15:46:06Z</time>
      </trkpt>
      <trkpt lat="42.77238" lon="0.23817">
        <ele>1323</ele>
        <time>2019-02-26T15:46:08Z</time>
      </trkpt>
      <trkpt lat="42.77238" lon="0.23817">
        <ele>1324</ele>
        <time>2019-02-26T15:46:11Z</time>
      </trkpt>
      <trkpt lat="42.77239" lon="0.23816">
        <ele>1324</ele>
        <time>2019-02-26T15:46:13Z</time>
      </trkpt>
      <trkpt lat="42.77239" lon="0.23816">
        <ele>1324</ele>
        <time>2019-02-26T15:46:14Z</time>
      </trkpt>
      <trkpt lat="42.77239" lon="0.23816">
        <ele>1324</ele>
        <time>2019-02-26T15:46:15Z</time>
      </trkpt>
      <trkpt lat="42.7724" lon="0.23816">
        <ele>1324</ele>
        <time>2019-02-26T15:46:17Z</time>
      </trkpt>
      <trkpt lat="42.7724" lon="0.23816">
        <ele>1324</ele>
        <time>2019-02-26T15:46:18Z</time>
      </trkpt>
      <trkpt lat="42.7724" lon="0.23816">
        <ele>1324</ele>
        <time>2019-02-26T15:46:20Z</time>
      </trkpt>
      <trkpt lat="42.77241" lon="0.23816">
        <ele>1324</ele>
        <time>2019-02-26T15:46:22Z</time>
      </trkpt>
      <trkpt lat="42.77241" lon="0.23816">
        <ele>1324</ele>
        <time>2019-02-26T15:46:23Z</time>
      </trkpt>
      <trkpt lat="42.77241" lon="0.23816">
        <ele>1324</ele>
        <time>2019-02-26T15:46:24Z</time>
      </trkpt>
      <trkpt lat="42.77241" lon="0.23815">
        <ele>1324</ele>
        <time>2019-02-26T15:46:25Z</time>
      </trkpt>
      <trkpt lat="42.77242" lon="0.23815">
        <ele>1324</ele>
        <time>2019-02-26T15:46:27Z</time>
      </trkpt>
      <trkpt lat="42.77242" lon="0.23815">
        <ele>1324</ele>
        <time>2019-02-26T15:46:29Z</time>
      </trkpt>
      <trkpt lat="42.77243" lon="0.23815">
        <ele>1324</ele>
        <time>2019-02-26T15:46:31Z</time>
      </trkpt>
      <trkpt lat="42.77243" lon="0.23815">
        <ele>1324</ele>
        <time>2019-02-26T15:46:33Z</time>
      </trkpt>
      <trkpt lat="42.77244" lon="0.23815">
        <ele>1324</ele>
        <time>2019-02-26T15:46:34Z</time>
      </trkpt>
      <trkpt lat="42.77244" lon="0.23815">
        <ele>1324</ele>
        <time>2019-02-26T15:46:36Z</time>
      </trkpt>
      <trkpt lat="42.77244" lon="0.23815">
        <ele>1324</ele>
        <time>2019-02-26T15:46:37Z</time>
      </trkpt>
      <trkpt lat="42.77244" lon="0.23814">
        <ele>1324</ele>
        <time>2019-02-26T15:46:38Z</time>
      </trkpt>
      <trkpt lat="42.77245" lon="0.23814">
        <ele>1323</ele>
        <time>2019-02-26T15:46:40Z</time>
      </trkpt>
      <trkpt lat="42.77245" lon="0.23814">
        <ele>1323</ele>
        <time>2019-02-26T15:46:41Z</time>
      </trkpt>
      <trkpt lat="42.77246" lon="0.23814">
        <ele>1323</ele>
        <time>2019-02-26T15:46:42Z</time>
      </trkpt>
      <trkpt lat="42.77247" lon="0.23815">
        <ele>1323</ele>
        <time>2019-02-26T15:46:43Z</time>
      </trkpt>
      <trkpt lat="42.77249" lon="0.23815">
        <ele>1323</ele>
        <time>2019-02-26T15:46:45Z</time>
      </trkpt>
      <trkpt lat="42.77249" lon="0.23815">
        <ele>1322</ele>
        <time>2019-02-26T15:46:46Z</time>
      </trkpt>
      <trkpt lat="42.7725" lon="0.23815">
        <ele>1322</ele>
        <time>2019-02-26T15:46:47Z</time>
      </trkpt>
      <trkpt lat="42.77256" lon="0.23816">
        <ele>1322</ele>
        <time>2019-02-26T15:46:48Z</time>
      </trkpt>
      <trkpt lat="42.77257" lon="0.23817">
        <ele>1322</ele>
        <time>2019-02-26T15:46:49Z</time>
      </trkpt>
      <trkpt lat="42.77258" lon="0.23818">
        <ele>1321</ele>
        <time>2019-02-26T15:46:50Z</time>
      </trkpt>
      <trkpt lat="42.77258" lon="0.23818">
        <ele>1321</ele>
        <time>2019-02-26T15:46:51Z</time>
      </trkpt>
      <trkpt lat="42.77259" lon="0.23819">
        <ele>1321</ele>
        <time>2019-02-26T15:46:52Z</time>
      </trkpt>
      <trkpt lat="42.7726" lon="0.23819">
        <ele>1321</ele>
        <time>2019-02-26T15:46:53Z</time>
      </trkpt>
      <trkpt lat="42.7726" lon="0.2382">
        <ele>1321</ele>
        <time>2019-02-26T15:46:54Z</time>
      </trkpt>
      <trkpt lat="42.77261" lon="0.23821">
        <ele>1321</ele>
        <time>2019-02-26T15:46:55Z</time>
      </trkpt>
      <trkpt lat="42.77262" lon="0.23821">
        <ele>1321</ele>
        <time>2019-02-26T15:46:56Z</time>
      </trkpt>
      <trkpt lat="42.77262" lon="0.23822">
        <ele>1321</ele>
        <time>2019-02-26T15:46:57Z</time>
      </trkpt>
      <trkpt lat="42.77264" lon="0.23823">
        <ele>1321</ele>
        <time>2019-02-26T15:46:59Z</time>
      </trkpt>
      <trkpt lat="42.77265" lon="0.23823">
        <ele>1321</ele>
        <time>2019-02-26T15:47:00Z</time>
      </trkpt>
      <trkpt lat="42.77265" lon="0.23824">
        <ele>1321</ele>
        <time>2019-02-26T15:47:01Z</time>
      </trkpt>
      <trkpt lat="42.77267" lon="0.23825">
        <ele>1320</ele>
        <time>2019-02-26T15:47:03Z</time>
      </trkpt>
      <trkpt lat="42.77269" lon="0.23827">
        <ele>1320</ele>
        <time>2019-02-26T15:47:06Z</time>
      </trkpt>
      <trkpt lat="42.77271" lon="0.23828">
        <ele>1319</ele>
        <time>2019-02-26T15:47:08Z</time>
      </trkpt>
      <trkpt lat="42.77271" lon="0.23828">
        <ele>1319</ele>
        <time>2019-02-26T15:47:09Z</time>
      </trkpt>
      <trkpt lat="42.77272" lon="0.23829">
        <ele>1319</ele>
        <time>2019-02-26T15:47:10Z</time>
      </trkpt>
      <trkpt lat="42.77273" lon="0.23829">
        <ele>1319</ele>
        <time>2019-02-26T15:47:11Z</time>
      </trkpt>
      <trkpt lat="42.77274" lon="0.2383">
        <ele>1319</ele>
        <time>2019-02-26T15:47:12Z</time>
      </trkpt>
      <trkpt lat="42.77278" lon="0.23831">
        <ele>1318</ele>
        <time>2019-02-26T15:47:15Z</time>
      </trkpt>
      <trkpt lat="42.77279" lon="0.23831">
        <ele>1317</ele>
        <time>2019-02-26T15:47:16Z</time>
      </trkpt>
      <trkpt lat="42.77282" lon="0.23832">
        <ele>1317</ele>
        <time>2019-02-26T15:47:19Z</time>
      </trkpt>
      <trkpt lat="42.77284" lon="0.23833">
        <ele>1317</ele>
        <time>2019-02-26T15:47:20Z</time>
      </trkpt>
      <trkpt lat="42.77285" lon="0.23833">
        <ele>1317</ele>
        <time>2019-02-26T15:47:21Z</time>
      </trkpt>
      <trkpt lat="42.77286" lon="0.23834">
        <ele>1317</ele>
        <time>2019-02-26T15:47:22Z</time>
      </trkpt>
      <trkpt lat="42.77288" lon="0.23834">
        <ele>1317</ele>
        <time>2019-02-26T15:47:23Z</time>
      </trkpt>
      <trkpt lat="42.77289" lon="0.23835">
        <ele>1317</ele>
        <time>2019-02-26T15:47:24Z</time>
      </trkpt>
      <trkpt lat="42.7729" lon="0.23835">
        <ele>1317</ele>
        <time>2019-02-26T15:47:25Z</time>
      </trkpt>
      <trkpt lat="42.77292" lon="0.23835">
        <ele>1316</ele>
        <time>2019-02-26T15:47:27Z</time>
      </trkpt>
      <trkpt lat="42.77293" lon="0.23836">
        <ele>1316</ele>
        <time>2019-02-26T15:47:28Z</time>
      </trkpt>
      <trkpt lat="42.77297" lon="0.23836">
        <ele>1316</ele>
        <time>2019-02-26T15:47:31Z</time>
      </trkpt>
      <trkpt lat="42.77298" lon="0.23836">
        <ele>1316</ele>
        <time>2019-02-26T15:47:32Z</time>
      </trkpt>
      <trkpt lat="42.773" lon="0.23837">
        <ele>1316</ele>
        <time>2019-02-26T15:47:34Z</time>
      </trkpt>
      <trkpt lat="42.77301" lon="0.23837">
        <ele>1316</ele>
        <time>2019-02-26T15:47:35Z</time>
      </trkpt>
      <trkpt lat="42.77301" lon="0.23837">
        <ele>1316</ele>
        <time>2019-02-26T15:47:36Z</time>
      </trkpt>
      <trkpt lat="42.77302" lon="0.23837">
        <ele>1316</ele>
        <time>2019-02-26T15:47:37Z</time>
      </trkpt>
      <trkpt lat="42.77302" lon="0.23838">
        <ele>1315</ele>
        <time>2019-02-26T15:47:38Z</time>
      </trkpt>
      <trkpt lat="42.77303" lon="0.23838">
        <ele>1315</ele>
        <time>2019-02-26T15:47:39Z</time>
      </trkpt>
      <trkpt lat="42.77303" lon="0.23838">
        <ele>1315</ele>
        <time>2019-02-26T15:47:40Z</time>
      </trkpt>
      <trkpt lat="42.77304" lon="0.23838">
        <ele>1315</ele>
        <time>2019-02-26T15:47:41Z</time>
      </trkpt>
      <trkpt lat="42.77304" lon="0.23838">
        <ele>1315</ele>
        <time>2019-02-26T15:47:42Z</time>
      </trkpt>
      <trkpt lat="42.77311" lon="0.23841">
        <ele>1315</ele>
        <time>2019-02-26T15:47:44Z</time>
      </trkpt>
      <trkpt lat="42.77312" lon="0.23841">
        <ele>1315</ele>
        <time>2019-02-26T15:47:45Z</time>
      </trkpt>
      <trkpt lat="42.77315" lon="0.23842">
        <ele>1315</ele>
        <time>2019-02-26T15:47:47Z</time>
      </trkpt>
      <trkpt lat="42.77316" lon="0.23842">
        <ele>1315</ele>
        <time>2019-02-26T15:47:48Z</time>
      </trkpt>
      <trkpt lat="42.77317" lon="0.23843">
        <ele>1314</ele>
        <time>2019-02-26T15:47:49Z</time>
      </trkpt>
      <trkpt lat="42.77318" lon="0.23843">
        <ele>1314</ele>
        <time>2019-02-26T15:47:50Z</time>
      </trkpt>
      <trkpt lat="42.7732" lon="0.23843">
        <ele>1313</ele>
        <time>2019-02-26T15:47:51Z</time>
      </trkpt>
      <trkpt lat="42.77321" lon="0.23845">
        <ele>1314</ele>
        <time>2019-02-26T15:47:52Z</time>
      </trkpt>
      <trkpt lat="42.77322" lon="0.23846">
        <ele>1314</ele>
        <time>2019-02-26T15:47:53Z</time>
      </trkpt>
      <trkpt lat="42.77324" lon="0.23849">
        <ele>1313</ele>
        <time>2019-02-26T15:47:55Z</time>
      </trkpt>
      <trkpt lat="42.77325" lon="0.2385">
        <ele>1313</ele>
        <time>2019-02-26T15:47:56Z</time>
      </trkpt>
      <trkpt lat="42.77325" lon="0.23851">
        <ele>1313</ele>
        <time>2019-02-26T15:47:57Z</time>
      </trkpt>
      <trkpt lat="42.77326" lon="0.23853">
        <ele>1313</ele>
        <time>2019-02-26T15:47:58Z</time>
      </trkpt>
      <trkpt lat="42.77327" lon="0.23853">
        <ele>1313</ele>
        <time>2019-02-26T15:47:59Z</time>
      </trkpt>
      <trkpt lat="42.77328" lon="0.23854">
        <ele>1313</ele>
        <time>2019-02-26T15:48:00Z</time>
      </trkpt>
      <trkpt lat="42.77329" lon="0.23854">
        <ele>1312</ele>
        <time>2019-02-26T15:48:01Z</time>
      </trkpt>
      <trkpt lat="42.7733" lon="0.23855">
        <ele>1312</ele>
        <time>2019-02-26T15:48:02Z</time>
      </trkpt>
      <trkpt lat="42.7733" lon="0.23855">
        <ele>1312</ele>
        <time>2019-02-26T15:48:03Z</time>
      </trkpt>
      <trkpt lat="42.77337" lon="0.23859">
        <ele>1313</ele>
        <time>2019-02-26T15:48:05Z</time>
      </trkpt>
      <trkpt lat="42.77344" lon="0.23861">
        <ele>1313</ele>
        <time>2019-02-26T15:48:11Z</time>
      </trkpt>
      <trkpt lat="42.77345" lon="0.23862">
        <ele>1313</ele>
        <time>2019-02-26T15:48:12Z</time>
      </trkpt>
      <trkpt lat="42.7735" lon="0.23868">
        <ele>1313</ele>
        <time>2019-02-26T15:48:18Z</time>
      </trkpt>
      <trkpt lat="42.77351" lon="0.23869">
        <ele>1312</ele>
        <time>2019-02-26T15:48:19Z</time>
      </trkpt>
      <trkpt lat="42.77352" lon="0.2387">
        <ele>1312</ele>
        <time>2019-02-26T15:48:20Z</time>
      </trkpt>
      <trkpt lat="42.77356" lon="0.23872">
        <ele>1311</ele>
        <time>2019-02-26T15:48:23Z</time>
      </trkpt>
      <trkpt lat="42.77358" lon="0.23873">
        <ele>1311</ele>
        <time>2019-02-26T15:48:24Z</time>
      </trkpt>
      <trkpt lat="42.7736" lon="0.23874">
        <ele>1311</ele>
        <time>2019-02-26T15:48:26Z</time>
      </trkpt>
      <trkpt lat="42.77362" lon="0.23875">
        <ele>1311</ele>
        <time>2019-02-26T15:48:27Z</time>
      </trkpt>
      <trkpt lat="42.77362" lon="0.23876">
        <ele>1311</ele>
        <time>2019-02-26T15:48:28Z</time>
      </trkpt>
      <trkpt lat="42.77363" lon="0.23877">
        <ele>1312</ele>
        <time>2019-02-26T15:48:29Z</time>
      </trkpt>
      <trkpt lat="42.77364" lon="0.23878">
        <ele>1312</ele>
        <time>2019-02-26T15:48:30Z</time>
      </trkpt>
      <trkpt lat="42.77365" lon="0.23879">
        <ele>1312</ele>
        <time>2019-02-26T15:48:31Z</time>
      </trkpt>
      <trkpt lat="42.77366" lon="0.2388">
        <ele>1312</ele>
        <time>2019-02-26T15:48:32Z</time>
      </trkpt>
      <trkpt lat="42.77369" lon="0.23883">
        <ele>1311</ele>
        <time>2019-02-26T15:48:35Z</time>
      </trkpt>
      <trkpt lat="42.77374" lon="0.23885">
        <ele>1310</ele>
        <time>2019-02-26T15:48:39Z</time>
      </trkpt>
      <trkpt lat="42.77383" lon="0.23882">
        <ele>1311</ele>
        <time>2019-02-26T15:48:45Z</time>
      </trkpt>
      <trkpt lat="42.77387" lon="0.23881">
        <ele>1311</ele>
        <time>2019-02-26T15:48:48Z</time>
      </trkpt>
      <trkpt lat="42.77388" lon="0.23881">
        <ele>1311</ele>
        <time>2019-02-26T15:48:49Z</time>
      </trkpt>
      <trkpt lat="42.77395" lon="0.2388">
        <ele>1310</ele>
        <time>2019-02-26T15:48:55Z</time>
      </trkpt>
      <trkpt lat="42.77395" lon="0.2388">
        <ele>1309</ele>
        <time>2019-02-26T15:48:56Z</time>
      </trkpt>
      <trkpt lat="42.77398" lon="0.23879">
        <ele>1309</ele>
        <time>2019-02-26T15:48:59Z</time>
      </trkpt>
      <trkpt lat="42.77404" lon="0.23878">
        <ele>1309</ele>
        <time>2019-02-26T15:49:00Z</time>
      </trkpt>
      <trkpt lat="42.77412" lon="0.23876">
        <ele>1308</ele>
        <time>2019-02-26T15:49:05Z</time>
      </trkpt>
      <trkpt lat="42.77413" lon="0.23876">
        <ele>1308</ele>
        <time>2019-02-26T15:49:06Z</time>
      </trkpt>
      <trkpt lat="42.77414" lon="0.23876">
        <ele>1308</ele>
        <time>2019-02-26T15:49:07Z</time>
      </trkpt>
      <trkpt lat="42.77415" lon="0.23876">
        <ele>1308</ele>
        <time>2019-02-26T15:49:08Z</time>
      </trkpt>
      <trkpt lat="42.77416" lon="0.23875">
        <ele>1307</ele>
        <time>2019-02-26T15:49:09Z</time>
      </trkpt>
      <trkpt lat="42.77417" lon="0.23875">
        <ele>1307</ele>
        <time>2019-02-26T15:49:10Z</time>
      </trkpt>
      <trkpt lat="42.77418" lon="0.23875">
        <ele>1307</ele>
        <time>2019-02-26T15:49:11Z</time>
      </trkpt>
      <trkpt lat="42.77419" lon="0.23875">
        <ele>1307</ele>
        <time>2019-02-26T15:49:12Z</time>
      </trkpt>
      <trkpt lat="42.7742" lon="0.23875">
        <ele>1307</ele>
        <time>2019-02-26T15:49:13Z</time>
      </trkpt>
      <trkpt lat="42.77421" lon="0.23874">
        <ele>1307</ele>
        <time>2019-02-26T15:49:14Z</time>
      </trkpt>
      <trkpt lat="42.77422" lon="0.23874">
        <ele>1307</ele>
        <time>2019-02-26T15:49:15Z</time>
      </trkpt>
      <trkpt lat="42.77423" lon="0.23873">
        <ele>1306</ele>
        <time>2019-02-26T15:49:16Z</time>
      </trkpt>
      <trkpt lat="42.77425" lon="0.23872">
        <ele>1306</ele>
        <time>2019-02-26T15:49:18Z</time>
      </trkpt>
      <trkpt lat="42.77426" lon="0.23872">
        <ele>1306</ele>
        <time>2019-02-26T15:49:19Z</time>
      </trkpt>
      <trkpt lat="42.77427" lon="0.2387">
        <ele>1306</ele>
        <time>2019-02-26T15:49:21Z</time>
      </trkpt>
      <trkpt lat="42.77428" lon="0.2387">
        <ele>1306</ele>
        <time>2019-02-26T15:49:22Z</time>
      </trkpt>
      <trkpt lat="42.77429" lon="0.23869">
        <ele>1306</ele>
        <time>2019-02-26T15:49:23Z</time>
      </trkpt>
      <trkpt lat="42.7743" lon="0.23869">
        <ele>1305</ele>
        <time>2019-02-26T15:49:24Z</time>
      </trkpt>
      <trkpt lat="42.7743" lon="0.23868">
        <ele>1305</ele>
        <time>2019-02-26T15:49:25Z</time>
      </trkpt>
      <trkpt lat="42.77431" lon="0.23868">
        <ele>1305</ele>
        <time>2019-02-26T15:49:26Z</time>
      </trkpt>
      <trkpt lat="42.77431" lon="0.23867">
        <ele>1305</ele>
        <time>2019-02-26T15:49:27Z</time>
      </trkpt>
      <trkpt lat="42.77432" lon="0.23866">
        <ele>1305</ele>
        <time>2019-02-26T15:49:28Z</time>
      </trkpt>
      <trkpt lat="42.77433" lon="0.23866">
        <ele>1305</ele>
        <time>2019-02-26T15:49:29Z</time>
      </trkpt>
      <trkpt lat="42.77433" lon="0.23865">
        <ele>1304</ele>
        <time>2019-02-26T15:49:30Z</time>
      </trkpt>
      <trkpt lat="42.77434" lon="0.23864">
        <ele>1304</ele>
        <time>2019-02-26T15:49:32Z</time>
      </trkpt>
      <trkpt lat="42.77435" lon="0.23863">
        <ele>1304</ele>
        <time>2019-02-26T15:49:33Z</time>
      </trkpt>
      <trkpt lat="42.77435" lon="0.23863">
        <ele>1304</ele>
        <time>2019-02-26T15:49:34Z</time>
      </trkpt>
      <trkpt lat="42.77436" lon="0.23862">
        <ele>1304</ele>
        <time>2019-02-26T15:49:35Z</time>
      </trkpt>
      <trkpt lat="42.77436" lon="0.23861">
        <ele>1304</ele>
        <time>2019-02-26T15:49:36Z</time>
      </trkpt>
      <trkpt lat="42.77437" lon="0.23861">
        <ele>1304</ele>
        <time>2019-02-26T15:49:37Z</time>
      </trkpt>
      <trkpt lat="42.77443" lon="0.23857">
        <ele>1302</ele>
        <time>2019-02-26T15:49:43Z</time>
      </trkpt>
      <trkpt lat="42.77444" lon="0.23856">
        <ele>1302</ele>
        <time>2019-02-26T15:49:44Z</time>
      </trkpt>
      <trkpt lat="42.77445" lon="0.23856">
        <ele>1302</ele>
        <time>2019-02-26T15:49:45Z</time>
      </trkpt>
      <trkpt lat="42.77448" lon="0.23855">
        <ele>1302</ele>
        <time>2019-02-26T15:49:48Z</time>
      </trkpt>
      <trkpt lat="42.77449" lon="0.23855">
        <ele>1302</ele>
        <time>2019-02-26T15:49:50Z</time>
      </trkpt>
      <trkpt lat="42.77452" lon="0.23855">
        <ele>1301</ele>
        <time>2019-02-26T15:49:54Z</time>
      </trkpt>
      <trkpt lat="42.77453" lon="0.23855">
        <ele>1301</ele>
        <time>2019-02-26T15:49:56Z</time>
      </trkpt>
      <trkpt lat="42.77455" lon="0.23855">
        <ele>1301</ele>
        <time>2019-02-26T15:49:58Z</time>
      </trkpt>
      <trkpt lat="42.77455" lon="0.23854">
        <ele>1301</ele>
        <time>2019-02-26T15:49:59Z</time>
      </trkpt>
      <trkpt lat="42.77456" lon="0.23854">
        <ele>1301</ele>
        <time>2019-02-26T15:50:00Z</time>
      </trkpt>
      <trkpt lat="42.77456" lon="0.23854">
        <ele>1301</ele>
        <time>2019-02-26T15:50:01Z</time>
      </trkpt>
      <trkpt lat="42.77457" lon="0.23853">
        <ele>1301</ele>
        <time>2019-02-26T15:50:02Z</time>
      </trkpt>
      <trkpt lat="42.77457" lon="0.23853">
        <ele>1300</ele>
        <time>2019-02-26T15:50:03Z</time>
      </trkpt>
      <trkpt lat="42.77458" lon="0.23853">
        <ele>1299</ele>
        <time>2019-02-26T15:50:04Z</time>
      </trkpt>
      <trkpt lat="42.77459" lon="0.23852">
        <ele>1299</ele>
        <time>2019-02-26T15:50:05Z</time>
      </trkpt>
      <trkpt lat="42.77459" lon="0.23852">
        <ele>1299</ele>
        <time>2019-02-26T15:50:06Z</time>
      </trkpt>
      <trkpt lat="42.7746" lon="0.23852">
        <ele>1299</ele>
        <time>2019-02-26T15:50:07Z</time>
      </trkpt>
      <trkpt lat="42.77465" lon="0.23848">
        <ele>1299</ele>
        <time>2019-02-26T15:50:08Z</time>
      </trkpt>
      <trkpt lat="42.77467" lon="0.23846">
        <ele>1299</ele>
        <time>2019-02-26T15:50:11Z</time>
      </trkpt>
      <trkpt lat="42.77467" lon="0.23845">
        <ele>1299</ele>
        <time>2019-02-26T15:50:12Z</time>
      </trkpt>
      <trkpt lat="42.77468" lon="0.23844">
        <ele>1299</ele>
        <time>2019-02-26T15:50:13Z</time>
      </trkpt>
      <trkpt lat="42.7747" lon="0.2384">
        <ele>1298</ele>
        <time>2019-02-26T15:50:18Z</time>
      </trkpt>
      <trkpt lat="42.77471" lon="0.2384">
        <ele>1298</ele>
        <time>2019-02-26T15:50:19Z</time>
      </trkpt>
      <trkpt lat="42.77472" lon="0.23839">
        <ele>1298</ele>
        <time>2019-02-26T15:50:21Z</time>
      </trkpt>
      <trkpt lat="42.77472" lon="0.23838">
        <ele>1298</ele>
        <time>2019-02-26T15:50:22Z</time>
      </trkpt>
      <trkpt lat="42.77474" lon="0.23837">
        <ele>1298</ele>
        <time>2019-02-26T15:50:25Z</time>
      </trkpt>
      <trkpt lat="42.77474" lon="0.23836">
        <ele>1298</ele>
        <time>2019-02-26T15:50:26Z</time>
      </trkpt>
      <trkpt lat="42.77475" lon="0.23835">
        <ele>1298</ele>
        <time>2019-02-26T15:50:29Z</time>
      </trkpt>
      <trkpt lat="42.77476" lon="0.23834">
        <ele>1298</ele>
        <time>2019-02-26T15:50:30Z</time>
      </trkpt>
      <trkpt lat="42.77483" lon="0.23827">
        <ele>1298</ele>
        <time>2019-02-26T15:50:32Z</time>
      </trkpt>
      <trkpt lat="42.77485" lon="0.23826">
        <ele>1298</ele>
        <time>2019-02-26T15:50:34Z</time>
      </trkpt>
      <trkpt lat="42.77486" lon="0.23825">
        <ele>1298</ele>
        <time>2019-02-26T15:50:35Z</time>
      </trkpt>
      <trkpt lat="42.77491" lon="0.23823">
        <ele>1297</ele>
        <time>2019-02-26T15:50:39Z</time>
      </trkpt>
      <trkpt lat="42.77492" lon="0.23824">
        <ele>1297</ele>
        <time>2019-02-26T15:50:40Z</time>
      </trkpt>
      <trkpt lat="42.77493" lon="0.23825">
        <ele>1297</ele>
        <time>2019-02-26T15:50:41Z</time>
      </trkpt>
      <trkpt lat="42.77494" lon="0.23826">
        <ele>1297</ele>
        <time>2019-02-26T15:50:42Z</time>
      </trkpt>
      <trkpt lat="42.77495" lon="0.23827">
        <ele>1297</ele>
        <time>2019-02-26T15:50:43Z</time>
      </trkpt>
      <trkpt lat="42.77496" lon="0.2383">
        <ele>1297</ele>
        <time>2019-02-26T15:50:45Z</time>
      </trkpt>
      <trkpt lat="42.77497" lon="0.23831">
        <ele>1297</ele>
        <time>2019-02-26T15:50:46Z</time>
      </trkpt>
      <trkpt lat="42.77498" lon="0.23832">
        <ele>1297</ele>
        <time>2019-02-26T15:50:47Z</time>
      </trkpt>
      <trkpt lat="42.775" lon="0.23834">
        <ele>1296</ele>
        <time>2019-02-26T15:50:49Z</time>
      </trkpt>
      <trkpt lat="42.775" lon="0.23835">
        <ele>1296</ele>
        <time>2019-02-26T15:50:50Z</time>
      </trkpt>
      <trkpt lat="42.77502" lon="0.23838">
        <ele>1296</ele>
        <time>2019-02-26T15:50:53Z</time>
      </trkpt>
      <trkpt lat="42.77503" lon="0.2384">
        <ele>1296</ele>
        <time>2019-02-26T15:50:54Z</time>
      </trkpt>
      <trkpt lat="42.77505" lon="0.23842">
        <ele>1295</ele>
        <time>2019-02-26T15:50:56Z</time>
      </trkpt>
      <trkpt lat="42.77509" lon="0.23854">
        <ele>1294</ele>
        <time>2019-02-26T15:51:03Z</time>
      </trkpt>
      <trkpt lat="42.77519" lon="0.23855">
        <ele>1293</ele>
        <time>2019-02-26T15:51:10Z</time>
      </trkpt>
      <trkpt lat="42.77523" lon="0.23856">
        <ele>1293</ele>
        <time>2019-02-26T15:51:14Z</time>
      </trkpt>
      <trkpt lat="42.77524" lon="0.23857">
        <ele>1292</ele>
        <time>2019-02-26T15:51:15Z</time>
      </trkpt>
      <trkpt lat="42.77529" lon="0.23859">
        <ele>1291</ele>
        <time>2019-02-26T15:51:20Z</time>
      </trkpt>
      <trkpt lat="42.77529" lon="0.23861">
        <ele>1290</ele>
        <time>2019-02-26T15:51:24Z</time>
      </trkpt>
      <trkpt lat="42.7753" lon="0.23862">
        <ele>1290</ele>
        <time>2019-02-26T15:51:25Z</time>
      </trkpt>
      <trkpt lat="42.77531" lon="0.23866">
        <ele>1289</ele>
        <time>2019-02-26T15:51:30Z</time>
      </trkpt>
      <trkpt lat="42.77532" lon="0.23876">
        <ele>1289</ele>
        <time>2019-02-26T15:51:31Z</time>
      </trkpt>
      <trkpt lat="42.77532" lon="0.2388">
        <ele>1289</ele>
        <time>2019-02-26T15:51:32Z</time>
      </trkpt>
      <trkpt lat="42.77531" lon="0.23889">
        <ele>1289</ele>
        <time>2019-02-26T15:51:33Z</time>
      </trkpt>
      <trkpt lat="42.77532" lon="0.23899">
        <ele>1288</ele>
        <time>2019-02-26T15:51:37Z</time>
      </trkpt>
      <trkpt lat="42.77534" lon="0.239">
        <ele>1287</ele>
        <time>2019-02-26T15:51:38Z</time>
      </trkpt>
      <trkpt lat="42.77535" lon="0.239">
        <ele>1287</ele>
        <time>2019-02-26T15:51:39Z</time>
      </trkpt>
      <trkpt lat="42.77539" lon="0.239">
        <ele>1287</ele>
        <time>2019-02-26T15:51:42Z</time>
      </trkpt>
      <trkpt lat="42.7754" lon="0.23901">
        <ele>1286</ele>
        <time>2019-02-26T15:51:43Z</time>
      </trkpt>
      <trkpt lat="42.77541" lon="0.23901">
        <ele>1286</ele>
        <time>2019-02-26T15:51:44Z</time>
      </trkpt>
      <trkpt lat="42.77543" lon="0.23901">
        <ele>1286</ele>
        <time>2019-02-26T15:51:45Z</time>
      </trkpt>
      <trkpt lat="42.77545" lon="0.239">
        <ele>1286</ele>
        <time>2019-02-26T15:51:46Z</time>
      </trkpt>
      <trkpt lat="42.77548" lon="0.239">
        <ele>1285</ele>
        <time>2019-02-26T15:51:48Z</time>
      </trkpt>
      <trkpt lat="42.7755" lon="0.239">
        <ele>1285</ele>
        <time>2019-02-26T15:51:49Z</time>
      </trkpt>
      <trkpt lat="42.77551" lon="0.23899">
        <ele>1285</ele>
        <time>2019-02-26T15:51:50Z</time>
      </trkpt>
      <trkpt lat="42.77553" lon="0.23898">
        <ele>1285</ele>
        <time>2019-02-26T15:51:51Z</time>
      </trkpt>
      <trkpt lat="42.77559" lon="0.23894">
        <ele>1285</ele>
        <time>2019-02-26T15:51:55Z</time>
      </trkpt>
      <trkpt lat="42.77583" lon="0.23871">
        <ele>1284</ele>
        <time>2019-02-26T15:52:08Z</time>
      </trkpt>
      <trkpt lat="42.77589" lon="0.23871">
        <ele>1283</ele>
        <time>2019-02-26T15:52:13Z</time>
      </trkpt>
      <trkpt lat="42.77593" lon="0.23871">
        <ele>1283</ele>
        <time>2019-02-26T15:52:17Z</time>
      </trkpt>
      <trkpt lat="42.77594" lon="0.23872">
        <ele>1283</ele>
        <time>2019-02-26T15:52:18Z</time>
      </trkpt>
      <trkpt lat="42.77595" lon="0.23873">
        <ele>1283</ele>
        <time>2019-02-26T15:52:19Z</time>
      </trkpt>
      <trkpt lat="42.77596" lon="0.23874">
        <ele>1283</ele>
        <time>2019-02-26T15:52:21Z</time>
      </trkpt>
      <trkpt lat="42.77597" lon="0.23875">
        <ele>1282</ele>
        <time>2019-02-26T15:52:22Z</time>
      </trkpt>
      <trkpt lat="42.77598" lon="0.23876">
        <ele>1281</ele>
        <time>2019-02-26T15:52:24Z</time>
      </trkpt>
      <trkpt lat="42.77599" lon="0.23877">
        <ele>1282</ele>
        <time>2019-02-26T15:52:25Z</time>
      </trkpt>
      <trkpt lat="42.776" lon="0.23878">
        <ele>1282</ele>
        <time>2019-02-26T15:52:27Z</time>
      </trkpt>
      <trkpt lat="42.77617" lon="0.23889">
        <ele>1280</ele>
        <time>2019-02-26T15:52:41Z</time>
      </trkpt>
      <trkpt lat="42.77618" lon="0.2389">
        <ele>1280</ele>
        <time>2019-02-26T15:52:42Z</time>
      </trkpt>
      <trkpt lat="42.77618" lon="0.23891">
        <ele>1280</ele>
        <time>2019-02-26T15:52:43Z</time>
      </trkpt>
      <trkpt lat="42.77618" lon="0.23893">
        <ele>1280</ele>
        <time>2019-02-26T15:52:45Z</time>
      </trkpt>
      <trkpt lat="42.77622" lon="0.23915">
        <ele>1279</ele>
        <time>2019-02-26T15:52:52Z</time>
      </trkpt>
      <trkpt lat="42.77624" lon="0.23917">
        <ele>1278</ele>
        <time>2019-02-26T15:52:55Z</time>
      </trkpt>
      <trkpt lat="42.77625" lon="0.23918">
        <ele>1278</ele>
        <time>2019-02-26T15:52:56Z</time>
      </trkpt>
      <trkpt lat="42.77628" lon="0.23921">
        <ele>1278</ele>
        <time>2019-02-26T15:52:59Z</time>
      </trkpt>
      <trkpt lat="42.77629" lon="0.23922">
        <ele>1278</ele>
        <time>2019-02-26T15:53:00Z</time>
      </trkpt>
      <trkpt lat="42.77635" lon="0.23932">
        <ele>1277</ele>
        <time>2019-02-26T15:53:07Z</time>
      </trkpt>
      <trkpt lat="42.77636" lon="0.23933">
        <ele>1277</ele>
        <time>2019-02-26T15:53:08Z</time>
      </trkpt>
      <trkpt lat="42.77636" lon="0.23933">
        <ele>1277</ele>
        <time>2019-02-26T15:53:09Z</time>
      </trkpt>
      <trkpt lat="42.77637" lon="0.23934">
        <ele>1278</ele>
        <time>2019-02-26T15:53:10Z</time>
      </trkpt>
      <trkpt lat="42.77638" lon="0.23935">
        <ele>1278</ele>
        <time>2019-02-26T15:53:11Z</time>
      </trkpt>
      <trkpt lat="42.77639" lon="0.23935">
        <ele>1277</ele>
        <time>2019-02-26T15:53:12Z</time>
      </trkpt>
      <trkpt lat="42.77639" lon="0.23936">
        <ele>1277</ele>
        <time>2019-02-26T15:53:13Z</time>
      </trkpt>
      <trkpt lat="42.7764" lon="0.23937">
        <ele>1276</ele>
        <time>2019-02-26T15:53:14Z</time>
      </trkpt>
      <trkpt lat="42.77641" lon="0.23938">
        <ele>1276</ele>
        <time>2019-02-26T15:53:15Z</time>
      </trkpt>
      <trkpt lat="42.77642" lon="0.23938">
        <ele>1276</ele>
        <time>2019-02-26T15:53:16Z</time>
      </trkpt>
      <trkpt lat="42.77642" lon="0.23939">
        <ele>1276</ele>
        <time>2019-02-26T15:53:17Z</time>
      </trkpt>
      <trkpt lat="42.77645" lon="0.23943">
        <ele>1276</ele>
        <time>2019-02-26T15:53:25Z</time>
      </trkpt>
      <trkpt lat="42.77645" lon="0.23944">
        <ele>1276</ele>
        <time>2019-02-26T15:53:26Z</time>
      </trkpt>
      <trkpt lat="42.77646" lon="0.23944">
        <ele>1275</ele>
        <time>2019-02-26T15:53:27Z</time>
      </trkpt>
      <trkpt lat="42.7765" lon="0.2395">
        <ele>1275</ele>
        <time>2019-02-26T15:53:28Z</time>
      </trkpt>
      <trkpt lat="42.77653" lon="0.23953">
        <ele>1275</ele>
        <time>2019-02-26T15:53:32Z</time>
      </trkpt>
      <trkpt lat="42.77654" lon="0.23954">
        <ele>1275</ele>
        <time>2019-02-26T15:53:33Z</time>
      </trkpt>
      <trkpt lat="42.77657" lon="0.23957">
        <ele>1275</ele>
        <time>2019-02-26T15:53:37Z</time>
      </trkpt>
      <trkpt lat="42.77667" lon="0.23957">
        <ele>1274</ele>
        <time>2019-02-26T15:53:47Z</time>
      </trkpt>
      <trkpt lat="42.77668" lon="0.23958">
        <ele>1274</ele>
        <time>2019-02-26T15:53:48Z</time>
      </trkpt>
      <trkpt lat="42.77671" lon="0.23958">
        <ele>1274</ele>
        <time>2019-02-26T15:53:50Z</time>
      </trkpt>
      <trkpt lat="42.77672" lon="0.23958">
        <ele>1274</ele>
        <time>2019-02-26T15:53:51Z</time>
      </trkpt>
      <trkpt lat="42.77673" lon="0.23959">
        <ele>1274</ele>
        <time>2019-02-26T15:53:52Z</time>
      </trkpt>
      <trkpt lat="42.77674" lon="0.23959">
        <ele>1274</ele>
        <time>2019-02-26T15:53:53Z</time>
      </trkpt>
      <trkpt lat="42.77675" lon="0.23959">
        <ele>1274</ele>
        <time>2019-02-26T15:53:54Z</time>
      </trkpt>
      <trkpt lat="42.77676" lon="0.2396">
        <ele>1274</ele>
        <time>2019-02-26T15:53:55Z</time>
      </trkpt>
      <trkpt lat="42.77677" lon="0.2396">
        <ele>1274</ele>
        <time>2019-02-26T15:53:56Z</time>
      </trkpt>
      <trkpt lat="42.77678" lon="0.23961">
        <ele>1274</ele>
        <time>2019-02-26T15:53:57Z</time>
      </trkpt>
      <trkpt lat="42.77679" lon="0.23962">
        <ele>1274</ele>
        <time>2019-02-26T15:53:58Z</time>
      </trkpt>
      <trkpt lat="42.7768" lon="0.23962">
        <ele>1275</ele>
        <time>2019-02-26T15:53:59Z</time>
      </trkpt>
      <trkpt lat="42.77681" lon="0.23963">
        <ele>1275</ele>
        <time>2019-02-26T15:54:00Z</time>
      </trkpt>
      <trkpt lat="42.77682" lon="0.23964">
        <ele>1274</ele>
        <time>2019-02-26T15:54:01Z</time>
      </trkpt>
      <trkpt lat="42.77683" lon="0.23964">
        <ele>1274</ele>
        <time>2019-02-26T15:54:02Z</time>
      </trkpt>
      <trkpt lat="42.77691" lon="0.23965">
        <ele>1273</ele>
        <time>2019-02-26T15:54:07Z</time>
      </trkpt>
      <trkpt lat="42.77693" lon="0.23964">
        <ele>1272</ele>
        <time>2019-02-26T15:54:09Z</time>
      </trkpt>
      <trkpt lat="42.77693" lon="0.23964">
        <ele>1272</ele>
        <time>2019-02-26T15:54:10Z</time>
      </trkpt>
      <trkpt lat="42.77695" lon="0.23963">
        <ele>1271</ele>
        <time>2019-02-26T15:54:13Z</time>
      </trkpt>
      <trkpt lat="42.77695" lon="0.23963">
        <ele>1271</ele>
        <time>2019-02-26T15:54:14Z</time>
      </trkpt>
      <trkpt lat="42.77696" lon="0.23962">
        <ele>1271</ele>
        <time>2019-02-26T15:54:16Z</time>
      </trkpt>
      <trkpt lat="42.77697" lon="0.23962">
        <ele>1271</ele>
        <time>2019-02-26T15:54:17Z</time>
      </trkpt>
      <trkpt lat="42.77697" lon="0.23962">
        <ele>1271</ele>
        <time>2019-02-26T15:54:18Z</time>
      </trkpt>
      <trkpt lat="42.77704" lon="0.23956">
        <ele>1271</ele>
        <time>2019-02-26T15:54:19Z</time>
      </trkpt>
      <trkpt lat="42.7771" lon="0.23952">
        <ele>1271</ele>
        <time>2019-02-26T15:54:21Z</time>
      </trkpt>
      <trkpt lat="42.7771" lon="0.23951">
        <ele>1271</ele>
        <time>2019-02-26T15:54:22Z</time>
      </trkpt>
      <trkpt lat="42.77711" lon="0.23951">
        <ele>1271</ele>
        <time>2019-02-26T15:54:23Z</time>
      </trkpt>
      <trkpt lat="42.77711" lon="0.23951">
        <ele>1271</ele>
        <time>2019-02-26T15:54:24Z</time>
      </trkpt>
      <trkpt lat="42.77712" lon="0.23951">
        <ele>1271</ele>
        <time>2019-02-26T15:54:25Z</time>
      </trkpt>
      <trkpt lat="42.77713" lon="0.2395">
        <ele>1270</ele>
        <time>2019-02-26T15:54:26Z</time>
      </trkpt>
      <trkpt lat="42.77713" lon="0.2395">
        <ele>1270</ele>
        <time>2019-02-26T15:54:27Z</time>
      </trkpt>
      <trkpt lat="42.77714" lon="0.2395">
        <ele>1269</ele>
        <time>2019-02-26T15:54:28Z</time>
      </trkpt>
      <trkpt lat="42.77714" lon="0.2395">
        <ele>1269</ele>
        <time>2019-02-26T15:54:29Z</time>
      </trkpt>
      <trkpt lat="42.77715" lon="0.23949">
        <ele>1269</ele>
        <time>2019-02-26T15:54:30Z</time>
      </trkpt>
      <trkpt lat="42.77722" lon="0.23947">
        <ele>1269</ele>
        <time>2019-02-26T15:54:31Z</time>
      </trkpt>
      <trkpt lat="42.77724" lon="0.23946">
        <ele>1269</ele>
        <time>2019-02-26T15:54:32Z</time>
      </trkpt>
      <trkpt lat="42.77725" lon="0.23945">
        <ele>1269</ele>
        <time>2019-02-26T15:54:33Z</time>
      </trkpt>
      <trkpt lat="42.77727" lon="0.23945">
        <ele>1269</ele>
        <time>2019-02-26T15:54:34Z</time>
      </trkpt>
      <trkpt lat="42.77729" lon="0.23944">
        <ele>1268</ele>
        <time>2019-02-26T15:54:35Z</time>
      </trkpt>
      <trkpt lat="42.77731" lon="0.23945">
        <ele>1268</ele>
        <time>2019-02-26T15:54:37Z</time>
      </trkpt>
      <trkpt lat="42.77732" lon="0.23945">
        <ele>1268</ele>
        <time>2019-02-26T15:54:38Z</time>
      </trkpt>
      <trkpt lat="42.77735" lon="0.23945">
        <ele>1268</ele>
        <time>2019-02-26T15:54:41Z</time>
      </trkpt>
      <trkpt lat="42.77736" lon="0.23945">
        <ele>1267</ele>
        <time>2019-02-26T15:54:42Z</time>
      </trkpt>
      <trkpt lat="42.77739" lon="0.23945">
        <ele>1266</ele>
        <time>2019-02-26T15:54:44Z</time>
      </trkpt>
      <trkpt lat="42.7774" lon="0.23944">
        <ele>1266</ele>
        <time>2019-02-26T15:54:45Z</time>
      </trkpt>
      <trkpt lat="42.77741" lon="0.23943">
        <ele>1266</ele>
        <time>2019-02-26T15:54:46Z</time>
      </trkpt>
      <trkpt lat="42.77743" lon="0.23942">
        <ele>1266</ele>
        <time>2019-02-26T15:54:47Z</time>
      </trkpt>
      <trkpt lat="42.77744" lon="0.23941">
        <ele>1266</ele>
        <time>2019-02-26T15:54:48Z</time>
      </trkpt>
      <trkpt lat="42.77746" lon="0.2394">
        <ele>1266</ele>
        <time>2019-02-26T15:54:49Z</time>
      </trkpt>
      <trkpt lat="42.77747" lon="0.23939">
        <ele>1266</ele>
        <time>2019-02-26T15:54:50Z</time>
      </trkpt>
      <trkpt lat="42.77748" lon="0.2394">
        <ele>1265</ele>
        <time>2019-02-26T15:54:51Z</time>
      </trkpt>
      <trkpt lat="42.77748" lon="0.2394">
        <ele>1264</ele>
        <time>2019-02-26T15:54:52Z</time>
      </trkpt>
      <trkpt lat="42.77749" lon="0.23941">
        <ele>1264</ele>
        <time>2019-02-26T15:54:53Z</time>
      </trkpt>
      <trkpt lat="42.77749" lon="0.23941">
        <ele>1264</ele>
        <time>2019-02-26T15:54:54Z</time>
      </trkpt>
      <trkpt lat="42.7775" lon="0.23941">
        <ele>1264</ele>
        <time>2019-02-26T15:54:55Z</time>
      </trkpt>
      <trkpt lat="42.7775" lon="0.23942">
        <ele>1264</ele>
        <time>2019-02-26T15:54:56Z</time>
      </trkpt>
      <trkpt lat="42.77751" lon="0.23942">
        <ele>1264</ele>
        <time>2019-02-26T15:54:57Z</time>
      </trkpt>
      <trkpt lat="42.77752" lon="0.23942">
        <ele>1264</ele>
        <time>2019-02-26T15:54:58Z</time>
      </trkpt>
      <trkpt lat="42.77752" lon="0.23943">
        <ele>1264</ele>
        <time>2019-02-26T15:54:59Z</time>
      </trkpt>
      <trkpt lat="42.77753" lon="0.23943">
        <ele>1264</ele>
        <time>2019-02-26T15:55:00Z</time>
      </trkpt>
      <trkpt lat="42.77753" lon="0.23943">
        <ele>1264</ele>
        <time>2019-02-26T15:55:01Z</time>
      </trkpt>
      <trkpt lat="42.77754" lon="0.23944">
        <ele>1264</ele>
        <time>2019-02-26T15:55:02Z</time>
      </trkpt>
      <trkpt lat="42.77755" lon="0.23944">
        <ele>1263</ele>
        <time>2019-02-26T15:55:03Z</time>
      </trkpt>
      <trkpt lat="42.77755" lon="0.23944">
        <ele>1263</ele>
        <time>2019-02-26T15:55:04Z</time>
      </trkpt>
      <trkpt lat="42.77756" lon="0.23945">
        <ele>1263</ele>
        <time>2019-02-26T15:55:05Z</time>
      </trkpt>
      <trkpt lat="42.77756" lon="0.23945">
        <ele>1263</ele>
        <time>2019-02-26T15:55:06Z</time>
      </trkpt>
      <trkpt lat="42.77757" lon="0.23945">
        <ele>1262</ele>
        <time>2019-02-26T15:55:07Z</time>
      </trkpt>
      <trkpt lat="42.77758" lon="0.23946">
        <ele>1262</ele>
        <time>2019-02-26T15:55:08Z</time>
      </trkpt>
      <trkpt lat="42.77761" lon="0.23947">
        <ele>1261</ele>
        <time>2019-02-26T15:55:11Z</time>
      </trkpt>
      <trkpt lat="42.77761" lon="0.23947">
        <ele>1261</ele>
        <time>2019-02-26T15:55:12Z</time>
      </trkpt>
      <trkpt lat="42.77764" lon="0.23948">
        <ele>1260</ele>
        <time>2019-02-26T15:55:15Z</time>
      </trkpt>
      <trkpt lat="42.77765" lon="0.23948">
        <ele>1260</ele>
        <time>2019-02-26T15:55:16Z</time>
      </trkpt>
      <trkpt lat="42.77766" lon="0.23949">
        <ele>1260</ele>
        <time>2019-02-26T15:55:17Z</time>
      </trkpt>
      <trkpt lat="42.77767" lon="0.23951">
        <ele>1259</ele>
        <time>2019-02-26T15:55:19Z</time>
      </trkpt>
      <trkpt lat="42.77768" lon="0.23952">
        <ele>1259</ele>
        <time>2019-02-26T15:55:20Z</time>
      </trkpt>
      <trkpt lat="42.7777" lon="0.23956">
        <ele>1260</ele>
        <time>2019-02-26T15:55:23Z</time>
      </trkpt>
      <trkpt lat="42.7777" lon="0.23957">
        <ele>1259</ele>
        <time>2019-02-26T15:55:24Z</time>
      </trkpt>
      <trkpt lat="42.77771" lon="0.23959">
        <ele>1259</ele>
        <time>2019-02-26T15:55:26Z</time>
      </trkpt>
      <trkpt lat="42.77783" lon="0.23959">
        <ele>1258</ele>
        <time>2019-02-26T15:55:35Z</time>
      </trkpt>
      <trkpt lat="42.77785" lon="0.23958">
        <ele>1258</ele>
        <time>2019-02-26T15:55:36Z</time>
      </trkpt>
      <trkpt lat="42.77788" lon="0.23958">
        <ele>1259</ele>
        <time>2019-02-26T15:55:38Z</time>
      </trkpt>
      <trkpt lat="42.77789" lon="0.23958">
        <ele>1258</ele>
        <time>2019-02-26T15:55:39Z</time>
      </trkpt>
      <trkpt lat="42.77791" lon="0.23958">
        <ele>1258</ele>
        <time>2019-02-26T15:55:40Z</time>
      </trkpt>
      <trkpt lat="42.77794" lon="0.23957">
        <ele>1258</ele>
        <time>2019-02-26T15:55:42Z</time>
      </trkpt>
      <trkpt lat="42.77795" lon="0.23956">
        <ele>1258</ele>
        <time>2019-02-26T15:55:43Z</time>
      </trkpt>
      <trkpt lat="42.77796" lon="0.23955">
        <ele>1258</ele>
        <time>2019-02-26T15:55:44Z</time>
      </trkpt>
      <trkpt lat="42.77799" lon="0.23954">
        <ele>1258</ele>
        <time>2019-02-26T15:55:46Z</time>
      </trkpt>
      <trkpt lat="42.77801" lon="0.23953">
        <ele>1257</ele>
        <time>2019-02-26T15:55:48Z</time>
      </trkpt>
      <trkpt lat="42.77802" lon="0.23953">
        <ele>1256</ele>
        <time>2019-02-26T15:55:49Z</time>
      </trkpt>
      <trkpt lat="42.77804" lon="0.23952">
        <ele>1256</ele>
        <time>2019-02-26T15:55:52Z</time>
      </trkpt>
      <trkpt lat="42.77805" lon="0.23952">
        <ele>1256</ele>
        <time>2019-02-26T15:55:53Z</time>
      </trkpt>
      <trkpt lat="42.77805" lon="0.23952">
        <ele>1256</ele>
        <time>2019-02-26T15:55:54Z</time>
      </trkpt>
      <trkpt lat="42.77812" lon="0.2395">
        <ele>1257</ele>
        <time>2019-02-26T15:55:55Z</time>
      </trkpt>
      <trkpt lat="42.77814" lon="0.23949">
        <ele>1256</ele>
        <time>2019-02-26T15:55:56Z</time>
      </trkpt>
      <trkpt lat="42.77815" lon="0.23949">
        <ele>1256</ele>
        <time>2019-02-26T15:55:57Z</time>
      </trkpt>
      <trkpt lat="42.77817" lon="0.23949">
        <ele>1256</ele>
        <time>2019-02-26T15:55:58Z</time>
      </trkpt>
      <trkpt lat="42.77819" lon="0.23949">
        <ele>1256</ele>
        <time>2019-02-26T15:55:59Z</time>
      </trkpt>
      <trkpt lat="42.7782" lon="0.23948">
        <ele>1256</ele>
        <time>2019-02-26T15:56:00Z</time>
      </trkpt>
      <trkpt lat="42.77821" lon="0.23948">
        <ele>1255</ele>
        <time>2019-02-26T15:56:01Z</time>
      </trkpt>
      <trkpt lat="42.77822" lon="0.23947">
        <ele>1255</ele>
        <time>2019-02-26T15:56:02Z</time>
      </trkpt>
      <trkpt lat="42.77822" lon="0.23947">
        <ele>1255</ele>
        <time>2019-02-26T15:56:03Z</time>
      </trkpt>
      <trkpt lat="42.77823" lon="0.23947">
        <ele>1255</ele>
        <time>2019-02-26T15:56:04Z</time>
      </trkpt>
      <trkpt lat="42.77824" lon="0.23946">
        <ele>1255</ele>
        <time>2019-02-26T15:56:05Z</time>
      </trkpt>
      <trkpt lat="42.77825" lon="0.23946">
        <ele>1255</ele>
        <time>2019-02-26T15:56:06Z</time>
      </trkpt>
      <trkpt lat="42.77825" lon="0.23946">
        <ele>1255</ele>
        <time>2019-02-26T15:56:07Z</time>
      </trkpt>
      <trkpt lat="42.77831" lon="0.23943">
        <ele>1254</ele>
        <time>2019-02-26T15:56:08Z</time>
      </trkpt>
      <trkpt lat="42.77832" lon="0.23943">
        <ele>1254</ele>
        <time>2019-02-26T15:56:09Z</time>
      </trkpt>
      <trkpt lat="42.77833" lon="0.23942">
        <ele>1253</ele>
        <time>2019-02-26T15:56:10Z</time>
      </trkpt>
      <trkpt lat="42.77833" lon="0.23942">
        <ele>1253</ele>
        <time>2019-02-26T15:56:11Z</time>
      </trkpt>
      <trkpt lat="42.77834" lon="0.23942">
        <ele>1253</ele>
        <time>2019-02-26T15:56:12Z</time>
      </trkpt>
      <trkpt lat="42.77835" lon="0.23942">
        <ele>1253</ele>
        <time>2019-02-26T15:56:13Z</time>
      </trkpt>
      <trkpt lat="42.77836" lon="0.23942">
        <ele>1253</ele>
        <time>2019-02-26T15:56:14Z</time>
      </trkpt>
      <trkpt lat="42.77845" lon="0.23942">
        <ele>1252</ele>
        <time>2019-02-26T15:56:15Z</time>
      </trkpt>
      <trkpt lat="42.7785" lon="0.23944">
        <ele>1252</ele>
        <time>2019-02-26T15:56:16Z</time>
      </trkpt>
      <trkpt lat="42.77876" lon="0.23931">
        <ele>1251</ele>
        <time>2019-02-26T15:56:22Z</time>
      </trkpt>
      <trkpt lat="42.77882" lon="0.2392">
        <ele>1250</ele>
        <time>2019-02-26T15:56:26Z</time>
      </trkpt>
      <trkpt lat="42.77891" lon="0.23914">
        <ele>1250</ele>
        <time>2019-02-26T15:56:29Z</time>
      </trkpt>
      <trkpt lat="42.77895" lon="0.23903">
        <ele>1248</ele>
        <time>2019-02-26T15:56:38Z</time>
      </trkpt>
      <trkpt lat="42.77895" lon="0.23903">
        <ele>1248</ele>
        <time>2019-02-26T15:56:39Z</time>
      </trkpt>
      <trkpt lat="42.77896" lon="0.23903">
        <ele>1248</ele>
        <time>2019-02-26T15:56:40Z</time>
      </trkpt>
      <trkpt lat="42.77896" lon="0.23902">
        <ele>1248</ele>
        <time>2019-02-26T15:56:41Z</time>
      </trkpt>
      <trkpt lat="42.77896" lon="0.23902">
        <ele>1247</ele>
        <time>2019-02-26T15:56:42Z</time>
      </trkpt>
      <trkpt lat="42.77897" lon="0.23902">
        <ele>1247</ele>
        <time>2019-02-26T15:56:43Z</time>
      </trkpt>
      <trkpt lat="42.77897" lon="0.23902">
        <ele>1247</ele>
        <time>2019-02-26T15:56:44Z</time>
      </trkpt>
      <trkpt lat="42.77897" lon="0.23901">
        <ele>1247</ele>
        <time>2019-02-26T15:56:45Z</time>
      </trkpt>
      <trkpt lat="42.77898" lon="0.23901">
        <ele>1247</ele>
        <time>2019-02-26T15:56:46Z</time>
      </trkpt>
      <trkpt lat="42.77898" lon="0.23901">
        <ele>1247</ele>
        <time>2019-02-26T15:56:47Z</time>
      </trkpt>
      <trkpt lat="42.77898" lon="0.23901">
        <ele>1247</ele>
        <time>2019-02-26T15:56:48Z</time>
      </trkpt>
      <trkpt lat="42.77899" lon="0.239">
        <ele>1247</ele>
        <time>2019-02-26T15:56:49Z</time>
      </trkpt>
      <trkpt lat="42.77899" lon="0.239">
        <ele>1247</ele>
        <time>2019-02-26T15:56:50Z</time>
      </trkpt>
      <trkpt lat="42.77899" lon="0.239">
        <ele>1247</ele>
        <time>2019-02-26T15:56:51Z</time>
      </trkpt>
      <trkpt lat="42.779" lon="0.239">
        <ele>1247</ele>
        <time>2019-02-26T15:56:52Z</time>
      </trkpt>
      <trkpt lat="42.779" lon="0.23899">
        <ele>1247</ele>
        <time>2019-02-26T15:56:53Z</time>
      </trkpt>
      <trkpt lat="42.779" lon="0.23899">
        <ele>1247</ele>
        <time>2019-02-26T15:56:54Z</time>
      </trkpt>
      <trkpt lat="42.77901" lon="0.23899">
        <ele>1247</ele>
        <time>2019-02-26T15:56:55Z</time>
      </trkpt>
      <trkpt lat="42.77901" lon="0.23899">
        <ele>1247</ele>
        <time>2019-02-26T15:56:56Z</time>
      </trkpt>
      <trkpt lat="42.77901" lon="0.23898">
        <ele>1246</ele>
        <time>2019-02-26T15:56:57Z</time>
      </trkpt>
      <trkpt lat="42.77902" lon="0.23898">
        <ele>1246</ele>
        <time>2019-02-26T15:56:58Z</time>
      </trkpt>
      <trkpt lat="42.77902" lon="0.23898">
        <ele>1246</ele>
        <time>2019-02-26T15:56:59Z</time>
      </trkpt>
      <trkpt lat="42.77902" lon="0.23898">
        <ele>1246</ele>
        <time>2019-02-26T15:57:00Z</time>
      </trkpt>
      <trkpt lat="42.77902" lon="0.23897">
        <ele>1246</ele>
        <time>2019-02-26T15:57:01Z</time>
      </trkpt>
      <trkpt lat="42.77903" lon="0.23897">
        <ele>1246</ele>
        <time>2019-02-26T15:57:02Z</time>
      </trkpt>
      <trkpt lat="42.77903" lon="0.23897">
        <ele>1246</ele>
        <time>2019-02-26T15:57:03Z</time>
      </trkpt>
      <trkpt lat="42.77903" lon="0.23897">
        <ele>1246</ele>
        <time>2019-02-26T15:57:04Z</time>
      </trkpt>
      <trkpt lat="42.77904" lon="0.23897">
        <ele>1246</ele>
        <time>2019-02-26T15:57:05Z</time>
      </trkpt>
      <trkpt lat="42.77905" lon="0.23898">
        <ele>1246</ele>
        <time>2019-02-26T15:57:06Z</time>
      </trkpt>
      <trkpt lat="42.77906" lon="0.23898">
        <ele>1246</ele>
        <time>2019-02-26T15:57:07Z</time>
      </trkpt>
      <trkpt lat="42.77907" lon="0.23899">
        <ele>1246</ele>
        <time>2019-02-26T15:57:08Z</time>
      </trkpt>
      <trkpt lat="42.77908" lon="0.23899">
        <ele>1246</ele>
        <time>2019-02-26T15:57:09Z</time>
      </trkpt>
      <trkpt lat="42.77908" lon="0.239">
        <ele>1246</ele>
        <time>2019-02-26T15:57:10Z</time>
      </trkpt>
      <trkpt lat="42.77909" lon="0.23901">
        <ele>1245</ele>
        <time>2019-02-26T15:57:11Z</time>
      </trkpt>
      <trkpt lat="42.7791" lon="0.23901">
        <ele>1245</ele>
        <time>2019-02-26T15:57:12Z</time>
      </trkpt>
      <trkpt lat="42.77911" lon="0.23902">
        <ele>1245</ele>
        <time>2019-02-26T15:57:13Z</time>
      </trkpt>
      <trkpt lat="42.77912" lon="0.23902">
        <ele>1245</ele>
        <time>2019-02-26T15:57:14Z</time>
      </trkpt>
      <trkpt lat="42.77921" lon="0.23908">
        <ele>1245</ele>
        <time>2019-02-26T15:57:22Z</time>
      </trkpt>
      <trkpt lat="42.77921" lon="0.23908">
        <ele>1245</ele>
        <time>2019-02-26T15:57:23Z</time>
      </trkpt>
      <trkpt lat="42.77922" lon="0.23909">
        <ele>1245</ele>
        <time>2019-02-26T15:57:24Z</time>
      </trkpt>
      <trkpt lat="42.77922" lon="0.23909">
        <ele>1245</ele>
        <time>2019-02-26T15:57:25Z</time>
      </trkpt>
      <trkpt lat="42.77924" lon="0.2391">
        <ele>1245</ele>
        <time>2019-02-26T15:57:28Z</time>
      </trkpt>
      <trkpt lat="42.77924" lon="0.23911">
        <ele>1245</ele>
        <time>2019-02-26T15:57:29Z</time>
      </trkpt>
      <trkpt lat="42.77925" lon="0.23911">
        <ele>1245</ele>
        <time>2019-02-26T15:57:30Z</time>
      </trkpt>
      <trkpt lat="42.77925" lon="0.23912">
        <ele>1245</ele>
        <time>2019-02-26T15:57:31Z</time>
      </trkpt>
      <trkpt lat="42.7793" lon="0.23916">
        <ele>1245</ele>
        <time>2019-02-26T15:57:32Z</time>
      </trkpt>
      <trkpt lat="42.77931" lon="0.23917">
        <ele>1245</ele>
        <time>2019-02-26T15:57:33Z</time>
      </trkpt>
      <trkpt lat="42.77932" lon="0.23918">
        <ele>1245</ele>
        <time>2019-02-26T15:57:34Z</time>
      </trkpt>
      <trkpt lat="42.77935" lon="0.2392">
        <ele>1246</ele>
        <time>2019-02-26T15:57:37Z</time>
      </trkpt>
      <trkpt lat="42.77935" lon="0.23921">
        <ele>1246</ele>
        <time>2019-02-26T15:57:38Z</time>
      </trkpt>
      <trkpt lat="42.77937" lon="0.23922">
        <ele>1246</ele>
        <time>2019-02-26T15:57:40Z</time>
      </trkpt>
      <trkpt lat="42.77944" lon="0.23933">
        <ele>1246</ele>
        <time>2019-02-26T15:57:49Z</time>
      </trkpt>
      <trkpt lat="42.77952" lon="0.23939">
        <ele>1246</ele>
        <time>2019-02-26T15:57:55Z</time>
      </trkpt>
      <trkpt lat="42.77952" lon="0.2394">
        <ele>1246</ele>
        <time>2019-02-26T15:57:56Z</time>
      </trkpt>
      <trkpt lat="42.77953" lon="0.23941">
        <ele>1245</ele>
        <time>2019-02-26T15:57:57Z</time>
      </trkpt>
      <trkpt lat="42.77954" lon="0.23941">
        <ele>1245</ele>
        <time>2019-02-26T15:57:58Z</time>
      </trkpt>
      <trkpt lat="42.77955" lon="0.23942">
        <ele>1245</ele>
        <time>2019-02-26T15:57:59Z</time>
      </trkpt>
      <trkpt lat="42.77956" lon="0.23943">
        <ele>1245</ele>
        <time>2019-02-26T15:58:00Z</time>
      </trkpt>
      <trkpt lat="42.77957" lon="0.23944">
        <ele>1245</ele>
        <time>2019-02-26T15:58:01Z</time>
      </trkpt>
      <trkpt lat="42.77959" lon="0.23946">
        <ele>1245</ele>
        <time>2019-02-26T15:58:03Z</time>
      </trkpt>
      <trkpt lat="42.7796" lon="0.23946">
        <ele>1245</ele>
        <time>2019-02-26T15:58:04Z</time>
      </trkpt>
      <trkpt lat="42.77961" lon="0.23946">
        <ele>1245</ele>
        <time>2019-02-26T15:58:05Z</time>
      </trkpt>
      <trkpt lat="42.77965" lon="0.23947">
        <ele>1245</ele>
        <time>2019-02-26T15:58:08Z</time>
      </trkpt>
      <trkpt lat="42.77966" lon="0.23947">
        <ele>1245</ele>
        <time>2019-02-26T15:58:09Z</time>
      </trkpt>
      <trkpt lat="42.77967" lon="0.23947">
        <ele>1245</ele>
        <time>2019-02-26T15:58:10Z</time>
      </trkpt>
      <trkpt lat="42.77969" lon="0.23947">
        <ele>1245</ele>
        <time>2019-02-26T15:58:11Z</time>
      </trkpt>
      <trkpt lat="42.77971" lon="0.23948">
        <ele>1244</ele>
        <time>2019-02-26T15:58:13Z</time>
      </trkpt>
      <trkpt lat="42.77972" lon="0.23949">
        <ele>1244</ele>
        <time>2019-02-26T15:58:14Z</time>
      </trkpt>
      <trkpt lat="42.77973" lon="0.23949">
        <ele>1244</ele>
        <time>2019-02-26T15:58:15Z</time>
      </trkpt>
      <trkpt lat="42.77975" lon="0.2395">
        <ele>1244</ele>
        <time>2019-02-26T15:58:17Z</time>
      </trkpt>
      <trkpt lat="42.77976" lon="0.23951">
        <ele>1244</ele>
        <time>2019-02-26T15:58:18Z</time>
      </trkpt>
      <trkpt lat="42.77978" lon="0.23952">
        <ele>1244</ele>
        <time>2019-02-26T15:58:20Z</time>
      </trkpt>
      <trkpt lat="42.77981" lon="0.23953">
        <ele>1243</ele>
        <time>2019-02-26T15:58:23Z</time>
      </trkpt>
      <trkpt lat="42.77982" lon="0.23953">
        <ele>1243</ele>
        <time>2019-02-26T15:58:24Z</time>
      </trkpt>
      <trkpt lat="42.77987" lon="0.23954">
        <ele>1243</ele>
        <time>2019-02-26T15:58:28Z</time>
      </trkpt>
      <trkpt lat="42.77996" lon="0.23954">
        <ele>1242</ele>
        <time>2019-02-26T15:58:37Z</time>
      </trkpt>
      <trkpt lat="42.78" lon="0.23956">
        <ele>1242</ele>
        <time>2019-02-26T15:58:41Z</time>
      </trkpt>
      <trkpt lat="42.78002" lon="0.23956">
        <ele>1241</ele>
        <time>2019-02-26T15:58:42Z</time>
      </trkpt>
      <trkpt lat="42.78006" lon="0.23958">
        <ele>1240</ele>
        <time>2019-02-26T15:58:46Z</time>
      </trkpt>
      <trkpt lat="42.78006" lon="0.23958">
        <ele>1239</ele>
        <time>2019-02-26T15:58:47Z</time>
      </trkpt>
      <trkpt lat="42.78007" lon="0.23959">
        <ele>1239</ele>
        <time>2019-02-26T15:58:48Z</time>
      </trkpt>
      <trkpt lat="42.78008" lon="0.23959">
        <ele>1239</ele>
        <time>2019-02-26T15:58:49Z</time>
      </trkpt>
      <trkpt lat="42.78009" lon="0.23959">
        <ele>1239</ele>
        <time>2019-02-26T15:58:50Z</time>
      </trkpt>
      <trkpt lat="42.7801" lon="0.23959">
        <ele>1239</ele>
        <time>2019-02-26T15:58:51Z</time>
      </trkpt>
      <trkpt lat="42.78011" lon="0.2396">
        <ele>1238</ele>
        <time>2019-02-26T15:58:52Z</time>
      </trkpt>
      <trkpt lat="42.78011" lon="0.2396">
        <ele>1238</ele>
        <time>2019-02-26T15:58:53Z</time>
      </trkpt>
      <trkpt lat="42.78012" lon="0.2396">
        <ele>1238</ele>
        <time>2019-02-26T15:58:54Z</time>
      </trkpt>
      <trkpt lat="42.78013" lon="0.2396">
        <ele>1238</ele>
        <time>2019-02-26T15:58:55Z</time>
      </trkpt>
      <trkpt lat="42.78014" lon="0.23961">
        <ele>1238</ele>
        <time>2019-02-26T15:58:56Z</time>
      </trkpt>
      <trkpt lat="42.78016" lon="0.23961">
        <ele>1237</ele>
        <time>2019-02-26T15:58:58Z</time>
      </trkpt>
      <trkpt lat="42.78017" lon="0.23962">
        <ele>1237</ele>
        <time>2019-02-26T15:58:59Z</time>
      </trkpt>
      <trkpt lat="42.78018" lon="0.23962">
        <ele>1237</ele>
        <time>2019-02-26T15:59:00Z</time>
      </trkpt>
      <trkpt lat="42.78019" lon="0.23962">
        <ele>1237</ele>
        <time>2019-02-26T15:59:01Z</time>
      </trkpt>
      <trkpt lat="42.7802" lon="0.23963">
        <ele>1237</ele>
        <time>2019-02-26T15:59:02Z</time>
      </trkpt>
      <trkpt lat="42.78021" lon="0.23963">
        <ele>1237</ele>
        <time>2019-02-26T15:59:03Z</time>
      </trkpt>
      <trkpt lat="42.78022" lon="0.23963">
        <ele>1236</ele>
        <time>2019-02-26T15:59:04Z</time>
      </trkpt>
      <trkpt lat="42.78023" lon="0.23964">
        <ele>1236</ele>
        <time>2019-02-26T15:59:05Z</time>
      </trkpt>
      <trkpt lat="42.78024" lon="0.23964">
        <ele>1235</ele>
        <time>2019-02-26T15:59:06Z</time>
      </trkpt>
      <trkpt lat="42.78032" lon="0.2397">
        <ele>1234</ele>
        <time>2019-02-26T15:59:13Z</time>
      </trkpt>
      <trkpt lat="42.78033" lon="0.2397">
        <ele>1234</ele>
        <time>2019-02-26T15:59:14Z</time>
      </trkpt>
      <trkpt lat="42.78034" lon="0.23971">
        <ele>1234</ele>
        <time>2019-02-26T15:59:15Z</time>
      </trkpt>
      <trkpt lat="42.78036" lon="0.23972">
        <ele>1234</ele>
        <time>2019-02-26T15:59:17Z</time>
      </trkpt>
      <trkpt lat="42.78037" lon="0.23973">
        <ele>1234</ele>
        <time>2019-02-26T15:59:18Z</time>
      </trkpt>
      <trkpt lat="42.78039" lon="0.23975">
        <ele>1232</ele>
        <time>2019-02-26T15:59:21Z</time>
      </trkpt>
      <trkpt lat="42.7804" lon="0.23976">
        <ele>1232</ele>
        <time>2019-02-26T15:59:22Z</time>
      </trkpt>
      <trkpt lat="42.78041" lon="0.23976">
        <ele>1232</ele>
        <time>2019-02-26T15:59:23Z</time>
      </trkpt>
      <trkpt lat="42.78041" lon="0.23978">
        <ele>1232</ele>
        <time>2019-02-26T15:59:24Z</time>
      </trkpt>
      <trkpt lat="42.78044" lon="0.23982">
        <ele>1232</ele>
        <time>2019-02-26T15:59:27Z</time>
      </trkpt>
      <trkpt lat="42.78044" lon="0.23983">
        <ele>1231</ele>
        <time>2019-02-26T15:59:28Z</time>
      </trkpt>
      <trkpt lat="42.78046" lon="0.23987">
        <ele>1231</ele>
        <time>2019-02-26T15:59:31Z</time>
      </trkpt>
      <trkpt lat="42.78049" lon="0.23994">
        <ele>1230</ele>
        <time>2019-02-26T15:59:36Z</time>
      </trkpt>
      <trkpt lat="42.7805" lon="0.23995">
        <ele>1230</ele>
        <time>2019-02-26T15:59:37Z</time>
      </trkpt>
      <trkpt lat="42.7805" lon="0.23996">
        <ele>1230</ele>
        <time>2019-02-26T15:59:38Z</time>
      </trkpt>
      <trkpt lat="42.78054" lon="0.2401">
        <ele>1229</ele>
        <time>2019-02-26T15:59:47Z</time>
      </trkpt>
      <trkpt lat="42.78055" lon="0.24022">
        <ele>1227</ele>
        <time>2019-02-26T15:59:55Z</time>
      </trkpt>
      <trkpt lat="42.78056" lon="0.24023">
        <ele>1227</ele>
        <time>2019-02-26T15:59:56Z</time>
      </trkpt>
      <trkpt lat="42.78057" lon="0.24024">
        <ele>1227</ele>
        <time>2019-02-26T15:59:57Z</time>
      </trkpt>
      <trkpt lat="42.78057" lon="0.24025">
        <ele>1226</ele>
        <time>2019-02-26T15:59:58Z</time>
      </trkpt>
      <trkpt lat="42.78058" lon="0.24025">
        <ele>1226</ele>
        <time>2019-02-26T15:59:59Z</time>
      </trkpt>
      <trkpt lat="42.78059" lon="0.24026">
        <ele>1226</ele>
        <time>2019-02-26T16:00:00Z</time>
      </trkpt>
      <trkpt lat="42.7806" lon="0.24027">
        <ele>1226</ele>
        <time>2019-02-26T16:00:01Z</time>
      </trkpt>
      <trkpt lat="42.78061" lon="0.24028">
        <ele>1226</ele>
        <time>2019-02-26T16:00:02Z</time>
      </trkpt>
      <trkpt lat="42.78062" lon="0.24028">
        <ele>1225</ele>
        <time>2019-02-26T16:00:03Z</time>
      </trkpt>
      <trkpt lat="42.78062" lon="0.24029">
        <ele>1225</ele>
        <time>2019-02-26T16:00:04Z</time>
      </trkpt>
      <trkpt lat="42.78064" lon="0.24031">
        <ele>1225</ele>
        <time>2019-02-26T16:00:06Z</time>
      </trkpt>
      <trkpt lat="42.78065" lon="0.24033">
        <ele>1225</ele>
        <time>2019-02-26T16:00:08Z</time>
      </trkpt>
      <trkpt lat="42.78067" lon="0.24034">
        <ele>1224</ele>
        <time>2019-02-26T16:00:10Z</time>
      </trkpt>
      <trkpt lat="42.78069" lon="0.24036">
        <ele>1224</ele>
        <time>2019-02-26T16:00:12Z</time>
      </trkpt>
      <trkpt lat="42.78071" lon="0.24037">
        <ele>1224</ele>
        <time>2019-02-26T16:00:14Z</time>
      </trkpt>
      <trkpt lat="42.78073" lon="0.24039">
        <ele>1223</ele>
        <time>2019-02-26T16:00:17Z</time>
      </trkpt>
      <trkpt lat="42.78075" lon="0.24041">
        <ele>1223</ele>
        <time>2019-02-26T16:00:19Z</time>
      </trkpt>
      <trkpt lat="42.78077" lon="0.24042">
        <ele>1222</ele>
        <time>2019-02-26T16:00:21Z</time>
      </trkpt>
      <trkpt lat="42.7808" lon="0.24043">
        <ele>1221</ele>
        <time>2019-02-26T16:00:24Z</time>
      </trkpt>
      <trkpt lat="42.78083" lon="0.24045">
        <ele>1221</ele>
        <time>2019-02-26T16:00:27Z</time>
      </trkpt>
      <trkpt lat="42.78084" lon="0.24047">
        <ele>1221</ele>
        <time>2019-02-26T16:00:29Z</time>
      </trkpt>
      <trkpt lat="42.78086" lon="0.24049">
        <ele>1221</ele>
        <time>2019-02-26T16:00:32Z</time>
      </trkpt>
      <trkpt lat="42.78087" lon="0.24053">
        <ele>1220</ele>
        <time>2019-02-26T16:00:34Z</time>
      </trkpt>
      <trkpt lat="42.78091" lon="0.24064">
        <ele>1219</ele>
        <time>2019-02-26T16:00:41Z</time>
      </trkpt>
      <trkpt lat="42.78094" lon="0.2408">
        <ele>1217</ele>
        <time>2019-02-26T16:00:50Z</time>
      </trkpt>
      <trkpt lat="42.78095" lon="0.24084">
        <ele>1217</ele>
        <time>2019-02-26T16:00:53Z</time>
      </trkpt>
      <trkpt lat="42.78096" lon="0.24085">
        <ele>1217</ele>
        <time>2019-02-26T16:00:54Z</time>
      </trkpt>
      <trkpt lat="42.78096" lon="0.24088">
        <ele>1217</ele>
        <time>2019-02-26T16:00:56Z</time>
      </trkpt>
      <trkpt lat="42.78097" lon="0.24091">
        <ele>1217</ele>
        <time>2019-02-26T16:00:58Z</time>
      </trkpt>
      <trkpt lat="42.78097" lon="0.24092">
        <ele>1217</ele>
        <time>2019-02-26T16:00:59Z</time>
      </trkpt>
      <trkpt lat="42.78099" lon="0.24096">
        <ele>1216</ele>
        <time>2019-02-26T16:01:02Z</time>
      </trkpt>
      <trkpt lat="42.78099" lon="0.24097">
        <ele>1216</ele>
        <time>2019-02-26T16:01:03Z</time>
      </trkpt>
      <trkpt lat="42.781" lon="0.24099">
        <ele>1216</ele>
        <time>2019-02-26T16:01:05Z</time>
      </trkpt>
      <trkpt lat="42.78101" lon="0.24101">
        <ele>1215</ele>
        <time>2019-02-26T16:01:07Z</time>
      </trkpt>
      <trkpt lat="42.78101" lon="0.24102">
        <ele>1215</ele>
        <time>2019-02-26T16:01:08Z</time>
      </trkpt>
      <trkpt lat="42.78102" lon="0.24104">
        <ele>1215</ele>
        <time>2019-02-26T16:01:11Z</time>
      </trkpt>
      <trkpt lat="42.78102" lon="0.24105">
        <ele>1215</ele>
        <time>2019-02-26T16:01:12Z</time>
      </trkpt>
      <trkpt lat="42.78103" lon="0.24108">
        <ele>1214</ele>
        <time>2019-02-26T16:01:16Z</time>
      </trkpt>
      <trkpt lat="42.78104" lon="0.24108">
        <ele>1214</ele>
        <time>2019-02-26T16:01:17Z</time>
      </trkpt>
      <trkpt lat="42.78104" lon="0.2411">
        <ele>1214</ele>
        <time>2019-02-26T16:01:19Z</time>
      </trkpt>
      <trkpt lat="42.78106" lon="0.24111">
        <ele>1213</ele>
        <time>2019-02-26T16:01:22Z</time>
      </trkpt>
      <trkpt lat="42.78107" lon="0.24114">
        <ele>1212</ele>
        <time>2019-02-26T16:01:25Z</time>
      </trkpt>
      <trkpt lat="42.78107" lon="0.24118">
        <ele>1211</ele>
        <time>2019-02-26T16:01:29Z</time>
      </trkpt>
      <trkpt lat="42.78107" lon="0.24119">
        <ele>1211</ele>
        <time>2019-02-26T16:01:31Z</time>
      </trkpt>
      <trkpt lat="42.78107" lon="0.24122">
        <ele>1210</ele>
        <time>2019-02-26T16:01:34Z</time>
      </trkpt>
      <trkpt lat="42.78108" lon="0.24125">
        <ele>1210</ele>
        <time>2019-02-26T16:01:37Z</time>
      </trkpt>
      <trkpt lat="42.7811" lon="0.2413">
        <ele>1210</ele>
        <time>2019-02-26T16:01:42Z</time>
      </trkpt>
      <trkpt lat="42.78112" lon="0.24136">
        <ele>1209</ele>
        <time>2019-02-26T16:01:47Z</time>
      </trkpt>
      <trkpt lat="42.7811" lon="0.2414">
        <ele>1208</ele>
        <time>2019-02-26T16:01:50Z</time>
      </trkpt>
      <trkpt lat="42.78109" lon="0.24141">
        <ele>1208</ele>
        <time>2019-02-26T16:01:51Z</time>
      </trkpt>
      <trkpt lat="42.78109" lon="0.24143">
        <ele>1208</ele>
        <time>2019-02-26T16:01:52Z</time>
      </trkpt>
      <trkpt lat="42.78108" lon="0.24144">
        <ele>1208</ele>
        <time>2019-02-26T16:01:53Z</time>
      </trkpt>
      <trkpt lat="42.78107" lon="0.24147">
        <ele>1207</ele>
        <time>2019-02-26T16:01:55Z</time>
      </trkpt>
      <trkpt lat="42.78107" lon="0.24153">
        <ele>1205</ele>
        <time>2019-02-26T16:02:04Z</time>
      </trkpt>
      <trkpt lat="42.78107" lon="0.24163">
        <ele>1205</ele>
        <time>2019-02-26T16:02:06Z</time>
      </trkpt>
      <trkpt lat="42.78107" lon="0.24165">
        <ele>1205</ele>
        <time>2019-02-26T16:02:07Z</time>
      </trkpt>
      <trkpt lat="42.78107" lon="0.24167">
        <ele>1205</ele>
        <time>2019-02-26T16:02:08Z</time>
      </trkpt>
      <trkpt lat="42.78105" lon="0.24173">
        <ele>1204</ele>
        <time>2019-02-26T16:02:11Z</time>
      </trkpt>
      <trkpt lat="42.78106" lon="0.24189">
        <ele>1202</ele>
        <time>2019-02-26T16:02:21Z</time>
      </trkpt>
      <trkpt lat="42.78106" lon="0.24192">
        <ele>1202</ele>
        <time>2019-02-26T16:02:24Z</time>
      </trkpt>
      <trkpt lat="42.78105" lon="0.24195">
        <ele>1200</ele>
        <time>2019-02-26T16:02:26Z</time>
      </trkpt>
      <trkpt lat="42.78105" lon="0.24199">
        <ele>1200</ele>
        <time>2019-02-26T16:02:28Z</time>
      </trkpt>
      <trkpt lat="42.78105" lon="0.24199">
        <ele>1200</ele>
        <time>2019-02-26T16:02:29Z</time>
      </trkpt>
      <trkpt lat="42.78105" lon="0.242">
        <ele>1200</ele>
        <time>2019-02-26T16:02:30Z</time>
      </trkpt>
      <trkpt lat="42.78106" lon="0.24201">
        <ele>1200</ele>
        <time>2019-02-26T16:02:31Z</time>
      </trkpt>
      <trkpt lat="42.78106" lon="0.24202">
        <ele>1200</ele>
        <time>2019-02-26T16:02:32Z</time>
      </trkpt>
      <trkpt lat="42.78106" lon="0.24203">
        <ele>1199</ele>
        <time>2019-02-26T16:02:33Z</time>
      </trkpt>
      <trkpt lat="42.78106" lon="0.24204">
        <ele>1199</ele>
        <time>2019-02-26T16:02:34Z</time>
      </trkpt>
      <trkpt lat="42.78106" lon="0.24205">
        <ele>1199</ele>
        <time>2019-02-26T16:02:35Z</time>
      </trkpt>
      <trkpt lat="42.78107" lon="0.24215">
        <ele>1199</ele>
        <time>2019-02-26T16:02:37Z</time>
      </trkpt>
      <trkpt lat="42.78106" lon="0.24224">
        <ele>1199</ele>
        <time>2019-02-26T16:02:40Z</time>
      </trkpt>
      <trkpt lat="42.78106" lon="0.24238">
        <ele>1198</ele>
        <time>2019-02-26T16:02:44Z</time>
      </trkpt>
      <trkpt lat="42.78108" lon="0.2424">
        <ele>1198</ele>
        <time>2019-02-26T16:02:46Z</time>
      </trkpt>
      <trkpt lat="42.78109" lon="0.24241">
        <ele>1198</ele>
        <time>2019-02-26T16:02:47Z</time>
      </trkpt>
      <trkpt lat="42.7811" lon="0.24243">
        <ele>1198</ele>
        <time>2019-02-26T16:02:49Z</time>
      </trkpt>
      <trkpt lat="42.78111" lon="0.24244">
        <ele>1197</ele>
        <time>2019-02-26T16:02:50Z</time>
      </trkpt>
      <trkpt lat="42.78112" lon="0.24245">
        <ele>1197</ele>
        <time>2019-02-26T16:02:51Z</time>
      </trkpt>
      <trkpt lat="42.78113" lon="0.24246">
        <ele>1196</ele>
        <time>2019-02-26T16:02:52Z</time>
      </trkpt>
      <trkpt lat="42.78113" lon="0.24255">
        <ele>1196</ele>
        <time>2019-02-26T16:02:57Z</time>
      </trkpt>
      <trkpt lat="42.78111" lon="0.24266">
        <ele>1194</ele>
        <time>2019-02-26T16:03:02Z</time>
      </trkpt>
      <trkpt lat="42.78111" lon="0.24272">
        <ele>1193</ele>
        <time>2019-02-26T16:03:06Z</time>
      </trkpt>
      <trkpt lat="42.78111" lon="0.24274">
        <ele>1193</ele>
        <time>2019-02-26T16:03:07Z</time>
      </trkpt>
      <trkpt lat="42.78113" lon="0.24282">
        <ele>1192</ele>
        <time>2019-02-26T16:03:16Z</time>
      </trkpt>
      <trkpt lat="42.78115" lon="0.24287">
        <ele>1191</ele>
        <time>2019-02-26T16:03:20Z</time>
      </trkpt>
      <trkpt lat="42.78116" lon="0.24289">
        <ele>1191</ele>
        <time>2019-02-26T16:03:22Z</time>
      </trkpt>
      <trkpt lat="42.78116" lon="0.24292">
        <ele>1191</ele>
        <time>2019-02-26T16:03:24Z</time>
      </trkpt>
      <trkpt lat="42.78117" lon="0.24295">
        <ele>1191</ele>
        <time>2019-02-26T16:03:26Z</time>
      </trkpt>
      <trkpt lat="42.78119" lon="0.24299">
        <ele>1189</ele>
        <time>2019-02-26T16:03:29Z</time>
      </trkpt>
      <trkpt lat="42.7812" lon="0.24301">
        <ele>1189</ele>
        <time>2019-02-26T16:03:31Z</time>
      </trkpt>
      <trkpt lat="42.7812" lon="0.24302">
        <ele>1189</ele>
        <time>2019-02-26T16:03:32Z</time>
      </trkpt>
      <trkpt lat="42.78121" lon="0.24303">
        <ele>1188</ele>
        <time>2019-02-26T16:03:34Z</time>
      </trkpt>
      <trkpt lat="42.78122" lon="0.24304">
        <ele>1188</ele>
        <time>2019-02-26T16:03:35Z</time>
      </trkpt>
      <trkpt lat="42.78122" lon="0.24305">
        <ele>1188</ele>
        <time>2019-02-26T16:03:36Z</time>
      </trkpt>
      <trkpt lat="42.78123" lon="0.24306">
        <ele>1188</ele>
        <time>2019-02-26T16:03:37Z</time>
      </trkpt>
      <trkpt lat="42.78123" lon="0.24306">
        <ele>1188</ele>
        <time>2019-02-26T16:03:38Z</time>
      </trkpt>
      <trkpt lat="42.78124" lon="0.24307">
        <ele>1188</ele>
        <time>2019-02-26T16:03:39Z</time>
      </trkpt>
      <trkpt lat="42.78124" lon="0.24308">
        <ele>1187</ele>
        <time>2019-02-26T16:03:40Z</time>
      </trkpt>
      <trkpt lat="42.78126" lon="0.24311">
        <ele>1187</ele>
        <time>2019-02-26T16:03:43Z</time>
      </trkpt>
      <trkpt lat="42.78127" lon="0.24312">
        <ele>1185</ele>
        <time>2019-02-26T16:03:50Z</time>
      </trkpt>
      <trkpt lat="42.78127" lon="0.24313">
        <ele>1185</ele>
        <time>2019-02-26T16:03:51Z</time>
      </trkpt>
      <trkpt lat="42.78128" lon="0.24313">
        <ele>1184</ele>
        <time>2019-02-26T16:03:52Z</time>
      </trkpt>
      <trkpt lat="42.78128" lon="0.24314">
        <ele>1184</ele>
        <time>2019-02-26T16:03:53Z</time>
      </trkpt>
      <trkpt lat="42.78128" lon="0.24314">
        <ele>1184</ele>
        <time>2019-02-26T16:03:54Z</time>
      </trkpt>
      <trkpt lat="42.78128" lon="0.24315">
        <ele>1184</ele>
        <time>2019-02-26T16:03:55Z</time>
      </trkpt>
      <trkpt lat="42.78129" lon="0.24316">
        <ele>1184</ele>
        <time>2019-02-26T16:03:56Z</time>
      </trkpt>
      <trkpt lat="42.78129" lon="0.24316">
        <ele>1184</ele>
        <time>2019-02-26T16:03:57Z</time>
      </trkpt>
      <trkpt lat="42.78129" lon="0.24317">
        <ele>1184</ele>
        <time>2019-02-26T16:03:58Z</time>
      </trkpt>
      <trkpt lat="42.78129" lon="0.24317">
        <ele>1184</ele>
        <time>2019-02-26T16:03:59Z</time>
      </trkpt>
      <trkpt lat="42.7813" lon="0.24318">
        <ele>1184</ele>
        <time>2019-02-26T16:04:00Z</time>
      </trkpt>
      <trkpt lat="42.7813" lon="0.24318">
        <ele>1184</ele>
        <time>2019-02-26T16:04:01Z</time>
      </trkpt>
      <trkpt lat="42.7813" lon="0.24319">
        <ele>1184</ele>
        <time>2019-02-26T16:04:02Z</time>
      </trkpt>
      <trkpt lat="42.7813" lon="0.24319">
        <ele>1184</ele>
        <time>2019-02-26T16:04:03Z</time>
      </trkpt>
      <trkpt lat="42.7813" lon="0.2432">
        <ele>1184</ele>
        <time>2019-02-26T16:04:04Z</time>
      </trkpt>
      <trkpt lat="42.78131" lon="0.2432">
        <ele>1183</ele>
        <time>2019-02-26T16:04:05Z</time>
      </trkpt>
      <trkpt lat="42.78131" lon="0.24321">
        <ele>1183</ele>
        <time>2019-02-26T16:04:06Z</time>
      </trkpt>
      <trkpt lat="42.78131" lon="0.24322">
        <ele>1183</ele>
        <time>2019-02-26T16:04:07Z</time>
      </trkpt>
      <trkpt lat="42.78131" lon="0.24322">
        <ele>1183</ele>
        <time>2019-02-26T16:04:08Z</time>
      </trkpt>
      <trkpt lat="42.78132" lon="0.24323">
        <ele>1182</ele>
        <time>2019-02-26T16:04:09Z</time>
      </trkpt>
      <trkpt lat="42.78132" lon="0.24323">
        <ele>1182</ele>
        <time>2019-02-26T16:04:10Z</time>
      </trkpt>
      <trkpt lat="42.78133" lon="0.24324">
        <ele>1182</ele>
        <time>2019-02-26T16:04:11Z</time>
      </trkpt>
      <trkpt lat="42.78133" lon="0.24324">
        <ele>1182</ele>
        <time>2019-02-26T16:04:12Z</time>
      </trkpt>
      <trkpt lat="42.78135" lon="0.24324">
        <ele>1182</ele>
        <time>2019-02-26T16:04:14Z</time>
      </trkpt>
      <trkpt lat="42.78135" lon="0.24325">
        <ele>1181</ele>
        <time>2019-02-26T16:04:15Z</time>
      </trkpt>
      <trkpt lat="42.78136" lon="0.24325">
        <ele>1181</ele>
        <time>2019-02-26T16:04:16Z</time>
      </trkpt>
      <trkpt lat="42.78136" lon="0.24352">
        <ele>1177</ele>
        <time>2019-02-26T16:04:39Z</time>
      </trkpt>
      <trkpt lat="42.78136" lon="0.24353">
        <ele>1177</ele>
        <time>2019-02-26T16:04:40Z</time>
      </trkpt>
      <trkpt lat="42.78136" lon="0.24354">
        <ele>1177</ele>
        <time>2019-02-26T16:04:41Z</time>
      </trkpt>
      <trkpt lat="42.78136" lon="0.24355">
        <ele>1177</ele>
        <time>2019-02-26T16:04:42Z</time>
      </trkpt>
      <trkpt lat="42.78137" lon="0.24356">
        <ele>1177</ele>
        <time>2019-02-26T16:04:43Z</time>
      </trkpt>
      <trkpt lat="42.78137" lon="0.24357">
        <ele>1176</ele>
        <time>2019-02-26T16:04:44Z</time>
      </trkpt>
      <trkpt lat="42.78137" lon="0.24358">
        <ele>1176</ele>
        <time>2019-02-26T16:04:45Z</time>
      </trkpt>
      <trkpt lat="42.78137" lon="0.24359">
        <ele>1176</ele>
        <time>2019-02-26T16:04:46Z</time>
      </trkpt>
      <trkpt lat="42.78138" lon="0.2436">
        <ele>1176</ele>
        <time>2019-02-26T16:04:47Z</time>
      </trkpt>
      <trkpt lat="42.78138" lon="0.24361">
        <ele>1176</ele>
        <time>2019-02-26T16:04:48Z</time>
      </trkpt>
      <trkpt lat="42.78138" lon="0.24362">
        <ele>1176</ele>
        <time>2019-02-26T16:04:49Z</time>
      </trkpt>
      <trkpt lat="42.78138" lon="0.24362">
        <ele>1175</ele>
        <time>2019-02-26T16:04:50Z</time>
      </trkpt>
      <trkpt lat="42.78139" lon="0.24363">
        <ele>1174</ele>
        <time>2019-02-26T16:04:51Z</time>
      </trkpt>
      <trkpt lat="42.78139" lon="0.24364">
        <ele>1174</ele>
        <time>2019-02-26T16:04:52Z</time>
      </trkpt>
      <trkpt lat="42.78142" lon="0.24377">
        <ele>1173</ele>
        <time>2019-02-26T16:04:58Z</time>
      </trkpt>
      <trkpt lat="42.78142" lon="0.24379">
        <ele>1173</ele>
        <time>2019-02-26T16:04:59Z</time>
      </trkpt>
      <trkpt lat="42.78143" lon="0.24381">
        <ele>1172</ele>
        <time>2019-02-26T16:05:00Z</time>
      </trkpt>
      <trkpt lat="42.7815" lon="0.24404">
        <ele>1169</ele>
        <time>2019-02-26T16:05:14Z</time>
      </trkpt>
      <trkpt lat="42.78151" lon="0.24407">
        <ele>1169</ele>
        <time>2019-02-26T16:05:16Z</time>
      </trkpt>
      <trkpt lat="42.78152" lon="0.24409">
        <ele>1169</ele>
        <time>2019-02-26T16:05:18Z</time>
      </trkpt>
      <trkpt lat="42.78153" lon="0.24412">
        <ele>1169</ele>
        <time>2019-02-26T16:05:20Z</time>
      </trkpt>
      <trkpt lat="42.78152" lon="0.24414">
        <ele>1168</ele>
        <time>2019-02-26T16:05:23Z</time>
      </trkpt>
      <trkpt lat="42.78153" lon="0.24418">
        <ele>1168</ele>
        <time>2019-02-26T16:05:25Z</time>
      </trkpt>
      <trkpt lat="42.78154" lon="0.2442">
        <ele>1168</ele>
        <time>2019-02-26T16:05:27Z</time>
      </trkpt>
      <trkpt lat="42.78156" lon="0.2442">
        <ele>1168</ele>
        <time>2019-02-26T16:05:31Z</time>
      </trkpt>
      <trkpt lat="42.78158" lon="0.24422">
        <ele>1167</ele>
        <time>2019-02-26T16:05:33Z</time>
      </trkpt>
      <trkpt lat="42.78159" lon="0.24425">
        <ele>1167</ele>
        <time>2019-02-26T16:05:35Z</time>
      </trkpt>
      <trkpt lat="42.7816" lon="0.24427">
        <ele>1166</ele>
        <time>2019-02-26T16:05:38Z</time>
      </trkpt>
      <trkpt lat="42.78163" lon="0.24427">
        <ele>1165</ele>
        <time>2019-02-26T16:05:41Z</time>
      </trkpt>
      <trkpt lat="42.78165" lon="0.24427">
        <ele>1165</ele>
        <time>2019-02-26T16:05:43Z</time>
      </trkpt>
      <trkpt lat="42.78166" lon="0.24429">
        <ele>1164</ele>
        <time>2019-02-26T16:05:45Z</time>
      </trkpt>
      <trkpt lat="42.78168" lon="0.24437">
        <ele>1164</ele>
        <time>2019-02-26T16:05:49Z</time>
      </trkpt>
      <trkpt lat="42.78168" lon="0.24439">
        <ele>1164</ele>
        <time>2019-02-26T16:05:50Z</time>
      </trkpt>
      <trkpt lat="42.78168" lon="0.2444">
        <ele>1163</ele>
        <time>2019-02-26T16:05:51Z</time>
      </trkpt>
      <trkpt lat="42.78169" lon="0.24441">
        <ele>1163</ele>
        <time>2019-02-26T16:05:52Z</time>
      </trkpt>
      <trkpt lat="42.78169" lon="0.24444">
        <ele>1163</ele>
        <time>2019-02-26T16:05:55Z</time>
      </trkpt>
      <trkpt lat="42.78169" lon="0.24446">
        <ele>1163</ele>
        <time>2019-02-26T16:05:57Z</time>
      </trkpt>
      <trkpt lat="42.78169" lon="0.24447">
        <ele>1163</ele>
        <time>2019-02-26T16:05:59Z</time>
      </trkpt>
      <trkpt lat="42.78169" lon="0.2445">
        <ele>1163</ele>
        <time>2019-02-26T16:06:02Z</time>
      </trkpt>
      <trkpt lat="42.78171" lon="0.2446">
        <ele>1163</ele>
        <time>2019-02-26T16:06:08Z</time>
      </trkpt>
      <trkpt lat="42.78171" lon="0.24464">
        <ele>1163</ele>
        <time>2019-02-26T16:06:10Z</time>
      </trkpt>
      <trkpt lat="42.78173" lon="0.24477">
        <ele>1162</ele>
        <time>2019-02-26T16:06:18Z</time>
      </trkpt>
      <trkpt lat="42.78174" lon="0.2448">
        <ele>1162</ele>
        <time>2019-02-26T16:06:20Z</time>
      </trkpt>
      <trkpt lat="42.78176" lon="0.24483">
        <ele>1162</ele>
        <time>2019-02-26T16:06:22Z</time>
      </trkpt>
      <trkpt lat="42.78178" lon="0.24485">
        <ele>1162</ele>
        <time>2019-02-26T16:06:24Z</time>
      </trkpt>
      <trkpt lat="42.7818" lon="0.24488">
        <ele>1163</ele>
        <time>2019-02-26T16:06:26Z</time>
      </trkpt>
      <trkpt lat="42.78182" lon="0.24491">
        <ele>1163</ele>
        <time>2019-02-26T16:06:28Z</time>
      </trkpt>
      <trkpt lat="42.78184" lon="0.24495">
        <ele>1163</ele>
        <time>2019-02-26T16:06:30Z</time>
      </trkpt>
      <trkpt lat="42.78186" lon="0.24497">
        <ele>1163</ele>
        <time>2019-02-26T16:06:32Z</time>
      </trkpt>
      <trkpt lat="42.78188" lon="0.24499">
        <ele>1163</ele>
        <time>2019-02-26T16:06:35Z</time>
      </trkpt>
      <trkpt lat="42.78193" lon="0.24512">
        <ele>1162</ele>
        <time>2019-02-26T16:06:43Z</time>
      </trkpt>
      <trkpt lat="42.78194" lon="0.24514">
        <ele>1162</ele>
        <time>2019-02-26T16:06:45Z</time>
      </trkpt>
      <trkpt lat="42.78195" lon="0.24517">
        <ele>1162</ele>
        <time>2019-02-26T16:06:47Z</time>
      </trkpt>
      <trkpt lat="42.78197" lon="0.2452">
        <ele>1162</ele>
        <time>2019-02-26T16:06:49Z</time>
      </trkpt>
      <trkpt lat="42.78198" lon="0.24522">
        <ele>1162</ele>
        <time>2019-02-26T16:06:51Z</time>
      </trkpt>
      <trkpt lat="42.78199" lon="0.24524">
        <ele>1162</ele>
        <time>2019-02-26T16:06:53Z</time>
      </trkpt>
      <trkpt lat="42.78201" lon="0.24528">
        <ele>1162</ele>
        <time>2019-02-26T16:06:55Z</time>
      </trkpt>
      <trkpt lat="42.78201" lon="0.24531">
        <ele>1161</ele>
        <time>2019-02-26T16:06:57Z</time>
      </trkpt>
      <trkpt lat="42.78203" lon="0.24534">
        <ele>1161</ele>
        <time>2019-02-26T16:06:59Z</time>
      </trkpt>
      <trkpt lat="42.78204" lon="0.24537">
        <ele>1161</ele>
        <time>2019-02-26T16:07:01Z</time>
      </trkpt>
      <trkpt lat="42.78205" lon="0.24539">
        <ele>1161</ele>
        <time>2019-02-26T16:07:03Z</time>
      </trkpt>
      <trkpt lat="42.78207" lon="0.24541">
        <ele>1161</ele>
        <time>2019-02-26T16:07:05Z</time>
      </trkpt>
      <trkpt lat="42.78208" lon="0.24543">
        <ele>1161</ele>
        <time>2019-02-26T16:07:07Z</time>
      </trkpt>
      <trkpt lat="42.7821" lon="0.24546">
        <ele>1161</ele>
        <time>2019-02-26T16:07:10Z</time>
      </trkpt>
      <trkpt lat="42.78212" lon="0.24548">
        <ele>1161</ele>
        <time>2019-02-26T16:07:12Z</time>
      </trkpt>
      <trkpt lat="42.78213" lon="0.24549">
        <ele>1161</ele>
        <time>2019-02-26T16:07:15Z</time>
      </trkpt>
      <trkpt lat="42.78215" lon="0.24551">
        <ele>1160</ele>
        <time>2019-02-26T16:07:17Z</time>
      </trkpt>
      <trkpt lat="42.78217" lon="0.24552">
        <ele>1160</ele>
        <time>2019-02-26T16:07:19Z</time>
      </trkpt>
      <trkpt lat="42.78218" lon="0.24554">
        <ele>1160</ele>
        <time>2019-02-26T16:07:21Z</time>
      </trkpt>
      <trkpt lat="42.7822" lon="0.24558">
        <ele>1160</ele>
        <time>2019-02-26T16:07:23Z</time>
      </trkpt>
      <trkpt lat="42.7822" lon="0.2456">
        <ele>1160</ele>
        <time>2019-02-26T16:07:24Z</time>
      </trkpt>
      <trkpt lat="42.78221" lon="0.24561">
        <ele>1159</ele>
        <time>2019-02-26T16:07:25Z</time>
      </trkpt>
      <trkpt lat="42.78222" lon="0.24563">
        <ele>1159</ele>
        <time>2019-02-26T16:07:26Z</time>
      </trkpt>
      <trkpt lat="42.78223" lon="0.24565">
        <ele>1159</ele>
        <time>2019-02-26T16:07:27Z</time>
      </trkpt>
      <trkpt lat="42.78223" lon="0.24567">
        <ele>1159</ele>
        <time>2019-02-26T16:07:28Z</time>
      </trkpt>
      <trkpt lat="42.78224" lon="0.24568">
        <ele>1159</ele>
        <time>2019-02-26T16:07:29Z</time>
      </trkpt>
      <trkpt lat="42.78225" lon="0.2457">
        <ele>1159</ele>
        <time>2019-02-26T16:07:30Z</time>
      </trkpt>
      <trkpt lat="42.78225" lon="0.24571">
        <ele>1159</ele>
        <time>2019-02-26T16:07:31Z</time>
      </trkpt>
      <trkpt lat="42.78226" lon="0.24571">
        <ele>1158</ele>
        <time>2019-02-26T16:07:32Z</time>
      </trkpt>
      <trkpt lat="42.78227" lon="0.24572">
        <ele>1158</ele>
        <time>2019-02-26T16:07:33Z</time>
      </trkpt>
      <trkpt lat="42.78227" lon="0.24573">
        <ele>1158</ele>
        <time>2019-02-26T16:07:34Z</time>
      </trkpt>
      <trkpt lat="42.78228" lon="0.24573">
        <ele>1158</ele>
        <time>2019-02-26T16:07:35Z</time>
      </trkpt>
      <trkpt lat="42.78229" lon="0.24574">
        <ele>1158</ele>
        <time>2019-02-26T16:07:36Z</time>
      </trkpt>
      <trkpt lat="42.78229" lon="0.24574">
        <ele>1158</ele>
        <time>2019-02-26T16:07:37Z</time>
      </trkpt>
      <trkpt lat="42.7823" lon="0.24576">
        <ele>1158</ele>
        <time>2019-02-26T16:07:39Z</time>
      </trkpt>
      <trkpt lat="42.78231" lon="0.24576">
        <ele>1158</ele>
        <time>2019-02-26T16:07:40Z</time>
      </trkpt>
      <trkpt lat="42.78231" lon="0.24577">
        <ele>1158</ele>
        <time>2019-02-26T16:07:41Z</time>
      </trkpt>
      <trkpt lat="42.78232" lon="0.24577">
        <ele>1158</ele>
        <time>2019-02-26T16:07:42Z</time>
      </trkpt>
      <trkpt lat="42.78232" lon="0.24578">
        <ele>1158</ele>
        <time>2019-02-26T16:07:43Z</time>
      </trkpt>
      <trkpt lat="42.78233" lon="0.24578">
        <ele>1157</ele>
        <time>2019-02-26T16:07:44Z</time>
      </trkpt>
      <trkpt lat="42.78234" lon="0.24579">
        <ele>1157</ele>
        <time>2019-02-26T16:07:46Z</time>
      </trkpt>
      <trkpt lat="42.78234" lon="0.2458">
        <ele>1157</ele>
        <time>2019-02-26T16:07:47Z</time>
      </trkpt>
      <trkpt lat="42.78235" lon="0.2458">
        <ele>1157</ele>
        <time>2019-02-26T16:07:48Z</time>
      </trkpt>
      <trkpt lat="42.78236" lon="0.24581">
        <ele>1157</ele>
        <time>2019-02-26T16:07:49Z</time>
      </trkpt>
      <trkpt lat="42.78236" lon="0.24581">
        <ele>1157</ele>
        <time>2019-02-26T16:07:50Z</time>
      </trkpt>
      <trkpt lat="42.78237" lon="0.24582">
        <ele>1157</ele>
        <time>2019-02-26T16:07:51Z</time>
      </trkpt>
      <trkpt lat="42.78237" lon="0.24582">
        <ele>1157</ele>
        <time>2019-02-26T16:07:52Z</time>
      </trkpt>
      <trkpt lat="42.78238" lon="0.24586">
        <ele>1157</ele>
        <time>2019-02-26T16:07:55Z</time>
      </trkpt>
      <trkpt lat="42.78239" lon="0.24588">
        <ele>1157</ele>
        <time>2019-02-26T16:07:56Z</time>
      </trkpt>
      <trkpt lat="42.78239" lon="0.24589">
        <ele>1157</ele>
        <time>2019-02-26T16:07:57Z</time>
      </trkpt>
      <trkpt lat="42.78241" lon="0.24594">
        <ele>1156</ele>
        <time>2019-02-26T16:08:01Z</time>
      </trkpt>
      <trkpt lat="42.78246" lon="0.24603">
        <ele>1155</ele>
        <time>2019-02-26T16:08:10Z</time>
      </trkpt>
      <trkpt lat="42.78247" lon="0.24604">
        <ele>1155</ele>
        <time>2019-02-26T16:08:11Z</time>
      </trkpt>
      <trkpt lat="42.78248" lon="0.24605">
        <ele>1155</ele>
        <time>2019-02-26T16:08:12Z</time>
      </trkpt>
      <trkpt lat="42.78249" lon="0.24605">
        <ele>1155</ele>
        <time>2019-02-26T16:08:13Z</time>
      </trkpt>
      <trkpt lat="42.78249" lon="0.24606">
        <ele>1155</ele>
        <time>2019-02-26T16:08:14Z</time>
      </trkpt>
      <trkpt lat="42.7825" lon="0.24606">
        <ele>1155</ele>
        <time>2019-02-26T16:08:15Z</time>
      </trkpt>
      <trkpt lat="42.78252" lon="0.24607">
        <ele>1155</ele>
        <time>2019-02-26T16:08:17Z</time>
      </trkpt>
      <trkpt lat="42.78253" lon="0.24608">
        <ele>1155</ele>
        <time>2019-02-26T16:08:18Z</time>
      </trkpt>
      <trkpt lat="42.78254" lon="0.24608">
        <ele>1155</ele>
        <time>2019-02-26T16:08:19Z</time>
      </trkpt>
      <trkpt lat="42.78255" lon="0.24609">
        <ele>1155</ele>
        <time>2019-02-26T16:08:20Z</time>
      </trkpt>
      <trkpt lat="42.78256" lon="0.24609">
        <ele>1154</ele>
        <time>2019-02-26T16:08:21Z</time>
      </trkpt>
      <trkpt lat="42.78258" lon="0.2461">
        <ele>1154</ele>
        <time>2019-02-26T16:08:23Z</time>
      </trkpt>
      <trkpt lat="42.78259" lon="0.2461">
        <ele>1153</ele>
        <time>2019-02-26T16:08:24Z</time>
      </trkpt>
      <trkpt lat="42.78262" lon="0.24611">
        <ele>1153</ele>
        <time>2019-02-26T16:08:27Z</time>
      </trkpt>
      <trkpt lat="42.78263" lon="0.24611">
        <ele>1153</ele>
        <time>2019-02-26T16:08:28Z</time>
      </trkpt>
      <trkpt lat="42.78266" lon="0.24611">
        <ele>1152</ele>
        <time>2019-02-26T16:08:30Z</time>
      </trkpt>
      <trkpt lat="42.78271" lon="0.24611">
        <ele>1152</ele>
        <time>2019-02-26T16:08:34Z</time>
      </trkpt>
      <trkpt lat="42.78272" lon="0.2461">
        <ele>1152</ele>
        <time>2019-02-26T16:08:35Z</time>
      </trkpt>
      <trkpt lat="42.78276" lon="0.2461">
        <ele>1152</ele>
        <time>2019-02-26T16:08:38Z</time>
      </trkpt>
      <trkpt lat="42.78277" lon="0.24609">
        <ele>1151</ele>
        <time>2019-02-26T16:08:41Z</time>
      </trkpt>
      <trkpt lat="42.78278" lon="0.24609">
        <ele>1151</ele>
        <time>2019-02-26T16:08:42Z</time>
      </trkpt>
      <trkpt lat="42.7828" lon="0.24607">
        <ele>1150</ele>
        <time>2019-02-26T16:08:46Z</time>
      </trkpt>
      <trkpt lat="42.78287" lon="0.24604">
        <ele>1149</ele>
        <time>2019-02-26T16:08:47Z</time>
      </trkpt>
      <trkpt lat="42.78289" lon="0.24603">
        <ele>1149</ele>
        <time>2019-02-26T16:08:49Z</time>
      </trkpt>
      <trkpt lat="42.78291" lon="0.24603">
        <ele>1149</ele>
        <time>2019-02-26T16:08:50Z</time>
      </trkpt>
      <trkpt lat="42.78295" lon="0.24602">
        <ele>1148</ele>
        <time>2019-02-26T16:08:54Z</time>
      </trkpt>
      <trkpt lat="42.78296" lon="0.24602">
        <ele>1148</ele>
        <time>2019-02-26T16:08:55Z</time>
      </trkpt>
      <trkpt lat="42.78297" lon="0.24602">
        <ele>1148</ele>
        <time>2019-02-26T16:08:56Z</time>
      </trkpt>
      <trkpt lat="42.78298" lon="0.24602">
        <ele>1148</ele>
        <time>2019-02-26T16:08:57Z</time>
      </trkpt>
      <trkpt lat="42.783" lon="0.24602">
        <ele>1148</ele>
        <time>2019-02-26T16:08:59Z</time>
      </trkpt>
      <trkpt lat="42.783" lon="0.24601">
        <ele>1148</ele>
        <time>2019-02-26T16:09:00Z</time>
      </trkpt>
      <trkpt lat="42.78301" lon="0.24601">
        <ele>1148</ele>
        <time>2019-02-26T16:09:01Z</time>
      </trkpt>
      <trkpt lat="42.78302" lon="0.24601">
        <ele>1147</ele>
        <time>2019-02-26T16:09:02Z</time>
      </trkpt>
      <trkpt lat="42.78303" lon="0.24601">
        <ele>1147</ele>
        <time>2019-02-26T16:09:03Z</time>
      </trkpt>
      <trkpt lat="42.78304" lon="0.24601">
        <ele>1147</ele>
        <time>2019-02-26T16:09:04Z</time>
      </trkpt>
      <trkpt lat="42.78305" lon="0.24601">
        <ele>1147</ele>
        <time>2019-02-26T16:09:05Z</time>
      </trkpt>
      <trkpt lat="42.78313" lon="0.24601">
        <ele>1145</ele>
        <time>2019-02-26T16:09:12Z</time>
      </trkpt>
      <trkpt lat="42.78316" lon="0.24601">
        <ele>1145</ele>
        <time>2019-02-26T16:09:14Z</time>
      </trkpt>
      <trkpt lat="42.78319" lon="0.246">
        <ele>1144</ele>
        <time>2019-02-26T16:09:16Z</time>
      </trkpt>
      <trkpt lat="42.78323" lon="0.24599">
        <ele>1144</ele>
        <time>2019-02-26T16:09:19Z</time>
      </trkpt>
      <trkpt lat="42.78333" lon="0.24595">
        <ele>1143</ele>
        <time>2019-02-26T16:09:25Z</time>
      </trkpt>
      <trkpt lat="42.78334" lon="0.24596">
        <ele>1143</ele>
        <time>2019-02-26T16:09:26Z</time>
      </trkpt>
      <trkpt lat="42.78335" lon="0.24596">
        <ele>1143</ele>
        <time>2019-02-26T16:09:27Z</time>
      </trkpt>
      <trkpt lat="42.78336" lon="0.24596">
        <ele>1143</ele>
        <time>2019-02-26T16:09:29Z</time>
      </trkpt>
      <trkpt lat="42.78337" lon="0.24596">
        <ele>1143</ele>
        <time>2019-02-26T16:09:30Z</time>
      </trkpt>
      <trkpt lat="42.78338" lon="0.24596">
        <ele>1142</ele>
        <time>2019-02-26T16:09:31Z</time>
      </trkpt>
      <trkpt lat="42.78339" lon="0.24597">
        <ele>1142</ele>
        <time>2019-02-26T16:09:32Z</time>
      </trkpt>
      <trkpt lat="42.7834" lon="0.24597">
        <ele>1142</ele>
        <time>2019-02-26T16:09:34Z</time>
      </trkpt>
      <trkpt lat="42.78341" lon="0.24597">
        <ele>1142</ele>
        <time>2019-02-26T16:09:35Z</time>
      </trkpt>
      <trkpt lat="42.78342" lon="0.24597">
        <ele>1141</ele>
        <time>2019-02-26T16:09:36Z</time>
      </trkpt>
      <trkpt lat="42.78346" lon="0.24599">
        <ele>1141</ele>
        <time>2019-02-26T16:09:39Z</time>
      </trkpt>
      <trkpt lat="42.78347" lon="0.24599">
        <ele>1140</ele>
        <time>2019-02-26T16:09:40Z</time>
      </trkpt>
      <trkpt lat="42.78349" lon="0.24599">
        <ele>1140</ele>
        <time>2019-02-26T16:09:41Z</time>
      </trkpt>
      <trkpt lat="42.7835" lon="0.24599">
        <ele>1140</ele>
        <time>2019-02-26T16:09:42Z</time>
      </trkpt>
      <trkpt lat="42.78352" lon="0.24599">
        <ele>1140</ele>
        <time>2019-02-26T16:09:44Z</time>
      </trkpt>
      <trkpt lat="42.78354" lon="0.24599">
        <ele>1140</ele>
        <time>2019-02-26T16:09:45Z</time>
      </trkpt>
      <trkpt lat="42.78355" lon="0.24598">
        <ele>1140</ele>
        <time>2019-02-26T16:09:46Z</time>
      </trkpt>
      <trkpt lat="42.78356" lon="0.24598">
        <ele>1140</ele>
        <time>2019-02-26T16:09:47Z</time>
      </trkpt>
      <trkpt lat="42.78357" lon="0.24598">
        <ele>1139</ele>
        <time>2019-02-26T16:09:48Z</time>
      </trkpt>
      <trkpt lat="42.78359" lon="0.24598">
        <ele>1139</ele>
        <time>2019-02-26T16:09:49Z</time>
      </trkpt>
      <trkpt lat="42.7836" lon="0.24598">
        <ele>1139</ele>
        <time>2019-02-26T16:09:50Z</time>
      </trkpt>
      <trkpt lat="42.78361" lon="0.24597">
        <ele>1139</ele>
        <time>2019-02-26T16:09:51Z</time>
      </trkpt>
      <trkpt lat="42.78362" lon="0.24597">
        <ele>1139</ele>
        <time>2019-02-26T16:09:52Z</time>
      </trkpt>
      <trkpt lat="42.78363" lon="0.24597">
        <ele>1139</ele>
        <time>2019-02-26T16:09:53Z</time>
      </trkpt>
      <trkpt lat="42.78364" lon="0.24597">
        <ele>1139</ele>
        <time>2019-02-26T16:09:54Z</time>
      </trkpt>
      <trkpt lat="42.78365" lon="0.24596">
        <ele>1139</ele>
        <time>2019-02-26T16:09:55Z</time>
      </trkpt>
      <trkpt lat="42.78366" lon="0.24596">
        <ele>1138</ele>
        <time>2019-02-26T16:09:56Z</time>
      </trkpt>
      <trkpt lat="42.78367" lon="0.24596">
        <ele>1138</ele>
        <time>2019-02-26T16:09:57Z</time>
      </trkpt>
      <trkpt lat="42.78369" lon="0.24596">
        <ele>1138</ele>
        <time>2019-02-26T16:09:58Z</time>
      </trkpt>
      <trkpt lat="42.7837" lon="0.24595">
        <ele>1137</ele>
        <time>2019-02-26T16:09:59Z</time>
      </trkpt>
      <trkpt lat="42.78373" lon="0.24595">
        <ele>1137</ele>
        <time>2019-02-26T16:10:01Z</time>
      </trkpt>
      <trkpt lat="42.78375" lon="0.24595">
        <ele>1137</ele>
        <time>2019-02-26T16:10:02Z</time>
      </trkpt>
      <trkpt lat="42.78376" lon="0.24594">
        <ele>1137</ele>
        <time>2019-02-26T16:10:03Z</time>
      </trkpt>
      <trkpt lat="42.78379" lon="0.24599">
        <ele>1136</ele>
        <time>2019-02-26T16:10:06Z</time>
      </trkpt>
      <trkpt lat="42.7838" lon="0.246">
        <ele>1136</ele>
        <time>2019-02-26T16:10:07Z</time>
      </trkpt>
      <trkpt lat="42.78383" lon="0.24604">
        <ele>1135</ele>
        <time>2019-02-26T16:10:10Z</time>
      </trkpt>
      <trkpt lat="42.78386" lon="0.24608">
        <ele>1135</ele>
        <time>2019-02-26T16:10:14Z</time>
      </trkpt>
      <trkpt lat="42.78387" lon="0.24609">
        <ele>1135</ele>
        <time>2019-02-26T16:10:15Z</time>
      </trkpt>
      <trkpt lat="42.78389" lon="0.24612">
        <ele>1135</ele>
        <time>2019-02-26T16:10:18Z</time>
      </trkpt>
      <trkpt lat="42.78391" lon="0.24613">
        <ele>1134</ele>
        <time>2019-02-26T16:10:20Z</time>
      </trkpt>
      <trkpt lat="42.78393" lon="0.24613">
        <ele>1134</ele>
        <time>2019-02-26T16:10:22Z</time>
      </trkpt>
      <trkpt lat="42.78396" lon="0.24613">
        <ele>1134</ele>
        <time>2019-02-26T16:10:24Z</time>
      </trkpt>
      <trkpt lat="42.78401" lon="0.24616">
        <ele>1133</ele>
        <time>2019-02-26T16:10:29Z</time>
      </trkpt>
      <trkpt lat="42.78401" lon="0.24619">
        <ele>1133</ele>
        <time>2019-02-26T16:10:31Z</time>
      </trkpt>
      <trkpt lat="42.78404" lon="0.24619">
        <ele>1132</ele>
        <time>2019-02-26T16:10:34Z</time>
      </trkpt>
      <trkpt lat="42.78407" lon="0.24619">
        <ele>1132</ele>
        <time>2019-02-26T16:10:36Z</time>
      </trkpt>
      <trkpt lat="42.78412" lon="0.24618">
        <ele>1132</ele>
        <time>2019-02-26T16:10:40Z</time>
      </trkpt>
      <trkpt lat="42.78414" lon="0.24618">
        <ele>1132</ele>
        <time>2019-02-26T16:10:42Z</time>
      </trkpt>
      <trkpt lat="42.78418" lon="0.24618">
        <ele>1133</ele>
        <time>2019-02-26T16:10:46Z</time>
      </trkpt>
      <trkpt lat="42.7842" lon="0.24621">
        <ele>1132</ele>
        <time>2019-02-26T16:10:50Z</time>
      </trkpt>
      <trkpt lat="42.78421" lon="0.2462">
        <ele>1131</ele>
        <time>2019-02-26T16:10:51Z</time>
      </trkpt>
      <trkpt lat="42.78422" lon="0.2462">
        <ele>1131</ele>
        <time>2019-02-26T16:10:52Z</time>
      </trkpt>
      <trkpt lat="42.78423" lon="0.24619">
        <ele>1131</ele>
        <time>2019-02-26T16:10:53Z</time>
      </trkpt>
      <trkpt lat="42.78424" lon="0.24619">
        <ele>1131</ele>
        <time>2019-02-26T16:10:54Z</time>
      </trkpt>
      <trkpt lat="42.78425" lon="0.24618">
        <ele>1131</ele>
        <time>2019-02-26T16:10:55Z</time>
      </trkpt>
      <trkpt lat="42.78426" lon="0.24618">
        <ele>1131</ele>
        <time>2019-02-26T16:10:56Z</time>
      </trkpt>
      <trkpt lat="42.78428" lon="0.24617">
        <ele>1131</ele>
        <time>2019-02-26T16:10:57Z</time>
      </trkpt>
      <trkpt lat="42.78429" lon="0.24617">
        <ele>1131</ele>
        <time>2019-02-26T16:10:58Z</time>
      </trkpt>
      <trkpt lat="42.7843" lon="0.24617">
        <ele>1131</ele>
        <time>2019-02-26T16:10:59Z</time>
      </trkpt>
      <trkpt lat="42.7843" lon="0.24616">
        <ele>1131</ele>
        <time>2019-02-26T16:11:00Z</time>
      </trkpt>
      <trkpt lat="42.78431" lon="0.24615">
        <ele>1131</ele>
        <time>2019-02-26T16:11:01Z</time>
      </trkpt>
      <trkpt lat="42.78432" lon="0.24613">
        <ele>1131</ele>
        <time>2019-02-26T16:11:02Z</time>
      </trkpt>
      <trkpt lat="42.78433" lon="0.24612">
        <ele>1131</ele>
        <time>2019-02-26T16:11:03Z</time>
      </trkpt>
      <trkpt lat="42.78433" lon="0.24611">
        <ele>1131</ele>
        <time>2019-02-26T16:11:04Z</time>
      </trkpt>
      <trkpt lat="42.78439" lon="0.24606">
        <ele>1130</ele>
        <time>2019-02-26T16:11:05Z</time>
      </trkpt>
      <trkpt lat="42.7844" lon="0.24605">
        <ele>1130</ele>
        <time>2019-02-26T16:11:06Z</time>
      </trkpt>
      <trkpt lat="42.78441" lon="0.24605">
        <ele>1130</ele>
        <time>2019-02-26T16:11:07Z</time>
      </trkpt>
      <trkpt lat="42.78442" lon="0.24604">
        <ele>1130</ele>
        <time>2019-02-26T16:11:08Z</time>
      </trkpt>
      <trkpt lat="42.78445" lon="0.24603">
        <ele>1130</ele>
        <time>2019-02-26T16:11:10Z</time>
      </trkpt>
      <trkpt lat="42.78446" lon="0.24603">
        <ele>1130</ele>
        <time>2019-02-26T16:11:11Z</time>
      </trkpt>
      <trkpt lat="42.78447" lon="0.24603">
        <ele>1130</ele>
        <time>2019-02-26T16:11:12Z</time>
      </trkpt>
      <trkpt lat="42.78455" lon="0.24594">
        <ele>1129</ele>
        <time>2019-02-26T16:11:16Z</time>
      </trkpt>
      <trkpt lat="42.7846" lon="0.24587">
        <ele>1128</ele>
        <time>2019-02-26T16:11:20Z</time>
      </trkpt>
      <trkpt lat="42.78462" lon="0.24584">
        <ele>1128</ele>
        <time>2019-02-26T16:11:22Z</time>
      </trkpt>
      <trkpt lat="42.78464" lon="0.24581">
        <ele>1127</ele>
        <time>2019-02-26T16:11:24Z</time>
      </trkpt>
      <trkpt lat="42.78465" lon="0.24577">
        <ele>1127</ele>
        <time>2019-02-26T16:11:26Z</time>
      </trkpt>
      <trkpt lat="42.78466" lon="0.24574">
        <ele>1127</ele>
        <time>2019-02-26T16:11:28Z</time>
      </trkpt>
      <trkpt lat="42.78467" lon="0.24572">
        <ele>1126</ele>
        <time>2019-02-26T16:11:31Z</time>
      </trkpt>
      <trkpt lat="42.78467" lon="0.24566">
        <ele>1125</ele>
        <time>2019-02-26T16:11:39Z</time>
      </trkpt>
      <trkpt lat="42.78468" lon="0.24564">
        <ele>1125</ele>
        <time>2019-02-26T16:11:41Z</time>
      </trkpt>
      <trkpt lat="42.78469" lon="0.24563">
        <ele>1125</ele>
        <time>2019-02-26T16:11:42Z</time>
      </trkpt>
      <trkpt lat="42.78469" lon="0.24562">
        <ele>1125</ele>
        <time>2019-02-26T16:11:43Z</time>
      </trkpt>
      <trkpt lat="42.78471" lon="0.24561">
        <ele>1125</ele>
        <time>2019-02-26T16:11:45Z</time>
      </trkpt>
      <trkpt lat="42.78471" lon="0.2456">
        <ele>1124</ele>
        <time>2019-02-26T16:11:46Z</time>
      </trkpt>
      <trkpt lat="42.78472" lon="0.2456">
        <ele>1124</ele>
        <time>2019-02-26T16:11:47Z</time>
      </trkpt>
      <trkpt lat="42.78473" lon="0.24559">
        <ele>1124</ele>
        <time>2019-02-26T16:11:48Z</time>
      </trkpt>
      <trkpt lat="42.78474" lon="0.24558">
        <ele>1124</ele>
        <time>2019-02-26T16:11:50Z</time>
      </trkpt>
      <trkpt lat="42.78475" lon="0.24557">
        <ele>1124</ele>
        <time>2019-02-26T16:11:51Z</time>
      </trkpt>
      <trkpt lat="42.78476" lon="0.24556">
        <ele>1124</ele>
        <time>2019-02-26T16:11:52Z</time>
      </trkpt>
      <trkpt lat="42.78479" lon="0.24556">
        <ele>1123</ele>
        <time>2019-02-26T16:11:55Z</time>
      </trkpt>
      <trkpt lat="42.78481" lon="0.24555">
        <ele>1123</ele>
        <time>2019-02-26T16:11:57Z</time>
      </trkpt>
      <trkpt lat="42.78483" lon="0.24555">
        <ele>1123</ele>
        <time>2019-02-26T16:11:59Z</time>
      </trkpt>
      <trkpt lat="42.78488" lon="0.24553">
        <ele>1121</ele>
        <time>2019-02-26T16:12:03Z</time>
      </trkpt>
      <trkpt lat="42.78489" lon="0.24553">
        <ele>1121</ele>
        <time>2019-02-26T16:12:04Z</time>
      </trkpt>
      <trkpt lat="42.78493" lon="0.24551">
        <ele>1120</ele>
        <time>2019-02-26T16:12:07Z</time>
      </trkpt>
      <trkpt lat="42.78493" lon="0.24551">
        <ele>1120</ele>
        <time>2019-02-26T16:12:08Z</time>
      </trkpt>
      <trkpt lat="42.78494" lon="0.2455">
        <ele>1120</ele>
        <time>2019-02-26T16:12:09Z</time>
      </trkpt>
      <trkpt lat="42.78494" lon="0.2455">
        <ele>1120</ele>
        <time>2019-02-26T16:12:10Z</time>
      </trkpt>
      <trkpt lat="42.78495" lon="0.24549">
        <ele>1119</ele>
        <time>2019-02-26T16:12:11Z</time>
      </trkpt>
      <trkpt lat="42.78496" lon="0.24549">
        <ele>1119</ele>
        <time>2019-02-26T16:12:12Z</time>
      </trkpt>
      <trkpt lat="42.78496" lon="0.24548">
        <ele>1119</ele>
        <time>2019-02-26T16:12:13Z</time>
      </trkpt>
      <trkpt lat="42.78497" lon="0.24547">
        <ele>1118</ele>
        <time>2019-02-26T16:12:14Z</time>
      </trkpt>
      <trkpt lat="42.78497" lon="0.24547">
        <ele>1118</ele>
        <time>2019-02-26T16:12:15Z</time>
      </trkpt>
      <trkpt lat="42.78498" lon="0.24546">
        <ele>1118</ele>
        <time>2019-02-26T16:12:16Z</time>
      </trkpt>
      <trkpt lat="42.78499" lon="0.24546">
        <ele>1118</ele>
        <time>2019-02-26T16:12:17Z</time>
      </trkpt>
      <trkpt lat="42.78499" lon="0.24545">
        <ele>1118</ele>
        <time>2019-02-26T16:12:18Z</time>
      </trkpt>
      <trkpt lat="42.785" lon="0.24545">
        <ele>1118</ele>
        <time>2019-02-26T16:12:19Z</time>
      </trkpt>
      <trkpt lat="42.785" lon="0.24544">
        <ele>1117</ele>
        <time>2019-02-26T16:12:20Z</time>
      </trkpt>
      <trkpt lat="42.78503" lon="0.24543">
        <ele>1117</ele>
        <time>2019-02-26T16:12:22Z</time>
      </trkpt>
      <trkpt lat="42.78506" lon="0.24543">
        <ele>1117</ele>
        <time>2019-02-26T16:12:24Z</time>
      </trkpt>
      <trkpt lat="42.78508" lon="0.24544">
        <ele>1117</ele>
        <time>2019-02-26T16:12:26Z</time>
      </trkpt>
      <trkpt lat="42.78519" lon="0.24543">
        <ele>1116</ele>
        <time>2019-02-26T16:12:34Z</time>
      </trkpt>
      <trkpt lat="42.78522" lon="0.24545">
        <ele>1115</ele>
        <time>2019-02-26T16:12:36Z</time>
      </trkpt>
      <trkpt lat="42.78527" lon="0.24546">
        <ele>1115</ele>
        <time>2019-02-26T16:12:40Z</time>
      </trkpt>
      <trkpt lat="42.78529" lon="0.24547">
        <ele>1114</ele>
        <time>2019-02-26T16:12:42Z</time>
      </trkpt>
      <trkpt lat="42.78531" lon="0.24548">
        <ele>1114</ele>
        <time>2019-02-26T16:12:44Z</time>
      </trkpt>
      <trkpt lat="42.78533" lon="0.2455">
        <ele>1113</ele>
        <time>2019-02-26T16:12:46Z</time>
      </trkpt>
      <trkpt lat="42.78535" lon="0.24552">
        <ele>1113</ele>
        <time>2019-02-26T16:12:48Z</time>
      </trkpt>
      <trkpt lat="42.78537" lon="0.24553">
        <ele>1113</ele>
        <time>2019-02-26T16:12:50Z</time>
      </trkpt>
      <trkpt lat="42.78539" lon="0.24554">
        <ele>1113</ele>
        <time>2019-02-26T16:12:52Z</time>
      </trkpt>
      <trkpt lat="42.78541" lon="0.24556">
        <ele>1112</ele>
        <time>2019-02-26T16:12:54Z</time>
      </trkpt>
      <trkpt lat="42.78546" lon="0.24559">
        <ele>1112</ele>
        <time>2019-02-26T16:12:58Z</time>
      </trkpt>
      <trkpt lat="42.78547" lon="0.2456">
        <ele>1112</ele>
        <time>2019-02-26T16:13:00Z</time>
      </trkpt>
      <trkpt lat="42.78549" lon="0.24561">
        <ele>1111</ele>
        <time>2019-02-26T16:13:02Z</time>
      </trkpt>
      <trkpt lat="42.78552" lon="0.24561">
        <ele>1110</ele>
        <time>2019-02-26T16:13:04Z</time>
      </trkpt>
      <trkpt lat="42.78554" lon="0.24559">
        <ele>1110</ele>
        <time>2019-02-26T16:13:06Z</time>
      </trkpt>
      <trkpt lat="42.78557" lon="0.24559">
        <ele>1110</ele>
        <time>2019-02-26T16:13:08Z</time>
      </trkpt>
      <trkpt lat="42.78559" lon="0.24558">
        <ele>1110</ele>
        <time>2019-02-26T16:13:10Z</time>
      </trkpt>
      <trkpt lat="42.78562" lon="0.24558">
        <ele>1109</ele>
        <time>2019-02-26T16:13:12Z</time>
      </trkpt>
      <trkpt lat="42.78564" lon="0.24556">
        <ele>1109</ele>
        <time>2019-02-26T16:13:14Z</time>
      </trkpt>
      <trkpt lat="42.78566" lon="0.24555">
        <ele>1108</ele>
        <time>2019-02-26T16:13:15Z</time>
      </trkpt>
      <trkpt lat="42.78573" lon="0.24547">
        <ele>1108</ele>
        <time>2019-02-26T16:13:20Z</time>
      </trkpt>
      <trkpt lat="42.78574" lon="0.24545">
        <ele>1108</ele>
        <time>2019-02-26T16:13:21Z</time>
      </trkpt>
      <trkpt lat="42.78575" lon="0.24543">
        <ele>1108</ele>
        <time>2019-02-26T16:13:22Z</time>
      </trkpt>
      <trkpt lat="42.78575" lon="0.24541">
        <ele>1107</ele>
        <time>2019-02-26T16:13:23Z</time>
      </trkpt>
      <trkpt lat="42.78576" lon="0.24539">
        <ele>1107</ele>
        <time>2019-02-26T16:13:24Z</time>
      </trkpt>
      <trkpt lat="42.78577" lon="0.24537">
        <ele>1107</ele>
        <time>2019-02-26T16:13:25Z</time>
      </trkpt>
      <trkpt lat="42.78578" lon="0.24535">
        <ele>1107</ele>
        <time>2019-02-26T16:13:26Z</time>
      </trkpt>
      <trkpt lat="42.78578" lon="0.24533">
        <ele>1106</ele>
        <time>2019-02-26T16:13:27Z</time>
      </trkpt>
      <trkpt lat="42.78579" lon="0.24532">
        <ele>1106</ele>
        <time>2019-02-26T16:13:28Z</time>
      </trkpt>
      <trkpt lat="42.78579" lon="0.2453">
        <ele>1106</ele>
        <time>2019-02-26T16:13:29Z</time>
      </trkpt>
      <trkpt lat="42.7858" lon="0.24528">
        <ele>1105</ele>
        <time>2019-02-26T16:13:30Z</time>
      </trkpt>
      <trkpt lat="42.78579" lon="0.24522">
        <ele>1105</ele>
        <time>2019-02-26T16:13:34Z</time>
      </trkpt>
      <trkpt lat="42.7858" lon="0.24518">
        <ele>1104</ele>
        <time>2019-02-26T16:13:36Z</time>
      </trkpt>
      <trkpt lat="42.7858" lon="0.24515">
        <ele>1104</ele>
        <time>2019-02-26T16:13:38Z</time>
      </trkpt>
      <trkpt lat="42.78581" lon="0.24509">
        <ele>1103</ele>
        <time>2019-02-26T16:13:42Z</time>
      </trkpt>
      <trkpt lat="42.78581" lon="0.24505">
        <ele>1102</ele>
        <time>2019-02-26T16:13:44Z</time>
      </trkpt>
      <trkpt lat="42.78581" lon="0.24502">
        <ele>1102</ele>
        <time>2019-02-26T16:13:46Z</time>
      </trkpt>
      <trkpt lat="42.78582" lon="0.24499">
        <ele>1102</ele>
        <time>2019-02-26T16:13:48Z</time>
      </trkpt>
      <trkpt lat="42.78582" lon="0.24495">
        <ele>1102</ele>
        <time>2019-02-26T16:13:50Z</time>
      </trkpt>
      <trkpt lat="42.78581" lon="0.24493">
        <ele>1101</ele>
        <time>2019-02-26T16:13:52Z</time>
      </trkpt>
      <trkpt lat="42.78581" lon="0.2449">
        <ele>1100</ele>
        <time>2019-02-26T16:13:54Z</time>
      </trkpt>
      <trkpt lat="42.78581" lon="0.2448">
        <ele>1100</ele>
        <time>2019-02-26T16:14:00Z</time>
      </trkpt>
      <trkpt lat="42.78582" lon="0.24476">
        <ele>1099</ele>
        <time>2019-02-26T16:14:02Z</time>
      </trkpt>
      <trkpt lat="42.78583" lon="0.24473">
        <ele>1099</ele>
        <time>2019-02-26T16:14:04Z</time>
      </trkpt>
      <trkpt lat="42.78585" lon="0.24471">
        <ele>1098</ele>
        <time>2019-02-26T16:14:06Z</time>
      </trkpt>
      <trkpt lat="42.78587" lon="0.24472">
        <ele>1098</ele>
        <time>2019-02-26T16:14:08Z</time>
      </trkpt>
      <trkpt lat="42.78589" lon="0.24473">
        <ele>1098</ele>
        <time>2019-02-26T16:14:10Z</time>
      </trkpt>
      <trkpt lat="42.78591" lon="0.24475">
        <ele>1097</ele>
        <time>2019-02-26T16:14:12Z</time>
      </trkpt>
      <trkpt lat="42.78593" lon="0.24479">
        <ele>1096</ele>
        <time>2019-02-26T16:14:14Z</time>
      </trkpt>
      <trkpt lat="42.78593" lon="0.24481">
        <ele>1095</ele>
        <time>2019-02-26T16:14:15Z</time>
      </trkpt>
      <trkpt lat="42.78594" lon="0.2449">
        <ele>1095</ele>
        <time>2019-02-26T16:14:19Z</time>
      </trkpt>
      <trkpt lat="42.78595" lon="0.24492">
        <ele>1094</ele>
        <time>2019-02-26T16:14:20Z</time>
      </trkpt>
      <trkpt lat="42.78597" lon="0.245">
        <ele>1094</ele>
        <time>2019-02-26T16:14:24Z</time>
      </trkpt>
      <trkpt lat="42.78599" lon="0.24504">
        <ele>1094</ele>
        <time>2019-02-26T16:14:26Z</time>
      </trkpt>
      <trkpt lat="42.786" lon="0.24507">
        <ele>1094</ele>
        <time>2019-02-26T16:14:28Z</time>
      </trkpt>
      <trkpt lat="42.78601" lon="0.24509">
        <ele>1094</ele>
        <time>2019-02-26T16:14:30Z</time>
      </trkpt>
      <trkpt lat="42.78603" lon="0.24507">
        <ele>1094</ele>
        <time>2019-02-26T16:14:33Z</time>
      </trkpt>
      <trkpt lat="42.78604" lon="0.2451">
        <ele>1093</ele>
        <time>2019-02-26T16:14:38Z</time>
      </trkpt>
      <trkpt lat="42.78605" lon="0.24514">
        <ele>1093</ele>
        <time>2019-02-26T16:14:40Z</time>
      </trkpt>
      <trkpt lat="42.78609" lon="0.2454">
        <ele>1092</ele>
        <time>2019-02-26T16:14:56Z</time>
      </trkpt>
      <trkpt lat="42.7861" lon="0.24543">
        <ele>1092</ele>
        <time>2019-02-26T16:14:58Z</time>
      </trkpt>
      <trkpt lat="42.78611" lon="0.24546">
        <ele>1092</ele>
        <time>2019-02-26T16:15:00Z</time>
      </trkpt>
      <trkpt lat="42.78613" lon="0.24556">
        <ele>1091</ele>
        <time>2019-02-26T16:15:06Z</time>
      </trkpt>
      <trkpt lat="42.78615" lon="0.24558">
        <ele>1091</ele>
        <time>2019-02-26T16:15:08Z</time>
      </trkpt>
      <trkpt lat="42.78615" lon="0.24561">
        <ele>1090</ele>
        <time>2019-02-26T16:15:10Z</time>
      </trkpt>
      <trkpt lat="42.78616" lon="0.24564">
        <ele>1090</ele>
        <time>2019-02-26T16:15:12Z</time>
      </trkpt>
      <trkpt lat="42.78616" lon="0.24569">
        <ele>1090</ele>
        <time>2019-02-26T16:15:15Z</time>
      </trkpt>
      <trkpt lat="42.78617" lon="0.24572">
        <ele>1090</ele>
        <time>2019-02-26T16:15:17Z</time>
      </trkpt>
      <trkpt lat="42.78618" lon="0.24575">
        <ele>1090</ele>
        <time>2019-02-26T16:15:19Z</time>
      </trkpt>
      <trkpt lat="42.78619" lon="0.24577">
        <ele>1090</ele>
        <time>2019-02-26T16:15:20Z</time>
      </trkpt>
      <trkpt lat="42.7862" lon="0.24578">
        <ele>1089</ele>
        <time>2019-02-26T16:15:21Z</time>
      </trkpt>
      <trkpt lat="42.78621" lon="0.2458">
        <ele>1089</ele>
        <time>2019-02-26T16:15:22Z</time>
      </trkpt>
      <trkpt lat="42.78621" lon="0.24583">
        <ele>1089</ele>
        <time>2019-02-26T16:15:24Z</time>
      </trkpt>
      <trkpt lat="42.78622" lon="0.2459">
        <ele>1089</ele>
        <time>2019-02-26T16:15:28Z</time>
      </trkpt>
      <trkpt lat="42.78623" lon="0.24593">
        <ele>1089</ele>
        <time>2019-02-26T16:15:30Z</time>
      </trkpt>
      <trkpt lat="42.78625" lon="0.24596">
        <ele>1088</ele>
        <time>2019-02-26T16:15:32Z</time>
      </trkpt>
      <trkpt lat="42.78628" lon="0.24601">
        <ele>1087</ele>
        <time>2019-02-26T16:15:36Z</time>
      </trkpt>
      <trkpt lat="42.78629" lon="0.24604">
        <ele>1087</ele>
        <time>2019-02-26T16:15:38Z</time>
      </trkpt>
      <trkpt lat="42.7863" lon="0.24607">
        <ele>1087</ele>
        <time>2019-02-26T16:15:40Z</time>
      </trkpt>
      <trkpt lat="42.78631" lon="0.24612">
        <ele>1086</ele>
        <time>2019-02-26T16:15:44Z</time>
      </trkpt>
      <trkpt lat="42.78633" lon="0.24615">
        <ele>1086</ele>
        <time>2019-02-26T16:15:46Z</time>
      </trkpt>
      <trkpt lat="42.78634" lon="0.24618">
        <ele>1086</ele>
        <time>2019-02-26T16:15:48Z</time>
      </trkpt>
      <trkpt lat="42.78636" lon="0.24624">
        <ele>1087</ele>
        <time>2019-02-26T16:15:52Z</time>
      </trkpt>
      <trkpt lat="42.78638" lon="0.2463">
        <ele>1085</ele>
        <time>2019-02-26T16:15:56Z</time>
      </trkpt>
      <trkpt lat="42.78639" lon="0.24633">
        <ele>1086</ele>
        <time>2019-02-26T16:15:58Z</time>
      </trkpt>
      <trkpt lat="42.78641" lon="0.24637">
        <ele>1086</ele>
        <time>2019-02-26T16:16:01Z</time>
      </trkpt>
      <trkpt lat="42.78642" lon="0.24639">
        <ele>1086</ele>
        <time>2019-02-26T16:16:03Z</time>
      </trkpt>
      <trkpt lat="42.78644" lon="0.24642">
        <ele>1086</ele>
        <time>2019-02-26T16:16:05Z</time>
      </trkpt>
      <trkpt lat="42.78644" lon="0.24644">
        <ele>1085</ele>
        <time>2019-02-26T16:16:07Z</time>
      </trkpt>
      <trkpt lat="42.78645" lon="0.24647">
        <ele>1084</ele>
        <time>2019-02-26T16:16:09Z</time>
      </trkpt>
      <trkpt lat="42.78647" lon="0.2465">
        <ele>1084</ele>
        <time>2019-02-26T16:16:11Z</time>
      </trkpt>
      <trkpt lat="42.78648" lon="0.24653">
        <ele>1084</ele>
        <time>2019-02-26T16:16:13Z</time>
      </trkpt>
      <trkpt lat="42.78649" lon="0.24656">
        <ele>1084</ele>
        <time>2019-02-26T16:16:15Z</time>
      </trkpt>
      <trkpt lat="42.7865" lon="0.24659">
        <ele>1084</ele>
        <time>2019-02-26T16:16:17Z</time>
      </trkpt>
      <trkpt lat="42.78651" lon="0.24662">
        <ele>1084</ele>
        <time>2019-02-26T16:16:19Z</time>
      </trkpt>
      <trkpt lat="42.78654" lon="0.24671">
        <ele>1082</ele>
        <time>2019-02-26T16:16:25Z</time>
      </trkpt>
      <trkpt lat="42.78656" lon="0.24674">
        <ele>1082</ele>
        <time>2019-02-26T16:16:27Z</time>
      </trkpt>
      <trkpt lat="42.78658" lon="0.2468">
        <ele>1082</ele>
        <time>2019-02-26T16:16:31Z</time>
      </trkpt>
      <trkpt lat="42.7866" lon="0.24683">
        <ele>1082</ele>
        <time>2019-02-26T16:16:33Z</time>
      </trkpt>
      <trkpt lat="42.78661" lon="0.24685">
        <ele>1081</ele>
        <time>2019-02-26T16:16:35Z</time>
      </trkpt>
      <trkpt lat="42.78664" lon="0.24686">
        <ele>1081</ele>
        <time>2019-02-26T16:16:37Z</time>
      </trkpt>
      <trkpt lat="42.78666" lon="0.24686">
        <ele>1081</ele>
        <time>2019-02-26T16:16:39Z</time>
      </trkpt>
      <trkpt lat="42.78673" lon="0.24686">
        <ele>1080</ele>
        <time>2019-02-26T16:16:45Z</time>
      </trkpt>
      <trkpt lat="42.78676" lon="0.24685">
        <ele>1080</ele>
        <time>2019-02-26T16:16:47Z</time>
      </trkpt>
      <trkpt lat="42.78681" lon="0.24685">
        <ele>1080</ele>
        <time>2019-02-26T16:16:51Z</time>
      </trkpt>
      <trkpt lat="42.78683" lon="0.24684">
        <ele>1080</ele>
        <time>2019-02-26T16:16:53Z</time>
      </trkpt>
      <trkpt lat="42.78685" lon="0.24684">
        <ele>1079</ele>
        <time>2019-02-26T16:16:55Z</time>
      </trkpt>
      <trkpt lat="42.78688" lon="0.24683">
        <ele>1079</ele>
        <time>2019-02-26T16:16:57Z</time>
      </trkpt>
      <trkpt lat="42.7869" lon="0.24682">
        <ele>1079</ele>
        <time>2019-02-26T16:16:59Z</time>
      </trkpt>
      <trkpt lat="42.78695" lon="0.24681">
        <ele>1080</ele>
        <time>2019-02-26T16:17:03Z</time>
      </trkpt>
      <trkpt lat="42.78697" lon="0.24681">
        <ele>1080</ele>
        <time>2019-02-26T16:17:05Z</time>
      </trkpt>
    </trkseg>
  </trk>
</gpx>